<?xml version="1.0" encoding="UTF-8" standalone="no" ?>
<gpx xmlns="http://www.topografix.com/GPX/1/1" xmlns:xsi="http://www.w3.org/2001/XMLSchema-instance" xsi:schemaLocation="http://www.topografix.com/GPX/1/1 http://www.topografix.com/GPX/1/1/gpx.xsd" version="1.1" creator="VisuGPX - https://www.visugpx.com">
  <metadata>
    <name>défilé GR69 du 11 novembre 2011</name>
    <desc><![CDATA[Sortie GR69 du 11 novembre 2011]]></desc>
  </metadata>
  <trk>
    <name><![CDATA[2011-11-11T08:08:43Z]]></name>
    <trkseg>
      <trkpt lat="45.87327" lon="4.77069">
        <ele>233.7</ele>
        <time>2011-11-11T08:08:43Z</time>
      </trkpt>
      <trkpt lat="45.8733" lon="4.77078">
        <ele>273.8</ele>
        <time>2011-11-11T08:08:58Z</time>
      </trkpt>
      <trkpt lat="45.8733" lon="4.77079">
        <ele>273.8</ele>
        <time>2011-11-11T08:08:59Z</time>
      </trkpt>
      <trkpt lat="45.87331" lon="4.77081">
        <ele>273</ele>
        <time>2011-11-11T08:09:03Z</time>
      </trkpt>
      <trkpt lat="45.8733" lon="4.77082">
        <ele>272.8</ele>
        <time>2011-11-11T08:09:05Z</time>
      </trkpt>
      <trkpt lat="45.87332" lon="4.77093">
        <ele>271.8</ele>
        <time>2011-11-11T08:09:10Z</time>
      </trkpt>
      <trkpt lat="45.87334" lon="4.77103">
        <ele>271</ele>
        <time>2011-11-11T08:09:14Z</time>
      </trkpt>
      <trkpt lat="45.8733" lon="4.77118">
        <ele>269.8</ele>
        <time>2011-11-11T08:09:19Z</time>
      </trkpt>
      <trkpt lat="45.87327" lon="4.77118">
        <ele>269.8</ele>
        <time>2011-11-11T08:09:20Z</time>
      </trkpt>
      <trkpt lat="45.87322" lon="4.77122">
        <ele>269.2</ele>
        <time>2011-11-11T08:09:23Z</time>
      </trkpt>
      <trkpt lat="45.87317" lon="4.77123">
        <ele>268.4</ele>
        <time>2011-11-11T08:09:27Z</time>
      </trkpt>
      <trkpt lat="45.87312" lon="4.77124">
        <ele>268</ele>
        <time>2011-11-11T08:09:29Z</time>
      </trkpt>
      <trkpt lat="45.87306" lon="4.77128">
        <ele>267.4</ele>
        <time>2011-11-11T08:09:32Z</time>
      </trkpt>
      <trkpt lat="45.87293" lon="4.77132">
        <ele>266.4</ele>
        <time>2011-11-11T08:09:37Z</time>
      </trkpt>
      <trkpt lat="45.87273" lon="4.77132">
        <ele>264.8</ele>
        <time>2011-11-11T08:09:46Z</time>
      </trkpt>
      <trkpt lat="45.87262" lon="4.77133">
        <ele>264</ele>
        <time>2011-11-11T08:09:51Z</time>
      </trkpt>
      <trkpt lat="45.87252" lon="4.77135">
        <ele>263.6</ele>
        <time>2011-11-11T08:09:55Z</time>
      </trkpt>
      <trkpt lat="45.8725" lon="4.77134">
        <ele>263.4</ele>
        <time>2011-11-11T08:09:56Z</time>
      </trkpt>
      <trkpt lat="45.87236" lon="4.77133">
        <ele>262.8</ele>
        <time>2011-11-11T08:10:02Z</time>
      </trkpt>
      <trkpt lat="45.87234" lon="4.77133">
        <ele>262.6</ele>
        <time>2011-11-11T08:10:03Z</time>
      </trkpt>
      <trkpt lat="45.87224" lon="4.77132">
        <ele>262.4</ele>
        <time>2011-11-11T08:10:07Z</time>
      </trkpt>
      <trkpt lat="45.87222" lon="4.77132">
        <ele>262.4</ele>
        <time>2011-11-11T08:10:08Z</time>
      </trkpt>
      <trkpt lat="45.87215" lon="4.77133">
        <ele>262.2</ele>
        <time>2011-11-11T08:10:11Z</time>
      </trkpt>
      <trkpt lat="45.87211" lon="4.77133">
        <ele>262.2</ele>
        <time>2011-11-11T08:10:13Z</time>
      </trkpt>
      <trkpt lat="45.87205" lon="4.77136">
        <ele>262</ele>
        <time>2011-11-11T08:10:16Z</time>
      </trkpt>
      <trkpt lat="45.87196" lon="4.77137">
        <ele>262</ele>
        <time>2011-11-11T08:10:21Z</time>
      </trkpt>
      <trkpt lat="45.87186" lon="4.77137">
        <ele>261.8</ele>
        <time>2011-11-11T08:10:27Z</time>
      </trkpt>
      <trkpt lat="45.87177" lon="4.7714">
        <ele>261.8</ele>
        <time>2011-11-11T08:10:31Z</time>
      </trkpt>
      <trkpt lat="45.87175" lon="4.7714">
        <ele>261.8</ele>
        <time>2011-11-11T08:10:32Z</time>
      </trkpt>
      <trkpt lat="45.87165" lon="4.77133">
        <ele>261.8</ele>
        <time>2011-11-11T08:10:38Z</time>
      </trkpt>
      <trkpt lat="45.87151" lon="4.77067">
        <ele>263</ele>
        <time>2011-11-11T08:10:54Z</time>
      </trkpt>
      <trkpt lat="45.87149" lon="4.77064">
        <ele>263.2</ele>
        <time>2011-11-11T08:10:56Z</time>
      </trkpt>
      <trkpt lat="45.87149" lon="4.77062">
        <ele>263.4</ele>
        <time>2011-11-11T08:10:57Z</time>
      </trkpt>
      <trkpt lat="45.87157" lon="4.77037">
        <ele>264.8</ele>
        <time>2011-11-11T08:11:05Z</time>
      </trkpt>
      <trkpt lat="45.87156" lon="4.77035">
        <ele>265</ele>
        <time>2011-11-11T08:11:06Z</time>
      </trkpt>
      <trkpt lat="45.87152" lon="4.77031">
        <ele>265</ele>
        <time>2011-11-11T08:11:08Z</time>
      </trkpt>
      <trkpt lat="45.87152" lon="4.77026">
        <ele>264.6</ele>
        <time>2011-11-11T08:11:10Z</time>
      </trkpt>
      <trkpt lat="45.87148" lon="4.77011">
        <ele>264.6</ele>
        <time>2011-11-11T08:11:14Z</time>
      </trkpt>
      <trkpt lat="45.87147" lon="4.77008">
        <ele>264.6</ele>
        <time>2011-11-11T08:11:15Z</time>
      </trkpt>
      <trkpt lat="45.87143" lon="4.76992">
        <ele>264.2</ele>
        <time>2011-11-11T08:11:20Z</time>
      </trkpt>
      <trkpt lat="45.87143" lon="4.76984">
        <ele>264.2</ele>
        <time>2011-11-11T08:11:22Z</time>
      </trkpt>
      <trkpt lat="45.87144" lon="4.76975">
        <ele>264</ele>
        <time>2011-11-11T08:11:25Z</time>
      </trkpt>
      <trkpt lat="45.87142" lon="4.76956">
        <ele>263.8</ele>
        <time>2011-11-11T08:11:30Z</time>
      </trkpt>
      <trkpt lat="45.87142" lon="4.76933">
        <ele>263.8</ele>
        <time>2011-11-11T08:11:37Z</time>
      </trkpt>
      <trkpt lat="45.87142" lon="4.7693">
        <ele>263.6</ele>
        <time>2011-11-11T08:11:38Z</time>
      </trkpt>
      <trkpt lat="45.87141" lon="4.7692">
        <ele>263.6</ele>
        <time>2011-11-11T08:11:41Z</time>
      </trkpt>
      <trkpt lat="45.8714" lon="4.76903">
        <ele>263.6</ele>
        <time>2011-11-11T08:11:46Z</time>
      </trkpt>
      <trkpt lat="45.87139" lon="4.769">
        <ele>263.6</ele>
        <time>2011-11-11T08:11:47Z</time>
      </trkpt>
      <trkpt lat="45.87139" lon="4.76885">
        <ele>264</ele>
        <time>2011-11-11T08:11:52Z</time>
      </trkpt>
      <trkpt lat="45.87137" lon="4.76876">
        <ele>264.6</ele>
        <time>2011-11-11T08:11:55Z</time>
      </trkpt>
      <trkpt lat="45.87136" lon="4.76868">
        <ele>265.6</ele>
        <time>2011-11-11T08:11:57Z</time>
      </trkpt>
      <trkpt lat="45.87128" lon="4.76852">
        <ele>267.2</ele>
        <time>2011-11-11T08:12:01Z</time>
      </trkpt>
      <trkpt lat="45.87126" lon="4.76848">
        <ele>267.8</ele>
        <time>2011-11-11T08:12:02Z</time>
      </trkpt>
      <trkpt lat="45.87114" lon="4.76836">
        <ele>271.2</ele>
        <time>2011-11-11T08:12:07Z</time>
      </trkpt>
      <trkpt lat="45.87112" lon="4.76837">
        <ele>271.4</ele>
        <time>2011-11-11T08:12:08Z</time>
      </trkpt>
      <trkpt lat="45.87096" lon="4.7684">
        <ele>273.4</ele>
        <time>2011-11-11T08:12:14Z</time>
      </trkpt>
      <trkpt lat="45.87083" lon="4.7684">
        <ele>274</ele>
        <time>2011-11-11T08:12:20Z</time>
      </trkpt>
      <trkpt lat="45.87077" lon="4.7684">
        <ele>274</ele>
        <time>2011-11-11T08:12:23Z</time>
      </trkpt>
      <trkpt lat="45.87072" lon="4.76841">
        <ele>273.8</ele>
        <time>2011-11-11T08:12:26Z</time>
      </trkpt>
      <trkpt lat="45.87058" lon="4.76842">
        <ele>273.6</ele>
        <time>2011-11-11T08:12:34Z</time>
      </trkpt>
      <trkpt lat="45.87056" lon="4.76842">
        <ele>273.4</ele>
        <time>2011-11-11T08:12:35Z</time>
      </trkpt>
      <trkpt lat="45.87044" lon="4.7684">
        <ele>273.4</ele>
        <time>2011-11-11T08:12:40Z</time>
      </trkpt>
      <trkpt lat="45.87041" lon="4.76837">
        <ele>273.2</ele>
        <time>2011-11-11T08:12:43Z</time>
      </trkpt>
      <trkpt lat="45.87038" lon="4.76836">
        <ele>273.2</ele>
        <time>2011-11-11T08:12:44Z</time>
      </trkpt>
      <trkpt lat="45.87027" lon="4.76831">
        <ele>273.2</ele>
        <time>2011-11-11T08:12:51Z</time>
      </trkpt>
      <trkpt lat="45.87022" lon="4.76831">
        <ele>273.8</ele>
        <time>2011-11-11T08:12:53Z</time>
      </trkpt>
      <trkpt lat="45.87013" lon="4.76825">
        <ele>274.2</ele>
        <time>2011-11-11T08:12:57Z</time>
      </trkpt>
      <trkpt lat="45.87005" lon="4.76823">
        <ele>274.6</ele>
        <time>2011-11-11T08:13:01Z</time>
      </trkpt>
      <trkpt lat="45.87001" lon="4.76821">
        <ele>274.6</ele>
        <time>2011-11-11T08:13:03Z</time>
      </trkpt>
      <trkpt lat="45.86989" lon="4.76815">
        <ele>274.6</ele>
        <time>2011-11-11T08:13:09Z</time>
      </trkpt>
      <trkpt lat="45.86987" lon="4.76814">
        <ele>274.6</ele>
        <time>2011-11-11T08:13:10Z</time>
      </trkpt>
      <trkpt lat="45.86981" lon="4.76811">
        <ele>274.6</ele>
        <time>2011-11-11T08:13:14Z</time>
      </trkpt>
      <trkpt lat="45.86972" lon="4.76815">
        <ele>274.4</ele>
        <time>2011-11-11T08:13:20Z</time>
      </trkpt>
      <trkpt lat="45.8697" lon="4.76818">
        <ele>274.4</ele>
        <time>2011-11-11T08:13:22Z</time>
      </trkpt>
      <trkpt lat="45.86968" lon="4.76828">
        <ele>274.2</ele>
        <time>2011-11-11T08:13:26Z</time>
      </trkpt>
      <trkpt lat="45.86969" lon="4.76842">
        <ele>274</ele>
        <time>2011-11-11T08:13:31Z</time>
      </trkpt>
      <trkpt lat="45.86968" lon="4.76854">
        <ele>274</ele>
        <time>2011-11-11T08:13:35Z</time>
      </trkpt>
      <trkpt lat="45.86968" lon="4.76868">
        <ele>273.8</ele>
        <time>2011-11-11T08:13:40Z</time>
      </trkpt>
      <trkpt lat="45.86969" lon="4.76883">
        <ele>273.6</ele>
        <time>2011-11-11T08:13:45Z</time>
      </trkpt>
      <trkpt lat="45.86969" lon="4.76895">
        <ele>273.6</ele>
        <time>2011-11-11T08:13:49Z</time>
      </trkpt>
      <trkpt lat="45.86968" lon="4.76904">
        <ele>273.8</ele>
        <time>2011-11-11T08:13:52Z</time>
      </trkpt>
      <trkpt lat="45.86966" lon="4.76907">
        <ele>274</ele>
        <time>2011-11-11T08:13:53Z</time>
      </trkpt>
      <trkpt lat="45.86963" lon="4.76914">
        <ele>274</ele>
        <time>2011-11-11T08:13:56Z</time>
      </trkpt>
      <trkpt lat="45.8696" lon="4.76918">
        <ele>274.2</ele>
        <time>2011-11-11T08:13:58Z</time>
      </trkpt>
      <trkpt lat="45.86954" lon="4.76925">
        <ele>274.6</ele>
        <time>2011-11-11T08:14:02Z</time>
      </trkpt>
      <trkpt lat="45.86945" lon="4.76935">
        <ele>275.8</ele>
        <time>2011-11-11T08:14:08Z</time>
      </trkpt>
      <trkpt lat="45.86943" lon="4.76936">
        <ele>276</ele>
        <time>2011-11-11T08:14:09Z</time>
      </trkpt>
      <trkpt lat="45.86933" lon="4.76944">
        <ele>277.6</ele>
        <time>2011-11-11T08:14:15Z</time>
      </trkpt>
      <trkpt lat="45.86928" lon="4.76947">
        <ele>277.8</ele>
        <time>2011-11-11T08:14:18Z</time>
      </trkpt>
      <trkpt lat="45.8692" lon="4.76948">
        <ele>279.2</ele>
        <time>2011-11-11T08:14:21Z</time>
      </trkpt>
      <trkpt lat="45.86916" lon="4.76946">
        <ele>279.4</ele>
        <time>2011-11-11T08:14:22Z</time>
      </trkpt>
      <trkpt lat="45.8691" lon="4.76944">
        <ele>280.8</ele>
        <time>2011-11-11T08:14:26Z</time>
      </trkpt>
      <trkpt lat="45.86898" lon="4.76937">
        <ele>282.8</ele>
        <time>2011-11-11T08:14:32Z</time>
      </trkpt>
      <trkpt lat="45.86893" lon="4.76933">
        <ele>283.6</ele>
        <time>2011-11-11T08:14:35Z</time>
      </trkpt>
      <trkpt lat="45.86888" lon="4.7693">
        <ele>284.2</ele>
        <time>2011-11-11T08:14:37Z</time>
      </trkpt>
      <trkpt lat="45.86878" lon="4.76924">
        <ele>284.8</ele>
        <time>2011-11-11T08:14:42Z</time>
      </trkpt>
      <trkpt lat="45.86876" lon="4.76923">
        <ele>285.2</ele>
        <time>2011-11-11T08:14:44Z</time>
      </trkpt>
      <trkpt lat="45.86868" lon="4.76918">
        <ele>286.2</ele>
        <time>2011-11-11T08:14:48Z</time>
      </trkpt>
      <trkpt lat="45.86858" lon="4.76912">
        <ele>287.2</ele>
        <time>2011-11-11T08:14:54Z</time>
      </trkpt>
      <trkpt lat="45.8685" lon="4.76908">
        <ele>287.8</ele>
        <time>2011-11-11T08:14:59Z</time>
      </trkpt>
      <trkpt lat="45.86841" lon="4.76905">
        <ele>288.4</ele>
        <time>2011-11-11T08:15:04Z</time>
      </trkpt>
      <trkpt lat="45.86839" lon="4.76904">
        <ele>288.6</ele>
        <time>2011-11-11T08:15:05Z</time>
      </trkpt>
      <trkpt lat="45.86827" lon="4.76901">
        <ele>288.8</ele>
        <time>2011-11-11T08:15:12Z</time>
      </trkpt>
      <trkpt lat="45.86823" lon="4.76899">
        <ele>288.6</ele>
        <time>2011-11-11T08:15:15Z</time>
      </trkpt>
      <trkpt lat="45.86815" lon="4.76896">
        <ele>289</ele>
        <time>2011-11-11T08:15:19Z</time>
      </trkpt>
      <trkpt lat="45.86804" lon="4.76891">
        <ele>290</ele>
        <time>2011-11-11T08:15:24Z</time>
      </trkpt>
      <trkpt lat="45.86797" lon="4.76886">
        <ele>291</ele>
        <time>2011-11-11T08:15:28Z</time>
      </trkpt>
      <trkpt lat="45.86787" lon="4.7688">
        <ele>292.6</ele>
        <time>2011-11-11T08:15:33Z</time>
      </trkpt>
      <trkpt lat="45.86784" lon="4.76878">
        <ele>293</ele>
        <time>2011-11-11T08:15:35Z</time>
      </trkpt>
      <trkpt lat="45.86773" lon="4.76871">
        <ele>294.8</ele>
        <time>2011-11-11T08:15:41Z</time>
      </trkpt>
      <trkpt lat="45.86769" lon="4.76869">
        <ele>295.2</ele>
        <time>2011-11-11T08:15:43Z</time>
      </trkpt>
      <trkpt lat="45.86761" lon="4.76867">
        <ele>297</ele>
        <time>2011-11-11T08:15:47Z</time>
      </trkpt>
      <trkpt lat="45.8675" lon="4.76873">
        <ele>301.2</ele>
        <time>2011-11-11T08:15:55Z</time>
      </trkpt>
      <trkpt lat="45.86748" lon="4.76874">
        <ele>302.4</ele>
        <time>2011-11-11T08:15:58Z</time>
      </trkpt>
      <trkpt lat="45.86746" lon="4.76874">
        <ele>303.4</ele>
        <time>2011-11-11T08:16:00Z</time>
      </trkpt>
      <trkpt lat="45.86743" lon="4.76874">
        <ele>304.4</ele>
        <time>2011-11-11T08:16:03Z</time>
      </trkpt>
      <trkpt lat="45.86739" lon="4.76873">
        <ele>306</ele>
        <time>2011-11-11T08:16:08Z</time>
      </trkpt>
      <trkpt lat="45.86736" lon="4.76872">
        <ele>307.2</ele>
        <time>2011-11-11T08:16:12Z</time>
      </trkpt>
      <trkpt lat="45.86734" lon="4.76871">
        <ele>307.6</ele>
        <time>2011-11-11T08:16:14Z</time>
      </trkpt>
      <trkpt lat="45.86732" lon="4.76871">
        <ele>307.8</ele>
        <time>2011-11-11T08:16:15Z</time>
      </trkpt>
      <trkpt lat="45.86728" lon="4.76869">
        <ele>309</ele>
        <time>2011-11-11T08:16:18Z</time>
      </trkpt>
      <trkpt lat="45.86726" lon="4.76869">
        <ele>309.2</ele>
        <time>2011-11-11T08:16:19Z</time>
      </trkpt>
      <trkpt lat="45.86722" lon="4.76869">
        <ele>309.8</ele>
        <time>2011-11-11T08:16:23Z</time>
      </trkpt>
      <trkpt lat="45.86721" lon="4.76869">
        <ele>309.8</ele>
        <time>2011-11-11T08:16:24Z</time>
      </trkpt>
      <trkpt lat="45.86718" lon="4.76872">
        <ele>309.8</ele>
        <time>2011-11-11T08:16:29Z</time>
      </trkpt>
      <trkpt lat="45.86717" lon="4.76873">
        <ele>309.8</ele>
        <time>2011-11-11T08:16:30Z</time>
      </trkpt>
      <trkpt lat="45.86716" lon="4.76875">
        <ele>309.8</ele>
        <time>2011-11-11T08:16:32Z</time>
      </trkpt>
      <trkpt lat="45.86714" lon="4.76879">
        <ele>309.8</ele>
        <time>2011-11-11T08:16:34Z</time>
      </trkpt>
      <trkpt lat="45.86707" lon="4.76895">
        <ele>309.4</ele>
        <time>2011-11-11T08:16:44Z</time>
      </trkpt>
      <trkpt lat="45.86705" lon="4.76898">
        <ele>309.2</ele>
        <time>2011-11-11T08:16:47Z</time>
      </trkpt>
      <trkpt lat="45.86702" lon="4.76903">
        <ele>309</ele>
        <time>2011-11-11T08:16:51Z</time>
      </trkpt>
      <trkpt lat="45.86696" lon="4.76907">
        <ele>309.2</ele>
        <time>2011-11-11T08:16:56Z</time>
      </trkpt>
      <trkpt lat="45.86693" lon="4.7691">
        <ele>309.4</ele>
        <time>2011-11-11T08:16:58Z</time>
      </trkpt>
      <trkpt lat="45.86691" lon="4.76915">
        <ele>309.6</ele>
        <time>2011-11-11T08:17:01Z</time>
      </trkpt>
      <trkpt lat="45.8669" lon="4.76918">
        <ele>309.6</ele>
        <time>2011-11-11T08:17:02Z</time>
      </trkpt>
      <trkpt lat="45.86682" lon="4.76924">
        <ele>310</ele>
        <time>2011-11-11T08:17:10Z</time>
      </trkpt>
      <trkpt lat="45.86676" lon="4.7693">
        <ele>310</ele>
        <time>2011-11-11T08:17:16Z</time>
      </trkpt>
      <trkpt lat="45.86675" lon="4.7693">
        <ele>310</ele>
        <time>2011-11-11T08:17:17Z</time>
      </trkpt>
      <trkpt lat="45.8666" lon="4.7694">
        <ele>310.8</ele>
        <time>2011-11-11T08:17:27Z</time>
      </trkpt>
      <trkpt lat="45.86659" lon="4.76941">
        <ele>311</ele>
        <time>2011-11-11T08:17:28Z</time>
      </trkpt>
      <trkpt lat="45.86648" lon="4.7695">
        <ele>312.6</ele>
        <time>2011-11-11T08:17:36Z</time>
      </trkpt>
      <trkpt lat="45.86643" lon="4.76953">
        <ele>313.2</ele>
        <time>2011-11-11T08:17:39Z</time>
      </trkpt>
      <trkpt lat="45.86636" lon="4.76957">
        <ele>313.6</ele>
        <time>2011-11-11T08:17:42Z</time>
      </trkpt>
      <trkpt lat="45.86634" lon="4.76958">
        <ele>313.4</ele>
        <time>2011-11-11T08:17:44Z</time>
      </trkpt>
      <trkpt lat="45.86632" lon="4.76961">
        <ele>313.6</ele>
        <time>2011-11-11T08:17:46Z</time>
      </trkpt>
      <trkpt lat="45.86626" lon="4.76966">
        <ele>313.4</ele>
        <time>2011-11-11T08:17:51Z</time>
      </trkpt>
      <trkpt lat="45.86624" lon="4.76967">
        <ele>313.4</ele>
        <time>2011-11-11T08:17:52Z</time>
      </trkpt>
      <trkpt lat="45.86614" lon="4.76969">
        <ele>314.2</ele>
        <time>2011-11-11T08:17:56Z</time>
      </trkpt>
      <trkpt lat="45.86612" lon="4.7697">
        <ele>314.2</ele>
        <time>2011-11-11T08:17:57Z</time>
      </trkpt>
      <trkpt lat="45.86607" lon="4.76972">
        <ele>314.8</ele>
        <time>2011-11-11T08:17:59Z</time>
      </trkpt>
      <trkpt lat="45.86602" lon="4.76976">
        <ele>315.6</ele>
        <time>2011-11-11T08:18:01Z</time>
      </trkpt>
      <trkpt lat="45.86598" lon="4.76978">
        <ele>316.8</ele>
        <time>2011-11-11T08:18:03Z</time>
      </trkpt>
      <trkpt lat="45.8659" lon="4.76981">
        <ele>318.2</ele>
        <time>2011-11-11T08:18:08Z</time>
      </trkpt>
      <trkpt lat="45.86589" lon="4.76982">
        <ele>318.2</ele>
        <time>2011-11-11T08:18:09Z</time>
      </trkpt>
      <trkpt lat="45.86583" lon="4.76984">
        <ele>319</ele>
        <time>2011-11-11T08:18:13Z</time>
      </trkpt>
      <trkpt lat="45.86581" lon="4.76988">
        <ele>319</ele>
        <time>2011-11-11T08:18:17Z</time>
      </trkpt>
      <trkpt lat="45.8658" lon="4.7699">
        <ele>319.2</ele>
        <time>2011-11-11T08:18:19Z</time>
      </trkpt>
      <trkpt lat="45.86573" lon="4.76992">
        <ele>319</ele>
        <time>2011-11-11T08:18:23Z</time>
      </trkpt>
      <trkpt lat="45.8657" lon="4.76993">
        <ele>319</ele>
        <time>2011-11-11T08:18:25Z</time>
      </trkpt>
      <trkpt lat="45.86556" lon="4.76995">
        <ele>318.6</ele>
        <time>2011-11-11T08:18:31Z</time>
      </trkpt>
      <trkpt lat="45.86554" lon="4.76995">
        <ele>318.4</ele>
        <time>2011-11-11T08:18:32Z</time>
      </trkpt>
      <trkpt lat="45.86546" lon="4.76998">
        <ele>318.2</ele>
        <time>2011-11-11T08:18:35Z</time>
      </trkpt>
      <trkpt lat="45.86544" lon="4.77001">
        <ele>318</ele>
        <time>2011-11-11T08:18:37Z</time>
      </trkpt>
      <trkpt lat="45.86541" lon="4.77003">
        <ele>317.8</ele>
        <time>2011-11-11T08:18:39Z</time>
      </trkpt>
      <trkpt lat="45.86537" lon="4.77008">
        <ele>317.4</ele>
        <time>2011-11-11T08:18:42Z</time>
      </trkpt>
      <trkpt lat="45.86534" lon="4.77009">
        <ele>317</ele>
        <time>2011-11-11T08:18:44Z</time>
      </trkpt>
      <trkpt lat="45.86522" lon="4.77017">
        <ele>315.6</ele>
        <time>2011-11-11T08:18:52Z</time>
      </trkpt>
      <trkpt lat="45.86519" lon="4.77016">
        <ele>315.6</ele>
        <time>2011-11-11T08:18:53Z</time>
      </trkpt>
      <trkpt lat="45.86512" lon="4.77019">
        <ele>315.2</ele>
        <time>2011-11-11T08:18:56Z</time>
      </trkpt>
      <trkpt lat="45.86512" lon="4.77019">
        <ele>315</ele>
        <time>2011-11-11T08:18:57Z</time>
      </trkpt>
      <trkpt lat="45.86512" lon="4.77021">
        <ele>314.8</ele>
        <time>2011-11-11T08:18:58Z</time>
      </trkpt>
      <trkpt lat="45.86506" lon="4.77026">
        <ele>314.2</ele>
        <time>2011-11-11T08:19:01Z</time>
      </trkpt>
      <trkpt lat="45.86501" lon="4.7703">
        <ele>313.6</ele>
        <time>2011-11-11T08:19:04Z</time>
      </trkpt>
      <trkpt lat="45.865" lon="4.77033">
        <ele>313</ele>
        <time>2011-11-11T08:19:07Z</time>
      </trkpt>
      <trkpt lat="45.86489" lon="4.77038">
        <ele>311.8</ele>
        <time>2011-11-11T08:19:14Z</time>
      </trkpt>
      <trkpt lat="45.86484" lon="4.77043">
        <ele>311</ele>
        <time>2011-11-11T08:19:21Z</time>
      </trkpt>
      <trkpt lat="45.8648" lon="4.77048">
        <ele>310.6</ele>
        <time>2011-11-11T08:19:25Z</time>
      </trkpt>
      <trkpt lat="45.86478" lon="4.7705">
        <ele>310.4</ele>
        <time>2011-11-11T08:19:28Z</time>
      </trkpt>
      <trkpt lat="45.86472" lon="4.77052">
        <ele>310</ele>
        <time>2011-11-11T08:19:32Z</time>
      </trkpt>
      <trkpt lat="45.8647" lon="4.77053">
        <ele>310</ele>
        <time>2011-11-11T08:19:33Z</time>
      </trkpt>
      <trkpt lat="45.86468" lon="4.77053">
        <ele>309.8</ele>
        <time>2011-11-11T08:19:35Z</time>
      </trkpt>
      <trkpt lat="45.86466" lon="4.77053">
        <ele>309.6</ele>
        <time>2011-11-11T08:19:37Z</time>
      </trkpt>
      <trkpt lat="45.86457" lon="4.77056">
        <ele>309.2</ele>
        <time>2011-11-11T08:19:42Z</time>
      </trkpt>
      <trkpt lat="45.8645" lon="4.77057">
        <ele>308.8</ele>
        <time>2011-11-11T08:19:46Z</time>
      </trkpt>
      <trkpt lat="45.86446" lon="4.77059">
        <ele>308.6</ele>
        <time>2011-11-11T08:19:48Z</time>
      </trkpt>
      <trkpt lat="45.86439" lon="4.77063">
        <ele>308.4</ele>
        <time>2011-11-11T08:19:52Z</time>
      </trkpt>
      <trkpt lat="45.86436" lon="4.77064">
        <ele>308.4</ele>
        <time>2011-11-11T08:19:53Z</time>
      </trkpt>
      <trkpt lat="45.86433" lon="4.77066">
        <ele>308.2</ele>
        <time>2011-11-11T08:19:55Z</time>
      </trkpt>
      <trkpt lat="45.86427" lon="4.7707">
        <ele>307.8</ele>
        <time>2011-11-11T08:19:59Z</time>
      </trkpt>
      <trkpt lat="45.86425" lon="4.77072">
        <ele>307.8</ele>
        <time>2011-11-11T08:20:00Z</time>
      </trkpt>
      <trkpt lat="45.86419" lon="4.77076">
        <ele>307.6</ele>
        <time>2011-11-11T08:20:04Z</time>
      </trkpt>
      <trkpt lat="45.86418" lon="4.77078">
        <ele>307.6</ele>
        <time>2011-11-11T08:20:05Z</time>
      </trkpt>
      <trkpt lat="45.86415" lon="4.77079">
        <ele>307.6</ele>
        <time>2011-11-11T08:20:06Z</time>
      </trkpt>
      <trkpt lat="45.86412" lon="4.77081">
        <ele>307.6</ele>
        <time>2011-11-11T08:20:08Z</time>
      </trkpt>
      <trkpt lat="45.86408" lon="4.77082">
        <ele>307.6</ele>
        <time>2011-11-11T08:20:10Z</time>
      </trkpt>
      <trkpt lat="45.86399" lon="4.77085">
        <ele>307.4</ele>
        <time>2011-11-11T08:20:15Z</time>
      </trkpt>
      <trkpt lat="45.86397" lon="4.77086">
        <ele>307.4</ele>
        <time>2011-11-11T08:20:16Z</time>
      </trkpt>
      <trkpt lat="45.86396" lon="4.77087">
        <ele>307.4</ele>
        <time>2011-11-11T08:20:17Z</time>
      </trkpt>
      <trkpt lat="45.86394" lon="4.77089">
        <ele>307.4</ele>
        <time>2011-11-11T08:20:19Z</time>
      </trkpt>
      <trkpt lat="45.86389" lon="4.77098">
        <ele>307.8</ele>
        <time>2011-11-11T08:20:28Z</time>
      </trkpt>
      <trkpt lat="45.86384" lon="4.771">
        <ele>308</ele>
        <time>2011-11-11T08:20:31Z</time>
      </trkpt>
      <trkpt lat="45.86381" lon="4.77103">
        <ele>307.8</ele>
        <time>2011-11-11T08:20:34Z</time>
      </trkpt>
      <trkpt lat="45.8638" lon="4.77103">
        <ele>307.8</ele>
        <time>2011-11-11T08:20:35Z</time>
      </trkpt>
      <trkpt lat="45.86372" lon="4.77112">
        <ele>307.8</ele>
        <time>2011-11-11T08:20:43Z</time>
      </trkpt>
      <trkpt lat="45.8637" lon="4.77112">
        <ele>307.8</ele>
        <time>2011-11-11T08:20:44Z</time>
      </trkpt>
      <trkpt lat="45.86366" lon="4.77116">
        <ele>307.8</ele>
        <time>2011-11-11T08:20:47Z</time>
      </trkpt>
      <trkpt lat="45.86365" lon="4.77117">
        <ele>307.8</ele>
        <time>2011-11-11T08:20:48Z</time>
      </trkpt>
      <trkpt lat="45.86364" lon="4.77118">
        <ele>307.8</ele>
        <time>2011-11-11T08:20:49Z</time>
      </trkpt>
      <trkpt lat="45.86361" lon="4.7712">
        <ele>308.2</ele>
        <time>2011-11-11T08:20:52Z</time>
      </trkpt>
      <trkpt lat="45.86359" lon="4.77123">
        <ele>308.4</ele>
        <time>2011-11-11T08:20:54Z</time>
      </trkpt>
      <trkpt lat="45.86353" lon="4.77128">
        <ele>309.4</ele>
        <time>2011-11-11T08:20:58Z</time>
      </trkpt>
      <trkpt lat="45.86349" lon="4.77132">
        <ele>310.4</ele>
        <time>2011-11-11T08:21:02Z</time>
      </trkpt>
      <trkpt lat="45.86348" lon="4.77133">
        <ele>310.8</ele>
        <time>2011-11-11T08:21:03Z</time>
      </trkpt>
      <trkpt lat="45.86346" lon="4.77134">
        <ele>311</ele>
        <time>2011-11-11T08:21:04Z</time>
      </trkpt>
      <trkpt lat="45.86345" lon="4.77135">
        <ele>311.4</ele>
        <time>2011-11-11T08:21:05Z</time>
      </trkpt>
      <trkpt lat="45.86343" lon="4.77136">
        <ele>312</ele>
        <time>2011-11-11T08:21:07Z</time>
      </trkpt>
      <trkpt lat="45.86338" lon="4.77141">
        <ele>313</ele>
        <time>2011-11-11T08:21:11Z</time>
      </trkpt>
      <trkpt lat="45.86332" lon="4.77145">
        <ele>314</ele>
        <time>2011-11-11T08:21:15Z</time>
      </trkpt>
      <trkpt lat="45.8633" lon="4.77148">
        <ele>314.6</ele>
        <time>2011-11-11T08:21:17Z</time>
      </trkpt>
      <trkpt lat="45.86327" lon="4.7715">
        <ele>315.6</ele>
        <time>2011-11-11T08:21:20Z</time>
      </trkpt>
      <trkpt lat="45.86325" lon="4.77152">
        <ele>316.4</ele>
        <time>2011-11-11T08:21:23Z</time>
      </trkpt>
      <trkpt lat="45.86324" lon="4.77155">
        <ele>317</ele>
        <time>2011-11-11T08:21:25Z</time>
      </trkpt>
      <trkpt lat="45.86322" lon="4.77157">
        <ele>317.6</ele>
        <time>2011-11-11T08:21:27Z</time>
      </trkpt>
      <trkpt lat="45.86321" lon="4.77161">
        <ele>318.8</ele>
        <time>2011-11-11T08:21:30Z</time>
      </trkpt>
      <trkpt lat="45.86319" lon="4.77162">
        <ele>319.2</ele>
        <time>2011-11-11T08:21:31Z</time>
      </trkpt>
      <trkpt lat="45.86319" lon="4.77164">
        <ele>319.4</ele>
        <time>2011-11-11T08:21:32Z</time>
      </trkpt>
      <trkpt lat="45.86318" lon="4.77167">
        <ele>320.2</ele>
        <time>2011-11-11T08:21:34Z</time>
      </trkpt>
      <trkpt lat="45.86313" lon="4.77174">
        <ele>321.4</ele>
        <time>2011-11-11T08:21:39Z</time>
      </trkpt>
      <trkpt lat="45.8631" lon="4.77178">
        <ele>322.2</ele>
        <time>2011-11-11T08:21:42Z</time>
      </trkpt>
      <trkpt lat="45.86306" lon="4.77182">
        <ele>322.8</ele>
        <time>2011-11-11T08:21:45Z</time>
      </trkpt>
      <trkpt lat="45.86306" lon="4.77184">
        <ele>323</ele>
        <time>2011-11-11T08:21:46Z</time>
      </trkpt>
      <trkpt lat="45.86299" lon="4.77195">
        <ele>323.8</ele>
        <time>2011-11-11T08:21:51Z</time>
      </trkpt>
      <trkpt lat="45.86294" lon="4.77202">
        <ele>324.4</ele>
        <time>2011-11-11T08:21:54Z</time>
      </trkpt>
      <trkpt lat="45.86291" lon="4.77207">
        <ele>324.8</ele>
        <time>2011-11-11T08:21:56Z</time>
      </trkpt>
      <trkpt lat="45.86282" lon="4.77221">
        <ele>325.4</ele>
        <time>2011-11-11T08:22:01Z</time>
      </trkpt>
      <trkpt lat="45.8627" lon="4.7723">
        <ele>326.4</ele>
        <time>2011-11-11T08:22:06Z</time>
      </trkpt>
      <trkpt lat="45.86266" lon="4.77235">
        <ele>326.6</ele>
        <time>2011-11-11T08:22:08Z</time>
      </trkpt>
      <trkpt lat="45.86259" lon="4.77242">
        <ele>327.2</ele>
        <time>2011-11-11T08:22:11Z</time>
      </trkpt>
      <trkpt lat="45.86249" lon="4.77252">
        <ele>328.6</ele>
        <time>2011-11-11T08:22:15Z</time>
      </trkpt>
      <trkpt lat="45.8624" lon="4.7726">
        <ele>330.4</ele>
        <time>2011-11-11T08:22:18Z</time>
      </trkpt>
      <trkpt lat="45.86236" lon="4.77271">
        <ele>331.4</ele>
        <time>2011-11-11T08:22:24Z</time>
      </trkpt>
      <trkpt lat="45.86242" lon="4.77275">
        <ele>331.2</ele>
        <time>2011-11-11T08:22:27Z</time>
      </trkpt>
      <trkpt lat="45.86253" lon="4.77272">
        <ele>331.6</ele>
        <time>2011-11-11T08:22:32Z</time>
      </trkpt>
      <trkpt lat="45.86256" lon="4.77272">
        <ele>332</ele>
        <time>2011-11-11T08:22:33Z</time>
      </trkpt>
      <trkpt lat="45.86259" lon="4.77272">
        <ele>332.4</ele>
        <time>2011-11-11T08:22:34Z</time>
      </trkpt>
      <trkpt lat="45.86271" lon="4.77274">
        <ele>334.2</ele>
        <time>2011-11-11T08:22:38Z</time>
      </trkpt>
      <trkpt lat="45.86274" lon="4.77276">
        <ele>336.2</ele>
        <time>2011-11-11T08:22:43Z</time>
      </trkpt>
      <trkpt lat="45.86279" lon="4.77281">
        <ele>339</ele>
        <time>2011-11-11T08:22:49Z</time>
      </trkpt>
      <trkpt lat="45.86291" lon="4.7729">
        <ele>342</ele>
        <time>2011-11-11T08:22:54Z</time>
      </trkpt>
      <trkpt lat="45.86294" lon="4.77293">
        <ele>343.2</ele>
        <time>2011-11-11T08:22:56Z</time>
      </trkpt>
      <trkpt lat="45.86309" lon="4.77303">
        <ele>347</ele>
        <time>2011-11-11T08:23:02Z</time>
      </trkpt>
      <trkpt lat="45.86312" lon="4.77304">
        <ele>347.8</ele>
        <time>2011-11-11T08:23:03Z</time>
      </trkpt>
      <trkpt lat="45.86321" lon="4.77308">
        <ele>348.6</ele>
        <time>2011-11-11T08:23:07Z</time>
      </trkpt>
      <trkpt lat="45.86329" lon="4.77311">
        <ele>349</ele>
        <time>2011-11-11T08:23:09Z</time>
      </trkpt>
      <trkpt lat="45.86337" lon="4.77314">
        <ele>349.2</ele>
        <time>2011-11-11T08:23:12Z</time>
      </trkpt>
      <trkpt lat="45.86343" lon="4.77321">
        <ele>348.8</ele>
        <time>2011-11-11T08:23:16Z</time>
      </trkpt>
      <trkpt lat="45.86346" lon="4.77323">
        <ele>348.8</ele>
        <time>2011-11-11T08:23:17Z</time>
      </trkpt>
      <trkpt lat="45.86359" lon="4.77333">
        <ele>348.4</ele>
        <time>2011-11-11T08:23:22Z</time>
      </trkpt>
      <trkpt lat="45.86363" lon="4.77335">
        <ele>348.2</ele>
        <time>2011-11-11T08:23:24Z</time>
      </trkpt>
      <trkpt lat="45.86368" lon="4.77337">
        <ele>347.8</ele>
        <time>2011-11-11T08:23:27Z</time>
      </trkpt>
      <trkpt lat="45.86381" lon="4.7734">
        <ele>347.2</ele>
        <time>2011-11-11T08:23:33Z</time>
      </trkpt>
      <trkpt lat="45.86384" lon="4.77341">
        <ele>347</ele>
        <time>2011-11-11T08:23:34Z</time>
      </trkpt>
      <trkpt lat="45.86386" lon="4.77341">
        <ele>346.8</ele>
        <time>2011-11-11T08:23:36Z</time>
      </trkpt>
      <trkpt lat="45.86387" lon="4.77341">
        <ele>346.6</ele>
        <time>2011-11-11T08:23:37Z</time>
      </trkpt>
      <trkpt lat="45.86396" lon="4.77345">
        <ele>345.6</ele>
        <time>2011-11-11T08:23:42Z</time>
      </trkpt>
      <trkpt lat="45.86403" lon="4.77346">
        <ele>345.2</ele>
        <time>2011-11-11T08:23:45Z</time>
      </trkpt>
      <trkpt lat="45.86408" lon="4.77348">
        <ele>344.8</ele>
        <time>2011-11-11T08:23:47Z</time>
      </trkpt>
      <trkpt lat="45.86421" lon="4.77347">
        <ele>343.6</ele>
        <time>2011-11-11T08:23:53Z</time>
      </trkpt>
      <trkpt lat="45.86423" lon="4.77347">
        <ele>343.4</ele>
        <time>2011-11-11T08:23:54Z</time>
      </trkpt>
      <trkpt lat="45.86432" lon="4.77347">
        <ele>342.6</ele>
        <time>2011-11-11T08:23:58Z</time>
      </trkpt>
      <trkpt lat="45.8644" lon="4.77349">
        <ele>341.8</ele>
        <time>2011-11-11T08:24:02Z</time>
      </trkpt>
      <trkpt lat="45.86442" lon="4.77349">
        <ele>341.6</ele>
        <time>2011-11-11T08:24:03Z</time>
      </trkpt>
      <trkpt lat="45.86451" lon="4.7735">
        <ele>340.8</ele>
        <time>2011-11-11T08:24:07Z</time>
      </trkpt>
      <trkpt lat="45.8646" lon="4.77351">
        <ele>340.2</ele>
        <time>2011-11-11T08:24:10Z</time>
      </trkpt>
      <trkpt lat="45.86466" lon="4.77352">
        <ele>340</ele>
        <time>2011-11-11T08:24:12Z</time>
      </trkpt>
      <trkpt lat="45.86475" lon="4.77353">
        <ele>339.4</ele>
        <time>2011-11-11T08:24:15Z</time>
      </trkpt>
      <trkpt lat="45.8648" lon="4.77355">
        <ele>339</ele>
        <time>2011-11-11T08:24:17Z</time>
      </trkpt>
      <trkpt lat="45.86485" lon="4.77356">
        <ele>339</ele>
        <time>2011-11-11T08:24:18Z</time>
      </trkpt>
      <trkpt lat="45.865" lon="4.77358">
        <ele>338.2</ele>
        <time>2011-11-11T08:24:23Z</time>
      </trkpt>
      <trkpt lat="45.86514" lon="4.77356">
        <ele>337.6</ele>
        <time>2011-11-11T08:24:28Z</time>
      </trkpt>
      <trkpt lat="45.86518" lon="4.77356">
        <ele>337.4</ele>
        <time>2011-11-11T08:24:30Z</time>
      </trkpt>
      <trkpt lat="45.86524" lon="4.77355">
        <ele>337</ele>
        <time>2011-11-11T08:24:33Z</time>
      </trkpt>
      <trkpt lat="45.86536" lon="4.77354">
        <ele>336.2</ele>
        <time>2011-11-11T08:24:39Z</time>
      </trkpt>
      <trkpt lat="45.86548" lon="4.77352">
        <ele>335.4</ele>
        <time>2011-11-11T08:24:44Z</time>
      </trkpt>
      <trkpt lat="45.86556" lon="4.77351">
        <ele>335</ele>
        <time>2011-11-11T08:24:47Z</time>
      </trkpt>
      <trkpt lat="45.86563" lon="4.77349">
        <ele>334.6</ele>
        <time>2011-11-11T08:24:50Z</time>
      </trkpt>
      <trkpt lat="45.86576" lon="4.77347">
        <ele>334</ele>
        <time>2011-11-11T08:24:55Z</time>
      </trkpt>
      <trkpt lat="45.86589" lon="4.77342">
        <ele>333.4</ele>
        <time>2011-11-11T08:24:59Z</time>
      </trkpt>
      <trkpt lat="45.86594" lon="4.77339">
        <ele>333</ele>
        <time>2011-11-11T08:25:01Z</time>
      </trkpt>
      <trkpt lat="45.86604" lon="4.77335">
        <ele>332.4</ele>
        <time>2011-11-11T08:25:05Z</time>
      </trkpt>
      <trkpt lat="45.86612" lon="4.77334">
        <ele>332</ele>
        <time>2011-11-11T08:25:08Z</time>
      </trkpt>
      <trkpt lat="45.86615" lon="4.77334">
        <ele>331.8</ele>
        <time>2011-11-11T08:25:09Z</time>
      </trkpt>
      <trkpt lat="45.8663" lon="4.77332">
        <ele>330.8</ele>
        <time>2011-11-11T08:25:15Z</time>
      </trkpt>
      <trkpt lat="45.86632" lon="4.77331">
        <ele>330.8</ele>
        <time>2011-11-11T08:25:16Z</time>
      </trkpt>
      <trkpt lat="45.86635" lon="4.7733">
        <ele>330.4</ele>
        <time>2011-11-11T08:25:18Z</time>
      </trkpt>
      <trkpt lat="45.86639" lon="4.7733">
        <ele>330.2</ele>
        <time>2011-11-11T08:25:20Z</time>
      </trkpt>
      <trkpt lat="45.86643" lon="4.77332">
        <ele>329.8</ele>
        <time>2011-11-11T08:25:22Z</time>
      </trkpt>
      <trkpt lat="45.86649" lon="4.77334">
        <ele>329.4</ele>
        <time>2011-11-11T08:25:24Z</time>
      </trkpt>
      <trkpt lat="45.86652" lon="4.77333">
        <ele>329.2</ele>
        <time>2011-11-11T08:25:25Z</time>
      </trkpt>
      <trkpt lat="45.86669" lon="4.77334">
        <ele>328.2</ele>
        <time>2011-11-11T08:25:31Z</time>
      </trkpt>
      <trkpt lat="45.86683" lon="4.77335">
        <ele>327.2</ele>
        <time>2011-11-11T08:25:36Z</time>
      </trkpt>
      <trkpt lat="45.86688" lon="4.77333">
        <ele>326.8</ele>
        <time>2011-11-11T08:25:38Z</time>
      </trkpt>
      <trkpt lat="45.86692" lon="4.77335">
        <ele>326.4</ele>
        <time>2011-11-11T08:25:40Z</time>
      </trkpt>
      <trkpt lat="45.86698" lon="4.77342">
        <ele>325.8</ele>
        <time>2011-11-11T08:25:43Z</time>
      </trkpt>
      <trkpt lat="45.86698" lon="4.77345">
        <ele>325.6</ele>
        <time>2011-11-11T08:25:44Z</time>
      </trkpt>
      <trkpt lat="45.86696" lon="4.77349">
        <ele>324.8</ele>
        <time>2011-11-11T08:25:48Z</time>
      </trkpt>
      <trkpt lat="45.86696" lon="4.7735">
        <ele>324.6</ele>
        <time>2011-11-11T08:25:49Z</time>
      </trkpt>
      <trkpt lat="45.86695" lon="4.77351">
        <ele>324.6</ele>
        <time>2011-11-11T08:25:50Z</time>
      </trkpt>
      <trkpt lat="45.86694" lon="4.77353">
        <ele>324</ele>
        <time>2011-11-11T08:25:54Z</time>
      </trkpt>
      <trkpt lat="45.86692" lon="4.77356">
        <ele>322.8</ele>
        <time>2011-11-11T08:26:00Z</time>
      </trkpt>
      <trkpt lat="45.86694" lon="4.77358">
        <ele>321.8</ele>
        <time>2011-11-11T08:26:07Z</time>
      </trkpt>
      <trkpt lat="45.86694" lon="4.77359">
        <ele>321</ele>
        <time>2011-11-11T08:26:12Z</time>
      </trkpt>
      <trkpt lat="45.86694" lon="4.77362">
        <ele>320.4</ele>
        <time>2011-11-11T08:26:16Z</time>
      </trkpt>
      <trkpt lat="45.86689" lon="4.77371">
        <ele>319.2</ele>
        <time>2011-11-11T08:26:24Z</time>
      </trkpt>
      <trkpt lat="45.86685" lon="4.77378">
        <ele>318.4</ele>
        <time>2011-11-11T08:26:31Z</time>
      </trkpt>
      <trkpt lat="45.86678" lon="4.77391">
        <ele>317.4</ele>
        <time>2011-11-11T08:26:38Z</time>
      </trkpt>
      <trkpt lat="45.86675" lon="4.77409">
        <ele>316.6</ele>
        <time>2011-11-11T08:26:44Z</time>
      </trkpt>
      <trkpt lat="45.8667" lon="4.77412">
        <ele>316.2</ele>
        <time>2011-11-11T08:26:47Z</time>
      </trkpt>
      <trkpt lat="45.86666" lon="4.77415">
        <ele>316</ele>
        <time>2011-11-11T08:26:49Z</time>
      </trkpt>
      <trkpt lat="45.86665" lon="4.77416">
        <ele>315.8</ele>
        <time>2011-11-11T08:26:50Z</time>
      </trkpt>
      <trkpt lat="45.86657" lon="4.77423">
        <ele>315.2</ele>
        <time>2011-11-11T08:26:55Z</time>
      </trkpt>
      <trkpt lat="45.86655" lon="4.77424">
        <ele>315</ele>
        <time>2011-11-11T08:26:56Z</time>
      </trkpt>
      <trkpt lat="45.86653" lon="4.77424">
        <ele>314.8</ele>
        <time>2011-11-11T08:26:57Z</time>
      </trkpt>
      <trkpt lat="45.86645" lon="4.7743">
        <ele>314.2</ele>
        <time>2011-11-11T08:27:02Z</time>
      </trkpt>
      <trkpt lat="45.86643" lon="4.77432">
        <ele>314</ele>
        <time>2011-11-11T08:27:03Z</time>
      </trkpt>
      <trkpt lat="45.86637" lon="4.77439">
        <ele>313.8</ele>
        <time>2011-11-11T08:27:07Z</time>
      </trkpt>
      <trkpt lat="45.86635" lon="4.7744">
        <ele>313.6</ele>
        <time>2011-11-11T08:27:08Z</time>
      </trkpt>
      <trkpt lat="45.86631" lon="4.77443">
        <ele>313.6</ele>
        <time>2011-11-11T08:27:10Z</time>
      </trkpt>
      <trkpt lat="45.86626" lon="4.77448">
        <ele>313.4</ele>
        <time>2011-11-11T08:27:13Z</time>
      </trkpt>
      <trkpt lat="45.86621" lon="4.77452">
        <ele>313.4</ele>
        <time>2011-11-11T08:27:16Z</time>
      </trkpt>
      <trkpt lat="45.86619" lon="4.77453">
        <ele>313.6</ele>
        <time>2011-11-11T08:27:17Z</time>
      </trkpt>
      <trkpt lat="45.86617" lon="4.77454">
        <ele>313.6</ele>
        <time>2011-11-11T08:27:18Z</time>
      </trkpt>
      <trkpt lat="45.86611" lon="4.7746">
        <ele>314</ele>
        <time>2011-11-11T08:27:22Z</time>
      </trkpt>
      <trkpt lat="45.86608" lon="4.77465">
        <ele>314.4</ele>
        <time>2011-11-11T08:27:24Z</time>
      </trkpt>
      <trkpt lat="45.86607" lon="4.7747">
        <ele>314.6</ele>
        <time>2011-11-11T08:27:26Z</time>
      </trkpt>
      <trkpt lat="45.86603" lon="4.77477">
        <ele>315.4</ele>
        <time>2011-11-11T08:27:29Z</time>
      </trkpt>
      <trkpt lat="45.866" lon="4.77492">
        <ele>316.4</ele>
        <time>2011-11-11T08:27:34Z</time>
      </trkpt>
      <trkpt lat="45.86599" lon="4.77495">
        <ele>316.8</ele>
        <time>2011-11-11T08:27:35Z</time>
      </trkpt>
      <trkpt lat="45.8659" lon="4.77515">
        <ele>318.8</ele>
        <time>2011-11-11T08:27:41Z</time>
      </trkpt>
      <trkpt lat="45.86587" lon="4.77517">
        <ele>319</ele>
        <time>2011-11-11T08:27:42Z</time>
      </trkpt>
      <trkpt lat="45.86579" lon="4.77525">
        <ele>320.2</ele>
        <time>2011-11-11T08:27:45Z</time>
      </trkpt>
      <trkpt lat="45.86569" lon="4.77533">
        <ele>321.8</ele>
        <time>2011-11-11T08:27:49Z</time>
      </trkpt>
      <trkpt lat="45.86567" lon="4.77536">
        <ele>322.4</ele>
        <time>2011-11-11T08:27:50Z</time>
      </trkpt>
      <trkpt lat="45.8656" lon="4.77548">
        <ele>323.6</ele>
        <time>2011-11-11T08:27:54Z</time>
      </trkpt>
      <trkpt lat="45.86557" lon="4.7755">
        <ele>323.8</ele>
        <time>2011-11-11T08:27:55Z</time>
      </trkpt>
      <trkpt lat="45.86555" lon="4.77552">
        <ele>324.2</ele>
        <time>2011-11-11T08:27:56Z</time>
      </trkpt>
      <trkpt lat="45.86549" lon="4.77561">
        <ele>325.8</ele>
        <time>2011-11-11T08:28:00Z</time>
      </trkpt>
      <trkpt lat="45.86541" lon="4.77573">
        <ele>326.6</ele>
        <time>2011-11-11T08:28:05Z</time>
      </trkpt>
      <trkpt lat="45.86531" lon="4.7758">
        <ele>328</ele>
        <time>2011-11-11T08:28:09Z</time>
      </trkpt>
      <trkpt lat="45.86525" lon="4.77587">
        <ele>328.6</ele>
        <time>2011-11-11T08:28:12Z</time>
      </trkpt>
      <trkpt lat="45.86521" lon="4.77591">
        <ele>328.6</ele>
        <time>2011-11-11T08:28:14Z</time>
      </trkpt>
      <trkpt lat="45.8651" lon="4.776">
        <ele>329</ele>
        <time>2011-11-11T08:28:19Z</time>
      </trkpt>
      <trkpt lat="45.86508" lon="4.77602">
        <ele>329</ele>
        <time>2011-11-11T08:28:20Z</time>
      </trkpt>
      <trkpt lat="45.86504" lon="4.77604">
        <ele>328.8</ele>
        <time>2011-11-11T08:28:22Z</time>
      </trkpt>
      <trkpt lat="45.86498" lon="4.77606">
        <ele>328.8</ele>
        <time>2011-11-11T08:28:24Z</time>
      </trkpt>
      <trkpt lat="45.86494" lon="4.77607">
        <ele>328.8</ele>
        <time>2011-11-11T08:28:26Z</time>
      </trkpt>
      <trkpt lat="45.86489" lon="4.77608">
        <ele>328.8</ele>
        <time>2011-11-11T08:28:28Z</time>
      </trkpt>
      <trkpt lat="45.86487" lon="4.77609">
        <ele>328.8</ele>
        <time>2011-11-11T08:28:29Z</time>
      </trkpt>
      <trkpt lat="45.86476" lon="4.7761">
        <ele>328.8</ele>
        <time>2011-11-11T08:28:34Z</time>
      </trkpt>
      <trkpt lat="45.86471" lon="4.77612">
        <ele>328.8</ele>
        <time>2011-11-11T08:28:36Z</time>
      </trkpt>
      <trkpt lat="45.86467" lon="4.77613">
        <ele>328.8</ele>
        <time>2011-11-11T08:28:38Z</time>
      </trkpt>
      <trkpt lat="45.86453" lon="4.77618">
        <ele>329.6</ele>
        <time>2011-11-11T08:28:43Z</time>
      </trkpt>
      <trkpt lat="45.8645" lon="4.77619">
        <ele>329.8</ele>
        <time>2011-11-11T08:28:44Z</time>
      </trkpt>
      <trkpt lat="45.86434" lon="4.77624">
        <ele>331.4</ele>
        <time>2011-11-11T08:28:50Z</time>
      </trkpt>
      <trkpt lat="45.86415" lon="4.7763">
        <ele>334.6</ele>
        <time>2011-11-11T08:28:55Z</time>
      </trkpt>
      <trkpt lat="45.86412" lon="4.7763">
        <ele>334.8</ele>
        <time>2011-11-11T08:28:56Z</time>
      </trkpt>
      <trkpt lat="45.86401" lon="4.77628">
        <ele>336.2</ele>
        <time>2011-11-11T08:29:01Z</time>
      </trkpt>
      <trkpt lat="45.86394" lon="4.77629">
        <ele>337.2</ele>
        <time>2011-11-11T08:29:03Z</time>
      </trkpt>
      <trkpt lat="45.86384" lon="4.77629">
        <ele>338.2</ele>
        <time>2011-11-11T08:29:06Z</time>
      </trkpt>
      <trkpt lat="45.86373" lon="4.7763">
        <ele>338.6</ele>
        <time>2011-11-11T08:29:10Z</time>
      </trkpt>
      <trkpt lat="45.86357" lon="4.77635">
        <ele>340.4</ele>
        <time>2011-11-11T08:29:17Z</time>
      </trkpt>
      <trkpt lat="45.86355" lon="4.77635">
        <ele>340.4</ele>
        <time>2011-11-11T08:29:18Z</time>
      </trkpt>
      <trkpt lat="45.86343" lon="4.77639">
        <ele>341.8</ele>
        <time>2011-11-11T08:29:23Z</time>
      </trkpt>
      <trkpt lat="45.86336" lon="4.77642">
        <ele>343</ele>
        <time>2011-11-11T08:29:25Z</time>
      </trkpt>
      <trkpt lat="45.86322" lon="4.77647">
        <ele>345.2</ele>
        <time>2011-11-11T08:29:30Z</time>
      </trkpt>
      <trkpt lat="45.86316" lon="4.77649">
        <ele>346.4</ele>
        <time>2011-11-11T08:29:32Z</time>
      </trkpt>
      <trkpt lat="45.86304" lon="4.77653">
        <ele>349.6</ele>
        <time>2011-11-11T08:29:36Z</time>
      </trkpt>
      <trkpt lat="45.86297" lon="4.77658">
        <ele>351.8</ele>
        <time>2011-11-11T08:29:39Z</time>
      </trkpt>
      <trkpt lat="45.86296" lon="4.77656">
        <ele>354</ele>
        <time>2011-11-11T08:29:42Z</time>
      </trkpt>
      <trkpt lat="45.86296" lon="4.77654">
        <ele>357.4</ele>
        <time>2011-11-11T08:29:47Z</time>
      </trkpt>
      <trkpt lat="45.86288" lon="4.77654">
        <ele>359.6</ele>
        <time>2011-11-11T08:29:50Z</time>
      </trkpt>
      <trkpt lat="45.86281" lon="4.77649">
        <ele>360.2</ele>
        <time>2011-11-11T08:29:53Z</time>
      </trkpt>
      <trkpt lat="45.86277" lon="4.77646">
        <ele>360.8</ele>
        <time>2011-11-11T08:29:55Z</time>
      </trkpt>
      <trkpt lat="45.86266" lon="4.77643">
        <ele>361.8</ele>
        <time>2011-11-11T08:30:01Z</time>
      </trkpt>
      <trkpt lat="45.86263" lon="4.77644">
        <ele>362.4</ele>
        <time>2011-11-11T08:30:02Z</time>
      </trkpt>
      <trkpt lat="45.86252" lon="4.77644">
        <ele>363.6</ele>
        <time>2011-11-11T08:30:06Z</time>
      </trkpt>
      <trkpt lat="45.86242" lon="4.77646">
        <ele>366</ele>
        <time>2011-11-11T08:30:09Z</time>
      </trkpt>
      <trkpt lat="45.86237" lon="4.77647">
        <ele>366.8</ele>
        <time>2011-11-11T08:30:11Z</time>
      </trkpt>
      <trkpt lat="45.86225" lon="4.77646">
        <ele>369.4</ele>
        <time>2011-11-11T08:30:17Z</time>
      </trkpt>
      <trkpt lat="45.86223" lon="4.77646">
        <ele>369.4</ele>
        <time>2011-11-11T08:30:18Z</time>
      </trkpt>
      <trkpt lat="45.86217" lon="4.77645">
        <ele>369.8</ele>
        <time>2011-11-11T08:30:23Z</time>
      </trkpt>
      <trkpt lat="45.86215" lon="4.77645">
        <ele>370</ele>
        <time>2011-11-11T08:30:24Z</time>
      </trkpt>
      <trkpt lat="45.86208" lon="4.77647">
        <ele>370</ele>
        <time>2011-11-11T08:30:28Z</time>
      </trkpt>
      <trkpt lat="45.86203" lon="4.77648">
        <ele>370</ele>
        <time>2011-11-11T08:30:30Z</time>
      </trkpt>
      <trkpt lat="45.86199" lon="4.77651">
        <ele>369.6</ele>
        <time>2011-11-11T08:30:34Z</time>
      </trkpt>
      <trkpt lat="45.86188" lon="4.77663">
        <ele>368.8</ele>
        <time>2011-11-11T08:30:40Z</time>
      </trkpt>
      <trkpt lat="45.86185" lon="4.77667">
        <ele>368</ele>
        <time>2011-11-11T08:30:44Z</time>
      </trkpt>
      <trkpt lat="45.86181" lon="4.7767">
        <ele>367.4</ele>
        <time>2011-11-11T08:30:47Z</time>
      </trkpt>
      <trkpt lat="45.8618" lon="4.77672">
        <ele>367.2</ele>
        <time>2011-11-11T08:30:48Z</time>
      </trkpt>
      <trkpt lat="45.86178" lon="4.77679">
        <ele>366.6</ele>
        <time>2011-11-11T08:30:52Z</time>
      </trkpt>
      <trkpt lat="45.86179" lon="4.77684">
        <ele>366.4</ele>
        <time>2011-11-11T08:30:54Z</time>
      </trkpt>
      <trkpt lat="45.86177" lon="4.7769">
        <ele>365.8</ele>
        <time>2011-11-11T08:30:57Z</time>
      </trkpt>
      <trkpt lat="45.86177" lon="4.77698">
        <ele>365</ele>
        <time>2011-11-11T08:31:01Z</time>
      </trkpt>
      <trkpt lat="45.86177" lon="4.777">
        <ele>364.8</ele>
        <time>2011-11-11T08:31:02Z</time>
      </trkpt>
      <trkpt lat="45.86179" lon="4.77703">
        <ele>364.4</ele>
        <time>2011-11-11T08:31:05Z</time>
      </trkpt>
      <trkpt lat="45.86182" lon="4.77707">
        <ele>363.8</ele>
        <time>2011-11-11T08:31:08Z</time>
      </trkpt>
      <trkpt lat="45.86184" lon="4.77708">
        <ele>363.4</ele>
        <time>2011-11-11T08:31:11Z</time>
      </trkpt>
      <trkpt lat="45.86184" lon="4.7771">
        <ele>363.4</ele>
        <time>2011-11-11T08:31:12Z</time>
      </trkpt>
      <trkpt lat="45.86182" lon="4.7771">
        <ele>363</ele>
        <time>2011-11-11T08:31:14Z</time>
      </trkpt>
      <trkpt lat="45.86178" lon="4.77717">
        <ele>362.4</ele>
        <time>2011-11-11T08:31:18Z</time>
      </trkpt>
      <trkpt lat="45.86175" lon="4.77717">
        <ele>362.4</ele>
        <time>2011-11-11T08:31:21Z</time>
      </trkpt>
      <trkpt lat="45.86173" lon="4.77717">
        <ele>362.2</ele>
        <time>2011-11-11T08:31:23Z</time>
      </trkpt>
      <trkpt lat="45.86172" lon="4.77718">
        <ele>362</ele>
        <time>2011-11-11T08:31:24Z</time>
      </trkpt>
      <trkpt lat="45.86167" lon="4.77719">
        <ele>362.2</ele>
        <time>2011-11-11T08:31:26Z</time>
      </trkpt>
      <trkpt lat="45.86161" lon="4.77724">
        <ele>363</ele>
        <time>2011-11-11T08:31:30Z</time>
      </trkpt>
      <trkpt lat="45.86155" lon="4.77726">
        <ele>362.8</ele>
        <time>2011-11-11T08:31:35Z</time>
      </trkpt>
      <trkpt lat="45.86152" lon="4.77729">
        <ele>363.2</ele>
        <time>2011-11-11T08:31:37Z</time>
      </trkpt>
      <trkpt lat="45.86151" lon="4.77731">
        <ele>363.2</ele>
        <time>2011-11-11T08:31:38Z</time>
      </trkpt>
      <trkpt lat="45.86151" lon="4.77733">
        <ele>363</ele>
        <time>2011-11-11T08:31:39Z</time>
      </trkpt>
      <trkpt lat="45.86143" lon="4.77736">
        <ele>364.6</ele>
        <time>2011-11-11T08:31:43Z</time>
      </trkpt>
      <trkpt lat="45.86142" lon="4.77738">
        <ele>364.6</ele>
        <time>2011-11-11T08:31:44Z</time>
      </trkpt>
      <trkpt lat="45.86141" lon="4.7774">
        <ele>364.8</ele>
        <time>2011-11-11T08:31:45Z</time>
      </trkpt>
      <trkpt lat="45.86137" lon="4.77742">
        <ele>365.6</ele>
        <time>2011-11-11T08:31:48Z</time>
      </trkpt>
      <trkpt lat="45.86134" lon="4.77745">
        <ele>366.6</ele>
        <time>2011-11-11T08:31:51Z</time>
      </trkpt>
      <trkpt lat="45.8613" lon="4.77748">
        <ele>367.2</ele>
        <time>2011-11-11T08:31:54Z</time>
      </trkpt>
      <trkpt lat="45.86131" lon="4.77751">
        <ele>367.2</ele>
        <time>2011-11-11T08:31:58Z</time>
      </trkpt>
      <trkpt lat="45.86131" lon="4.77754">
        <ele>367</ele>
        <time>2011-11-11T08:32:04Z</time>
      </trkpt>
      <trkpt lat="45.86128" lon="4.77758">
        <ele>368</ele>
        <time>2011-11-11T08:32:07Z</time>
      </trkpt>
      <trkpt lat="45.86123" lon="4.77762">
        <ele>368.8</ele>
        <time>2011-11-11T08:32:11Z</time>
      </trkpt>
      <trkpt lat="45.86121" lon="4.77763">
        <ele>369.4</ele>
        <time>2011-11-11T08:32:13Z</time>
      </trkpt>
      <trkpt lat="45.8612" lon="4.77767">
        <ele>369.4</ele>
        <time>2011-11-11T08:32:15Z</time>
      </trkpt>
      <trkpt lat="45.86118" lon="4.77771">
        <ele>370.6</ele>
        <time>2011-11-11T08:32:17Z</time>
      </trkpt>
      <trkpt lat="45.86117" lon="4.77778">
        <ele>370.4</ele>
        <time>2011-11-11T08:32:21Z</time>
      </trkpt>
      <trkpt lat="45.86117" lon="4.77783">
        <ele>369.6</ele>
        <time>2011-11-11T08:32:25Z</time>
      </trkpt>
      <trkpt lat="45.86116" lon="4.77785">
        <ele>369.8</ele>
        <time>2011-11-11T08:32:26Z</time>
      </trkpt>
      <trkpt lat="45.86115" lon="4.77787">
        <ele>370</ele>
        <time>2011-11-11T08:32:27Z</time>
      </trkpt>
      <trkpt lat="45.86115" lon="4.77789">
        <ele>369.8</ele>
        <time>2011-11-11T08:32:29Z</time>
      </trkpt>
      <trkpt lat="45.86112" lon="4.77794">
        <ele>369.4</ele>
        <time>2011-11-11T08:32:31Z</time>
      </trkpt>
      <trkpt lat="45.8611" lon="4.77797">
        <ele>369.4</ele>
        <time>2011-11-11T08:32:33Z</time>
      </trkpt>
      <trkpt lat="45.86107" lon="4.778">
        <ele>369.4</ele>
        <time>2011-11-11T08:32:35Z</time>
      </trkpt>
      <trkpt lat="45.86105" lon="4.77809">
        <ele>369</ele>
        <time>2011-11-11T08:32:43Z</time>
      </trkpt>
      <trkpt lat="45.86104" lon="4.7782">
        <ele>368.4</ele>
        <time>2011-11-11T08:32:50Z</time>
      </trkpt>
      <trkpt lat="45.861" lon="4.77825">
        <ele>368.4</ele>
        <time>2011-11-11T08:32:55Z</time>
      </trkpt>
      <trkpt lat="45.86094" lon="4.77827">
        <ele>368.4</ele>
        <time>2011-11-11T08:33:00Z</time>
      </trkpt>
      <trkpt lat="45.8609" lon="4.77829">
        <ele>368.8</ele>
        <time>2011-11-11T08:33:02Z</time>
      </trkpt>
      <trkpt lat="45.86089" lon="4.77841">
        <ele>369.8</ele>
        <time>2011-11-11T08:33:08Z</time>
      </trkpt>
      <trkpt lat="45.8609" lon="4.77843">
        <ele>370.6</ele>
        <time>2011-11-11T08:33:10Z</time>
      </trkpt>
      <trkpt lat="45.86094" lon="4.7784">
        <ele>371.2</ele>
        <time>2011-11-11T08:33:13Z</time>
      </trkpt>
      <trkpt lat="45.86101" lon="4.7784">
        <ele>371.4</ele>
        <time>2011-11-11T08:33:17Z</time>
      </trkpt>
      <trkpt lat="45.86102" lon="4.77836">
        <ele>371.4</ele>
        <time>2011-11-11T08:33:19Z</time>
      </trkpt>
      <trkpt lat="45.86103" lon="4.77834">
        <ele>371.2</ele>
        <time>2011-11-11T08:33:20Z</time>
      </trkpt>
      <trkpt lat="45.8611" lon="4.7783">
        <ele>372.6</ele>
        <time>2011-11-11T08:33:24Z</time>
      </trkpt>
      <trkpt lat="45.86111" lon="4.77829">
        <ele>372.6</ele>
        <time>2011-11-11T08:33:25Z</time>
      </trkpt>
      <trkpt lat="45.86115" lon="4.77828">
        <ele>374.4</ele>
        <time>2011-11-11T08:33:30Z</time>
      </trkpt>
      <trkpt lat="45.86116" lon="4.77826">
        <ele>376.2</ele>
        <time>2011-11-11T08:33:34Z</time>
      </trkpt>
      <trkpt lat="45.86119" lon="4.77825">
        <ele>377.6</ele>
        <time>2011-11-11T08:33:36Z</time>
      </trkpt>
      <trkpt lat="45.86121" lon="4.77825">
        <ele>378.4</ele>
        <time>2011-11-11T08:33:37Z</time>
      </trkpt>
      <trkpt lat="45.86125" lon="4.77824">
        <ele>381</ele>
        <time>2011-11-11T08:33:40Z</time>
      </trkpt>
      <trkpt lat="45.8613" lon="4.7782">
        <ele>384.8</ele>
        <time>2011-11-11T08:33:46Z</time>
      </trkpt>
      <trkpt lat="45.86132" lon="4.77819">
        <ele>386.2</ele>
        <time>2011-11-11T08:33:48Z</time>
      </trkpt>
      <trkpt lat="45.86136" lon="4.77821">
        <ele>387.2</ele>
        <time>2011-11-11T08:33:50Z</time>
      </trkpt>
      <trkpt lat="45.86137" lon="4.77821">
        <ele>387.8</ele>
        <time>2011-11-11T08:33:51Z</time>
      </trkpt>
      <trkpt lat="45.86144" lon="4.77823">
        <ele>389.8</ele>
        <time>2011-11-11T08:33:55Z</time>
      </trkpt>
      <trkpt lat="45.86146" lon="4.77823">
        <ele>390.8</ele>
        <time>2011-11-11T08:33:57Z</time>
      </trkpt>
      <trkpt lat="45.86148" lon="4.77822">
        <ele>392.2</ele>
        <time>2011-11-11T08:33:59Z</time>
      </trkpt>
      <trkpt lat="45.8615" lon="4.7782">
        <ele>393.6</ele>
        <time>2011-11-11T08:34:01Z</time>
      </trkpt>
      <trkpt lat="45.86154" lon="4.77817">
        <ele>395.6</ele>
        <time>2011-11-11T08:34:04Z</time>
      </trkpt>
      <trkpt lat="45.86157" lon="4.77822">
        <ele>397.8</ele>
        <time>2011-11-11T08:34:08Z</time>
      </trkpt>
      <trkpt lat="45.86156" lon="4.77823">
        <ele>398.4</ele>
        <time>2011-11-11T08:34:09Z</time>
      </trkpt>
      <trkpt lat="45.86148" lon="4.77828">
        <ele>400</ele>
        <time>2011-11-11T08:34:14Z</time>
      </trkpt>
      <trkpt lat="45.86147" lon="4.7783">
        <ele>400.4</ele>
        <time>2011-11-11T08:34:15Z</time>
      </trkpt>
      <trkpt lat="45.86141" lon="4.77835">
        <ele>401.2</ele>
        <time>2011-11-11T08:34:21Z</time>
      </trkpt>
      <trkpt lat="45.86136" lon="4.77842">
        <ele>400</ele>
        <time>2011-11-11T08:34:31Z</time>
      </trkpt>
      <trkpt lat="45.86136" lon="4.77845">
        <ele>399</ele>
        <time>2011-11-11T08:34:35Z</time>
      </trkpt>
      <trkpt lat="45.86136" lon="4.77847">
        <ele>397.8</ele>
        <time>2011-11-11T08:34:38Z</time>
      </trkpt>
      <trkpt lat="45.86136" lon="4.7785">
        <ele>397.2</ele>
        <time>2011-11-11T08:34:40Z</time>
      </trkpt>
      <trkpt lat="45.86136" lon="4.77853">
        <ele>396.4</ele>
        <time>2011-11-11T08:34:42Z</time>
      </trkpt>
      <trkpt lat="45.86133" lon="4.77856">
        <ele>395</ele>
        <time>2011-11-11T08:34:45Z</time>
      </trkpt>
      <trkpt lat="45.86125" lon="4.77866">
        <ele>393</ele>
        <time>2011-11-11T08:34:49Z</time>
      </trkpt>
      <trkpt lat="45.86123" lon="4.77869">
        <ele>392.6</ele>
        <time>2011-11-11T08:34:50Z</time>
      </trkpt>
      <trkpt lat="45.86113" lon="4.77873">
        <ele>390</ele>
        <time>2011-11-11T08:34:55Z</time>
      </trkpt>
      <trkpt lat="45.86105" lon="4.77878">
        <ele>388.2</ele>
        <time>2011-11-11T08:34:59Z</time>
      </trkpt>
      <trkpt lat="45.86103" lon="4.7788">
        <ele>387.8</ele>
        <time>2011-11-11T08:35:00Z</time>
      </trkpt>
      <trkpt lat="45.86102" lon="4.77881">
        <ele>387.4</ele>
        <time>2011-11-11T08:35:01Z</time>
      </trkpt>
      <trkpt lat="45.86089" lon="4.77891">
        <ele>385</ele>
        <time>2011-11-11T08:35:07Z</time>
      </trkpt>
      <trkpt lat="45.86076" lon="4.77899">
        <ele>382.8</ele>
        <time>2011-11-11T08:35:12Z</time>
      </trkpt>
      <trkpt lat="45.8607" lon="4.77901">
        <ele>382</ele>
        <time>2011-11-11T08:35:14Z</time>
      </trkpt>
      <trkpt lat="45.86063" lon="4.77905">
        <ele>381</ele>
        <time>2011-11-11T08:35:17Z</time>
      </trkpt>
      <trkpt lat="45.86051" lon="4.7791">
        <ele>379.8</ele>
        <time>2011-11-11T08:35:22Z</time>
      </trkpt>
      <trkpt lat="45.8605" lon="4.77911">
        <ele>379.6</ele>
        <time>2011-11-11T08:35:23Z</time>
      </trkpt>
      <trkpt lat="45.86044" lon="4.77917">
        <ele>378.8</ele>
        <time>2011-11-11T08:35:27Z</time>
      </trkpt>
      <trkpt lat="45.86044" lon="4.77918">
        <ele>378.6</ele>
        <time>2011-11-11T08:35:28Z</time>
      </trkpt>
      <trkpt lat="45.86043" lon="4.77919">
        <ele>378.4</ele>
        <time>2011-11-11T08:35:29Z</time>
      </trkpt>
      <trkpt lat="45.86037" lon="4.77927">
        <ele>378.2</ele>
        <time>2011-11-11T08:35:32Z</time>
      </trkpt>
      <trkpt lat="45.86035" lon="4.77929">
        <ele>378</ele>
        <time>2011-11-11T08:35:33Z</time>
      </trkpt>
      <trkpt lat="45.86026" lon="4.77937">
        <ele>377.2</ele>
        <time>2011-11-11T08:35:39Z</time>
      </trkpt>
      <trkpt lat="45.86026" lon="4.77938">
        <ele>377</ele>
        <time>2011-11-11T08:35:40Z</time>
      </trkpt>
      <trkpt lat="45.8602" lon="4.77942">
        <ele>376.8</ele>
        <time>2011-11-11T08:35:43Z</time>
      </trkpt>
      <trkpt lat="45.86016" lon="4.77945">
        <ele>376.6</ele>
        <time>2011-11-11T08:35:46Z</time>
      </trkpt>
      <trkpt lat="45.86012" lon="4.77946">
        <ele>376</ele>
        <time>2011-11-11T08:35:49Z</time>
      </trkpt>
      <trkpt lat="45.86009" lon="4.77946">
        <ele>376</ele>
        <time>2011-11-11T08:35:51Z</time>
      </trkpt>
      <trkpt lat="45.86008" lon="4.77948">
        <ele>375.8</ele>
        <time>2011-11-11T08:35:52Z</time>
      </trkpt>
      <trkpt lat="45.86003" lon="4.7795">
        <ele>375.6</ele>
        <time>2011-11-11T08:35:55Z</time>
      </trkpt>
      <trkpt lat="45.85997" lon="4.77952">
        <ele>375.4</ele>
        <time>2011-11-11T08:35:59Z</time>
      </trkpt>
      <trkpt lat="45.85991" lon="4.77957">
        <ele>375</ele>
        <time>2011-11-11T08:36:06Z</time>
      </trkpt>
      <trkpt lat="45.85986" lon="4.77957">
        <ele>374.8</ele>
        <time>2011-11-11T08:36:09Z</time>
      </trkpt>
      <trkpt lat="45.85981" lon="4.77957">
        <ele>374.6</ele>
        <time>2011-11-11T08:36:12Z</time>
      </trkpt>
      <trkpt lat="45.85979" lon="4.77959">
        <ele>374.4</ele>
        <time>2011-11-11T08:36:13Z</time>
      </trkpt>
      <trkpt lat="45.85972" lon="4.77957">
        <ele>373.8</ele>
        <time>2011-11-11T08:36:17Z</time>
      </trkpt>
      <trkpt lat="45.8597" lon="4.77957">
        <ele>373.6</ele>
        <time>2011-11-11T08:36:19Z</time>
      </trkpt>
      <trkpt lat="45.85966" lon="4.77958">
        <ele>373.4</ele>
        <time>2011-11-11T08:36:21Z</time>
      </trkpt>
      <trkpt lat="45.85962" lon="4.7796">
        <ele>373.2</ele>
        <time>2011-11-11T08:36:23Z</time>
      </trkpt>
      <trkpt lat="45.85956" lon="4.77962">
        <ele>372.8</ele>
        <time>2011-11-11T08:36:26Z</time>
      </trkpt>
      <trkpt lat="45.85951" lon="4.77963">
        <ele>372.4</ele>
        <time>2011-11-11T08:36:29Z</time>
      </trkpt>
      <trkpt lat="45.85947" lon="4.77965">
        <ele>372.2</ele>
        <time>2011-11-11T08:36:32Z</time>
      </trkpt>
      <trkpt lat="45.85939" lon="4.77964">
        <ele>371.6</ele>
        <time>2011-11-11T08:36:37Z</time>
      </trkpt>
      <trkpt lat="45.85931" lon="4.77965">
        <ele>371.4</ele>
        <time>2011-11-11T08:36:41Z</time>
      </trkpt>
      <trkpt lat="45.85928" lon="4.77965">
        <ele>371.2</ele>
        <time>2011-11-11T08:36:43Z</time>
      </trkpt>
      <trkpt lat="45.85926" lon="4.77966">
        <ele>371</ele>
        <time>2011-11-11T08:36:44Z</time>
      </trkpt>
      <trkpt lat="45.85916" lon="4.77965">
        <ele>370.8</ele>
        <time>2011-11-11T08:36:49Z</time>
      </trkpt>
      <trkpt lat="45.85914" lon="4.77965">
        <ele>370.8</ele>
        <time>2011-11-11T08:36:50Z</time>
      </trkpt>
      <trkpt lat="45.85908" lon="4.77966">
        <ele>370.6</ele>
        <time>2011-11-11T08:36:53Z</time>
      </trkpt>
      <trkpt lat="45.85903" lon="4.77968">
        <ele>370.6</ele>
        <time>2011-11-11T08:36:56Z</time>
      </trkpt>
      <trkpt lat="45.85894" lon="4.77967">
        <ele>370.4</ele>
        <time>2011-11-11T08:37:01Z</time>
      </trkpt>
      <trkpt lat="45.85893" lon="4.77968">
        <ele>370.4</ele>
        <time>2011-11-11T08:37:02Z</time>
      </trkpt>
      <trkpt lat="45.85892" lon="4.77968">
        <ele>370.4</ele>
        <time>2011-11-11T08:37:03Z</time>
      </trkpt>
      <trkpt lat="45.8589" lon="4.77968">
        <ele>370.4</ele>
        <time>2011-11-11T08:37:04Z</time>
      </trkpt>
      <trkpt lat="45.85889" lon="4.7797">
        <ele>370.2</ele>
        <time>2011-11-11T08:37:06Z</time>
      </trkpt>
      <trkpt lat="45.85887" lon="4.77971">
        <ele>370.2</ele>
        <time>2011-11-11T08:37:07Z</time>
      </trkpt>
      <trkpt lat="45.85883" lon="4.77972">
        <ele>370.2</ele>
        <time>2011-11-11T08:37:11Z</time>
      </trkpt>
      <trkpt lat="45.85882" lon="4.77973">
        <ele>370.4</ele>
        <time>2011-11-11T08:37:12Z</time>
      </trkpt>
      <trkpt lat="45.8588" lon="4.77974">
        <ele>370.4</ele>
        <time>2011-11-11T08:37:14Z</time>
      </trkpt>
      <trkpt lat="45.85878" lon="4.77975">
        <ele>370.4</ele>
        <time>2011-11-11T08:37:17Z</time>
      </trkpt>
      <trkpt lat="45.85877" lon="4.77975">
        <ele>370.4</ele>
        <time>2011-11-11T08:37:18Z</time>
      </trkpt>
      <trkpt lat="45.85872" lon="4.77976">
        <ele>370.4</ele>
        <time>2011-11-11T08:37:22Z</time>
      </trkpt>
      <trkpt lat="45.85871" lon="4.77974">
        <ele>370.4</ele>
        <time>2011-11-11T08:37:23Z</time>
      </trkpt>
      <trkpt lat="45.85869" lon="4.7797">
        <ele>370.4</ele>
        <time>2011-11-11T08:37:26Z</time>
      </trkpt>
      <trkpt lat="45.85869" lon="4.77962">
        <ele>370.8</ele>
        <time>2011-11-11T08:37:30Z</time>
      </trkpt>
      <trkpt lat="45.85869" lon="4.77962">
        <ele>371</ele>
        <time>2011-11-11T08:37:31Z</time>
      </trkpt>
      <trkpt lat="45.85864" lon="4.77967">
        <ele>372.2</ele>
        <time>2011-11-11T08:37:36Z</time>
      </trkpt>
      <trkpt lat="45.85863" lon="4.77969">
        <ele>373.4</ele>
        <time>2011-11-11T08:37:39Z</time>
      </trkpt>
      <trkpt lat="45.8586" lon="4.77968">
        <ele>374</ele>
        <time>2011-11-11T08:37:40Z</time>
      </trkpt>
      <trkpt lat="45.85857" lon="4.77967">
        <ele>374.4</ele>
        <time>2011-11-11T08:37:41Z</time>
      </trkpt>
      <trkpt lat="45.85854" lon="4.77967">
        <ele>375.4</ele>
        <time>2011-11-11T08:37:42Z</time>
      </trkpt>
      <trkpt lat="45.85852" lon="4.77967">
        <ele>376.4</ele>
        <time>2011-11-11T08:37:43Z</time>
      </trkpt>
      <trkpt lat="45.85847" lon="4.77964">
        <ele>379.6</ele>
        <time>2011-11-11T08:37:47Z</time>
      </trkpt>
      <trkpt lat="45.85847" lon="4.77965">
        <ele>380.4</ele>
        <time>2011-11-11T08:37:48Z</time>
      </trkpt>
      <trkpt lat="45.85844" lon="4.77964">
        <ele>382.4</ele>
        <time>2011-11-11T08:37:51Z</time>
      </trkpt>
      <trkpt lat="45.85841" lon="4.77962">
        <ele>385</ele>
        <time>2011-11-11T08:37:56Z</time>
      </trkpt>
      <trkpt lat="45.8584" lon="4.77963">
        <ele>385.8</ele>
        <time>2011-11-11T08:37:57Z</time>
      </trkpt>
      <trkpt lat="45.85828" lon="4.77962">
        <ele>391.4</ele>
        <time>2011-11-11T08:38:05Z</time>
      </trkpt>
      <trkpt lat="45.85827" lon="4.77963">
        <ele>392.6</ele>
        <time>2011-11-11T08:38:06Z</time>
      </trkpt>
      <trkpt lat="45.85824" lon="4.77969">
        <ele>394.8</ele>
        <time>2011-11-11T08:38:09Z</time>
      </trkpt>
      <trkpt lat="45.85823" lon="4.7797">
        <ele>395.8</ele>
        <time>2011-11-11T08:38:10Z</time>
      </trkpt>
      <trkpt lat="45.85817" lon="4.77975">
        <ele>401.4</ele>
        <time>2011-11-11T08:38:16Z</time>
      </trkpt>
      <trkpt lat="45.85811" lon="4.77973">
        <ele>406.8</ele>
        <time>2011-11-11T08:38:20Z</time>
      </trkpt>
      <trkpt lat="45.8581" lon="4.77974">
        <ele>407.6</ele>
        <time>2011-11-11T08:38:21Z</time>
      </trkpt>
      <trkpt lat="45.8581" lon="4.77973">
        <ele>409</ele>
        <time>2011-11-11T08:38:24Z</time>
      </trkpt>
      <trkpt lat="45.85812" lon="4.77978">
        <ele>410.4</ele>
        <time>2011-11-11T08:38:27Z</time>
      </trkpt>
      <trkpt lat="45.85813" lon="4.7798">
        <ele>411</ele>
        <time>2011-11-11T08:38:28Z</time>
      </trkpt>
      <trkpt lat="45.8581" lon="4.77978">
        <ele>411</ele>
        <time>2011-11-11T08:38:30Z</time>
      </trkpt>
      <trkpt lat="45.85807" lon="4.77979">
        <ele>411.6</ele>
        <time>2011-11-11T08:38:36Z</time>
      </trkpt>
      <trkpt lat="45.85803" lon="4.77975">
        <ele>412.2</ele>
        <time>2011-11-11T08:38:42Z</time>
      </trkpt>
      <trkpt lat="45.85801" lon="4.77973">
        <ele>412.4</ele>
        <time>2011-11-11T08:38:44Z</time>
      </trkpt>
      <trkpt lat="45.85798" lon="4.77971">
        <ele>412.2</ele>
        <time>2011-11-11T08:38:47Z</time>
      </trkpt>
      <trkpt lat="45.85796" lon="4.7797">
        <ele>412.2</ele>
        <time>2011-11-11T08:38:48Z</time>
      </trkpt>
      <trkpt lat="45.8579" lon="4.77966">
        <ele>412.2</ele>
        <time>2011-11-11T08:38:51Z</time>
      </trkpt>
      <trkpt lat="45.85786" lon="4.7797">
        <ele>412.4</ele>
        <time>2011-11-11T08:38:56Z</time>
      </trkpt>
      <trkpt lat="45.85779" lon="4.77978">
        <ele>414.4</ele>
        <time>2011-11-11T08:39:02Z</time>
      </trkpt>
      <trkpt lat="45.85773" lon="4.77979">
        <ele>416.2</ele>
        <time>2011-11-11T08:39:04Z</time>
      </trkpt>
      <trkpt lat="45.85767" lon="4.77984">
        <ele>420</ele>
        <time>2011-11-11T08:39:09Z</time>
      </trkpt>
      <trkpt lat="45.85766" lon="4.77986">
        <ele>420.4</ele>
        <time>2011-11-11T08:39:10Z</time>
      </trkpt>
      <trkpt lat="45.85764" lon="4.77989">
        <ele>422.4</ele>
        <time>2011-11-11T08:39:12Z</time>
      </trkpt>
      <trkpt lat="45.85763" lon="4.77994">
        <ele>426.2</ele>
        <time>2011-11-11T08:39:15Z</time>
      </trkpt>
      <trkpt lat="45.85761" lon="4.77995">
        <ele>427.6</ele>
        <time>2011-11-11T08:39:16Z</time>
      </trkpt>
      <trkpt lat="45.85758" lon="4.77997">
        <ele>431.4</ele>
        <time>2011-11-11T08:39:21Z</time>
      </trkpt>
      <trkpt lat="45.85748" lon="4.77995">
        <ele>438.6</ele>
        <time>2011-11-11T08:39:27Z</time>
      </trkpt>
      <trkpt lat="45.85748" lon="4.77996">
        <ele>439.2</ele>
        <time>2011-11-11T08:39:28Z</time>
      </trkpt>
      <trkpt lat="45.85743" lon="4.77997">
        <ele>441</ele>
        <time>2011-11-11T08:39:32Z</time>
      </trkpt>
      <trkpt lat="45.85744" lon="4.77994">
        <ele>441.4</ele>
        <time>2011-11-11T08:39:33Z</time>
      </trkpt>
      <trkpt lat="45.85741" lon="4.77987">
        <ele>444.4</ele>
        <time>2011-11-11T08:39:36Z</time>
      </trkpt>
      <trkpt lat="45.8574" lon="4.77982">
        <ele>446.6</ele>
        <time>2011-11-11T08:39:38Z</time>
      </trkpt>
      <trkpt lat="45.85739" lon="4.77977">
        <ele>448.4</ele>
        <time>2011-11-11T08:39:40Z</time>
      </trkpt>
      <trkpt lat="45.85737" lon="4.77975">
        <ele>450.6</ele>
        <time>2011-11-11T08:39:42Z</time>
      </trkpt>
      <trkpt lat="45.85736" lon="4.77974">
        <ele>451.2</ele>
        <time>2011-11-11T08:39:43Z</time>
      </trkpt>
      <trkpt lat="45.85733" lon="4.77976">
        <ele>453.6</ele>
        <time>2011-11-11T08:39:48Z</time>
      </trkpt>
      <trkpt lat="45.85729" lon="4.77975">
        <ele>454.6</ele>
        <time>2011-11-11T08:39:51Z</time>
      </trkpt>
      <trkpt lat="45.85727" lon="4.77977">
        <ele>455.6</ele>
        <time>2011-11-11T08:39:55Z</time>
      </trkpt>
      <trkpt lat="45.85723" lon="4.77979">
        <ele>456</ele>
        <time>2011-11-11T08:39:59Z</time>
      </trkpt>
      <trkpt lat="45.85723" lon="4.77978">
        <ele>455.8</ele>
        <time>2011-11-11T08:40:01Z</time>
      </trkpt>
      <trkpt lat="45.85719" lon="4.77978">
        <ele>457</ele>
        <time>2011-11-11T08:40:06Z</time>
      </trkpt>
      <trkpt lat="45.85713" lon="4.77978">
        <ele>458.2</ele>
        <time>2011-11-11T08:40:09Z</time>
      </trkpt>
      <trkpt lat="45.85709" lon="4.77979">
        <ele>458.4</ele>
        <time>2011-11-11T08:40:13Z</time>
      </trkpt>
      <trkpt lat="45.85715" lon="4.7798">
        <ele>454.4</ele>
        <time>2011-11-11T08:40:32Z</time>
      </trkpt>
      <trkpt lat="45.85714" lon="4.77983">
        <ele>453.6</ele>
        <time>2011-11-11T08:40:34Z</time>
      </trkpt>
      <trkpt lat="45.85715" lon="4.77985">
        <ele>452.8</ele>
        <time>2011-11-11T08:40:37Z</time>
      </trkpt>
      <trkpt lat="45.85714" lon="4.77987">
        <ele>452.2</ele>
        <time>2011-11-11T08:40:39Z</time>
      </trkpt>
      <trkpt lat="45.85714" lon="4.7799">
        <ele>451</ele>
        <time>2011-11-11T08:40:43Z</time>
      </trkpt>
      <trkpt lat="45.85708" lon="4.77991">
        <ele>449.2</ele>
        <time>2011-11-11T08:40:48Z</time>
      </trkpt>
      <trkpt lat="45.85703" lon="4.77988">
        <ele>448</ele>
        <time>2011-11-11T08:40:52Z</time>
      </trkpt>
      <trkpt lat="45.85696" lon="4.77986">
        <ele>446.4</ele>
        <time>2011-11-11T08:40:59Z</time>
      </trkpt>
      <trkpt lat="45.85695" lon="4.77984">
        <ele>446</ele>
        <time>2011-11-11T08:41:01Z</time>
      </trkpt>
      <trkpt lat="45.85694" lon="4.77984">
        <ele>445.8</ele>
        <time>2011-11-11T08:41:02Z</time>
      </trkpt>
      <trkpt lat="45.85693" lon="4.77986">
        <ele>445.6</ele>
        <time>2011-11-11T08:41:04Z</time>
      </trkpt>
      <trkpt lat="45.85692" lon="4.77987">
        <ele>445.4</ele>
        <time>2011-11-11T08:41:05Z</time>
      </trkpt>
      <trkpt lat="45.8569" lon="4.77987">
        <ele>445.2</ele>
        <time>2011-11-11T08:41:09Z</time>
      </trkpt>
      <trkpt lat="45.85684" lon="4.77987">
        <ele>444.6</ele>
        <time>2011-11-11T08:41:16Z</time>
      </trkpt>
      <trkpt lat="45.85681" lon="4.77987">
        <ele>444.4</ele>
        <time>2011-11-11T08:41:18Z</time>
      </trkpt>
      <trkpt lat="45.85681" lon="4.77988">
        <ele>444.4</ele>
        <time>2011-11-11T08:41:19Z</time>
      </trkpt>
      <trkpt lat="45.85677" lon="4.77997">
        <ele>442.6</ele>
        <time>2011-11-11T08:41:31Z</time>
      </trkpt>
      <trkpt lat="45.85673" lon="4.78006">
        <ele>440.4</ele>
        <time>2011-11-11T08:41:45Z</time>
      </trkpt>
      <trkpt lat="45.85667" lon="4.78006">
        <ele>439.8</ele>
        <time>2011-11-11T08:41:52Z</time>
      </trkpt>
      <trkpt lat="45.85665" lon="4.7801">
        <ele>439.4</ele>
        <time>2011-11-11T08:41:55Z</time>
      </trkpt>
      <trkpt lat="45.85662" lon="4.78013">
        <ele>439</ele>
        <time>2011-11-11T08:41:59Z</time>
      </trkpt>
      <trkpt lat="45.85662" lon="4.78016">
        <ele>438.8</ele>
        <time>2011-11-11T08:42:02Z</time>
      </trkpt>
      <trkpt lat="45.85662" lon="4.78017">
        <ele>438.8</ele>
        <time>2011-11-11T08:42:03Z</time>
      </trkpt>
      <trkpt lat="45.85664" lon="4.78026">
        <ele>438.2</ele>
        <time>2011-11-11T08:42:09Z</time>
      </trkpt>
      <trkpt lat="45.85662" lon="4.78029">
        <ele>438.2</ele>
        <time>2011-11-11T08:42:13Z</time>
      </trkpt>
      <trkpt lat="45.85661" lon="4.7803">
        <ele>438</ele>
        <time>2011-11-11T08:42:17Z</time>
      </trkpt>
      <trkpt lat="45.85657" lon="4.78032">
        <ele>438.2</ele>
        <time>2011-11-11T08:42:25Z</time>
      </trkpt>
      <trkpt lat="45.85655" lon="4.78033">
        <ele>438.4</ele>
        <time>2011-11-11T08:42:27Z</time>
      </trkpt>
      <trkpt lat="45.85655" lon="4.78034">
        <ele>438.6</ele>
        <time>2011-11-11T08:42:28Z</time>
      </trkpt>
      <trkpt lat="45.85653" lon="4.78036">
        <ele>439.2</ele>
        <time>2011-11-11T08:42:33Z</time>
      </trkpt>
      <trkpt lat="45.85654" lon="4.7804">
        <ele>440</ele>
        <time>2011-11-11T08:42:37Z</time>
      </trkpt>
      <trkpt lat="45.85642" lon="4.78051">
        <ele>445.2</ele>
        <time>2011-11-11T08:42:57Z</time>
      </trkpt>
      <trkpt lat="45.85641" lon="4.78049">
        <ele>445.4</ele>
        <time>2011-11-11T08:42:58Z</time>
      </trkpt>
      <trkpt lat="45.85638" lon="4.7805">
        <ele>446.6</ele>
        <time>2011-11-11T08:43:04Z</time>
      </trkpt>
      <trkpt lat="45.85637" lon="4.78054">
        <ele>446.8</ele>
        <time>2011-11-11T08:43:08Z</time>
      </trkpt>
      <trkpt lat="45.85638" lon="4.78059">
        <ele>447.4</ele>
        <time>2011-11-11T08:43:13Z</time>
      </trkpt>
      <trkpt lat="45.85639" lon="4.78061">
        <ele>448.4</ele>
        <time>2011-11-11T08:43:18Z</time>
      </trkpt>
      <trkpt lat="45.85639" lon="4.78063">
        <ele>448.6</ele>
        <time>2011-11-11T08:43:19Z</time>
      </trkpt>
      <trkpt lat="45.85644" lon="4.78069">
        <ele>449.2</ele>
        <time>2011-11-11T08:43:24Z</time>
      </trkpt>
      <trkpt lat="45.85643" lon="4.7807">
        <ele>449.4</ele>
        <time>2011-11-11T08:43:25Z</time>
      </trkpt>
      <trkpt lat="45.85646" lon="4.78077">
        <ele>450.4</ele>
        <time>2011-11-11T08:43:31Z</time>
      </trkpt>
      <trkpt lat="45.85648" lon="4.78081">
        <ele>451.2</ele>
        <time>2011-11-11T08:43:36Z</time>
      </trkpt>
      <trkpt lat="45.85651" lon="4.78085">
        <ele>451.8</ele>
        <time>2011-11-11T08:43:39Z</time>
      </trkpt>
      <trkpt lat="45.85651" lon="4.78085">
        <ele>452.2</ele>
        <time>2011-11-11T08:43:40Z</time>
      </trkpt>
      <trkpt lat="45.85653" lon="4.78093">
        <ele>452.6</ele>
        <time>2011-11-11T08:43:44Z</time>
      </trkpt>
      <trkpt lat="45.85654" lon="4.78097">
        <ele>452.6</ele>
        <time>2011-11-11T08:43:45Z</time>
      </trkpt>
      <trkpt lat="45.85658" lon="4.78105">
        <ele>453.4</ele>
        <time>2011-11-11T08:43:50Z</time>
      </trkpt>
      <trkpt lat="45.8566" lon="4.78105">
        <ele>453.6</ele>
        <time>2011-11-11T08:43:51Z</time>
      </trkpt>
      <trkpt lat="45.85662" lon="4.78113">
        <ele>454.2</ele>
        <time>2011-11-11T08:43:55Z</time>
      </trkpt>
      <trkpt lat="45.85663" lon="4.78116">
        <ele>454.8</ele>
        <time>2011-11-11T08:43:57Z</time>
      </trkpt>
      <trkpt lat="45.85664" lon="4.78119">
        <ele>455.2</ele>
        <time>2011-11-11T08:43:59Z</time>
      </trkpt>
      <trkpt lat="45.85667" lon="4.78123">
        <ele>456</ele>
        <time>2011-11-11T08:44:02Z</time>
      </trkpt>
      <trkpt lat="45.85668" lon="4.78125">
        <ele>456.6</ele>
        <time>2011-11-11T08:44:04Z</time>
      </trkpt>
      <trkpt lat="45.8567" lon="4.78129">
        <ele>457</ele>
        <time>2011-11-11T08:44:06Z</time>
      </trkpt>
      <trkpt lat="45.85672" lon="4.78139">
        <ele>458.4</ele>
        <time>2011-11-11T08:44:11Z</time>
      </trkpt>
      <trkpt lat="45.85672" lon="4.78144">
        <ele>459</ele>
        <time>2011-11-11T08:44:14Z</time>
      </trkpt>
      <trkpt lat="45.85673" lon="4.7815">
        <ele>460.2</ele>
        <time>2011-11-11T08:44:19Z</time>
      </trkpt>
      <trkpt lat="45.85673" lon="4.78152">
        <ele>460.6</ele>
        <time>2011-11-11T08:44:21Z</time>
      </trkpt>
      <trkpt lat="45.85678" lon="4.78164">
        <ele>461.8</ele>
        <time>2011-11-11T08:44:27Z</time>
      </trkpt>
      <trkpt lat="45.85679" lon="4.78166">
        <ele>462</ele>
        <time>2011-11-11T08:44:28Z</time>
      </trkpt>
      <trkpt lat="45.85681" lon="4.78176">
        <ele>462.6</ele>
        <time>2011-11-11T08:44:33Z</time>
      </trkpt>
      <trkpt lat="45.85684" lon="4.78179">
        <ele>463.4</ele>
        <time>2011-11-11T08:44:36Z</time>
      </trkpt>
      <trkpt lat="45.85686" lon="4.78182">
        <ele>463.6</ele>
        <time>2011-11-11T08:44:38Z</time>
      </trkpt>
      <trkpt lat="45.85688" lon="4.78185">
        <ele>464.4</ele>
        <time>2011-11-11T08:44:42Z</time>
      </trkpt>
      <trkpt lat="45.8569" lon="4.78187">
        <ele>464.8</ele>
        <time>2011-11-11T08:44:44Z</time>
      </trkpt>
      <trkpt lat="45.85689" lon="4.78191">
        <ele>465.8</ele>
        <time>2011-11-11T08:44:51Z</time>
      </trkpt>
      <trkpt lat="45.8569" lon="4.78196">
        <ele>466.2</ele>
        <time>2011-11-11T08:45:04Z</time>
      </trkpt>
      <trkpt lat="45.85687" lon="4.78195">
        <ele>466</ele>
        <time>2011-11-11T08:45:08Z</time>
      </trkpt>
      <trkpt lat="45.85693" lon="4.78197">
        <ele>466.6</ele>
        <time>2011-11-11T08:45:17Z</time>
      </trkpt>
      <trkpt lat="45.85694" lon="4.78195">
        <ele>466.6</ele>
        <time>2011-11-11T08:45:21Z</time>
      </trkpt>
      <trkpt lat="45.85692" lon="4.78193">
        <ele>467</ele>
        <time>2011-11-11T08:45:23Z</time>
      </trkpt>
      <trkpt lat="45.8569" lon="4.78193">
        <ele>467.8</ele>
        <time>2011-11-11T08:45:26Z</time>
      </trkpt>
      <trkpt lat="45.85692" lon="4.78191">
        <ele>468.8</ele>
        <time>2011-11-11T08:45:32Z</time>
      </trkpt>
      <trkpt lat="45.85692" lon="4.7819">
        <ele>469.2</ele>
        <time>2011-11-11T08:45:33Z</time>
      </trkpt>
      <trkpt lat="45.85695" lon="4.78191">
        <ele>471</ele>
        <time>2011-11-11T08:45:40Z</time>
      </trkpt>
      <trkpt lat="45.85697" lon="4.78192">
        <ele>471.8</ele>
        <time>2011-11-11T08:45:43Z</time>
      </trkpt>
      <trkpt lat="45.85699" lon="4.78193">
        <ele>472</ele>
        <time>2011-11-11T08:45:44Z</time>
      </trkpt>
      <trkpt lat="45.85702" lon="4.78202">
        <ele>473.2</ele>
        <time>2011-11-11T08:45:51Z</time>
      </trkpt>
      <trkpt lat="45.85701" lon="4.78204">
        <ele>473</ele>
        <time>2011-11-11T08:45:52Z</time>
      </trkpt>
      <trkpt lat="45.857" lon="4.78204">
        <ele>473</ele>
        <time>2011-11-11T08:45:53Z</time>
      </trkpt>
      <trkpt lat="45.857" lon="4.78204">
        <ele>473.4</ele>
        <time>2011-11-11T08:45:55Z</time>
      </trkpt>
      <trkpt lat="45.85701" lon="4.78206">
        <ele>473.4</ele>
        <time>2011-11-11T08:45:56Z</time>
      </trkpt>
      <trkpt lat="45.85704" lon="4.78213">
        <ele>473.4</ele>
        <time>2011-11-11T08:45:59Z</time>
      </trkpt>
      <trkpt lat="45.85707" lon="4.78231">
        <ele>473</ele>
        <time>2011-11-11T08:46:06Z</time>
      </trkpt>
      <trkpt lat="45.85707" lon="4.78234">
        <ele>472.8</ele>
        <time>2011-11-11T08:46:08Z</time>
      </trkpt>
      <trkpt lat="45.85706" lon="4.7824">
        <ele>472.6</ele>
        <time>2011-11-11T08:46:11Z</time>
      </trkpt>
      <trkpt lat="45.85702" lon="4.78247">
        <ele>472</ele>
        <time>2011-11-11T08:46:16Z</time>
      </trkpt>
      <trkpt lat="45.857" lon="4.78255">
        <ele>471.8</ele>
        <time>2011-11-11T08:46:20Z</time>
      </trkpt>
      <trkpt lat="45.85699" lon="4.78256">
        <ele>471.6</ele>
        <time>2011-11-11T08:46:21Z</time>
      </trkpt>
      <trkpt lat="45.85696" lon="4.78267">
        <ele>471</ele>
        <time>2011-11-11T08:46:27Z</time>
      </trkpt>
      <trkpt lat="45.85694" lon="4.78275">
        <ele>470.8</ele>
        <time>2011-11-11T08:46:32Z</time>
      </trkpt>
      <trkpt lat="45.85693" lon="4.78276">
        <ele>470.8</ele>
        <time>2011-11-11T08:46:33Z</time>
      </trkpt>
      <trkpt lat="45.85692" lon="4.7828">
        <ele>470.8</ele>
        <time>2011-11-11T08:46:36Z</time>
      </trkpt>
      <trkpt lat="45.8569" lon="4.78288">
        <ele>471.2</ele>
        <time>2011-11-11T08:46:39Z</time>
      </trkpt>
      <trkpt lat="45.85689" lon="4.78294">
        <ele>471.8</ele>
        <time>2011-11-11T08:46:41Z</time>
      </trkpt>
      <trkpt lat="45.8569" lon="4.78306">
        <ele>472.8</ele>
        <time>2011-11-11T08:46:45Z</time>
      </trkpt>
      <trkpt lat="45.85689" lon="4.78309">
        <ele>473.2</ele>
        <time>2011-11-11T08:46:46Z</time>
      </trkpt>
      <trkpt lat="45.85684" lon="4.7832">
        <ele>474.6</ele>
        <time>2011-11-11T08:46:50Z</time>
      </trkpt>
      <trkpt lat="45.85684" lon="4.78327">
        <ele>475.2</ele>
        <time>2011-11-11T08:46:54Z</time>
      </trkpt>
      <trkpt lat="45.85685" lon="4.78328">
        <ele>475.4</ele>
        <time>2011-11-11T08:46:55Z</time>
      </trkpt>
      <trkpt lat="45.85685" lon="4.7833">
        <ele>475.6</ele>
        <time>2011-11-11T08:46:56Z</time>
      </trkpt>
      <trkpt lat="45.85685" lon="4.78338">
        <ele>475.8</ele>
        <time>2011-11-11T08:46:59Z</time>
      </trkpt>
      <trkpt lat="45.85683" lon="4.78355">
        <ele>476.4</ele>
        <time>2011-11-11T08:47:05Z</time>
      </trkpt>
      <trkpt lat="45.85684" lon="4.78358">
        <ele>476.4</ele>
        <time>2011-11-11T08:47:06Z</time>
      </trkpt>
      <trkpt lat="45.85685" lon="4.78369">
        <ele>476.6</ele>
        <time>2011-11-11T08:47:10Z</time>
      </trkpt>
      <trkpt lat="45.85688" lon="4.78384">
        <ele>476.6</ele>
        <time>2011-11-11T08:47:16Z</time>
      </trkpt>
      <trkpt lat="45.85689" lon="4.78387">
        <ele>476.6</ele>
        <time>2011-11-11T08:47:17Z</time>
      </trkpt>
      <trkpt lat="45.85692" lon="4.78394">
        <ele>476.8</ele>
        <time>2011-11-11T08:47:20Z</time>
      </trkpt>
      <trkpt lat="45.85695" lon="4.78407">
        <ele>476.8</ele>
        <time>2011-11-11T08:47:24Z</time>
      </trkpt>
      <trkpt lat="45.85696" lon="4.78409">
        <ele>476.8</ele>
        <time>2011-11-11T08:47:25Z</time>
      </trkpt>
      <trkpt lat="45.85699" lon="4.78427">
        <ele>476.8</ele>
        <time>2011-11-11T08:47:31Z</time>
      </trkpt>
      <trkpt lat="45.85701" lon="4.78435">
        <ele>476.6</ele>
        <time>2011-11-11T08:47:34Z</time>
      </trkpt>
      <trkpt lat="45.85703" lon="4.78442">
        <ele>476.6</ele>
        <time>2011-11-11T08:47:36Z</time>
      </trkpt>
      <trkpt lat="45.85704" lon="4.78446">
        <ele>476.8</ele>
        <time>2011-11-11T08:47:38Z</time>
      </trkpt>
      <trkpt lat="45.85705" lon="4.78453">
        <ele>477</ele>
        <time>2011-11-11T08:47:41Z</time>
      </trkpt>
      <trkpt lat="45.85707" lon="4.78461">
        <ele>477</ele>
        <time>2011-11-11T08:47:44Z</time>
      </trkpt>
      <trkpt lat="45.8571" lon="4.78467">
        <ele>477.6</ele>
        <time>2011-11-11T08:47:47Z</time>
      </trkpt>
      <trkpt lat="45.85715" lon="4.78476">
        <ele>477.8</ele>
        <time>2011-11-11T08:47:52Z</time>
      </trkpt>
      <trkpt lat="45.85718" lon="4.78484">
        <ele>478</ele>
        <time>2011-11-11T08:47:55Z</time>
      </trkpt>
      <trkpt lat="45.85721" lon="4.78487">
        <ele>478.4</ele>
        <time>2011-11-11T08:47:57Z</time>
      </trkpt>
      <trkpt lat="45.85729" lon="4.78496">
        <ele>479.2</ele>
        <time>2011-11-11T08:48:02Z</time>
      </trkpt>
      <trkpt lat="45.85732" lon="4.78502">
        <ele>479.4</ele>
        <time>2011-11-11T08:48:05Z</time>
      </trkpt>
      <trkpt lat="45.85735" lon="4.78506">
        <ele>479.8</ele>
        <time>2011-11-11T08:48:07Z</time>
      </trkpt>
      <trkpt lat="45.85736" lon="4.78508">
        <ele>480</ele>
        <time>2011-11-11T08:48:09Z</time>
      </trkpt>
      <trkpt lat="45.85736" lon="4.7851">
        <ele>480</ele>
        <time>2011-11-11T08:48:10Z</time>
      </trkpt>
      <trkpt lat="45.85739" lon="4.78514">
        <ele>480.4</ele>
        <time>2011-11-11T08:48:13Z</time>
      </trkpt>
      <trkpt lat="45.85745" lon="4.7852">
        <ele>481</ele>
        <time>2011-11-11T08:48:16Z</time>
      </trkpt>
      <trkpt lat="45.85753" lon="4.78529">
        <ele>481.6</ele>
        <time>2011-11-11T08:48:22Z</time>
      </trkpt>
      <trkpt lat="45.85761" lon="4.78536">
        <ele>483</ele>
        <time>2011-11-11T08:48:27Z</time>
      </trkpt>
      <trkpt lat="45.8577" lon="4.78545">
        <ele>484.4</ele>
        <time>2011-11-11T08:48:33Z</time>
      </trkpt>
      <trkpt lat="45.85777" lon="4.78552">
        <ele>485.4</ele>
        <time>2011-11-11T08:48:37Z</time>
      </trkpt>
      <trkpt lat="45.8578" lon="4.78555">
        <ele>486</ele>
        <time>2011-11-11T08:48:39Z</time>
      </trkpt>
      <trkpt lat="45.85782" lon="4.78556">
        <ele>486.2</ele>
        <time>2011-11-11T08:48:40Z</time>
      </trkpt>
      <trkpt lat="45.85786" lon="4.78563">
        <ele>486.8</ele>
        <time>2011-11-11T08:48:43Z</time>
      </trkpt>
      <trkpt lat="45.85792" lon="4.78571">
        <ele>488</ele>
        <time>2011-11-11T08:48:47Z</time>
      </trkpt>
      <trkpt lat="45.85793" lon="4.78574">
        <ele>488.2</ele>
        <time>2011-11-11T08:48:48Z</time>
      </trkpt>
      <trkpt lat="45.85794" lon="4.78575">
        <ele>488.4</ele>
        <time>2011-11-11T08:48:49Z</time>
      </trkpt>
      <trkpt lat="45.85794" lon="4.78577">
        <ele>488.6</ele>
        <time>2011-11-11T08:48:50Z</time>
      </trkpt>
      <trkpt lat="45.85798" lon="4.78584">
        <ele>489.2</ele>
        <time>2011-11-11T08:48:53Z</time>
      </trkpt>
      <trkpt lat="45.858" lon="4.7859">
        <ele>490</ele>
        <time>2011-11-11T08:48:56Z</time>
      </trkpt>
      <trkpt lat="45.85801" lon="4.78593">
        <ele>490</ele>
        <time>2011-11-11T08:48:57Z</time>
      </trkpt>
      <trkpt lat="45.85803" lon="4.78596">
        <ele>490.2</ele>
        <time>2011-11-11T08:48:58Z</time>
      </trkpt>
      <trkpt lat="45.85806" lon="4.78599">
        <ele>491</ele>
        <time>2011-11-11T08:49:01Z</time>
      </trkpt>
      <trkpt lat="45.85808" lon="4.786">
        <ele>491.2</ele>
        <time>2011-11-11T08:49:02Z</time>
      </trkpt>
      <trkpt lat="45.85815" lon="4.78609">
        <ele>491.6</ele>
        <time>2011-11-11T08:49:06Z</time>
      </trkpt>
      <trkpt lat="45.85817" lon="4.78611">
        <ele>491.8</ele>
        <time>2011-11-11T08:49:07Z</time>
      </trkpt>
      <trkpt lat="45.85819" lon="4.7862">
        <ele>492.2</ele>
        <time>2011-11-11T08:49:11Z</time>
      </trkpt>
      <trkpt lat="45.85824" lon="4.78633">
        <ele>493</ele>
        <time>2011-11-11T08:49:19Z</time>
      </trkpt>
      <trkpt lat="45.85825" lon="4.78636">
        <ele>493</ele>
        <time>2011-11-11T08:49:21Z</time>
      </trkpt>
      <trkpt lat="45.85825" lon="4.78639">
        <ele>493</ele>
        <time>2011-11-11T08:49:24Z</time>
      </trkpt>
      <trkpt lat="45.85825" lon="4.78646">
        <ele>493</ele>
        <time>2011-11-11T08:49:28Z</time>
      </trkpt>
      <trkpt lat="45.85826" lon="4.7865">
        <ele>493</ele>
        <time>2011-11-11T08:49:30Z</time>
      </trkpt>
      <trkpt lat="45.85826" lon="4.78654">
        <ele>493</ele>
        <time>2011-11-11T08:49:32Z</time>
      </trkpt>
      <trkpt lat="45.85826" lon="4.78662">
        <ele>493.2</ele>
        <time>2011-11-11T08:49:36Z</time>
      </trkpt>
      <trkpt lat="45.85828" lon="4.78669">
        <ele>493.8</ele>
        <time>2011-11-11T08:49:40Z</time>
      </trkpt>
      <trkpt lat="45.85829" lon="4.78677">
        <ele>494.2</ele>
        <time>2011-11-11T08:49:44Z</time>
      </trkpt>
      <trkpt lat="45.85829" lon="4.78687">
        <ele>494.8</ele>
        <time>2011-11-11T08:49:51Z</time>
      </trkpt>
      <trkpt lat="45.85831" lon="4.787">
        <ele>495</ele>
        <time>2011-11-11T08:49:58Z</time>
      </trkpt>
      <trkpt lat="45.8583" lon="4.7871">
        <ele>495.2</ele>
        <time>2011-11-11T08:50:03Z</time>
      </trkpt>
      <trkpt lat="45.8583" lon="4.78714">
        <ele>495.2</ele>
        <time>2011-11-11T08:50:05Z</time>
      </trkpt>
      <trkpt lat="45.85829" lon="4.78721">
        <ele>495.2</ele>
        <time>2011-11-11T08:50:09Z</time>
      </trkpt>
      <trkpt lat="45.85828" lon="4.78725">
        <ele>495.4</ele>
        <time>2011-11-11T08:50:11Z</time>
      </trkpt>
      <trkpt lat="45.85827" lon="4.78737">
        <ele>495.6</ele>
        <time>2011-11-11T08:50:16Z</time>
      </trkpt>
      <trkpt lat="45.85827" lon="4.78739">
        <ele>495.6</ele>
        <time>2011-11-11T08:50:17Z</time>
      </trkpt>
      <trkpt lat="45.85825" lon="4.78741">
        <ele>495.8</ele>
        <time>2011-11-11T08:50:19Z</time>
      </trkpt>
      <trkpt lat="45.85824" lon="4.78743">
        <ele>496.4</ele>
        <time>2011-11-11T08:50:22Z</time>
      </trkpt>
      <trkpt lat="45.85824" lon="4.78744">
        <ele>496.4</ele>
        <time>2011-11-11T08:50:23Z</time>
      </trkpt>
      <trkpt lat="45.85826" lon="4.7875">
        <ele>497.2</ele>
        <time>2011-11-11T08:50:28Z</time>
      </trkpt>
      <trkpt lat="45.85826" lon="4.78752">
        <ele>497.4</ele>
        <time>2011-11-11T08:50:29Z</time>
      </trkpt>
      <trkpt lat="45.85824" lon="4.78759">
        <ele>498.2</ele>
        <time>2011-11-11T08:50:34Z</time>
      </trkpt>
      <trkpt lat="45.85823" lon="4.78765">
        <ele>498.8</ele>
        <time>2011-11-11T08:50:38Z</time>
      </trkpt>
      <trkpt lat="45.85825" lon="4.78772">
        <ele>499.2</ele>
        <time>2011-11-11T08:50:41Z</time>
      </trkpt>
      <trkpt lat="45.85825" lon="4.78782">
        <ele>500</ele>
        <time>2011-11-11T08:50:48Z</time>
      </trkpt>
      <trkpt lat="45.85824" lon="4.7879">
        <ele>501.2</ele>
        <time>2011-11-11T08:50:54Z</time>
      </trkpt>
      <trkpt lat="45.85824" lon="4.78791">
        <ele>501.4</ele>
        <time>2011-11-11T08:50:55Z</time>
      </trkpt>
      <trkpt lat="45.85826" lon="4.78797">
        <ele>501.8</ele>
        <time>2011-11-11T08:50:59Z</time>
      </trkpt>
      <trkpt lat="45.85824" lon="4.78797">
        <ele>504.2</ele>
        <time>2011-11-11T08:51:16Z</time>
      </trkpt>
      <trkpt lat="45.85821" lon="4.78799">
        <ele>505</ele>
        <time>2011-11-11T08:51:22Z</time>
      </trkpt>
      <trkpt lat="45.85822" lon="4.78803">
        <ele>505.8</ele>
        <time>2011-11-11T08:51:27Z</time>
      </trkpt>
      <trkpt lat="45.85821" lon="4.78803">
        <ele>507</ele>
        <time>2011-11-11T08:51:34Z</time>
      </trkpt>
      <trkpt lat="45.85819" lon="4.78799">
        <ele>508.2</ele>
        <time>2011-11-11T08:51:44Z</time>
      </trkpt>
      <trkpt lat="45.85818" lon="4.78795">
        <ele>508.6</ele>
        <time>2011-11-11T08:51:46Z</time>
      </trkpt>
      <trkpt lat="45.85818" lon="4.78795">
        <ele>508.8</ele>
        <time>2011-11-11T08:51:47Z</time>
      </trkpt>
      <trkpt lat="45.85818" lon="4.78794">
        <ele>509</ele>
        <time>2011-11-11T08:51:50Z</time>
      </trkpt>
      <trkpt lat="45.8582" lon="4.78798">
        <ele>510</ele>
        <time>2011-11-11T08:51:57Z</time>
      </trkpt>
      <trkpt lat="45.85823" lon="4.78799">
        <ele>511.4</ele>
        <time>2011-11-11T08:52:07Z</time>
      </trkpt>
      <trkpt lat="45.85824" lon="4.78797">
        <ele>513.2</ele>
        <time>2011-11-11T08:52:23Z</time>
      </trkpt>
      <trkpt lat="45.85822" lon="4.78802">
        <ele>523.6</ele>
        <time>2011-11-11T08:53:06Z</time>
      </trkpt>
      <trkpt lat="45.8582" lon="4.78806">
        <ele>524.6</ele>
        <time>2011-11-11T08:53:12Z</time>
      </trkpt>
      <trkpt lat="45.85819" lon="4.78807">
        <ele>524.8</ele>
        <time>2011-11-11T08:53:13Z</time>
      </trkpt>
      <trkpt lat="45.85818" lon="4.78808">
        <ele>525</ele>
        <time>2011-11-11T08:53:14Z</time>
      </trkpt>
      <trkpt lat="45.85813" lon="4.78816">
        <ele>525.2</ele>
        <time>2011-11-11T08:53:18Z</time>
      </trkpt>
      <trkpt lat="45.85812" lon="4.78819">
        <ele>525.2</ele>
        <time>2011-11-11T08:53:19Z</time>
      </trkpt>
      <trkpt lat="45.85809" lon="4.78829">
        <ele>525.4</ele>
        <time>2011-11-11T08:53:22Z</time>
      </trkpt>
      <trkpt lat="45.85806" lon="4.78836">
        <ele>525.2</ele>
        <time>2011-11-11T08:53:24Z</time>
      </trkpt>
      <trkpt lat="45.85799" lon="4.78852">
        <ele>525.2</ele>
        <time>2011-11-11T08:53:29Z</time>
      </trkpt>
      <trkpt lat="45.85798" lon="4.78855">
        <ele>525.2</ele>
        <time>2011-11-11T08:53:30Z</time>
      </trkpt>
      <trkpt lat="45.85792" lon="4.78876">
        <ele>525</ele>
        <time>2011-11-11T08:53:36Z</time>
      </trkpt>
      <trkpt lat="45.85787" lon="4.78897">
        <ele>525</ele>
        <time>2011-11-11T08:53:42Z</time>
      </trkpt>
      <trkpt lat="45.85788" lon="4.78901">
        <ele>525</ele>
        <time>2011-11-11T08:53:43Z</time>
      </trkpt>
      <trkpt lat="45.85791" lon="4.78914">
        <ele>524.8</ele>
        <time>2011-11-11T08:53:46Z</time>
      </trkpt>
      <trkpt lat="45.85795" lon="4.78926">
        <ele>524.8</ele>
        <time>2011-11-11T08:53:49Z</time>
      </trkpt>
      <trkpt lat="45.85798" lon="4.7894">
        <ele>524.8</ele>
        <time>2011-11-11T08:53:53Z</time>
      </trkpt>
      <trkpt lat="45.85801" lon="4.78952">
        <ele>524.6</ele>
        <time>2011-11-11T08:53:56Z</time>
      </trkpt>
      <trkpt lat="45.85805" lon="4.78967">
        <ele>524.4</ele>
        <time>2011-11-11T08:54:00Z</time>
      </trkpt>
      <trkpt lat="45.85809" lon="4.78978">
        <ele>524.4</ele>
        <time>2011-11-11T08:54:03Z</time>
      </trkpt>
      <trkpt lat="45.85811" lon="4.78991">
        <ele>524.2</ele>
        <time>2011-11-11T08:54:06Z</time>
      </trkpt>
      <trkpt lat="45.85815" lon="4.79006">
        <ele>524</ele>
        <time>2011-11-11T08:54:10Z</time>
      </trkpt>
      <trkpt lat="45.85816" lon="4.79013">
        <ele>524</ele>
        <time>2011-11-11T08:54:12Z</time>
      </trkpt>
      <trkpt lat="45.85822" lon="4.7903">
        <ele>523.6</ele>
        <time>2011-11-11T08:54:18Z</time>
      </trkpt>
      <trkpt lat="45.85824" lon="4.79035">
        <ele>523.4</ele>
        <time>2011-11-11T08:54:20Z</time>
      </trkpt>
      <trkpt lat="45.85828" lon="4.79049">
        <ele>523</ele>
        <time>2011-11-11T08:54:24Z</time>
      </trkpt>
      <trkpt lat="45.8583" lon="4.79057">
        <ele>522.8</ele>
        <time>2011-11-11T08:54:26Z</time>
      </trkpt>
      <trkpt lat="45.85837" lon="4.79074">
        <ele>522.4</ele>
        <time>2011-11-11T08:54:31Z</time>
      </trkpt>
      <trkpt lat="45.85839" lon="4.79082">
        <ele>522.2</ele>
        <time>2011-11-11T08:54:33Z</time>
      </trkpt>
      <trkpt lat="45.85844" lon="4.79096">
        <ele>521.8</ele>
        <time>2011-11-11T08:54:37Z</time>
      </trkpt>
      <trkpt lat="45.85847" lon="4.79107">
        <ele>521.4</ele>
        <time>2011-11-11T08:54:40Z</time>
      </trkpt>
      <trkpt lat="45.85852" lon="4.79122">
        <ele>521</ele>
        <time>2011-11-11T08:54:44Z</time>
      </trkpt>
      <trkpt lat="45.85855" lon="4.79134">
        <ele>520.8</ele>
        <time>2011-11-11T08:54:47Z</time>
      </trkpt>
      <trkpt lat="45.85858" lon="4.79147">
        <ele>520.4</ele>
        <time>2011-11-11T08:54:50Z</time>
      </trkpt>
      <trkpt lat="45.8586" lon="4.79162">
        <ele>520.2</ele>
        <time>2011-11-11T08:54:54Z</time>
      </trkpt>
      <trkpt lat="45.85862" lon="4.79169">
        <ele>520.2</ele>
        <time>2011-11-11T08:54:56Z</time>
      </trkpt>
      <trkpt lat="45.85862" lon="4.79189">
        <ele>519.8</ele>
        <time>2011-11-11T08:55:01Z</time>
      </trkpt>
      <trkpt lat="45.8586" lon="4.79192">
        <ele>519.8</ele>
        <time>2011-11-11T08:55:02Z</time>
      </trkpt>
      <trkpt lat="45.85856" lon="4.79191">
        <ele>519.8</ele>
        <time>2011-11-11T08:55:04Z</time>
      </trkpt>
      <trkpt lat="45.85851" lon="4.79187">
        <ele>519.6</ele>
        <time>2011-11-11T08:55:06Z</time>
      </trkpt>
      <trkpt lat="45.85846" lon="4.79184">
        <ele>519.4</ele>
        <time>2011-11-11T08:55:08Z</time>
      </trkpt>
      <trkpt lat="45.8584" lon="4.79181">
        <ele>519.2</ele>
        <time>2011-11-11T08:55:10Z</time>
      </trkpt>
      <trkpt lat="45.85827" lon="4.79174">
        <ele>518.8</ele>
        <time>2011-11-11T08:55:15Z</time>
      </trkpt>
      <trkpt lat="45.8582" lon="4.79169">
        <ele>518.4</ele>
        <time>2011-11-11T08:55:18Z</time>
      </trkpt>
      <trkpt lat="45.8581" lon="4.79165">
        <ele>517.8</ele>
        <time>2011-11-11T08:55:22Z</time>
      </trkpt>
      <trkpt lat="45.85805" lon="4.79162">
        <ele>517.4</ele>
        <time>2011-11-11T08:55:24Z</time>
      </trkpt>
      <trkpt lat="45.85793" lon="4.79157">
        <ele>516.6</ele>
        <time>2011-11-11T08:55:29Z</time>
      </trkpt>
      <trkpt lat="45.8579" lon="4.79156">
        <ele>516.4</ele>
        <time>2011-11-11T08:55:30Z</time>
      </trkpt>
      <trkpt lat="45.85775" lon="4.79146">
        <ele>515.2</ele>
        <time>2011-11-11T08:55:37Z</time>
      </trkpt>
      <trkpt lat="45.85773" lon="4.79145">
        <ele>515</ele>
        <time>2011-11-11T08:55:38Z</time>
      </trkpt>
      <trkpt lat="45.85764" lon="4.7914">
        <ele>514.4</ele>
        <time>2011-11-11T08:55:42Z</time>
      </trkpt>
      <trkpt lat="45.85755" lon="4.79137">
        <ele>514</ele>
        <time>2011-11-11T08:55:46Z</time>
      </trkpt>
      <trkpt lat="45.85749" lon="4.79135">
        <ele>513.6</ele>
        <time>2011-11-11T08:55:48Z</time>
      </trkpt>
      <trkpt lat="45.85736" lon="4.7913">
        <ele>513</ele>
        <time>2011-11-11T08:55:54Z</time>
      </trkpt>
      <trkpt lat="45.85733" lon="4.79129">
        <ele>512.8</ele>
        <time>2011-11-11T08:55:55Z</time>
      </trkpt>
      <trkpt lat="45.85718" lon="4.79125">
        <ele>512.2</ele>
        <time>2011-11-11T08:56:01Z</time>
      </trkpt>
      <trkpt lat="45.85702" lon="4.7912">
        <ele>511.4</ele>
        <time>2011-11-11T08:56:07Z</time>
      </trkpt>
      <trkpt lat="45.85699" lon="4.79118">
        <ele>511.2</ele>
        <time>2011-11-11T08:56:08Z</time>
      </trkpt>
      <trkpt lat="45.85689" lon="4.79112">
        <ele>510.6</ele>
        <time>2011-11-11T08:56:12Z</time>
      </trkpt>
      <trkpt lat="45.85688" lon="4.79111">
        <ele>510.2</ele>
        <time>2011-11-11T08:56:16Z</time>
      </trkpt>
      <trkpt lat="45.85689" lon="4.79116">
        <ele>508.8</ele>
        <time>2011-11-11T08:56:29Z</time>
      </trkpt>
      <trkpt lat="45.85684" lon="4.79113">
        <ele>508.6</ele>
        <time>2011-11-11T08:56:31Z</time>
      </trkpt>
      <trkpt lat="45.85674" lon="4.79102">
        <ele>508</ele>
        <time>2011-11-11T08:56:36Z</time>
      </trkpt>
      <trkpt lat="45.85672" lon="4.791">
        <ele>508</ele>
        <time>2011-11-11T08:56:37Z</time>
      </trkpt>
      <trkpt lat="45.85667" lon="4.79096">
        <ele>507.8</ele>
        <time>2011-11-11T08:56:39Z</time>
      </trkpt>
      <trkpt lat="45.85656" lon="4.79086">
        <ele>507.2</ele>
        <time>2011-11-11T08:56:44Z</time>
      </trkpt>
      <trkpt lat="45.85651" lon="4.79081">
        <ele>507</ele>
        <time>2011-11-11T08:56:46Z</time>
      </trkpt>
      <trkpt lat="45.85643" lon="4.79074">
        <ele>506.6</ele>
        <time>2011-11-11T08:56:49Z</time>
      </trkpt>
      <trkpt lat="45.85633" lon="4.79069">
        <ele>506</ele>
        <time>2011-11-11T08:56:53Z</time>
      </trkpt>
      <trkpt lat="45.85628" lon="4.79067">
        <ele>505.8</ele>
        <time>2011-11-11T08:56:55Z</time>
      </trkpt>
      <trkpt lat="45.85614" lon="4.79061">
        <ele>504.8</ele>
        <time>2011-11-11T08:57:01Z</time>
      </trkpt>
      <trkpt lat="45.85613" lon="4.7906">
        <ele>504.4</ele>
        <time>2011-11-11T08:57:03Z</time>
      </trkpt>
      <trkpt lat="45.85611" lon="4.79061">
        <ele>504</ele>
        <time>2011-11-11T08:57:05Z</time>
      </trkpt>
      <trkpt lat="45.8561" lon="4.79061">
        <ele>503.8</ele>
        <time>2011-11-11T08:57:06Z</time>
      </trkpt>
      <trkpt lat="45.85602" lon="4.79056">
        <ele>502.8</ele>
        <time>2011-11-11T08:57:11Z</time>
      </trkpt>
      <trkpt lat="45.85598" lon="4.79054">
        <ele>502.4</ele>
        <time>2011-11-11T08:57:13Z</time>
      </trkpt>
      <trkpt lat="45.85595" lon="4.79053">
        <ele>502.2</ele>
        <time>2011-11-11T08:57:14Z</time>
      </trkpt>
      <trkpt lat="45.85587" lon="4.7905">
        <ele>501.4</ele>
        <time>2011-11-11T08:57:18Z</time>
      </trkpt>
      <trkpt lat="45.85576" lon="4.79048">
        <ele>500.4</ele>
        <time>2011-11-11T08:57:22Z</time>
      </trkpt>
      <trkpt lat="45.85571" lon="4.79048">
        <ele>500.2</ele>
        <time>2011-11-11T08:57:24Z</time>
      </trkpt>
      <trkpt lat="45.8556" lon="4.79046">
        <ele>499</ele>
        <time>2011-11-11T08:57:29Z</time>
      </trkpt>
      <trkpt lat="45.85556" lon="4.79045">
        <ele>498.6</ele>
        <time>2011-11-11T08:57:31Z</time>
      </trkpt>
      <trkpt lat="45.85547" lon="4.79039">
        <ele>497.8</ele>
        <time>2011-11-11T08:57:35Z</time>
      </trkpt>
      <trkpt lat="45.85538" lon="4.79035">
        <ele>497.4</ele>
        <time>2011-11-11T08:57:39Z</time>
      </trkpt>
      <trkpt lat="45.85534" lon="4.79033">
        <ele>497.2</ele>
        <time>2011-11-11T08:57:41Z</time>
      </trkpt>
      <trkpt lat="45.85524" lon="4.79026">
        <ele>496.8</ele>
        <time>2011-11-11T08:57:46Z</time>
      </trkpt>
      <trkpt lat="45.85522" lon="4.79025">
        <ele>496.6</ele>
        <time>2011-11-11T08:57:47Z</time>
      </trkpt>
      <trkpt lat="45.85509" lon="4.79018">
        <ele>496.2</ele>
        <time>2011-11-11T08:57:53Z</time>
      </trkpt>
      <trkpt lat="45.85503" lon="4.79015">
        <ele>496</ele>
        <time>2011-11-11T08:57:56Z</time>
      </trkpt>
      <trkpt lat="45.85502" lon="4.79018">
        <ele>495.8</ele>
        <time>2011-11-11T08:57:58Z</time>
      </trkpt>
      <trkpt lat="45.85508" lon="4.79027">
        <ele>495.6</ele>
        <time>2011-11-11T08:58:02Z</time>
      </trkpt>
      <trkpt lat="45.85513" lon="4.7903">
        <ele>495.6</ele>
        <time>2011-11-11T08:58:04Z</time>
      </trkpt>
      <trkpt lat="45.85515" lon="4.79032">
        <ele>495.4</ele>
        <time>2011-11-11T08:58:05Z</time>
      </trkpt>
      <trkpt lat="45.85525" lon="4.79039">
        <ele>495.2</ele>
        <time>2011-11-11T08:58:09Z</time>
      </trkpt>
      <trkpt lat="45.85532" lon="4.79044">
        <ele>495.2</ele>
        <time>2011-11-11T08:58:12Z</time>
      </trkpt>
      <trkpt lat="45.85542" lon="4.79052">
        <ele>495</ele>
        <time>2011-11-11T08:58:16Z</time>
      </trkpt>
      <trkpt lat="45.85549" lon="4.79056">
        <ele>494.8</ele>
        <time>2011-11-11T08:58:19Z</time>
      </trkpt>
      <trkpt lat="45.85557" lon="4.79061">
        <ele>494.6</ele>
        <time>2011-11-11T08:58:22Z</time>
      </trkpt>
      <trkpt lat="45.85565" lon="4.79069">
        <ele>494.2</ele>
        <time>2011-11-11T08:58:26Z</time>
      </trkpt>
      <trkpt lat="45.85568" lon="4.79072">
        <ele>494.2</ele>
        <time>2011-11-11T08:58:27Z</time>
      </trkpt>
      <trkpt lat="45.85582" lon="4.79083">
        <ele>494</ele>
        <time>2011-11-11T08:58:32Z</time>
      </trkpt>
      <trkpt lat="45.85594" lon="4.791">
        <ele>493.6</ele>
        <time>2011-11-11T08:58:37Z</time>
      </trkpt>
      <trkpt lat="45.85595" lon="4.79103">
        <ele>493.6</ele>
        <time>2011-11-11T08:58:38Z</time>
      </trkpt>
      <trkpt lat="45.85596" lon="4.79123">
        <ele>493.2</ele>
        <time>2011-11-11T08:58:42Z</time>
      </trkpt>
      <trkpt lat="45.85596" lon="4.79131">
        <ele>493</ele>
        <time>2011-11-11T08:58:44Z</time>
      </trkpt>
      <trkpt lat="45.85597" lon="4.79153">
        <ele>492.6</ele>
        <time>2011-11-11T08:58:49Z</time>
      </trkpt>
      <trkpt lat="45.85597" lon="4.79158">
        <ele>492.4</ele>
        <time>2011-11-11T08:58:50Z</time>
      </trkpt>
      <trkpt lat="45.85596" lon="4.79178">
        <ele>491.8</ele>
        <time>2011-11-11T08:58:55Z</time>
      </trkpt>
      <trkpt lat="45.85597" lon="4.79186">
        <ele>491.6</ele>
        <time>2011-11-11T08:58:57Z</time>
      </trkpt>
      <trkpt lat="45.85598" lon="4.7921">
        <ele>491</ele>
        <time>2011-11-11T08:59:02Z</time>
      </trkpt>
      <trkpt lat="45.85598" lon="4.79215">
        <ele>490.8</ele>
        <time>2011-11-11T08:59:03Z</time>
      </trkpt>
      <trkpt lat="45.85598" lon="4.79235">
        <ele>490.2</ele>
        <time>2011-11-11T08:59:08Z</time>
      </trkpt>
      <trkpt lat="45.85599" lon="4.79242">
        <ele>489.8</ele>
        <time>2011-11-11T08:59:10Z</time>
      </trkpt>
      <trkpt lat="45.856" lon="4.79255">
        <ele>489.6</ele>
        <time>2011-11-11T08:59:13Z</time>
      </trkpt>
      <trkpt lat="45.85602" lon="4.79268">
        <ele>489.2</ele>
        <time>2011-11-11T08:59:16Z</time>
      </trkpt>
      <trkpt lat="45.85606" lon="4.79283">
        <ele>488.6</ele>
        <time>2011-11-11T08:59:20Z</time>
      </trkpt>
      <trkpt lat="45.85608" lon="4.79294">
        <ele>488.4</ele>
        <time>2011-11-11T08:59:23Z</time>
      </trkpt>
      <trkpt lat="45.85608" lon="4.79296">
        <ele>488.4</ele>
        <time>2011-11-11T08:59:24Z</time>
      </trkpt>
      <trkpt lat="45.85608" lon="4.79297">
        <ele>488.2</ele>
        <time>2011-11-11T08:59:26Z</time>
      </trkpt>
      <trkpt lat="45.85608" lon="4.793">
        <ele>487.8</ele>
        <time>2011-11-11T08:59:29Z</time>
      </trkpt>
      <trkpt lat="45.85612" lon="4.79314">
        <ele>487.4</ele>
        <time>2011-11-11T08:59:34Z</time>
      </trkpt>
      <trkpt lat="45.85614" lon="4.79321">
        <ele>487.2</ele>
        <time>2011-11-11T08:59:36Z</time>
      </trkpt>
      <trkpt lat="45.85617" lon="4.79336">
        <ele>486.8</ele>
        <time>2011-11-11T08:59:40Z</time>
      </trkpt>
      <trkpt lat="45.85619" lon="4.79347">
        <ele>486.6</ele>
        <time>2011-11-11T08:59:43Z</time>
      </trkpt>
      <trkpt lat="45.85619" lon="4.79354">
        <ele>486.4</ele>
        <time>2011-11-11T08:59:45Z</time>
      </trkpt>
      <trkpt lat="45.85618" lon="4.79356">
        <ele>486.4</ele>
        <time>2011-11-11T08:59:46Z</time>
      </trkpt>
      <trkpt lat="45.85611" lon="4.79348">
        <ele>486</ele>
        <time>2011-11-11T08:59:50Z</time>
      </trkpt>
      <trkpt lat="45.85609" lon="4.79345">
        <ele>486</ele>
        <time>2011-11-11T08:59:51Z</time>
      </trkpt>
      <trkpt lat="45.85599" lon="4.79329">
        <ele>485.6</ele>
        <time>2011-11-11T08:59:56Z</time>
      </trkpt>
      <trkpt lat="45.85597" lon="4.79326">
        <ele>485.6</ele>
        <time>2011-11-11T08:59:57Z</time>
      </trkpt>
      <trkpt lat="45.85589" lon="4.79314">
        <ele>485.2</ele>
        <time>2011-11-11T09:00:01Z</time>
      </trkpt>
      <trkpt lat="45.85583" lon="4.79305">
        <ele>485</ele>
        <time>2011-11-11T09:00:04Z</time>
      </trkpt>
      <trkpt lat="45.85579" lon="4.79299">
        <ele>484.8</ele>
        <time>2011-11-11T09:00:06Z</time>
      </trkpt>
      <trkpt lat="45.85569" lon="4.79286">
        <ele>484.2</ele>
        <time>2011-11-11T09:00:11Z</time>
      </trkpt>
      <trkpt lat="45.85567" lon="4.79283">
        <ele>484.2</ele>
        <time>2011-11-11T09:00:12Z</time>
      </trkpt>
      <trkpt lat="45.85554" lon="4.79269">
        <ele>483.6</ele>
        <time>2011-11-11T09:00:18Z</time>
      </trkpt>
      <trkpt lat="45.85544" lon="4.79267">
        <ele>483.2</ele>
        <time>2011-11-11T09:00:22Z</time>
      </trkpt>
      <trkpt lat="45.85536" lon="4.79268">
        <ele>482.8</ele>
        <time>2011-11-11T09:00:25Z</time>
      </trkpt>
      <trkpt lat="45.85531" lon="4.79269">
        <ele>482.6</ele>
        <time>2011-11-11T09:00:27Z</time>
      </trkpt>
      <trkpt lat="45.85517" lon="4.79271">
        <ele>482</ele>
        <time>2011-11-11T09:00:32Z</time>
      </trkpt>
      <trkpt lat="45.85515" lon="4.79271">
        <ele>482</ele>
        <time>2011-11-11T09:00:33Z</time>
      </trkpt>
      <trkpt lat="45.85499" lon="4.79275">
        <ele>481</ele>
        <time>2011-11-11T09:00:39Z</time>
      </trkpt>
      <trkpt lat="45.85496" lon="4.79275">
        <ele>481</ele>
        <time>2011-11-11T09:00:40Z</time>
      </trkpt>
      <trkpt lat="45.8548" lon="4.79277">
        <ele>480</ele>
        <time>2011-11-11T09:00:46Z</time>
      </trkpt>
      <trkpt lat="45.85477" lon="4.79278">
        <ele>480</ele>
        <time>2011-11-11T09:00:47Z</time>
      </trkpt>
      <trkpt lat="45.8547" lon="4.7928">
        <ele>479.4</ele>
        <time>2011-11-11T09:00:50Z</time>
      </trkpt>
      <trkpt lat="45.85468" lon="4.79286">
        <ele>479</ele>
        <time>2011-11-11T09:00:52Z</time>
      </trkpt>
      <trkpt lat="45.85467" lon="4.79293">
        <ele>478.8</ele>
        <time>2011-11-11T09:00:54Z</time>
      </trkpt>
      <trkpt lat="45.85467" lon="4.79297">
        <ele>478.6</ele>
        <time>2011-11-11T09:00:55Z</time>
      </trkpt>
      <trkpt lat="45.85467" lon="4.79309">
        <ele>478</ele>
        <time>2011-11-11T09:00:58Z</time>
      </trkpt>
      <trkpt lat="45.85462" lon="4.79318">
        <ele>477.6</ele>
        <time>2011-11-11T09:01:01Z</time>
      </trkpt>
      <trkpt lat="45.8546" lon="4.79319">
        <ele>477.4</ele>
        <time>2011-11-11T09:01:02Z</time>
      </trkpt>
      <trkpt lat="45.85452" lon="4.79317">
        <ele>476.8</ele>
        <time>2011-11-11T09:01:05Z</time>
      </trkpt>
      <trkpt lat="45.85447" lon="4.79314">
        <ele>476.4</ele>
        <time>2011-11-11T09:01:07Z</time>
      </trkpt>
      <trkpt lat="45.85444" lon="4.79313">
        <ele>476.2</ele>
        <time>2011-11-11T09:01:08Z</time>
      </trkpt>
      <trkpt lat="45.85434" lon="4.79309">
        <ele>475.2</ele>
        <time>2011-11-11T09:01:12Z</time>
      </trkpt>
      <trkpt lat="45.85426" lon="4.79306">
        <ele>474.6</ele>
        <time>2011-11-11T09:01:15Z</time>
      </trkpt>
      <trkpt lat="45.85416" lon="4.79303">
        <ele>473.8</ele>
        <time>2011-11-11T09:01:19Z</time>
      </trkpt>
      <trkpt lat="45.85408" lon="4.79299">
        <ele>472.8</ele>
        <time>2011-11-11T09:01:23Z</time>
      </trkpt>
      <trkpt lat="45.85404" lon="4.79297">
        <ele>472.4</ele>
        <time>2011-11-11T09:01:25Z</time>
      </trkpt>
      <trkpt lat="45.85393" lon="4.79297">
        <ele>471.2</ele>
        <time>2011-11-11T09:01:30Z</time>
      </trkpt>
      <trkpt lat="45.85392" lon="4.79299">
        <ele>471</ele>
        <time>2011-11-11T09:01:31Z</time>
      </trkpt>
      <trkpt lat="45.85391" lon="4.79302">
        <ele>470.8</ele>
        <time>2011-11-11T09:01:32Z</time>
      </trkpt>
      <trkpt lat="45.85389" lon="4.79313">
        <ele>470.2</ele>
        <time>2011-11-11T09:01:35Z</time>
      </trkpt>
      <trkpt lat="45.85389" lon="4.79317">
        <ele>470</ele>
        <time>2011-11-11T09:01:36Z</time>
      </trkpt>
      <trkpt lat="45.85388" lon="4.79329">
        <ele>469.2</ele>
        <time>2011-11-11T09:01:39Z</time>
      </trkpt>
      <trkpt lat="45.85386" lon="4.79344">
        <ele>468.4</ele>
        <time>2011-11-11T09:01:43Z</time>
      </trkpt>
      <trkpt lat="45.85385" lon="4.79355">
        <ele>467.8</ele>
        <time>2011-11-11T09:01:46Z</time>
      </trkpt>
      <trkpt lat="45.85384" lon="4.79361">
        <ele>467.4</ele>
        <time>2011-11-11T09:01:48Z</time>
      </trkpt>
      <trkpt lat="45.85382" lon="4.79377">
        <ele>466.6</ele>
        <time>2011-11-11T09:01:53Z</time>
      </trkpt>
      <trkpt lat="45.85381" lon="4.79383">
        <ele>466.2</ele>
        <time>2011-11-11T09:01:55Z</time>
      </trkpt>
      <trkpt lat="45.85377" lon="4.79397">
        <ele>465.2</ele>
        <time>2011-11-11T09:02:00Z</time>
      </trkpt>
      <trkpt lat="45.85374" lon="4.79409">
        <ele>464.4</ele>
        <time>2011-11-11T09:02:05Z</time>
      </trkpt>
      <trkpt lat="45.85373" lon="4.79412">
        <ele>464.2</ele>
        <time>2011-11-11T09:02:06Z</time>
      </trkpt>
      <trkpt lat="45.85372" lon="4.79426">
        <ele>463</ele>
        <time>2011-11-11T09:02:12Z</time>
      </trkpt>
      <trkpt lat="45.8537" lon="4.79436">
        <ele>462.2</ele>
        <time>2011-11-11T09:02:16Z</time>
      </trkpt>
      <trkpt lat="45.85368" lon="4.7944">
        <ele>461.8</ele>
        <time>2011-11-11T09:02:18Z</time>
      </trkpt>
      <trkpt lat="45.85364" lon="4.79448">
        <ele>461.2</ele>
        <time>2011-11-11T09:02:21Z</time>
      </trkpt>
      <trkpt lat="45.8536" lon="4.79454">
        <ele>460.6</ele>
        <time>2011-11-11T09:02:24Z</time>
      </trkpt>
      <trkpt lat="45.85359" lon="4.79457">
        <ele>460.4</ele>
        <time>2011-11-11T09:02:25Z</time>
      </trkpt>
      <trkpt lat="45.85357" lon="4.79465">
        <ele>459.8</ele>
        <time>2011-11-11T09:02:28Z</time>
      </trkpt>
      <trkpt lat="45.85354" lon="4.79475">
        <ele>459.2</ele>
        <time>2011-11-11T09:02:31Z</time>
      </trkpt>
      <trkpt lat="45.85353" lon="4.79482">
        <ele>459</ele>
        <time>2011-11-11T09:02:33Z</time>
      </trkpt>
      <trkpt lat="45.85353" lon="4.79497">
        <ele>457.8</ele>
        <time>2011-11-11T09:02:38Z</time>
      </trkpt>
      <trkpt lat="45.85353" lon="4.79511">
        <ele>457.2</ele>
        <time>2011-11-11T09:02:42Z</time>
      </trkpt>
      <trkpt lat="45.85351" lon="4.79518">
        <ele>456.4</ele>
        <time>2011-11-11T09:02:45Z</time>
      </trkpt>
      <trkpt lat="45.85349" lon="4.79531">
        <ele>455.2</ele>
        <time>2011-11-11T09:02:50Z</time>
      </trkpt>
      <trkpt lat="45.85349" lon="4.79536">
        <ele>454.8</ele>
        <time>2011-11-11T09:02:52Z</time>
      </trkpt>
      <trkpt lat="45.85348" lon="4.7954">
        <ele>454.2</ele>
        <time>2011-11-11T09:02:55Z</time>
      </trkpt>
      <trkpt lat="45.85347" lon="4.7954">
        <ele>453.8</ele>
        <time>2011-11-11T09:02:56Z</time>
      </trkpt>
      <trkpt lat="45.85345" lon="4.79544">
        <ele>453</ele>
        <time>2011-11-11T09:02:59Z</time>
      </trkpt>
      <trkpt lat="45.85341" lon="4.79553">
        <ele>451.4</ele>
        <time>2011-11-11T09:03:05Z</time>
      </trkpt>
      <trkpt lat="45.85339" lon="4.79551">
        <ele>451</ele>
        <time>2011-11-11T09:03:06Z</time>
      </trkpt>
      <trkpt lat="45.85335" lon="4.79544">
        <ele>449.8</ele>
        <time>2011-11-11T09:03:09Z</time>
      </trkpt>
      <trkpt lat="45.85328" lon="4.79539">
        <ele>448.8</ele>
        <time>2011-11-11T09:03:12Z</time>
      </trkpt>
      <trkpt lat="45.85323" lon="4.79536">
        <ele>447.4</ele>
        <time>2011-11-11T09:03:16Z</time>
      </trkpt>
      <trkpt lat="45.85322" lon="4.79534">
        <ele>446.8</ele>
        <time>2011-11-11T09:03:18Z</time>
      </trkpt>
      <trkpt lat="45.85319" lon="4.79532">
        <ele>445.6</ele>
        <time>2011-11-11T09:03:22Z</time>
      </trkpt>
      <trkpt lat="45.85308" lon="4.79525">
        <ele>444.6</ele>
        <time>2011-11-11T09:03:26Z</time>
      </trkpt>
      <trkpt lat="45.85301" lon="4.79524">
        <ele>444</ele>
        <time>2011-11-11T09:03:28Z</time>
      </trkpt>
      <trkpt lat="45.85296" lon="4.79526">
        <ele>443.4</ele>
        <time>2011-11-11T09:03:30Z</time>
      </trkpt>
      <trkpt lat="45.85293" lon="4.79533">
        <ele>442.8</ele>
        <time>2011-11-11T09:03:32Z</time>
      </trkpt>
      <trkpt lat="45.85291" lon="4.79536">
        <ele>442.4</ele>
        <time>2011-11-11T09:03:33Z</time>
      </trkpt>
      <trkpt lat="45.85288" lon="4.79543">
        <ele>441.8</ele>
        <time>2011-11-11T09:03:35Z</time>
      </trkpt>
      <trkpt lat="45.85283" lon="4.79558">
        <ele>439.8</ele>
        <time>2011-11-11T09:03:40Z</time>
      </trkpt>
      <trkpt lat="45.85282" lon="4.79562">
        <ele>439.4</ele>
        <time>2011-11-11T09:03:41Z</time>
      </trkpt>
      <trkpt lat="45.85275" lon="4.79579">
        <ele>437.4</ele>
        <time>2011-11-11T09:03:46Z</time>
      </trkpt>
      <trkpt lat="45.85272" lon="4.79586">
        <ele>436.4</ele>
        <time>2011-11-11T09:03:48Z</time>
      </trkpt>
      <trkpt lat="45.85268" lon="4.79598">
        <ele>435</ele>
        <time>2011-11-11T09:03:51Z</time>
      </trkpt>
      <trkpt lat="45.85265" lon="4.79605">
        <ele>433.8</ele>
        <time>2011-11-11T09:03:54Z</time>
      </trkpt>
      <trkpt lat="45.85264" lon="4.79606">
        <ele>433.4</ele>
        <time>2011-11-11T09:03:55Z</time>
      </trkpt>
      <trkpt lat="45.85262" lon="4.79605">
        <ele>431.6</ele>
        <time>2011-11-11T09:03:59Z</time>
      </trkpt>
      <trkpt lat="45.85262" lon="4.79603">
        <ele>429.2</ele>
        <time>2011-11-11T09:04:05Z</time>
      </trkpt>
      <trkpt lat="45.85259" lon="4.79606">
        <ele>427</ele>
        <time>2011-11-11T09:04:11Z</time>
      </trkpt>
      <trkpt lat="45.85258" lon="4.79607">
        <ele>426.6</ele>
        <time>2011-11-11T09:04:12Z</time>
      </trkpt>
      <trkpt lat="45.85253" lon="4.79605">
        <ele>424.8</ele>
        <time>2011-11-11T09:04:17Z</time>
      </trkpt>
      <trkpt lat="45.85248" lon="4.79605">
        <ele>423.8</ele>
        <time>2011-11-11T09:04:20Z</time>
      </trkpt>
      <trkpt lat="45.85243" lon="4.79606">
        <ele>423.2</ele>
        <time>2011-11-11T09:04:22Z</time>
      </trkpt>
      <trkpt lat="45.85236" lon="4.79606">
        <ele>422.2</ele>
        <time>2011-11-11T09:04:25Z</time>
      </trkpt>
      <trkpt lat="45.85234" lon="4.79605">
        <ele>421.6</ele>
        <time>2011-11-11T09:04:27Z</time>
      </trkpt>
      <trkpt lat="45.85229" lon="4.79604">
        <ele>420.6</ele>
        <time>2011-11-11T09:04:30Z</time>
      </trkpt>
      <trkpt lat="45.85227" lon="4.79605">
        <ele>420</ele>
        <time>2011-11-11T09:04:32Z</time>
      </trkpt>
      <trkpt lat="45.85225" lon="4.79605">
        <ele>419.6</ele>
        <time>2011-11-11T09:04:33Z</time>
      </trkpt>
      <trkpt lat="45.85216" lon="4.79602">
        <ele>418</ele>
        <time>2011-11-11T09:04:38Z</time>
      </trkpt>
      <trkpt lat="45.85211" lon="4.796">
        <ele>417.4</ele>
        <time>2011-11-11T09:04:40Z</time>
      </trkpt>
      <trkpt lat="45.852" lon="4.79596">
        <ele>416.2</ele>
        <time>2011-11-11T09:04:44Z</time>
      </trkpt>
      <trkpt lat="45.85192" lon="4.79594">
        <ele>415.4</ele>
        <time>2011-11-11T09:04:47Z</time>
      </trkpt>
      <trkpt lat="45.85183" lon="4.79596">
        <ele>414.4</ele>
        <time>2011-11-11T09:04:50Z</time>
      </trkpt>
      <trkpt lat="45.85174" lon="4.79605">
        <ele>413.4</ele>
        <time>2011-11-11T09:04:54Z</time>
      </trkpt>
      <trkpt lat="45.85173" lon="4.79607">
        <ele>412.2</ele>
        <time>2011-11-11T09:04:58Z</time>
      </trkpt>
      <trkpt lat="45.85175" lon="4.79614">
        <ele>410.8</ele>
        <time>2011-11-11T09:05:03Z</time>
      </trkpt>
      <trkpt lat="45.85182" lon="4.79625">
        <ele>409.8</ele>
        <time>2011-11-11T09:05:07Z</time>
      </trkpt>
      <trkpt lat="45.85184" lon="4.79626">
        <ele>409.6</ele>
        <time>2011-11-11T09:05:08Z</time>
      </trkpt>
      <trkpt lat="45.85187" lon="4.79629">
        <ele>409</ele>
        <time>2011-11-11T09:05:10Z</time>
      </trkpt>
      <trkpt lat="45.85193" lon="4.79631">
        <ele>408.4</ele>
        <time>2011-11-11T09:05:12Z</time>
      </trkpt>
      <trkpt lat="45.85199" lon="4.79635">
        <ele>408</ele>
        <time>2011-11-11T09:05:14Z</time>
      </trkpt>
      <trkpt lat="45.85202" lon="4.79638">
        <ele>407.8</ele>
        <time>2011-11-11T09:05:15Z</time>
      </trkpt>
      <trkpt lat="45.85207" lon="4.79642">
        <ele>407.2</ele>
        <time>2011-11-11T09:05:17Z</time>
      </trkpt>
      <trkpt lat="45.85216" lon="4.79652">
        <ele>406.2</ele>
        <time>2011-11-11T09:05:21Z</time>
      </trkpt>
      <trkpt lat="45.85218" lon="4.79656">
        <ele>406</ele>
        <time>2011-11-11T09:05:22Z</time>
      </trkpt>
      <trkpt lat="45.85223" lon="4.79673">
        <ele>404.4</ele>
        <time>2011-11-11T09:05:28Z</time>
      </trkpt>
      <trkpt lat="45.85222" lon="4.79676">
        <ele>404</ele>
        <time>2011-11-11T09:05:29Z</time>
      </trkpt>
      <trkpt lat="45.85215" lon="4.79681">
        <ele>403.2</ele>
        <time>2011-11-11T09:05:32Z</time>
      </trkpt>
      <trkpt lat="45.85203" lon="4.79677">
        <ele>401.8</ele>
        <time>2011-11-11T09:05:37Z</time>
      </trkpt>
      <trkpt lat="45.85201" lon="4.79676">
        <ele>401.6</ele>
        <time>2011-11-11T09:05:38Z</time>
      </trkpt>
      <trkpt lat="45.85189" lon="4.79677">
        <ele>400.4</ele>
        <time>2011-11-11T09:05:43Z</time>
      </trkpt>
      <trkpt lat="45.85184" lon="4.79681">
        <ele>399.8</ele>
        <time>2011-11-11T09:05:45Z</time>
      </trkpt>
      <trkpt lat="45.85174" lon="4.79693">
        <ele>398.6</ele>
        <time>2011-11-11T09:05:50Z</time>
      </trkpt>
      <trkpt lat="45.85169" lon="4.79698">
        <ele>398</ele>
        <time>2011-11-11T09:05:52Z</time>
      </trkpt>
      <trkpt lat="45.85159" lon="4.79711">
        <ele>396.8</ele>
        <time>2011-11-11T09:05:57Z</time>
      </trkpt>
      <trkpt lat="45.85155" lon="4.79716">
        <ele>396.4</ele>
        <time>2011-11-11T09:05:59Z</time>
      </trkpt>
      <trkpt lat="45.85146" lon="4.7972">
        <ele>395.4</ele>
        <time>2011-11-11T09:06:03Z</time>
      </trkpt>
      <trkpt lat="45.85137" lon="4.79723">
        <ele>394.2</ele>
        <time>2011-11-11T09:06:07Z</time>
      </trkpt>
      <trkpt lat="45.85135" lon="4.79725">
        <ele>394</ele>
        <time>2011-11-11T09:06:08Z</time>
      </trkpt>
      <trkpt lat="45.85134" lon="4.79737">
        <ele>393</ele>
        <time>2011-11-11T09:06:12Z</time>
      </trkpt>
      <trkpt lat="45.85132" lon="4.79748">
        <ele>392.4</ele>
        <time>2011-11-11T09:06:15Z</time>
      </trkpt>
      <trkpt lat="45.85131" lon="4.79754">
        <ele>391.8</ele>
        <time>2011-11-11T09:06:17Z</time>
      </trkpt>
      <trkpt lat="45.8513" lon="4.79772">
        <ele>390.6</ele>
        <time>2011-11-11T09:06:22Z</time>
      </trkpt>
      <trkpt lat="45.85131" lon="4.79776">
        <ele>390.4</ele>
        <time>2011-11-11T09:06:23Z</time>
      </trkpt>
      <trkpt lat="45.85133" lon="4.7979">
        <ele>389.8</ele>
        <time>2011-11-11T09:06:27Z</time>
      </trkpt>
      <trkpt lat="45.85137" lon="4.79801">
        <ele>389</ele>
        <time>2011-11-11T09:06:31Z</time>
      </trkpt>
      <trkpt lat="45.85142" lon="4.79809">
        <ele>388.6</ele>
        <time>2011-11-11T09:06:35Z</time>
      </trkpt>
      <trkpt lat="45.85143" lon="4.79811">
        <ele>388.4</ele>
        <time>2011-11-11T09:06:37Z</time>
      </trkpt>
      <trkpt lat="45.85147" lon="4.79816">
        <ele>388</ele>
        <time>2011-11-11T09:06:40Z</time>
      </trkpt>
      <trkpt lat="45.8515" lon="4.79821">
        <ele>387.8</ele>
        <time>2011-11-11T09:06:42Z</time>
      </trkpt>
      <trkpt lat="45.85152" lon="4.79825">
        <ele>387.6</ele>
        <time>2011-11-11T09:06:44Z</time>
      </trkpt>
      <trkpt lat="45.85155" lon="4.7983">
        <ele>387.4</ele>
        <time>2011-11-11T09:06:46Z</time>
      </trkpt>
      <trkpt lat="45.85157" lon="4.79837">
        <ele>387.2</ele>
        <time>2011-11-11T09:06:48Z</time>
      </trkpt>
      <trkpt lat="45.8516" lon="4.79843">
        <ele>387</ele>
        <time>2011-11-11T09:06:50Z</time>
      </trkpt>
      <trkpt lat="45.85168" lon="4.7985">
        <ele>386.8</ele>
        <time>2011-11-11T09:06:53Z</time>
      </trkpt>
      <trkpt lat="45.85174" lon="4.79862">
        <ele>386.4</ele>
        <time>2011-11-11T09:06:57Z</time>
      </trkpt>
      <trkpt lat="45.85174" lon="4.79864">
        <ele>386.4</ele>
        <time>2011-11-11T09:06:58Z</time>
      </trkpt>
      <trkpt lat="45.85183" lon="4.79879">
        <ele>385.8</ele>
        <time>2011-11-11T09:07:03Z</time>
      </trkpt>
      <trkpt lat="45.85186" lon="4.79883">
        <ele>385.6</ele>
        <time>2011-11-11T09:07:05Z</time>
      </trkpt>
      <trkpt lat="45.85193" lon="4.79898">
        <ele>385.4</ele>
        <time>2011-11-11T09:07:09Z</time>
      </trkpt>
      <trkpt lat="45.85196" lon="4.79907">
        <ele>385</ele>
        <time>2011-11-11T09:07:12Z</time>
      </trkpt>
      <trkpt lat="45.85199" lon="4.79915">
        <ele>384.6</ele>
        <time>2011-11-11T09:07:15Z</time>
      </trkpt>
      <trkpt lat="45.85202" lon="4.79933">
        <ele>384</ele>
        <time>2011-11-11T09:07:21Z</time>
      </trkpt>
      <trkpt lat="45.85205" lon="4.79955">
        <ele>383.4</ele>
        <time>2011-11-11T09:07:29Z</time>
      </trkpt>
      <trkpt lat="45.85205" lon="4.79959">
        <ele>383.2</ele>
        <time>2011-11-11T09:07:30Z</time>
      </trkpt>
      <trkpt lat="45.85211" lon="4.7998">
        <ele>383.2</ele>
        <time>2011-11-11T09:07:35Z</time>
      </trkpt>
      <trkpt lat="45.85213" lon="4.79984">
        <ele>383</ele>
        <time>2011-11-11T09:07:36Z</time>
      </trkpt>
      <trkpt lat="45.85212" lon="4.79993">
        <ele>383</ele>
        <time>2011-11-11T09:07:39Z</time>
      </trkpt>
      <trkpt lat="45.85209" lon="4.79996">
        <ele>382.8</ele>
        <time>2011-11-11T09:07:41Z</time>
      </trkpt>
      <trkpt lat="45.85202" lon="4.79994">
        <ele>382.2</ele>
        <time>2011-11-11T09:07:46Z</time>
      </trkpt>
      <trkpt lat="45.85201" lon="4.79993">
        <ele>382.2</ele>
        <time>2011-11-11T09:07:47Z</time>
      </trkpt>
      <trkpt lat="45.852" lon="4.79988">
        <ele>381.8</ele>
        <time>2011-11-11T09:07:51Z</time>
      </trkpt>
      <trkpt lat="45.85198" lon="4.79981">
        <ele>381.2</ele>
        <time>2011-11-11T09:07:57Z</time>
      </trkpt>
      <trkpt lat="45.85197" lon="4.79981">
        <ele>381</ele>
        <time>2011-11-11T09:07:58Z</time>
      </trkpt>
      <trkpt lat="45.85193" lon="4.79981">
        <ele>380.4</ele>
        <time>2011-11-11T09:08:02Z</time>
      </trkpt>
      <trkpt lat="45.85191" lon="4.79982">
        <ele>380.2</ele>
        <time>2011-11-11T09:08:05Z</time>
      </trkpt>
      <trkpt lat="45.85189" lon="4.79984">
        <ele>379.8</ele>
        <time>2011-11-11T09:08:08Z</time>
      </trkpt>
      <trkpt lat="45.85188" lon="4.79984">
        <ele>379.6</ele>
        <time>2011-11-11T09:08:09Z</time>
      </trkpt>
      <trkpt lat="45.85188" lon="4.7999">
        <ele>378.8</ele>
        <time>2011-11-11T09:08:15Z</time>
      </trkpt>
      <trkpt lat="45.85184" lon="4.79993">
        <ele>378.2</ele>
        <time>2011-11-11T09:08:20Z</time>
      </trkpt>
      <trkpt lat="45.85178" lon="4.79994">
        <ele>377.2</ele>
        <time>2011-11-11T09:08:26Z</time>
      </trkpt>
      <trkpt lat="45.85177" lon="4.79996">
        <ele>377.2</ele>
        <time>2011-11-11T09:08:27Z</time>
      </trkpt>
      <trkpt lat="45.85176" lon="4.8">
        <ele>377</ele>
        <time>2011-11-11T09:08:31Z</time>
      </trkpt>
      <trkpt lat="45.85175" lon="4.8">
        <ele>377</ele>
        <time>2011-11-11T09:08:32Z</time>
      </trkpt>
      <trkpt lat="45.85174" lon="4.80001">
        <ele>376.8</ele>
        <time>2011-11-11T09:08:33Z</time>
      </trkpt>
      <trkpt lat="45.85172" lon="4.80006">
        <ele>376.6</ele>
        <time>2011-11-11T09:08:37Z</time>
      </trkpt>
      <trkpt lat="45.85166" lon="4.80008">
        <ele>376.4</ele>
        <time>2011-11-11T09:08:43Z</time>
      </trkpt>
      <trkpt lat="45.85165" lon="4.80007">
        <ele>376.2</ele>
        <time>2011-11-11T09:08:45Z</time>
      </trkpt>
      <trkpt lat="45.85164" lon="4.80007">
        <ele>376.2</ele>
        <time>2011-11-11T09:08:47Z</time>
      </trkpt>
      <trkpt lat="45.85162" lon="4.80007">
        <ele>376.8</ele>
        <time>2011-11-11T09:08:53Z</time>
      </trkpt>
      <trkpt lat="45.8516" lon="4.80008">
        <ele>377</ele>
        <time>2011-11-11T09:08:55Z</time>
      </trkpt>
      <trkpt lat="45.8516" lon="4.80012">
        <ele>377.6</ele>
        <time>2011-11-11T09:08:58Z</time>
      </trkpt>
      <trkpt lat="45.85154" lon="4.80017">
        <ele>378.4</ele>
        <time>2011-11-11T09:09:05Z</time>
      </trkpt>
      <trkpt lat="45.85153" lon="4.80016">
        <ele>378.6</ele>
        <time>2011-11-11T09:09:06Z</time>
      </trkpt>
      <trkpt lat="45.85147" lon="4.80016">
        <ele>380</ele>
        <time>2011-11-11T09:09:12Z</time>
      </trkpt>
      <trkpt lat="45.85145" lon="4.80016">
        <ele>380</ele>
        <time>2011-11-11T09:09:14Z</time>
      </trkpt>
      <trkpt lat="45.8514" lon="4.80015">
        <ele>380.2</ele>
        <time>2011-11-11T09:09:18Z</time>
      </trkpt>
      <trkpt lat="45.85134" lon="4.80008">
        <ele>380.8</ele>
        <time>2011-11-11T09:09:25Z</time>
      </trkpt>
      <trkpt lat="45.85131" lon="4.80004">
        <ele>380.4</ele>
        <time>2011-11-11T09:09:29Z</time>
      </trkpt>
      <trkpt lat="45.85127" lon="4.80001">
        <ele>380.4</ele>
        <time>2011-11-11T09:09:32Z</time>
      </trkpt>
      <trkpt lat="45.85126" lon="4.79999">
        <ele>380.4</ele>
        <time>2011-11-11T09:09:33Z</time>
      </trkpt>
      <trkpt lat="45.85126" lon="4.79995">
        <ele>380.4</ele>
        <time>2011-11-11T09:09:35Z</time>
      </trkpt>
      <trkpt lat="45.85125" lon="4.79991">
        <ele>380.2</ele>
        <time>2011-11-11T09:09:38Z</time>
      </trkpt>
      <trkpt lat="45.85125" lon="4.79991">
        <ele>380.2</ele>
        <time>2011-11-11T09:09:39Z</time>
      </trkpt>
      <trkpt lat="45.85124" lon="4.79993">
        <ele>380.2</ele>
        <time>2011-11-11T09:09:41Z</time>
      </trkpt>
      <trkpt lat="45.85121" lon="4.79996">
        <ele>380.2</ele>
        <time>2011-11-11T09:09:44Z</time>
      </trkpt>
      <trkpt lat="45.8512" lon="4.79997">
        <ele>380.2</ele>
        <time>2011-11-11T09:09:45Z</time>
      </trkpt>
      <trkpt lat="45.85119" lon="4.79999">
        <ele>380.2</ele>
        <time>2011-11-11T09:09:47Z</time>
      </trkpt>
      <trkpt lat="45.85118" lon="4.79999">
        <ele>380.4</ele>
        <time>2011-11-11T09:09:49Z</time>
      </trkpt>
      <trkpt lat="45.85118" lon="4.79998">
        <ele>380.4</ele>
        <time>2011-11-11T09:09:50Z</time>
      </trkpt>
      <trkpt lat="45.85116" lon="4.80002">
        <ele>381.6</ele>
        <time>2011-11-11T09:09:52Z</time>
      </trkpt>
      <trkpt lat="45.85119" lon="4.80006">
        <ele>383</ele>
        <time>2011-11-11T09:09:55Z</time>
      </trkpt>
      <trkpt lat="45.85121" lon="4.80011">
        <ele>384.6</ele>
        <time>2011-11-11T09:09:59Z</time>
      </trkpt>
      <trkpt lat="45.8512" lon="4.80012">
        <ele>385.6</ele>
        <time>2011-11-11T09:10:01Z</time>
      </trkpt>
      <trkpt lat="45.8512" lon="4.80014">
        <ele>386</ele>
        <time>2011-11-11T09:10:02Z</time>
      </trkpt>
      <trkpt lat="45.85122" lon="4.80019">
        <ele>388</ele>
        <time>2011-11-11T09:10:06Z</time>
      </trkpt>
      <trkpt lat="45.85121" lon="4.8002">
        <ele>388.4</ele>
        <time>2011-11-11T09:10:07Z</time>
      </trkpt>
      <trkpt lat="45.85121" lon="4.80022">
        <ele>389.2</ele>
        <time>2011-11-11T09:10:09Z</time>
      </trkpt>
      <trkpt lat="45.8512" lon="4.80024">
        <ele>390.2</ele>
        <time>2011-11-11T09:10:11Z</time>
      </trkpt>
      <trkpt lat="45.8512" lon="4.80025">
        <ele>391.2</ele>
        <time>2011-11-11T09:10:13Z</time>
      </trkpt>
      <trkpt lat="45.85119" lon="4.80027">
        <ele>391.6</ele>
        <time>2011-11-11T09:10:14Z</time>
      </trkpt>
      <trkpt lat="45.85117" lon="4.80033">
        <ele>393.4</ele>
        <time>2011-11-11T09:10:18Z</time>
      </trkpt>
      <trkpt lat="45.85115" lon="4.80035">
        <ele>394.2</ele>
        <time>2011-11-11T09:10:20Z</time>
      </trkpt>
      <trkpt lat="45.85114" lon="4.80037">
        <ele>395.2</ele>
        <time>2011-11-11T09:10:22Z</time>
      </trkpt>
      <trkpt lat="45.85112" lon="4.80039">
        <ele>397</ele>
        <time>2011-11-11T09:10:26Z</time>
      </trkpt>
      <trkpt lat="45.85111" lon="4.80039">
        <ele>397.6</ele>
        <time>2011-11-11T09:10:27Z</time>
      </trkpt>
      <trkpt lat="45.85108" lon="4.80037">
        <ele>398</ele>
        <time>2011-11-11T09:10:29Z</time>
      </trkpt>
      <trkpt lat="45.85102" lon="4.80038">
        <ele>398.8</ele>
        <time>2011-11-11T09:10:33Z</time>
      </trkpt>
      <trkpt lat="45.85101" lon="4.80039">
        <ele>399</ele>
        <time>2011-11-11T09:10:34Z</time>
      </trkpt>
      <trkpt lat="45.851" lon="4.80039">
        <ele>399.2</ele>
        <time>2011-11-11T09:10:35Z</time>
      </trkpt>
      <trkpt lat="45.85098" lon="4.8004">
        <ele>400</ele>
        <time>2011-11-11T09:10:38Z</time>
      </trkpt>
      <trkpt lat="45.851" lon="4.80042">
        <ele>402.4</ele>
        <time>2011-11-11T09:10:42Z</time>
      </trkpt>
      <trkpt lat="45.85099" lon="4.80042">
        <ele>403.6</ele>
        <time>2011-11-11T09:10:45Z</time>
      </trkpt>
      <trkpt lat="45.85098" lon="4.80042">
        <ele>403.8</ele>
        <time>2011-11-11T09:10:46Z</time>
      </trkpt>
      <trkpt lat="45.85096" lon="4.80042">
        <ele>404.6</ele>
        <time>2011-11-11T09:10:48Z</time>
      </trkpt>
      <trkpt lat="45.85092" lon="4.80044">
        <ele>405.6</ele>
        <time>2011-11-11T09:10:51Z</time>
      </trkpt>
      <trkpt lat="45.8509" lon="4.80046">
        <ele>406</ele>
        <time>2011-11-11T09:10:52Z</time>
      </trkpt>
      <trkpt lat="45.85087" lon="4.80047">
        <ele>406.6</ele>
        <time>2011-11-11T09:10:56Z</time>
      </trkpt>
      <trkpt lat="45.85087" lon="4.80047">
        <ele>406.8</ele>
        <time>2011-11-11T09:10:57Z</time>
      </trkpt>
      <trkpt lat="45.85084" lon="4.80047">
        <ele>407.2</ele>
        <time>2011-11-11T09:11:02Z</time>
      </trkpt>
      <trkpt lat="45.8508" lon="4.80049">
        <ele>407.4</ele>
        <time>2011-11-11T09:11:08Z</time>
      </trkpt>
      <trkpt lat="45.85077" lon="4.80054">
        <ele>407.4</ele>
        <time>2011-11-11T09:11:13Z</time>
      </trkpt>
      <trkpt lat="45.85075" lon="4.80058">
        <ele>407.4</ele>
        <time>2011-11-11T09:11:16Z</time>
      </trkpt>
      <trkpt lat="45.85073" lon="4.80059">
        <ele>407.2</ele>
        <time>2011-11-11T09:11:18Z</time>
      </trkpt>
      <trkpt lat="45.85072" lon="4.80061">
        <ele>407.2</ele>
        <time>2011-11-11T09:11:19Z</time>
      </trkpt>
      <trkpt lat="45.85073" lon="4.80071">
        <ele>407.6</ele>
        <time>2011-11-11T09:11:23Z</time>
      </trkpt>
      <trkpt lat="45.85073" lon="4.80081">
        <ele>407.4</ele>
        <time>2011-11-11T09:11:27Z</time>
      </trkpt>
      <trkpt lat="45.85074" lon="4.80095">
        <ele>407.8</ele>
        <time>2011-11-11T09:11:32Z</time>
      </trkpt>
      <trkpt lat="45.85074" lon="4.80096">
        <ele>407.8</ele>
        <time>2011-11-11T09:11:33Z</time>
      </trkpt>
      <trkpt lat="45.85074" lon="4.801">
        <ele>408.4</ele>
        <time>2011-11-11T09:11:38Z</time>
      </trkpt>
      <trkpt lat="45.85073" lon="4.801">
        <ele>408.4</ele>
        <time>2011-11-11T09:11:39Z</time>
      </trkpt>
      <trkpt lat="45.85071" lon="4.80105">
        <ele>410.4</ele>
        <time>2011-11-11T09:11:51Z</time>
      </trkpt>
      <trkpt lat="45.85065" lon="4.80114">
        <ele>411.4</ele>
        <time>2011-11-11T09:11:58Z</time>
      </trkpt>
      <trkpt lat="45.85057" lon="4.80122">
        <ele>411.8</ele>
        <time>2011-11-11T09:12:03Z</time>
      </trkpt>
      <trkpt lat="45.85048" lon="4.80128">
        <ele>412.2</ele>
        <time>2011-11-11T09:12:09Z</time>
      </trkpt>
      <trkpt lat="45.8504" lon="4.80135">
        <ele>412.4</ele>
        <time>2011-11-11T09:12:14Z</time>
      </trkpt>
      <trkpt lat="45.85038" lon="4.80137">
        <ele>412.4</ele>
        <time>2011-11-11T09:12:15Z</time>
      </trkpt>
      <trkpt lat="45.85031" lon="4.80144">
        <ele>412.8</ele>
        <time>2011-11-11T09:12:19Z</time>
      </trkpt>
      <trkpt lat="45.85024" lon="4.8015">
        <ele>413.2</ele>
        <time>2011-11-11T09:12:23Z</time>
      </trkpt>
      <trkpt lat="45.85021" lon="4.80154">
        <ele>413.4</ele>
        <time>2011-11-11T09:12:25Z</time>
      </trkpt>
      <trkpt lat="45.85014" lon="4.80164">
        <ele>414</ele>
        <time>2011-11-11T09:12:30Z</time>
      </trkpt>
      <trkpt lat="45.85011" lon="4.80169">
        <ele>414</ele>
        <time>2011-11-11T09:12:32Z</time>
      </trkpt>
      <trkpt lat="45.85008" lon="4.80174">
        <ele>414.2</ele>
        <time>2011-11-11T09:12:35Z</time>
      </trkpt>
      <trkpt lat="45.85013" lon="4.80187">
        <ele>414.4</ele>
        <time>2011-11-11T09:12:39Z</time>
      </trkpt>
      <trkpt lat="45.85015" lon="4.80193">
        <ele>414.4</ele>
        <time>2011-11-11T09:12:41Z</time>
      </trkpt>
      <trkpt lat="45.85016" lon="4.80196">
        <ele>414.6</ele>
        <time>2011-11-11T09:12:42Z</time>
      </trkpt>
      <trkpt lat="45.8502" lon="4.80202">
        <ele>414.6</ele>
        <time>2011-11-11T09:12:44Z</time>
      </trkpt>
      <trkpt lat="45.85028" lon="4.80215">
        <ele>414.4</ele>
        <time>2011-11-11T09:12:49Z</time>
      </trkpt>
      <trkpt lat="45.85038" lon="4.80233">
        <ele>414.2</ele>
        <time>2011-11-11T09:12:56Z</time>
      </trkpt>
      <trkpt lat="45.85039" lon="4.80236">
        <ele>414.2</ele>
        <time>2011-11-11T09:12:57Z</time>
      </trkpt>
      <trkpt lat="45.85045" lon="4.8025">
        <ele>414</ele>
        <time>2011-11-11T09:13:02Z</time>
      </trkpt>
      <trkpt lat="45.8504" lon="4.80254">
        <ele>413.8</ele>
        <time>2011-11-11T09:13:05Z</time>
      </trkpt>
      <trkpt lat="45.85038" lon="4.80255">
        <ele>413.8</ele>
        <time>2011-11-11T09:13:06Z</time>
      </trkpt>
      <trkpt lat="45.85029" lon="4.80262">
        <ele>413.6</ele>
        <time>2011-11-11T09:13:11Z</time>
      </trkpt>
      <trkpt lat="45.85021" lon="4.80268">
        <ele>413.4</ele>
        <time>2011-11-11T09:13:17Z</time>
      </trkpt>
      <trkpt lat="45.8502" lon="4.8027">
        <ele>413.4</ele>
        <time>2011-11-11T09:13:18Z</time>
      </trkpt>
      <trkpt lat="45.85013" lon="4.80277">
        <ele>413.6</ele>
        <time>2011-11-11T09:13:25Z</time>
      </trkpt>
      <trkpt lat="45.85009" lon="4.80286">
        <ele>414.6</ele>
        <time>2011-11-11T09:13:31Z</time>
      </trkpt>
      <trkpt lat="45.85008" lon="4.80286">
        <ele>415.2</ele>
        <time>2011-11-11T09:13:34Z</time>
      </trkpt>
      <trkpt lat="45.85005" lon="4.80288">
        <ele>415.6</ele>
        <time>2011-11-11T09:13:38Z</time>
      </trkpt>
      <trkpt lat="45.85004" lon="4.80288">
        <ele>415.8</ele>
        <time>2011-11-11T09:13:39Z</time>
      </trkpt>
      <trkpt lat="45.85003" lon="4.80288">
        <ele>415.8</ele>
        <time>2011-11-11T09:13:40Z</time>
      </trkpt>
      <trkpt lat="45.85001" lon="4.8029">
        <ele>416.2</ele>
        <time>2011-11-11T09:13:43Z</time>
      </trkpt>
      <trkpt lat="45.84997" lon="4.80296">
        <ele>416.6</ele>
        <time>2011-11-11T09:13:47Z</time>
      </trkpt>
      <trkpt lat="45.84995" lon="4.80297">
        <ele>416.6</ele>
        <time>2011-11-11T09:13:48Z</time>
      </trkpt>
      <trkpt lat="45.84993" lon="4.803">
        <ele>417</ele>
        <time>2011-11-11T09:13:51Z</time>
      </trkpt>
      <trkpt lat="45.8499" lon="4.80303">
        <ele>416.8</ele>
        <time>2011-11-11T09:13:54Z</time>
      </trkpt>
      <trkpt lat="45.84988" lon="4.80306">
        <ele>417.2</ele>
        <time>2011-11-11T09:13:57Z</time>
      </trkpt>
      <trkpt lat="45.84984" lon="4.80308">
        <ele>417.4</ele>
        <time>2011-11-11T09:14:01Z</time>
      </trkpt>
      <trkpt lat="45.84979" lon="4.80318">
        <ele>417.8</ele>
        <time>2011-11-11T09:14:07Z</time>
      </trkpt>
      <trkpt lat="45.84978" lon="4.80319">
        <ele>418</ele>
        <time>2011-11-11T09:14:08Z</time>
      </trkpt>
      <trkpt lat="45.84976" lon="4.80322">
        <ele>417.8</ele>
        <time>2011-11-11T09:14:11Z</time>
      </trkpt>
      <trkpt lat="45.84973" lon="4.80325">
        <ele>418</ele>
        <time>2011-11-11T09:14:14Z</time>
      </trkpt>
      <trkpt lat="45.84971" lon="4.80327">
        <ele>418</ele>
        <time>2011-11-11T09:14:16Z</time>
      </trkpt>
      <trkpt lat="45.84967" lon="4.80332">
        <ele>418.4</ele>
        <time>2011-11-11T09:14:20Z</time>
      </trkpt>
      <trkpt lat="45.84965" lon="4.80337">
        <ele>419.2</ele>
        <time>2011-11-11T09:14:24Z</time>
      </trkpt>
      <trkpt lat="45.84964" lon="4.80339">
        <ele>419.6</ele>
        <time>2011-11-11T09:14:25Z</time>
      </trkpt>
      <trkpt lat="45.84959" lon="4.80344">
        <ele>420</ele>
        <time>2011-11-11T09:14:28Z</time>
      </trkpt>
      <trkpt lat="45.84959" lon="4.80344">
        <ele>420.2</ele>
        <time>2011-11-11T09:14:31Z</time>
      </trkpt>
      <trkpt lat="45.84951" lon="4.80351">
        <ele>420.2</ele>
        <time>2011-11-11T09:14:39Z</time>
      </trkpt>
      <trkpt lat="45.8495" lon="4.80353">
        <ele>420.2</ele>
        <time>2011-11-11T09:14:40Z</time>
      </trkpt>
      <trkpt lat="45.84949" lon="4.80354">
        <ele>420.2</ele>
        <time>2011-11-11T09:14:41Z</time>
      </trkpt>
      <trkpt lat="45.84948" lon="4.80355">
        <ele>420.6</ele>
        <time>2011-11-11T09:14:44Z</time>
      </trkpt>
      <trkpt lat="45.84945" lon="4.8036">
        <ele>420.8</ele>
        <time>2011-11-11T09:14:49Z</time>
      </trkpt>
      <trkpt lat="45.84946" lon="4.80365">
        <ele>421.6</ele>
        <time>2011-11-11T09:14:52Z</time>
      </trkpt>
      <trkpt lat="45.84946" lon="4.80367">
        <ele>421.8</ele>
        <time>2011-11-11T09:14:54Z</time>
      </trkpt>
      <trkpt lat="45.84946" lon="4.80367">
        <ele>422</ele>
        <time>2011-11-11T09:14:55Z</time>
      </trkpt>
      <trkpt lat="45.84946" lon="4.80376">
        <ele>424.6</ele>
        <time>2011-11-11T09:15:02Z</time>
      </trkpt>
      <trkpt lat="45.84944" lon="4.8038">
        <ele>425.4</ele>
        <time>2011-11-11T09:15:06Z</time>
      </trkpt>
      <trkpt lat="45.84944" lon="4.80385">
        <ele>426.4</ele>
        <time>2011-11-11T09:15:09Z</time>
      </trkpt>
      <trkpt lat="45.84945" lon="4.80388">
        <ele>427.4</ele>
        <time>2011-11-11T09:15:12Z</time>
      </trkpt>
      <trkpt lat="45.84946" lon="4.80392">
        <ele>428.4</ele>
        <time>2011-11-11T09:15:14Z</time>
      </trkpt>
      <trkpt lat="45.84946" lon="4.80398">
        <ele>430.2</ele>
        <time>2011-11-11T09:15:18Z</time>
      </trkpt>
      <trkpt lat="45.84946" lon="4.80402">
        <ele>431.4</ele>
        <time>2011-11-11T09:15:20Z</time>
      </trkpt>
      <trkpt lat="45.84945" lon="4.80408">
        <ele>432.6</ele>
        <time>2011-11-11T09:15:24Z</time>
      </trkpt>
      <trkpt lat="45.84943" lon="4.8041">
        <ele>433</ele>
        <time>2011-11-11T09:15:25Z</time>
      </trkpt>
      <trkpt lat="45.84943" lon="4.80413">
        <ele>434</ele>
        <time>2011-11-11T09:15:27Z</time>
      </trkpt>
      <trkpt lat="45.84941" lon="4.80416">
        <ele>434.8</ele>
        <time>2011-11-11T09:15:31Z</time>
      </trkpt>
      <trkpt lat="45.84939" lon="4.80417">
        <ele>434.8</ele>
        <time>2011-11-11T09:15:32Z</time>
      </trkpt>
      <trkpt lat="45.84941" lon="4.80417">
        <ele>435</ele>
        <time>2011-11-11T09:15:33Z</time>
      </trkpt>
      <trkpt lat="45.84939" lon="4.80423">
        <ele>436.6</ele>
        <time>2011-11-11T09:15:37Z</time>
      </trkpt>
      <trkpt lat="45.84939" lon="4.80425">
        <ele>437.2</ele>
        <time>2011-11-11T09:15:40Z</time>
      </trkpt>
      <trkpt lat="45.84939" lon="4.80427">
        <ele>437.4</ele>
        <time>2011-11-11T09:15:42Z</time>
      </trkpt>
      <trkpt lat="45.84939" lon="4.80428">
        <ele>437.6</ele>
        <time>2011-11-11T09:15:43Z</time>
      </trkpt>
      <trkpt lat="45.84936" lon="4.80435">
        <ele>437.4</ele>
        <time>2011-11-11T09:15:46Z</time>
      </trkpt>
      <trkpt lat="45.84937" lon="4.80436">
        <ele>437.6</ele>
        <time>2011-11-11T09:15:47Z</time>
      </trkpt>
      <trkpt lat="45.84934" lon="4.80439">
        <ele>437.4</ele>
        <time>2011-11-11T09:15:50Z</time>
      </trkpt>
      <trkpt lat="45.84931" lon="4.80438">
        <ele>437.4</ele>
        <time>2011-11-11T09:15:53Z</time>
      </trkpt>
      <trkpt lat="45.84927" lon="4.80432">
        <ele>437.2</ele>
        <time>2011-11-11T09:15:59Z</time>
      </trkpt>
      <trkpt lat="45.84926" lon="4.80434">
        <ele>438.2</ele>
        <time>2011-11-11T09:16:04Z</time>
      </trkpt>
      <trkpt lat="45.84926" lon="4.80435">
        <ele>438.4</ele>
        <time>2011-11-11T09:16:05Z</time>
      </trkpt>
      <trkpt lat="45.84928" lon="4.80439">
        <ele>439.8</ele>
        <time>2011-11-11T09:16:10Z</time>
      </trkpt>
      <trkpt lat="45.84929" lon="4.8044">
        <ele>440.2</ele>
        <time>2011-11-11T09:16:12Z</time>
      </trkpt>
      <trkpt lat="45.84928" lon="4.80441">
        <ele>440.4</ele>
        <time>2011-11-11T09:16:13Z</time>
      </trkpt>
      <trkpt lat="45.84928" lon="4.80442">
        <ele>440.8</ele>
        <time>2011-11-11T09:16:14Z</time>
      </trkpt>
      <trkpt lat="45.84931" lon="4.80447">
        <ele>442</ele>
        <time>2011-11-11T09:16:18Z</time>
      </trkpt>
      <trkpt lat="45.84931" lon="4.80452">
        <ele>442.8</ele>
        <time>2011-11-11T09:16:21Z</time>
      </trkpt>
      <trkpt lat="45.84932" lon="4.80458">
        <ele>443.6</ele>
        <time>2011-11-11T09:16:24Z</time>
      </trkpt>
      <trkpt lat="45.84933" lon="4.80459">
        <ele>443.8</ele>
        <time>2011-11-11T09:16:25Z</time>
      </trkpt>
      <trkpt lat="45.84933" lon="4.80464">
        <ele>444.2</ele>
        <time>2011-11-11T09:16:27Z</time>
      </trkpt>
      <trkpt lat="45.84932" lon="4.80467">
        <ele>444.4</ele>
        <time>2011-11-11T09:16:28Z</time>
      </trkpt>
      <trkpt lat="45.84933" lon="4.8047">
        <ele>444.6</ele>
        <time>2011-11-11T09:16:30Z</time>
      </trkpt>
      <trkpt lat="45.84936" lon="4.80474">
        <ele>445</ele>
        <time>2011-11-11T09:16:33Z</time>
      </trkpt>
      <trkpt lat="45.84937" lon="4.80475">
        <ele>445.2</ele>
        <time>2011-11-11T09:16:34Z</time>
      </trkpt>
      <trkpt lat="45.84938" lon="4.80476">
        <ele>445.6</ele>
        <time>2011-11-11T09:16:35Z</time>
      </trkpt>
      <trkpt lat="45.84939" lon="4.80479">
        <ele>446</ele>
        <time>2011-11-11T09:16:37Z</time>
      </trkpt>
      <trkpt lat="45.84941" lon="4.80483">
        <ele>446.4</ele>
        <time>2011-11-11T09:16:39Z</time>
      </trkpt>
      <trkpt lat="45.84945" lon="4.80487">
        <ele>447.2</ele>
        <time>2011-11-11T09:16:42Z</time>
      </trkpt>
      <trkpt lat="45.84947" lon="4.80495">
        <ele>448.2</ele>
        <time>2011-11-11T09:16:45Z</time>
      </trkpt>
      <trkpt lat="45.84952" lon="4.80501">
        <ele>449.2</ele>
        <time>2011-11-11T09:16:48Z</time>
      </trkpt>
      <trkpt lat="45.84953" lon="4.80504">
        <ele>449.6</ele>
        <time>2011-11-11T09:16:51Z</time>
      </trkpt>
      <trkpt lat="45.84954" lon="4.80506">
        <ele>450</ele>
        <time>2011-11-11T09:16:52Z</time>
      </trkpt>
      <trkpt lat="45.84956" lon="4.8051">
        <ele>450.8</ele>
        <time>2011-11-11T09:16:54Z</time>
      </trkpt>
      <trkpt lat="45.84958" lon="4.80518">
        <ele>452.8</ele>
        <time>2011-11-11T09:16:59Z</time>
      </trkpt>
      <trkpt lat="45.84951" lon="4.80529">
        <ele>454.2</ele>
        <time>2011-11-11T09:17:06Z</time>
      </trkpt>
      <trkpt lat="45.84949" lon="4.80529">
        <ele>454.2</ele>
        <time>2011-11-11T09:17:07Z</time>
      </trkpt>
      <trkpt lat="45.84944" lon="4.80522">
        <ele>454.2</ele>
        <time>2011-11-11T09:17:11Z</time>
      </trkpt>
      <trkpt lat="45.84942" lon="4.80519">
        <ele>454.2</ele>
        <time>2011-11-11T09:17:13Z</time>
      </trkpt>
      <trkpt lat="45.84939" lon="4.80514">
        <ele>454.4</ele>
        <time>2011-11-11T09:17:17Z</time>
      </trkpt>
      <trkpt lat="45.84935" lon="4.80512">
        <ele>454.6</ele>
        <time>2011-11-11T09:17:20Z</time>
      </trkpt>
      <trkpt lat="45.84933" lon="4.80507">
        <ele>454.4</ele>
        <time>2011-11-11T09:17:23Z</time>
      </trkpt>
      <trkpt lat="45.84932" lon="4.80504">
        <ele>454.4</ele>
        <time>2011-11-11T09:17:25Z</time>
      </trkpt>
      <trkpt lat="45.84924" lon="4.80499">
        <ele>454</ele>
        <time>2011-11-11T09:17:30Z</time>
      </trkpt>
      <trkpt lat="45.84922" lon="4.80495">
        <ele>454</ele>
        <time>2011-11-11T09:17:32Z</time>
      </trkpt>
      <trkpt lat="45.84915" lon="4.80488">
        <ele>453.8</ele>
        <time>2011-11-11T09:17:36Z</time>
      </trkpt>
      <trkpt lat="45.84905" lon="4.80481">
        <ele>454</ele>
        <time>2011-11-11T09:17:41Z</time>
      </trkpt>
      <trkpt lat="45.84904" lon="4.80478">
        <ele>454</ele>
        <time>2011-11-11T09:17:42Z</time>
      </trkpt>
      <trkpt lat="45.84901" lon="4.80475">
        <ele>454.6</ele>
        <time>2011-11-11T09:17:44Z</time>
      </trkpt>
      <trkpt lat="45.84897" lon="4.80466">
        <ele>455</ele>
        <time>2011-11-11T09:17:47Z</time>
      </trkpt>
      <trkpt lat="45.84891" lon="4.80463">
        <ele>455</ele>
        <time>2011-11-11T09:17:50Z</time>
      </trkpt>
      <trkpt lat="45.84888" lon="4.8046">
        <ele>455.4</ele>
        <time>2011-11-11T09:17:52Z</time>
      </trkpt>
      <trkpt lat="45.84879" lon="4.80445">
        <ele>457.2</ele>
        <time>2011-11-11T09:17:59Z</time>
      </trkpt>
      <trkpt lat="45.84877" lon="4.80442">
        <ele>457.2</ele>
        <time>2011-11-11T09:18:00Z</time>
      </trkpt>
      <trkpt lat="45.84872" lon="4.80435">
        <ele>458.2</ele>
        <time>2011-11-11T09:18:04Z</time>
      </trkpt>
      <trkpt lat="45.84865" lon="4.80422">
        <ele>459.4</ele>
        <time>2011-11-11T09:18:09Z</time>
      </trkpt>
      <trkpt lat="45.84864" lon="4.80419">
        <ele>459.8</ele>
        <time>2011-11-11T09:18:10Z</time>
      </trkpt>
      <trkpt lat="45.84856" lon="4.8041">
        <ele>461.8</ele>
        <time>2011-11-11T09:18:16Z</time>
      </trkpt>
      <trkpt lat="45.84849" lon="4.80403">
        <ele>463.2</ele>
        <time>2011-11-11T09:18:20Z</time>
      </trkpt>
      <trkpt lat="45.84847" lon="4.80401">
        <ele>463.6</ele>
        <time>2011-11-11T09:18:21Z</time>
      </trkpt>
      <trkpt lat="45.84845" lon="4.80397">
        <ele>464.4</ele>
        <time>2011-11-11T09:18:23Z</time>
      </trkpt>
      <trkpt lat="45.84843" lon="4.8039">
        <ele>465.2</ele>
        <time>2011-11-11T09:18:25Z</time>
      </trkpt>
      <trkpt lat="45.84841" lon="4.80385">
        <ele>465.8</ele>
        <time>2011-11-11T09:18:27Z</time>
      </trkpt>
      <trkpt lat="45.84838" lon="4.80383">
        <ele>466.2</ele>
        <time>2011-11-11T09:18:29Z</time>
      </trkpt>
      <trkpt lat="45.84836" lon="4.80377">
        <ele>466.8</ele>
        <time>2011-11-11T09:18:31Z</time>
      </trkpt>
      <trkpt lat="45.8483" lon="4.80369">
        <ele>468</ele>
        <time>2011-11-11T09:18:37Z</time>
      </trkpt>
      <trkpt lat="45.84826" lon="4.8036">
        <ele>468.2</ele>
        <time>2011-11-11T09:18:42Z</time>
      </trkpt>
      <trkpt lat="45.84821" lon="4.80347">
        <ele>468.6</ele>
        <time>2011-11-11T09:18:48Z</time>
      </trkpt>
      <trkpt lat="45.84815" lon="4.80339">
        <ele>468.2</ele>
        <time>2011-11-11T09:18:52Z</time>
      </trkpt>
      <trkpt lat="45.84813" lon="4.80338">
        <ele>468.2</ele>
        <time>2011-11-11T09:18:53Z</time>
      </trkpt>
      <trkpt lat="45.84804" lon="4.80327">
        <ele>468.2</ele>
        <time>2011-11-11T09:19:00Z</time>
      </trkpt>
      <trkpt lat="45.84799" lon="4.80323">
        <ele>468</ele>
        <time>2011-11-11T09:19:03Z</time>
      </trkpt>
      <trkpt lat="45.84791" lon="4.80317">
        <ele>467.8</ele>
        <time>2011-11-11T09:19:08Z</time>
      </trkpt>
      <trkpt lat="45.84783" lon="4.80308">
        <ele>467.2</ele>
        <time>2011-11-11T09:19:14Z</time>
      </trkpt>
      <trkpt lat="45.84783" lon="4.80307">
        <ele>467.2</ele>
        <time>2011-11-11T09:19:15Z</time>
      </trkpt>
      <trkpt lat="45.84774" lon="4.80299">
        <ele>466.8</ele>
        <time>2011-11-11T09:19:20Z</time>
      </trkpt>
      <trkpt lat="45.84773" lon="4.80297">
        <ele>466.8</ele>
        <time>2011-11-11T09:19:22Z</time>
      </trkpt>
      <trkpt lat="45.8477" lon="4.80292">
        <ele>466.6</ele>
        <time>2011-11-11T09:19:24Z</time>
      </trkpt>
      <trkpt lat="45.84769" lon="4.8029">
        <ele>466.8</ele>
        <time>2011-11-11T09:19:25Z</time>
      </trkpt>
      <trkpt lat="45.84767" lon="4.80287">
        <ele>466.8</ele>
        <time>2011-11-11T09:19:27Z</time>
      </trkpt>
      <trkpt lat="45.84765" lon="4.80285">
        <ele>467</ele>
        <time>2011-11-11T09:19:29Z</time>
      </trkpt>
      <trkpt lat="45.84764" lon="4.80283">
        <ele>467.4</ele>
        <time>2011-11-11T09:19:31Z</time>
      </trkpt>
      <trkpt lat="45.84761" lon="4.80277">
        <ele>468.2</ele>
        <time>2011-11-11T09:19:34Z</time>
      </trkpt>
      <trkpt lat="45.84757" lon="4.80272">
        <ele>469.4</ele>
        <time>2011-11-11T09:19:40Z</time>
      </trkpt>
      <trkpt lat="45.84756" lon="4.80269">
        <ele>469.8</ele>
        <time>2011-11-11T09:19:42Z</time>
      </trkpt>
      <trkpt lat="45.84755" lon="4.80266">
        <ele>470</ele>
        <time>2011-11-11T09:19:44Z</time>
      </trkpt>
      <trkpt lat="45.84754" lon="4.80265">
        <ele>470.2</ele>
        <time>2011-11-11T09:19:46Z</time>
      </trkpt>
      <trkpt lat="45.8475" lon="4.80263">
        <ele>470.4</ele>
        <time>2011-11-11T09:19:50Z</time>
      </trkpt>
      <trkpt lat="45.84741" lon="4.80257">
        <ele>470.4</ele>
        <time>2011-11-11T09:19:56Z</time>
      </trkpt>
      <trkpt lat="45.8474" lon="4.80256">
        <ele>470.4</ele>
        <time>2011-11-11T09:19:57Z</time>
      </trkpt>
      <trkpt lat="45.84734" lon="4.80251">
        <ele>471</ele>
        <time>2011-11-11T09:20:02Z</time>
      </trkpt>
      <trkpt lat="45.84733" lon="4.8025">
        <ele>471</ele>
        <time>2011-11-11T09:20:03Z</time>
      </trkpt>
      <trkpt lat="45.84727" lon="4.80243">
        <ele>471.8</ele>
        <time>2011-11-11T09:20:09Z</time>
      </trkpt>
      <trkpt lat="45.84724" lon="4.8024">
        <ele>472</ele>
        <time>2011-11-11T09:20:11Z</time>
      </trkpt>
      <trkpt lat="45.8472" lon="4.80236">
        <ele>472.6</ele>
        <time>2011-11-11T09:20:15Z</time>
      </trkpt>
      <trkpt lat="45.84718" lon="4.80233">
        <ele>472.8</ele>
        <time>2011-11-11T09:20:17Z</time>
      </trkpt>
      <trkpt lat="45.84713" lon="4.80229">
        <ele>473.4</ele>
        <time>2011-11-11T09:20:21Z</time>
      </trkpt>
      <trkpt lat="45.84711" lon="4.80227">
        <ele>473.6</ele>
        <time>2011-11-11T09:20:22Z</time>
      </trkpt>
      <trkpt lat="45.84708" lon="4.80223">
        <ele>473.8</ele>
        <time>2011-11-11T09:20:24Z</time>
      </trkpt>
      <trkpt lat="45.84703" lon="4.80215">
        <ele>474.2</ele>
        <time>2011-11-11T09:20:28Z</time>
      </trkpt>
      <trkpt lat="45.84696" lon="4.8021">
        <ele>475.2</ele>
        <time>2011-11-11T09:20:32Z</time>
      </trkpt>
      <trkpt lat="45.84694" lon="4.80205">
        <ele>475.8</ele>
        <time>2011-11-11T09:20:34Z</time>
      </trkpt>
      <trkpt lat="45.84688" lon="4.80197">
        <ele>476.6</ele>
        <time>2011-11-11T09:20:38Z</time>
      </trkpt>
      <trkpt lat="45.84681" lon="4.80185">
        <ele>477</ele>
        <time>2011-11-11T09:20:43Z</time>
      </trkpt>
      <trkpt lat="45.84679" lon="4.80184">
        <ele>477.2</ele>
        <time>2011-11-11T09:20:44Z</time>
      </trkpt>
      <trkpt lat="45.84666" lon="4.80174">
        <ele>478.2</ele>
        <time>2011-11-11T09:20:51Z</time>
      </trkpt>
      <trkpt lat="45.84664" lon="4.80174">
        <ele>478.4</ele>
        <time>2011-11-11T09:20:52Z</time>
      </trkpt>
      <trkpt lat="45.8466" lon="4.80166">
        <ele>479.2</ele>
        <time>2011-11-11T09:20:56Z</time>
      </trkpt>
      <trkpt lat="45.84652" lon="4.80154">
        <ele>479.8</ele>
        <time>2011-11-11T09:21:01Z</time>
      </trkpt>
      <trkpt lat="45.8465" lon="4.80152">
        <ele>479.8</ele>
        <time>2011-11-11T09:21:02Z</time>
      </trkpt>
      <trkpt lat="45.84645" lon="4.80142">
        <ele>480.6</ele>
        <time>2011-11-11T09:21:06Z</time>
      </trkpt>
      <trkpt lat="45.8464" lon="4.8013">
        <ele>482</ele>
        <time>2011-11-11T09:21:10Z</time>
      </trkpt>
      <trkpt lat="45.84639" lon="4.80128">
        <ele>482.6</ele>
        <time>2011-11-11T09:21:11Z</time>
      </trkpt>
      <trkpt lat="45.84632" lon="4.80122">
        <ele>484.2</ele>
        <time>2011-11-11T09:21:16Z</time>
      </trkpt>
      <trkpt lat="45.84626" lon="4.80113">
        <ele>486</ele>
        <time>2011-11-11T09:21:20Z</time>
      </trkpt>
      <trkpt lat="45.84624" lon="4.80108">
        <ele>486.6</ele>
        <time>2011-11-11T09:21:22Z</time>
      </trkpt>
      <trkpt lat="45.8462" lon="4.80099">
        <ele>487.4</ele>
        <time>2011-11-11T09:21:25Z</time>
      </trkpt>
      <trkpt lat="45.84618" lon="4.80093">
        <ele>488</ele>
        <time>2011-11-11T09:21:27Z</time>
      </trkpt>
      <trkpt lat="45.84616" lon="4.80089">
        <ele>488.4</ele>
        <time>2011-11-11T09:21:29Z</time>
      </trkpt>
      <trkpt lat="45.84607" lon="4.80083">
        <ele>489.6</ele>
        <time>2011-11-11T09:21:33Z</time>
      </trkpt>
      <trkpt lat="45.84598" lon="4.80074">
        <ele>491</ele>
        <time>2011-11-11T09:21:38Z</time>
      </trkpt>
      <trkpt lat="45.84597" lon="4.80072">
        <ele>491.2</ele>
        <time>2011-11-11T09:21:39Z</time>
      </trkpt>
      <trkpt lat="45.84593" lon="4.80069">
        <ele>491.8</ele>
        <time>2011-11-11T09:21:42Z</time>
      </trkpt>
      <trkpt lat="45.84588" lon="4.80069">
        <ele>492.8</ele>
        <time>2011-11-11T09:21:45Z</time>
      </trkpt>
      <trkpt lat="45.84585" lon="4.80069">
        <ele>494.6</ele>
        <time>2011-11-11T09:21:49Z</time>
      </trkpt>
      <trkpt lat="45.84586" lon="4.80069">
        <ele>495</ele>
        <time>2011-11-11T09:21:50Z</time>
      </trkpt>
      <trkpt lat="45.84581" lon="4.80065">
        <ele>498.6</ele>
        <time>2011-11-11T09:21:57Z</time>
      </trkpt>
      <trkpt lat="45.84581" lon="4.80063">
        <ele>498.8</ele>
        <time>2011-11-11T09:21:58Z</time>
      </trkpt>
      <trkpt lat="45.84579" lon="4.80062">
        <ele>499.4</ele>
        <time>2011-11-11T09:22:00Z</time>
      </trkpt>
      <trkpt lat="45.84579" lon="4.80061">
        <ele>500</ele>
        <time>2011-11-11T09:22:01Z</time>
      </trkpt>
      <trkpt lat="45.84578" lon="4.80054">
        <ele>502</ele>
        <time>2011-11-11T09:22:05Z</time>
      </trkpt>
      <trkpt lat="45.84578" lon="4.80054">
        <ele>502</ele>
        <time>2011-11-11T09:22:06Z</time>
      </trkpt>
      <trkpt lat="45.84577" lon="4.80055">
        <ele>502.2</ele>
        <time>2011-11-11T09:22:07Z</time>
      </trkpt>
      <trkpt lat="45.84573" lon="4.80057">
        <ele>503.2</ele>
        <time>2011-11-11T09:22:10Z</time>
      </trkpt>
      <trkpt lat="45.84564" lon="4.80055">
        <ele>504.8</ele>
        <time>2011-11-11T09:22:16Z</time>
      </trkpt>
      <trkpt lat="45.84559" lon="4.80055">
        <ele>506.4</ele>
        <time>2011-11-11T09:22:21Z</time>
      </trkpt>
      <trkpt lat="45.84558" lon="4.80056">
        <ele>506.8</ele>
        <time>2011-11-11T09:22:22Z</time>
      </trkpt>
      <trkpt lat="45.84551" lon="4.80052">
        <ele>507.4</ele>
        <time>2011-11-11T09:22:27Z</time>
      </trkpt>
      <trkpt lat="45.8455" lon="4.8005">
        <ele>507.6</ele>
        <time>2011-11-11T09:22:28Z</time>
      </trkpt>
      <trkpt lat="45.84548" lon="4.80049">
        <ele>507.6</ele>
        <time>2011-11-11T09:22:29Z</time>
      </trkpt>
      <trkpt lat="45.84547" lon="4.80047">
        <ele>507.8</ele>
        <time>2011-11-11T09:22:30Z</time>
      </trkpt>
      <trkpt lat="45.84544" lon="4.80045">
        <ele>508</ele>
        <time>2011-11-11T09:22:33Z</time>
      </trkpt>
      <trkpt lat="45.84541" lon="4.80044">
        <ele>507.8</ele>
        <time>2011-11-11T09:22:36Z</time>
      </trkpt>
      <trkpt lat="45.84541" lon="4.80042">
        <ele>507.8</ele>
        <time>2011-11-11T09:22:37Z</time>
      </trkpt>
      <trkpt lat="45.84541" lon="4.8004">
        <ele>507.8</ele>
        <time>2011-11-11T09:22:38Z</time>
      </trkpt>
      <trkpt lat="45.84539" lon="4.80036">
        <ele>507.8</ele>
        <time>2011-11-11T09:22:41Z</time>
      </trkpt>
      <trkpt lat="45.84537" lon="4.80034">
        <ele>507.8</ele>
        <time>2011-11-11T09:22:43Z</time>
      </trkpt>
      <trkpt lat="45.84536" lon="4.80033">
        <ele>507.6</ele>
        <time>2011-11-11T09:22:44Z</time>
      </trkpt>
      <trkpt lat="45.84535" lon="4.80034">
        <ele>507.6</ele>
        <time>2011-11-11T09:22:48Z</time>
      </trkpt>
      <trkpt lat="45.84533" lon="4.80031">
        <ele>508</ele>
        <time>2011-11-11T09:22:52Z</time>
      </trkpt>
      <trkpt lat="45.84529" lon="4.80031">
        <ele>508.8</ele>
        <time>2011-11-11T09:22:56Z</time>
      </trkpt>
      <trkpt lat="45.84528" lon="4.80026">
        <ele>509</ele>
        <time>2011-11-11T09:22:58Z</time>
      </trkpt>
      <trkpt lat="45.84524" lon="4.8002">
        <ele>509.4</ele>
        <time>2011-11-11T09:23:01Z</time>
      </trkpt>
      <trkpt lat="45.84521" lon="4.80018">
        <ele>509.6</ele>
        <time>2011-11-11T09:23:03Z</time>
      </trkpt>
      <trkpt lat="45.84518" lon="4.80016">
        <ele>509.6</ele>
        <time>2011-11-11T09:23:05Z</time>
      </trkpt>
      <trkpt lat="45.84517" lon="4.80013">
        <ele>510.2</ele>
        <time>2011-11-11T09:23:08Z</time>
      </trkpt>
      <trkpt lat="45.84514" lon="4.80009">
        <ele>511.4</ele>
        <time>2011-11-11T09:23:11Z</time>
      </trkpt>
      <trkpt lat="45.8451" lon="4.80007">
        <ele>511.8</ele>
        <time>2011-11-11T09:23:15Z</time>
      </trkpt>
      <trkpt lat="45.84501" lon="4.80005">
        <ele>511.4</ele>
        <time>2011-11-11T09:23:21Z</time>
      </trkpt>
      <trkpt lat="45.845" lon="4.80005">
        <ele>511.4</ele>
        <time>2011-11-11T09:23:22Z</time>
      </trkpt>
      <trkpt lat="45.84495" lon="4.8">
        <ele>511.2</ele>
        <time>2011-11-11T09:23:28Z</time>
      </trkpt>
      <trkpt lat="45.8449" lon="4.79993">
        <ele>510.8</ele>
        <time>2011-11-11T09:23:33Z</time>
      </trkpt>
      <trkpt lat="45.84486" lon="4.79987">
        <ele>510.8</ele>
        <time>2011-11-11T09:23:37Z</time>
      </trkpt>
      <trkpt lat="45.84483" lon="4.79984">
        <ele>510.6</ele>
        <time>2011-11-11T09:23:39Z</time>
      </trkpt>
      <trkpt lat="45.84479" lon="4.79975">
        <ele>510.6</ele>
        <time>2011-11-11T09:23:45Z</time>
      </trkpt>
      <trkpt lat="45.84477" lon="4.79971">
        <ele>510.6</ele>
        <time>2011-11-11T09:23:49Z</time>
      </trkpt>
      <trkpt lat="45.84473" lon="4.79965">
        <ele>510.6</ele>
        <time>2011-11-11T09:23:54Z</time>
      </trkpt>
      <trkpt lat="45.84472" lon="4.79963">
        <ele>510.8</ele>
        <time>2011-11-11T09:23:55Z</time>
      </trkpt>
      <trkpt lat="45.84465" lon="4.79961">
        <ele>510.8</ele>
        <time>2011-11-11T09:23:59Z</time>
      </trkpt>
      <trkpt lat="45.84461" lon="4.79963">
        <ele>510.6</ele>
        <time>2011-11-11T09:24:02Z</time>
      </trkpt>
      <trkpt lat="45.84461" lon="4.79965">
        <ele>510.6</ele>
        <time>2011-11-11T09:24:04Z</time>
      </trkpt>
      <trkpt lat="45.84462" lon="4.79966">
        <ele>511.2</ele>
        <time>2011-11-11T09:24:08Z</time>
      </trkpt>
      <trkpt lat="45.84463" lon="4.7997">
        <ele>511</ele>
        <time>2011-11-11T09:24:12Z</time>
      </trkpt>
      <trkpt lat="45.84465" lon="4.79971">
        <ele>511</ele>
        <time>2011-11-11T09:24:14Z</time>
      </trkpt>
      <trkpt lat="45.84466" lon="4.79973">
        <ele>511.2</ele>
        <time>2011-11-11T09:24:15Z</time>
      </trkpt>
      <trkpt lat="45.84463" lon="4.79975">
        <ele>512.4</ele>
        <time>2011-11-11T09:24:19Z</time>
      </trkpt>
      <trkpt lat="45.84461" lon="4.79975">
        <ele>513</ele>
        <time>2011-11-11T09:24:21Z</time>
      </trkpt>
      <trkpt lat="45.84459" lon="4.7998">
        <ele>514.4</ele>
        <time>2011-11-11T09:24:24Z</time>
      </trkpt>
      <trkpt lat="45.84459" lon="4.79984">
        <ele>517.4</ele>
        <time>2011-11-11T09:24:29Z</time>
      </trkpt>
      <trkpt lat="45.84461" lon="4.79985">
        <ele>519.6</ele>
        <time>2011-11-11T09:24:33Z</time>
      </trkpt>
      <trkpt lat="45.84463" lon="4.79985">
        <ele>520.4</ele>
        <time>2011-11-11T09:24:34Z</time>
      </trkpt>
      <trkpt lat="45.84465" lon="4.79987">
        <ele>521.4</ele>
        <time>2011-11-11T09:24:36Z</time>
      </trkpt>
      <trkpt lat="45.84465" lon="4.7999">
        <ele>522.4</ele>
        <time>2011-11-11T09:24:38Z</time>
      </trkpt>
      <trkpt lat="45.8447" lon="4.79994">
        <ele>524.8</ele>
        <time>2011-11-11T09:24:42Z</time>
      </trkpt>
      <trkpt lat="45.84473" lon="4.79998">
        <ele>527.4</ele>
        <time>2011-11-11T09:24:47Z</time>
      </trkpt>
      <trkpt lat="45.84472" lon="4.80003">
        <ele>528.8</ele>
        <time>2011-11-11T09:24:51Z</time>
      </trkpt>
      <trkpt lat="45.8447" lon="4.80006">
        <ele>529.2</ele>
        <time>2011-11-11T09:24:54Z</time>
      </trkpt>
      <trkpt lat="45.84469" lon="4.80008">
        <ele>529.2</ele>
        <time>2011-11-11T09:24:55Z</time>
      </trkpt>
      <trkpt lat="45.84468" lon="4.80009">
        <ele>529.2</ele>
        <time>2011-11-11T09:24:56Z</time>
      </trkpt>
      <trkpt lat="45.84468" lon="4.8001">
        <ele>529</ele>
        <time>2011-11-11T09:24:57Z</time>
      </trkpt>
      <trkpt lat="45.84468" lon="4.80011">
        <ele>528.8</ele>
        <time>2011-11-11T09:24:58Z</time>
      </trkpt>
      <trkpt lat="45.8447" lon="4.80017">
        <ele>529.6</ele>
        <time>2011-11-11T09:25:03Z</time>
      </trkpt>
      <trkpt lat="45.84469" lon="4.8002">
        <ele>529.6</ele>
        <time>2011-11-11T09:25:05Z</time>
      </trkpt>
      <trkpt lat="45.84471" lon="4.80025">
        <ele>530</ele>
        <time>2011-11-11T09:25:09Z</time>
      </trkpt>
      <trkpt lat="45.84471" lon="4.80026">
        <ele>530.2</ele>
        <time>2011-11-11T09:25:10Z</time>
      </trkpt>
      <trkpt lat="45.84471" lon="4.80029">
        <ele>530.6</ele>
        <time>2011-11-11T09:25:12Z</time>
      </trkpt>
      <trkpt lat="45.84471" lon="4.80032">
        <ele>530.8</ele>
        <time>2011-11-11T09:25:14Z</time>
      </trkpt>
      <trkpt lat="45.84472" lon="4.80034">
        <ele>530.8</ele>
        <time>2011-11-11T09:25:17Z</time>
      </trkpt>
      <trkpt lat="45.84475" lon="4.80038">
        <ele>531.2</ele>
        <time>2011-11-11T09:25:20Z</time>
      </trkpt>
      <trkpt lat="45.84477" lon="4.80041">
        <ele>531.8</ele>
        <time>2011-11-11T09:25:22Z</time>
      </trkpt>
      <trkpt lat="45.84476" lon="4.80043">
        <ele>531.8</ele>
        <time>2011-11-11T09:25:23Z</time>
      </trkpt>
      <trkpt lat="45.84479" lon="4.80047">
        <ele>532.4</ele>
        <time>2011-11-11T09:25:26Z</time>
      </trkpt>
      <trkpt lat="45.84482" lon="4.80049">
        <ele>532.8</ele>
        <time>2011-11-11T09:25:28Z</time>
      </trkpt>
      <trkpt lat="45.84487" lon="4.80057">
        <ele>534.2</ele>
        <time>2011-11-11T09:25:34Z</time>
      </trkpt>
      <trkpt lat="45.84485" lon="4.80066">
        <ele>534.8</ele>
        <time>2011-11-11T09:25:40Z</time>
      </trkpt>
      <trkpt lat="45.84483" lon="4.80072">
        <ele>535.2</ele>
        <time>2011-11-11T09:25:45Z</time>
      </trkpt>
      <trkpt lat="45.84485" lon="4.80073">
        <ele>535.4</ele>
        <time>2011-11-11T09:25:46Z</time>
      </trkpt>
      <trkpt lat="45.84488" lon="4.80078">
        <ele>536.4</ele>
        <time>2011-11-11T09:25:50Z</time>
      </trkpt>
      <trkpt lat="45.84487" lon="4.80081">
        <ele>536.6</ele>
        <time>2011-11-11T09:25:52Z</time>
      </trkpt>
      <trkpt lat="45.84488" lon="4.80082">
        <ele>537</ele>
        <time>2011-11-11T09:25:54Z</time>
      </trkpt>
      <trkpt lat="45.84484" lon="4.8009">
        <ele>538.4</ele>
        <time>2011-11-11T09:25:59Z</time>
      </trkpt>
      <trkpt lat="45.84478" lon="4.80103">
        <ele>541</ele>
        <time>2011-11-11T09:26:06Z</time>
      </trkpt>
      <trkpt lat="45.84477" lon="4.80103">
        <ele>541.2</ele>
        <time>2011-11-11T09:26:07Z</time>
      </trkpt>
      <trkpt lat="45.84472" lon="4.80106">
        <ele>542.8</ele>
        <time>2011-11-11T09:26:12Z</time>
      </trkpt>
      <trkpt lat="45.84471" lon="4.80107">
        <ele>543</ele>
        <time>2011-11-11T09:26:13Z</time>
      </trkpt>
      <trkpt lat="45.84465" lon="4.80109">
        <ele>544</ele>
        <time>2011-11-11T09:26:17Z</time>
      </trkpt>
      <trkpt lat="45.84465" lon="4.80109">
        <ele>544.2</ele>
        <time>2011-11-11T09:26:18Z</time>
      </trkpt>
      <trkpt lat="45.84463" lon="4.8011">
        <ele>547.6</ele>
        <time>2011-11-11T09:26:33Z</time>
      </trkpt>
      <trkpt lat="45.84463" lon="4.8011">
        <ele>549</ele>
        <time>2011-11-11T09:26:41Z</time>
      </trkpt>
      <trkpt lat="45.84463" lon="4.80104">
        <ele>553</ele>
        <time>2011-11-11T09:27:14Z</time>
      </trkpt>
      <trkpt lat="45.84463" lon="4.80105">
        <ele>553</ele>
        <time>2011-11-11T09:27:15Z</time>
      </trkpt>
      <trkpt lat="45.84461" lon="4.80109">
        <ele>554</ele>
        <time>2011-11-11T09:27:22Z</time>
      </trkpt>
      <trkpt lat="45.84461" lon="4.80106">
        <ele>555.2</ele>
        <time>2011-11-11T09:27:51Z</time>
      </trkpt>
      <trkpt lat="45.84459" lon="4.80107">
        <ele>555.2</ele>
        <time>2011-11-11T09:28:10Z</time>
      </trkpt>
      <trkpt lat="45.84458" lon="4.80106">
        <ele>555.2</ele>
        <time>2011-11-11T09:28:19Z</time>
      </trkpt>
      <trkpt lat="45.8446" lon="4.80104">
        <ele>555</ele>
        <time>2011-11-11T09:28:40Z</time>
      </trkpt>
      <trkpt lat="45.84462" lon="4.80108">
        <ele>555.6</ele>
        <time>2011-11-11T09:29:23Z</time>
      </trkpt>
      <trkpt lat="45.84461" lon="4.80113">
        <ele>556</ele>
        <time>2011-11-11T09:29:27Z</time>
      </trkpt>
      <trkpt lat="45.84463" lon="4.80124">
        <ele>556</ele>
        <time>2011-11-11T09:29:34Z</time>
      </trkpt>
      <trkpt lat="45.84464" lon="4.80128">
        <ele>555.8</ele>
        <time>2011-11-11T09:29:36Z</time>
      </trkpt>
      <trkpt lat="45.84466" lon="4.80131">
        <ele>555.8</ele>
        <time>2011-11-11T09:29:38Z</time>
      </trkpt>
      <trkpt lat="45.84471" lon="4.80149">
        <ele>555.4</ele>
        <time>2011-11-11T09:29:43Z</time>
      </trkpt>
      <trkpt lat="45.84471" lon="4.80156">
        <ele>555.4</ele>
        <time>2011-11-11T09:29:45Z</time>
      </trkpt>
      <trkpt lat="45.84471" lon="4.80162">
        <ele>555.2</ele>
        <time>2011-11-11T09:29:47Z</time>
      </trkpt>
      <trkpt lat="45.84468" lon="4.80172">
        <ele>554.8</ele>
        <time>2011-11-11T09:29:51Z</time>
      </trkpt>
      <trkpt lat="45.84465" lon="4.80172">
        <ele>554.8</ele>
        <time>2011-11-11T09:29:52Z</time>
      </trkpt>
      <trkpt lat="45.8446" lon="4.80171">
        <ele>554.6</ele>
        <time>2011-11-11T09:29:54Z</time>
      </trkpt>
      <trkpt lat="45.84457" lon="4.80171">
        <ele>554.6</ele>
        <time>2011-11-11T09:29:55Z</time>
      </trkpt>
      <trkpt lat="45.84447" lon="4.80171">
        <ele>554.2</ele>
        <time>2011-11-11T09:29:59Z</time>
      </trkpt>
      <trkpt lat="45.84443" lon="4.80172">
        <ele>554.2</ele>
        <time>2011-11-11T09:30:01Z</time>
      </trkpt>
      <trkpt lat="45.84441" lon="4.80173">
        <ele>554</ele>
        <time>2011-11-11T09:30:02Z</time>
      </trkpt>
      <trkpt lat="45.84438" lon="4.80179">
        <ele>554</ele>
        <time>2011-11-11T09:30:04Z</time>
      </trkpt>
      <trkpt lat="45.84431" lon="4.80195">
        <ele>553.6</ele>
        <time>2011-11-11T09:30:09Z</time>
      </trkpt>
      <trkpt lat="45.84429" lon="4.80213">
        <ele>553.2</ele>
        <time>2011-11-11T09:30:14Z</time>
      </trkpt>
      <trkpt lat="45.84429" lon="4.80219">
        <ele>553</ele>
        <time>2011-11-11T09:30:16Z</time>
      </trkpt>
      <trkpt lat="45.84431" lon="4.80221">
        <ele>553</ele>
        <time>2011-11-11T09:30:17Z</time>
      </trkpt>
      <trkpt lat="45.84432" lon="4.80223">
        <ele>553</ele>
        <time>2011-11-11T09:30:18Z</time>
      </trkpt>
      <trkpt lat="45.84441" lon="4.80239">
        <ele>552.4</ele>
        <time>2011-11-11T09:30:23Z</time>
      </trkpt>
      <trkpt lat="45.84442" lon="4.80242">
        <ele>552.2</ele>
        <time>2011-11-11T09:30:24Z</time>
      </trkpt>
      <trkpt lat="45.8445" lon="4.80255">
        <ele>551.8</ele>
        <time>2011-11-11T09:30:28Z</time>
      </trkpt>
      <trkpt lat="45.84454" lon="4.80263">
        <ele>551.4</ele>
        <time>2011-11-11T09:30:31Z</time>
      </trkpt>
      <trkpt lat="45.84462" lon="4.80269">
        <ele>551</ele>
        <time>2011-11-11T09:30:35Z</time>
      </trkpt>
      <trkpt lat="45.84471" lon="4.80273">
        <ele>550.4</ele>
        <time>2011-11-11T09:30:39Z</time>
      </trkpt>
      <trkpt lat="45.84477" lon="4.80273">
        <ele>550</ele>
        <time>2011-11-11T09:30:42Z</time>
      </trkpt>
      <trkpt lat="45.84484" lon="4.80275">
        <ele>549.4</ele>
        <time>2011-11-11T09:30:47Z</time>
      </trkpt>
      <trkpt lat="45.84486" lon="4.80278">
        <ele>549.2</ele>
        <time>2011-11-11T09:30:49Z</time>
      </trkpt>
      <trkpt lat="45.84488" lon="4.80281">
        <ele>549</ele>
        <time>2011-11-11T09:30:50Z</time>
      </trkpt>
      <trkpt lat="45.84496" lon="4.80299">
        <ele>548.4</ele>
        <time>2011-11-11T09:30:56Z</time>
      </trkpt>
      <trkpt lat="45.84498" lon="4.80304">
        <ele>548.2</ele>
        <time>2011-11-11T09:30:58Z</time>
      </trkpt>
      <trkpt lat="45.84502" lon="4.80315">
        <ele>547.6</ele>
        <time>2011-11-11T09:31:03Z</time>
      </trkpt>
      <trkpt lat="45.84503" lon="4.80322">
        <ele>547</ele>
        <time>2011-11-11T09:31:08Z</time>
      </trkpt>
      <trkpt lat="45.84503" lon="4.80323">
        <ele>546.8</ele>
        <time>2011-11-11T09:31:09Z</time>
      </trkpt>
      <trkpt lat="45.84501" lon="4.80323">
        <ele>546</ele>
        <time>2011-11-11T09:31:16Z</time>
      </trkpt>
      <trkpt lat="45.845" lon="4.80321">
        <ele>545</ele>
        <time>2011-11-11T09:31:23Z</time>
      </trkpt>
      <trkpt lat="45.84502" lon="4.80317">
        <ele>542</ele>
        <time>2011-11-11T09:31:47Z</time>
      </trkpt>
      <trkpt lat="45.84509" lon="4.80313">
        <ele>541</ele>
        <time>2011-11-11T09:31:55Z</time>
      </trkpt>
      <trkpt lat="45.84512" lon="4.80309">
        <ele>540.6</ele>
        <time>2011-11-11T09:31:59Z</time>
      </trkpt>
      <trkpt lat="45.84513" lon="4.80308">
        <ele>540.2</ele>
        <time>2011-11-11T09:32:01Z</time>
      </trkpt>
      <trkpt lat="45.84514" lon="4.80307">
        <ele>540.2</ele>
        <time>2011-11-11T09:32:02Z</time>
      </trkpt>
      <trkpt lat="45.84521" lon="4.80301">
        <ele>539.4</ele>
        <time>2011-11-11T09:32:09Z</time>
      </trkpt>
      <trkpt lat="45.84525" lon="4.80297">
        <ele>539</ele>
        <time>2011-11-11T09:32:13Z</time>
      </trkpt>
      <trkpt lat="45.84527" lon="4.80294">
        <ele>539</ele>
        <time>2011-11-11T09:32:15Z</time>
      </trkpt>
      <trkpt lat="45.84534" lon="4.80287">
        <ele>538.6</ele>
        <time>2011-11-11T09:32:22Z</time>
      </trkpt>
      <trkpt lat="45.84539" lon="4.80283">
        <ele>538.6</ele>
        <time>2011-11-11T09:32:28Z</time>
      </trkpt>
      <trkpt lat="45.8454" lon="4.80283">
        <ele>538.4</ele>
        <time>2011-11-11T09:32:31Z</time>
      </trkpt>
      <trkpt lat="45.84542" lon="4.80284">
        <ele>538.4</ele>
        <time>2011-11-11T09:32:33Z</time>
      </trkpt>
      <trkpt lat="45.84549" lon="4.8029">
        <ele>538.2</ele>
        <time>2011-11-11T09:32:37Z</time>
      </trkpt>
      <trkpt lat="45.84556" lon="4.80297">
        <ele>538</ele>
        <time>2011-11-11T09:32:41Z</time>
      </trkpt>
      <trkpt lat="45.84558" lon="4.80299">
        <ele>537.8</ele>
        <time>2011-11-11T09:32:42Z</time>
      </trkpt>
      <trkpt lat="45.84571" lon="4.80307">
        <ele>537.4</ele>
        <time>2011-11-11T09:32:48Z</time>
      </trkpt>
      <trkpt lat="45.84575" lon="4.80311">
        <ele>537.2</ele>
        <time>2011-11-11T09:32:50Z</time>
      </trkpt>
      <trkpt lat="45.84582" lon="4.80324">
        <ele>536.6</ele>
        <time>2011-11-11T09:32:55Z</time>
      </trkpt>
      <trkpt lat="45.84585" lon="4.80333">
        <ele>536.4</ele>
        <time>2011-11-11T09:32:58Z</time>
      </trkpt>
      <trkpt lat="45.84587" lon="4.80343">
        <ele>536</ele>
        <time>2011-11-11T09:33:01Z</time>
      </trkpt>
      <trkpt lat="45.8459" lon="4.80359">
        <ele>535</ele>
        <time>2011-11-11T09:33:08Z</time>
      </trkpt>
      <trkpt lat="45.84594" lon="4.80384">
        <ele>533.8</ele>
        <time>2011-11-11T09:33:16Z</time>
      </trkpt>
      <trkpt lat="45.84594" lon="4.80386">
        <ele>533.6</ele>
        <time>2011-11-11T09:33:17Z</time>
      </trkpt>
      <trkpt lat="45.84595" lon="4.80404">
        <ele>532.6</ele>
        <time>2011-11-11T09:33:23Z</time>
      </trkpt>
      <trkpt lat="45.84596" lon="4.80414">
        <ele>532</ele>
        <time>2011-11-11T09:33:27Z</time>
      </trkpt>
      <trkpt lat="45.84597" lon="4.8042">
        <ele>531.6</ele>
        <time>2011-11-11T09:33:29Z</time>
      </trkpt>
      <trkpt lat="45.84602" lon="4.80436">
        <ele>530.4</ele>
        <time>2011-11-11T09:33:35Z</time>
      </trkpt>
      <trkpt lat="45.84603" lon="4.80438">
        <ele>530.2</ele>
        <time>2011-11-11T09:33:36Z</time>
      </trkpt>
      <trkpt lat="45.84609" lon="4.80447">
        <ele>529.2</ele>
        <time>2011-11-11T09:33:41Z</time>
      </trkpt>
      <trkpt lat="45.84616" lon="4.80458">
        <ele>528.2</ele>
        <time>2011-11-11T09:33:46Z</time>
      </trkpt>
      <trkpt lat="45.84625" lon="4.80484">
        <ele>527</ele>
        <time>2011-11-11T09:33:52Z</time>
      </trkpt>
      <trkpt lat="45.84634" lon="4.80504">
        <ele>526</ele>
        <time>2011-11-11T09:33:57Z</time>
      </trkpt>
      <trkpt lat="45.84636" lon="4.80509">
        <ele>525.8</ele>
        <time>2011-11-11T09:33:58Z</time>
      </trkpt>
      <trkpt lat="45.84642" lon="4.80524">
        <ele>525.2</ele>
        <time>2011-11-11T09:34:02Z</time>
      </trkpt>
      <trkpt lat="45.84644" lon="4.80533">
        <ele>524.8</ele>
        <time>2011-11-11T09:34:04Z</time>
      </trkpt>
      <trkpt lat="45.8465" lon="4.80544">
        <ele>524.2</ele>
        <time>2011-11-11T09:34:07Z</time>
      </trkpt>
      <trkpt lat="45.84655" lon="4.80555">
        <ele>523.6</ele>
        <time>2011-11-11T09:34:10Z</time>
      </trkpt>
      <trkpt lat="45.84661" lon="4.80571">
        <ele>522.6</ele>
        <time>2011-11-11T09:34:14Z</time>
      </trkpt>
      <trkpt lat="45.84664" lon="4.80578">
        <ele>522.2</ele>
        <time>2011-11-11T09:34:16Z</time>
      </trkpt>
      <trkpt lat="45.84669" lon="4.80592">
        <ele>521.4</ele>
        <time>2011-11-11T09:34:20Z</time>
      </trkpt>
      <trkpt lat="45.84673" lon="4.80602">
        <ele>520.8</ele>
        <time>2011-11-11T09:34:23Z</time>
      </trkpt>
      <trkpt lat="45.84677" lon="4.80617">
        <ele>519.8</ele>
        <time>2011-11-11T09:34:27Z</time>
      </trkpt>
      <trkpt lat="45.8468" lon="4.80628">
        <ele>519</ele>
        <time>2011-11-11T09:34:30Z</time>
      </trkpt>
      <trkpt lat="45.8468" lon="4.80635">
        <ele>518.6</ele>
        <time>2011-11-11T09:34:32Z</time>
      </trkpt>
      <trkpt lat="45.84684" lon="4.80644">
        <ele>517.4</ele>
        <time>2011-11-11T09:34:36Z</time>
      </trkpt>
      <trkpt lat="45.84687" lon="4.80649">
        <ele>516.4</ele>
        <time>2011-11-11T09:34:40Z</time>
      </trkpt>
      <trkpt lat="45.84685" lon="4.80651">
        <ele>515.8</ele>
        <time>2011-11-11T09:34:42Z</time>
      </trkpt>
      <trkpt lat="45.84678" lon="4.8065">
        <ele>515</ele>
        <time>2011-11-11T09:34:45Z</time>
      </trkpt>
      <trkpt lat="45.84675" lon="4.80649">
        <ele>514.6</ele>
        <time>2011-11-11T09:34:46Z</time>
      </trkpt>
      <trkpt lat="45.84668" lon="4.80644">
        <ele>513.8</ele>
        <time>2011-11-11T09:34:49Z</time>
      </trkpt>
      <trkpt lat="45.84659" lon="4.80643">
        <ele>513</ele>
        <time>2011-11-11T09:34:52Z</time>
      </trkpt>
      <trkpt lat="45.84649" lon="4.8064">
        <ele>512</ele>
        <time>2011-11-11T09:34:56Z</time>
      </trkpt>
      <trkpt lat="45.84644" lon="4.8064">
        <ele>511.6</ele>
        <time>2011-11-11T09:34:58Z</time>
      </trkpt>
      <trkpt lat="45.84631" lon="4.80643">
        <ele>510.6</ele>
        <time>2011-11-11T09:35:03Z</time>
      </trkpt>
      <trkpt lat="45.84628" lon="4.80642">
        <ele>510.4</ele>
        <time>2011-11-11T09:35:04Z</time>
      </trkpt>
      <trkpt lat="45.84611" lon="4.8064">
        <ele>509</ele>
        <time>2011-11-11T09:35:10Z</time>
      </trkpt>
      <trkpt lat="45.84599" lon="4.80634">
        <ele>508</ele>
        <time>2011-11-11T09:35:15Z</time>
      </trkpt>
      <trkpt lat="45.84593" lon="4.80627">
        <ele>507.4</ele>
        <time>2011-11-11T09:35:18Z</time>
      </trkpt>
      <trkpt lat="45.84587" lon="4.80618">
        <ele>506.8</ele>
        <time>2011-11-11T09:35:21Z</time>
      </trkpt>
      <trkpt lat="45.84581" lon="4.80605">
        <ele>505.8</ele>
        <time>2011-11-11T09:35:25Z</time>
      </trkpt>
      <trkpt lat="45.84578" lon="4.80599">
        <ele>505.2</ele>
        <time>2011-11-11T09:35:27Z</time>
      </trkpt>
      <trkpt lat="45.84574" lon="4.80578">
        <ele>504</ele>
        <time>2011-11-11T09:35:32Z</time>
      </trkpt>
      <trkpt lat="45.84573" lon="4.80575">
        <ele>503.8</ele>
        <time>2011-11-11T09:35:33Z</time>
      </trkpt>
      <trkpt lat="45.84565" lon="4.80563">
        <ele>503</ele>
        <time>2011-11-11T09:35:38Z</time>
      </trkpt>
      <trkpt lat="45.84559" lon="4.80559">
        <ele>502.6</ele>
        <time>2011-11-11T09:35:40Z</time>
      </trkpt>
      <trkpt lat="45.84553" lon="4.8056">
        <ele>502</ele>
        <time>2011-11-11T09:35:43Z</time>
      </trkpt>
      <trkpt lat="45.84548" lon="4.80562">
        <ele>501.4</ele>
        <time>2011-11-11T09:35:46Z</time>
      </trkpt>
      <trkpt lat="45.84544" lon="4.80563">
        <ele>501.2</ele>
        <time>2011-11-11T09:35:48Z</time>
      </trkpt>
      <trkpt lat="45.8454" lon="4.80564">
        <ele>501</ele>
        <time>2011-11-11T09:35:50Z</time>
      </trkpt>
      <trkpt lat="45.84537" lon="4.80566">
        <ele>500.6</ele>
        <time>2011-11-11T09:35:52Z</time>
      </trkpt>
      <trkpt lat="45.84534" lon="4.80568">
        <ele>500.2</ele>
        <time>2011-11-11T09:35:54Z</time>
      </trkpt>
      <trkpt lat="45.84523" lon="4.80574">
        <ele>499.4</ele>
        <time>2011-11-11T09:36:00Z</time>
      </trkpt>
      <trkpt lat="45.84512" lon="4.80581">
        <ele>498.6</ele>
        <time>2011-11-11T09:36:06Z</time>
      </trkpt>
      <trkpt lat="45.84506" lon="4.80584">
        <ele>498.2</ele>
        <time>2011-11-11T09:36:09Z</time>
      </trkpt>
      <trkpt lat="45.845" lon="4.80586">
        <ele>498</ele>
        <time>2011-11-11T09:36:12Z</time>
      </trkpt>
      <trkpt lat="45.84487" lon="4.8059">
        <ele>497.4</ele>
        <time>2011-11-11T09:36:18Z</time>
      </trkpt>
      <trkpt lat="45.84471" lon="4.80593">
        <ele>496.8</ele>
        <time>2011-11-11T09:36:25Z</time>
      </trkpt>
      <trkpt lat="45.84468" lon="4.80594">
        <ele>496.8</ele>
        <time>2011-11-11T09:36:26Z</time>
      </trkpt>
      <trkpt lat="45.84458" lon="4.80592">
        <ele>496.6</ele>
        <time>2011-11-11T09:36:30Z</time>
      </trkpt>
      <trkpt lat="45.8445" lon="4.80591">
        <ele>496.2</ele>
        <time>2011-11-11T09:36:34Z</time>
      </trkpt>
      <trkpt lat="45.84447" lon="4.8059">
        <ele>496.2</ele>
        <time>2011-11-11T09:36:35Z</time>
      </trkpt>
      <trkpt lat="45.84436" lon="4.80588">
        <ele>496</ele>
        <time>2011-11-11T09:36:41Z</time>
      </trkpt>
      <trkpt lat="45.84431" lon="4.80587">
        <ele>495.8</ele>
        <time>2011-11-11T09:36:44Z</time>
      </trkpt>
      <trkpt lat="45.84428" lon="4.80588">
        <ele>495.6</ele>
        <time>2011-11-11T09:36:46Z</time>
      </trkpt>
      <trkpt lat="45.84427" lon="4.80588">
        <ele>495.6</ele>
        <time>2011-11-11T09:36:47Z</time>
      </trkpt>
      <trkpt lat="45.84423" lon="4.80594">
        <ele>495.4</ele>
        <time>2011-11-11T09:36:51Z</time>
      </trkpt>
      <trkpt lat="45.84421" lon="4.80598">
        <ele>495.2</ele>
        <time>2011-11-11T09:36:53Z</time>
      </trkpt>
      <trkpt lat="45.84418" lon="4.80605">
        <ele>495.2</ele>
        <time>2011-11-11T09:36:55Z</time>
      </trkpt>
      <trkpt lat="45.84417" lon="4.80607">
        <ele>495.2</ele>
        <time>2011-11-11T09:36:56Z</time>
      </trkpt>
      <trkpt lat="45.84416" lon="4.80623">
        <ele>494.6</ele>
        <time>2011-11-11T09:37:02Z</time>
      </trkpt>
      <trkpt lat="45.84414" lon="4.8063">
        <ele>494.4</ele>
        <time>2011-11-11T09:37:04Z</time>
      </trkpt>
      <trkpt lat="45.84412" lon="4.80639">
        <ele>494.4</ele>
        <time>2011-11-11T09:37:06Z</time>
      </trkpt>
      <trkpt lat="45.84411" lon="4.80642">
        <ele>494.2</ele>
        <time>2011-11-11T09:37:07Z</time>
      </trkpt>
      <trkpt lat="45.84408" lon="4.80653">
        <ele>493.8</ele>
        <time>2011-11-11T09:37:11Z</time>
      </trkpt>
      <trkpt lat="45.84409" lon="4.80656">
        <ele>493.8</ele>
        <time>2011-11-11T09:37:12Z</time>
      </trkpt>
      <trkpt lat="45.84409" lon="4.8066">
        <ele>493.6</ele>
        <time>2011-11-11T09:37:13Z</time>
      </trkpt>
      <trkpt lat="45.84411" lon="4.8068">
        <ele>492.8</ele>
        <time>2011-11-11T09:37:21Z</time>
      </trkpt>
      <trkpt lat="45.84412" lon="4.80683">
        <ele>492.6</ele>
        <time>2011-11-11T09:37:22Z</time>
      </trkpt>
      <trkpt lat="45.84411" lon="4.80694">
        <ele>492</ele>
        <time>2011-11-11T09:37:26Z</time>
      </trkpt>
      <trkpt lat="45.84409" lon="4.80709">
        <ele>491.4</ele>
        <time>2011-11-11T09:37:31Z</time>
      </trkpt>
      <trkpt lat="45.84411" lon="4.80725">
        <ele>490.8</ele>
        <time>2011-11-11T09:37:36Z</time>
      </trkpt>
      <trkpt lat="45.84413" lon="4.80735">
        <ele>490.4</ele>
        <time>2011-11-11T09:37:39Z</time>
      </trkpt>
      <trkpt lat="45.84414" lon="4.80741">
        <ele>490.2</ele>
        <time>2011-11-11T09:37:41Z</time>
      </trkpt>
      <trkpt lat="45.84412" lon="4.80746">
        <ele>489.4</ele>
        <time>2011-11-11T09:37:46Z</time>
      </trkpt>
      <trkpt lat="45.84413" lon="4.80755">
        <ele>488.6</ele>
        <time>2011-11-11T09:37:51Z</time>
      </trkpt>
      <trkpt lat="45.84414" lon="4.80761">
        <ele>488.4</ele>
        <time>2011-11-11T09:37:53Z</time>
      </trkpt>
      <trkpt lat="45.84415" lon="4.80774">
        <ele>487.6</ele>
        <time>2011-11-11T09:37:58Z</time>
      </trkpt>
      <trkpt lat="45.84418" lon="4.80787">
        <ele>486.2</ele>
        <time>2011-11-11T09:38:05Z</time>
      </trkpt>
      <trkpt lat="45.84415" lon="4.8079">
        <ele>486</ele>
        <time>2011-11-11T09:38:08Z</time>
      </trkpt>
      <trkpt lat="45.84413" lon="4.80792">
        <ele>485.2</ele>
        <time>2011-11-11T09:38:13Z</time>
      </trkpt>
      <trkpt lat="45.84412" lon="4.80789">
        <ele>484.2</ele>
        <time>2011-11-11T09:38:19Z</time>
      </trkpt>
      <trkpt lat="45.8441" lon="4.80788">
        <ele>483.2</ele>
        <time>2011-11-11T09:38:28Z</time>
      </trkpt>
      <trkpt lat="45.84411" lon="4.80786">
        <ele>483</ele>
        <time>2011-11-11T09:38:29Z</time>
      </trkpt>
      <trkpt lat="45.84412" lon="4.80784">
        <ele>482.4</ele>
        <time>2011-11-11T09:38:34Z</time>
      </trkpt>
      <trkpt lat="45.84415" lon="4.80783">
        <ele>481.2</ele>
        <time>2011-11-11T09:38:44Z</time>
      </trkpt>
      <trkpt lat="45.84416" lon="4.80786">
        <ele>480.6</ele>
        <time>2011-11-11T09:38:47Z</time>
      </trkpt>
      <trkpt lat="45.84416" lon="4.80789">
        <ele>480.6</ele>
        <time>2011-11-11T09:38:48Z</time>
      </trkpt>
      <trkpt lat="45.84416" lon="4.80792">
        <ele>480.4</ele>
        <time>2011-11-11T09:38:49Z</time>
      </trkpt>
      <trkpt lat="45.84416" lon="4.80799">
        <ele>480</ele>
        <time>2011-11-11T09:38:52Z</time>
      </trkpt>
      <trkpt lat="45.84417" lon="4.80804">
        <ele>479.8</ele>
        <time>2011-11-11T09:38:54Z</time>
      </trkpt>
      <trkpt lat="45.84418" lon="4.80812">
        <ele>479.2</ele>
        <time>2011-11-11T09:39:00Z</time>
      </trkpt>
      <trkpt lat="45.84418" lon="4.80824">
        <ele>478.4</ele>
        <time>2011-11-11T09:39:06Z</time>
      </trkpt>
      <trkpt lat="45.84418" lon="4.8084">
        <ele>477.8</ele>
        <time>2011-11-11T09:39:12Z</time>
      </trkpt>
      <trkpt lat="45.84417" lon="4.80843">
        <ele>477.6</ele>
        <time>2011-11-11T09:39:13Z</time>
      </trkpt>
      <trkpt lat="45.84418" lon="4.8086">
        <ele>477.2</ele>
        <time>2011-11-11T09:39:18Z</time>
      </trkpt>
      <trkpt lat="45.84415" lon="4.80869">
        <ele>477</ele>
        <time>2011-11-11T09:39:20Z</time>
      </trkpt>
      <trkpt lat="45.84412" lon="4.8088">
        <ele>476.6</ele>
        <time>2011-11-11T09:39:23Z</time>
      </trkpt>
      <trkpt lat="45.84406" lon="4.80895">
        <ele>476</ele>
        <time>2011-11-11T09:39:27Z</time>
      </trkpt>
      <trkpt lat="45.84405" lon="4.80899">
        <ele>475.8</ele>
        <time>2011-11-11T09:39:28Z</time>
      </trkpt>
      <trkpt lat="45.84402" lon="4.8092">
        <ele>475.6</ele>
        <time>2011-11-11T09:39:32Z</time>
      </trkpt>
      <trkpt lat="45.84402" lon="4.80926">
        <ele>475.6</ele>
        <time>2011-11-11T09:39:33Z</time>
      </trkpt>
      <trkpt lat="45.84396" lon="4.80945">
        <ele>475</ele>
        <time>2011-11-11T09:39:37Z</time>
      </trkpt>
      <trkpt lat="45.84394" lon="4.80947">
        <ele>474.8</ele>
        <time>2011-11-11T09:39:38Z</time>
      </trkpt>
      <trkpt lat="45.84389" lon="4.80943">
        <ele>474</ele>
        <time>2011-11-11T09:39:42Z</time>
      </trkpt>
      <trkpt lat="45.84388" lon="4.80948">
        <ele>472</ele>
        <time>2011-11-11T09:39:51Z</time>
      </trkpt>
      <trkpt lat="45.84387" lon="4.80952">
        <ele>471.8</ele>
        <time>2011-11-11T09:39:52Z</time>
      </trkpt>
      <trkpt lat="45.84386" lon="4.8096">
        <ele>471.4</ele>
        <time>2011-11-11T09:39:54Z</time>
      </trkpt>
      <trkpt lat="45.84384" lon="4.80972">
        <ele>470.8</ele>
        <time>2011-11-11T09:39:57Z</time>
      </trkpt>
      <trkpt lat="45.84381" lon="4.80986">
        <ele>470</ele>
        <time>2011-11-11T09:40:00Z</time>
      </trkpt>
      <trkpt lat="45.84378" lon="4.80996">
        <ele>469.4</ele>
        <time>2011-11-11T09:40:02Z</time>
      </trkpt>
      <trkpt lat="45.84374" lon="4.81012">
        <ele>468.6</ele>
        <time>2011-11-11T09:40:05Z</time>
      </trkpt>
      <trkpt lat="45.8437" lon="4.81024">
        <ele>468.2</ele>
        <time>2011-11-11T09:40:07Z</time>
      </trkpt>
      <trkpt lat="45.84368" lon="4.81039">
        <ele>467.8</ele>
        <time>2011-11-11T09:40:09Z</time>
      </trkpt>
      <trkpt lat="45.84366" lon="4.8105">
        <ele>467.2</ele>
        <time>2011-11-11T09:40:11Z</time>
      </trkpt>
      <trkpt lat="45.84363" lon="4.8106">
        <ele>466.6</ele>
        <time>2011-11-11T09:40:13Z</time>
      </trkpt>
      <trkpt lat="45.84362" lon="4.81066">
        <ele>466.4</ele>
        <time>2011-11-11T09:40:14Z</time>
      </trkpt>
      <trkpt lat="45.84361" lon="4.81072">
        <ele>466.2</ele>
        <time>2011-11-11T09:40:15Z</time>
      </trkpt>
      <trkpt lat="45.84358" lon="4.81085">
        <ele>465.6</ele>
        <time>2011-11-11T09:40:17Z</time>
      </trkpt>
      <trkpt lat="45.84357" lon="4.81096">
        <ele>465</ele>
        <time>2011-11-11T09:40:19Z</time>
      </trkpt>
      <trkpt lat="45.84357" lon="4.81102">
        <ele>464.8</ele>
        <time>2011-11-11T09:40:20Z</time>
      </trkpt>
      <trkpt lat="45.84353" lon="4.81128">
        <ele>463.8</ele>
        <time>2011-11-11T09:40:24Z</time>
      </trkpt>
      <trkpt lat="45.84353" lon="4.81133">
        <ele>463.6</ele>
        <time>2011-11-11T09:40:25Z</time>
      </trkpt>
      <trkpt lat="45.84351" lon="4.81142">
        <ele>463</ele>
        <time>2011-11-11T09:40:27Z</time>
      </trkpt>
      <trkpt lat="45.84351" lon="4.81149">
        <ele>462.2</ele>
        <time>2011-11-11T09:40:29Z</time>
      </trkpt>
      <trkpt lat="45.8435" lon="4.81157">
        <ele>461.6</ele>
        <time>2011-11-11T09:40:31Z</time>
      </trkpt>
      <trkpt lat="45.84349" lon="4.81175">
        <ele>460.4</ele>
        <time>2011-11-11T09:40:35Z</time>
      </trkpt>
      <trkpt lat="45.84348" lon="4.81185">
        <ele>459.8</ele>
        <time>2011-11-11T09:40:37Z</time>
      </trkpt>
      <trkpt lat="45.84344" lon="4.81204">
        <ele>458.6</ele>
        <time>2011-11-11T09:40:41Z</time>
      </trkpt>
      <trkpt lat="45.84342" lon="4.81212">
        <ele>458</ele>
        <time>2011-11-11T09:40:43Z</time>
      </trkpt>
      <trkpt lat="45.84339" lon="4.81227">
        <ele>457.2</ele>
        <time>2011-11-11T09:40:46Z</time>
      </trkpt>
      <trkpt lat="45.84334" lon="4.81239">
        <ele>455.8</ele>
        <time>2011-11-11T09:40:50Z</time>
      </trkpt>
      <trkpt lat="45.84332" lon="4.81247">
        <ele>455.4</ele>
        <time>2011-11-11T09:40:52Z</time>
      </trkpt>
      <trkpt lat="45.84327" lon="4.81266">
        <ele>453.8</ele>
        <time>2011-11-11T09:40:57Z</time>
      </trkpt>
      <trkpt lat="45.84321" lon="4.81272">
        <ele>452.8</ele>
        <time>2011-11-11T09:41:00Z</time>
      </trkpt>
      <trkpt lat="45.84319" lon="4.81274">
        <ele>452.6</ele>
        <time>2011-11-11T09:41:01Z</time>
      </trkpt>
      <trkpt lat="45.84312" lon="4.81275">
        <ele>451.4</ele>
        <time>2011-11-11T09:41:05Z</time>
      </trkpt>
      <trkpt lat="45.84312" lon="4.81275">
        <ele>451.2</ele>
        <time>2011-11-11T09:41:06Z</time>
      </trkpt>
      <trkpt lat="45.84309" lon="4.81274">
        <ele>449.8</ele>
        <time>2011-11-11T09:41:11Z</time>
      </trkpt>
      <trkpt lat="45.8431" lon="4.81274">
        <ele>449.2</ele>
        <time>2011-11-11T09:41:13Z</time>
      </trkpt>
      <trkpt lat="45.84316" lon="4.81282">
        <ele>443.6</ele>
        <time>2011-11-11T09:41:34Z</time>
      </trkpt>
      <trkpt lat="45.84319" lon="4.8129">
        <ele>442.8</ele>
        <time>2011-11-11T09:41:38Z</time>
      </trkpt>
      <trkpt lat="45.8432" lon="4.81291">
        <ele>442.6</ele>
        <time>2011-11-11T09:41:39Z</time>
      </trkpt>
      <trkpt lat="45.84322" lon="4.81296">
        <ele>441.8</ele>
        <time>2011-11-11T09:41:42Z</time>
      </trkpt>
      <trkpt lat="45.84322" lon="4.81299">
        <ele>441.6</ele>
        <time>2011-11-11T09:41:43Z</time>
      </trkpt>
      <trkpt lat="45.84321" lon="4.81301">
        <ele>441.2</ele>
        <time>2011-11-11T09:41:44Z</time>
      </trkpt>
      <trkpt lat="45.84317" lon="4.81313">
        <ele>440.4</ele>
        <time>2011-11-11T09:41:48Z</time>
      </trkpt>
      <trkpt lat="45.84314" lon="4.81319">
        <ele>439.8</ele>
        <time>2011-11-11T09:41:50Z</time>
      </trkpt>
      <trkpt lat="45.84313" lon="4.81323">
        <ele>439.6</ele>
        <time>2011-11-11T09:41:51Z</time>
      </trkpt>
      <trkpt lat="45.84312" lon="4.81332">
        <ele>439</ele>
        <time>2011-11-11T09:41:54Z</time>
      </trkpt>
      <trkpt lat="45.84307" lon="4.8135">
        <ele>438</ele>
        <time>2011-11-11T09:41:59Z</time>
      </trkpt>
      <trkpt lat="45.84305" lon="4.81355">
        <ele>437.8</ele>
        <time>2011-11-11T09:42:00Z</time>
      </trkpt>
      <trkpt lat="45.84302" lon="4.81373">
        <ele>436.6</ele>
        <time>2011-11-11T09:42:05Z</time>
      </trkpt>
      <trkpt lat="45.84301" lon="4.81377">
        <ele>436.4</ele>
        <time>2011-11-11T09:42:06Z</time>
      </trkpt>
      <trkpt lat="45.84301" lon="4.8138">
        <ele>436.2</ele>
        <time>2011-11-11T09:42:07Z</time>
      </trkpt>
      <trkpt lat="45.84303" lon="4.81385">
        <ele>435.8</ele>
        <time>2011-11-11T09:42:09Z</time>
      </trkpt>
      <trkpt lat="45.84303" lon="4.81387">
        <ele>435.4</ele>
        <time>2011-11-11T09:42:11Z</time>
      </trkpt>
      <trkpt lat="45.84302" lon="4.81386">
        <ele>434.8</ele>
        <time>2011-11-11T09:42:14Z</time>
      </trkpt>
      <trkpt lat="45.84301" lon="4.81389">
        <ele>433</ele>
        <time>2011-11-11T09:42:23Z</time>
      </trkpt>
      <trkpt lat="45.84304" lon="4.81389">
        <ele>432.4</ele>
        <time>2011-11-11T09:42:27Z</time>
      </trkpt>
      <trkpt lat="45.84304" lon="4.81385">
        <ele>432</ele>
        <time>2011-11-11T09:42:29Z</time>
      </trkpt>
      <trkpt lat="45.84305" lon="4.81383">
        <ele>431.6</ele>
        <time>2011-11-11T09:42:31Z</time>
      </trkpt>
      <trkpt lat="45.84308" lon="4.81381">
        <ele>431.2</ele>
        <time>2011-11-11T09:42:33Z</time>
      </trkpt>
      <trkpt lat="45.84308" lon="4.81381">
        <ele>431</ele>
        <time>2011-11-11T09:42:34Z</time>
      </trkpt>
      <trkpt lat="45.84313" lon="4.81375">
        <ele>429.8</ele>
        <time>2011-11-11T09:42:39Z</time>
      </trkpt>
      <trkpt lat="45.84316" lon="4.81373">
        <ele>429.6</ele>
        <time>2011-11-11T09:42:40Z</time>
      </trkpt>
      <trkpt lat="45.84323" lon="4.81363">
        <ele>428.6</ele>
        <time>2011-11-11T09:42:44Z</time>
      </trkpt>
      <trkpt lat="45.84325" lon="4.8136">
        <ele>428.6</ele>
        <time>2011-11-11T09:42:45Z</time>
      </trkpt>
      <trkpt lat="45.84336" lon="4.81346">
        <ele>427.2</ele>
        <time>2011-11-11T09:42:51Z</time>
      </trkpt>
      <trkpt lat="45.84337" lon="4.81343">
        <ele>426.8</ele>
        <time>2011-11-11T09:42:52Z</time>
      </trkpt>
      <trkpt lat="45.84344" lon="4.81332">
        <ele>425.8</ele>
        <time>2011-11-11T09:42:56Z</time>
      </trkpt>
      <trkpt lat="45.84353" lon="4.81323">
        <ele>425</ele>
        <time>2011-11-11T09:43:00Z</time>
      </trkpt>
      <trkpt lat="45.8436" lon="4.81315">
        <ele>424.4</ele>
        <time>2011-11-11T09:43:03Z</time>
      </trkpt>
      <trkpt lat="45.84368" lon="4.81305">
        <ele>423.8</ele>
        <time>2011-11-11T09:43:07Z</time>
      </trkpt>
      <trkpt lat="45.84372" lon="4.81299">
        <ele>423.4</ele>
        <time>2011-11-11T09:43:09Z</time>
      </trkpt>
      <trkpt lat="45.84383" lon="4.81289">
        <ele>422.6</ele>
        <time>2011-11-11T09:43:14Z</time>
      </trkpt>
      <trkpt lat="45.84386" lon="4.81281">
        <ele>422.2</ele>
        <time>2011-11-11T09:43:17Z</time>
      </trkpt>
      <trkpt lat="45.84392" lon="4.81262">
        <ele>421</ele>
        <time>2011-11-11T09:43:23Z</time>
      </trkpt>
      <trkpt lat="45.84397" lon="4.81245">
        <ele>419.6</ele>
        <time>2011-11-11T09:43:29Z</time>
      </trkpt>
      <trkpt lat="45.84403" lon="4.81238">
        <ele>418.8</ele>
        <time>2011-11-11T09:43:32Z</time>
      </trkpt>
      <trkpt lat="45.84407" lon="4.81227">
        <ele>418.2</ele>
        <time>2011-11-11T09:43:35Z</time>
      </trkpt>
      <trkpt lat="45.84413" lon="4.81215">
        <ele>417.4</ele>
        <time>2011-11-11T09:43:38Z</time>
      </trkpt>
      <trkpt lat="45.84415" lon="4.81208">
        <ele>417</ele>
        <time>2011-11-11T09:43:40Z</time>
      </trkpt>
      <trkpt lat="45.84426" lon="4.81194">
        <ele>415.8</ele>
        <time>2011-11-11T09:43:45Z</time>
      </trkpt>
      <trkpt lat="45.84437" lon="4.81176">
        <ele>414.2</ele>
        <time>2011-11-11T09:43:52Z</time>
      </trkpt>
      <trkpt lat="45.84438" lon="4.81174">
        <ele>414</ele>
        <time>2011-11-11T09:43:53Z</time>
      </trkpt>
      <trkpt lat="45.84439" lon="4.81173">
        <ele>413.8</ele>
        <time>2011-11-11T09:43:54Z</time>
      </trkpt>
      <trkpt lat="45.8444" lon="4.81171">
        <ele>413</ele>
        <time>2011-11-11T09:43:57Z</time>
      </trkpt>
      <trkpt lat="45.84443" lon="4.81166">
        <ele>412.6</ele>
        <time>2011-11-11T09:44:00Z</time>
      </trkpt>
      <trkpt lat="45.84445" lon="4.81164">
        <ele>412.4</ele>
        <time>2011-11-11T09:44:01Z</time>
      </trkpt>
      <trkpt lat="45.8445" lon="4.81154">
        <ele>411.8</ele>
        <time>2011-11-11T09:44:06Z</time>
      </trkpt>
      <trkpt lat="45.8445" lon="4.81152">
        <ele>411.6</ele>
        <time>2011-11-11T09:44:08Z</time>
      </trkpt>
      <trkpt lat="45.84452" lon="4.81151">
        <ele>411</ele>
        <time>2011-11-11T09:44:11Z</time>
      </trkpt>
      <trkpt lat="45.84452" lon="4.81153">
        <ele>410.8</ele>
        <time>2011-11-11T09:44:12Z</time>
      </trkpt>
      <trkpt lat="45.84453" lon="4.81159">
        <ele>410.4</ele>
        <time>2011-11-11T09:44:15Z</time>
      </trkpt>
      <trkpt lat="45.84453" lon="4.81166">
        <ele>409.8</ele>
        <time>2011-11-11T09:44:18Z</time>
      </trkpt>
      <trkpt lat="45.84453" lon="4.81169">
        <ele>409.6</ele>
        <time>2011-11-11T09:44:19Z</time>
      </trkpt>
      <trkpt lat="45.84453" lon="4.81176">
        <ele>409.2</ele>
        <time>2011-11-11T09:44:21Z</time>
      </trkpt>
      <trkpt lat="45.8445" lon="4.81186">
        <ele>408.8</ele>
        <time>2011-11-11T09:44:24Z</time>
      </trkpt>
      <trkpt lat="45.84453" lon="4.81203">
        <ele>408.6</ele>
        <time>2011-11-11T09:44:29Z</time>
      </trkpt>
      <trkpt lat="45.84455" lon="4.81208">
        <ele>408.6</ele>
        <time>2011-11-11T09:44:30Z</time>
      </trkpt>
      <trkpt lat="45.84457" lon="4.81218">
        <ele>408.6</ele>
        <time>2011-11-11T09:44:33Z</time>
      </trkpt>
      <trkpt lat="45.84458" lon="4.81221">
        <ele>408.6</ele>
        <time>2011-11-11T09:44:34Z</time>
      </trkpt>
      <trkpt lat="45.84462" lon="4.81232">
        <ele>409.4</ele>
        <time>2011-11-11T09:44:39Z</time>
      </trkpt>
      <trkpt lat="45.84462" lon="4.81232">
        <ele>409.6</ele>
        <time>2011-11-11T09:44:40Z</time>
      </trkpt>
      <trkpt lat="45.8446" lon="4.81232">
        <ele>409</ele>
        <time>2011-11-11T09:44:42Z</time>
      </trkpt>
      <trkpt lat="45.84459" lon="4.81232">
        <ele>408.8</ele>
        <time>2011-11-11T09:44:44Z</time>
      </trkpt>
      <trkpt lat="45.84458" lon="4.81233">
        <ele>408.6</ele>
        <time>2011-11-11T09:44:46Z</time>
      </trkpt>
      <trkpt lat="45.84458" lon="4.81234">
        <ele>408.4</ele>
        <time>2011-11-11T09:44:49Z</time>
      </trkpt>
      <trkpt lat="45.84457" lon="4.81237">
        <ele>407.8</ele>
        <time>2011-11-11T09:44:52Z</time>
      </trkpt>
      <trkpt lat="45.84459" lon="4.81244">
        <ele>407.4</ele>
        <time>2011-11-11T09:44:56Z</time>
      </trkpt>
      <trkpt lat="45.84454" lon="4.81245">
        <ele>406.2</ele>
        <time>2011-11-11T09:45:05Z</time>
      </trkpt>
      <trkpt lat="45.84452" lon="4.81246">
        <ele>405.4</ele>
        <time>2011-11-11T09:45:08Z</time>
      </trkpt>
      <trkpt lat="45.84451" lon="4.81248">
        <ele>405.2</ele>
        <time>2011-11-11T09:45:09Z</time>
      </trkpt>
      <trkpt lat="45.84452" lon="4.8125">
        <ele>405.2</ele>
        <time>2011-11-11T09:45:10Z</time>
      </trkpt>
      <trkpt lat="45.84452" lon="4.81258">
        <ele>403.8</ele>
        <time>2011-11-11T09:45:16Z</time>
      </trkpt>
      <trkpt lat="45.84453" lon="4.81259">
        <ele>403.6</ele>
        <time>2011-11-11T09:45:17Z</time>
      </trkpt>
      <trkpt lat="45.84454" lon="4.81267">
        <ele>402.8</ele>
        <time>2011-11-11T09:45:21Z</time>
      </trkpt>
      <trkpt lat="45.84456" lon="4.81272">
        <ele>402.2</ele>
        <time>2011-11-11T09:45:24Z</time>
      </trkpt>
      <trkpt lat="45.84456" lon="4.81277">
        <ele>401.8</ele>
        <time>2011-11-11T09:45:26Z</time>
      </trkpt>
      <trkpt lat="45.84456" lon="4.81279">
        <ele>401.6</ele>
        <time>2011-11-11T09:45:27Z</time>
      </trkpt>
      <trkpt lat="45.8446" lon="4.81291">
        <ele>401</ele>
        <time>2011-11-11T09:45:33Z</time>
      </trkpt>
      <trkpt lat="45.84461" lon="4.81294">
        <ele>400.8</ele>
        <time>2011-11-11T09:45:34Z</time>
      </trkpt>
      <trkpt lat="45.84463" lon="4.81302">
        <ele>400.6</ele>
        <time>2011-11-11T09:45:37Z</time>
      </trkpt>
      <trkpt lat="45.84465" lon="4.81311">
        <ele>400</ele>
        <time>2011-11-11T09:45:42Z</time>
      </trkpt>
      <trkpt lat="45.84464" lon="4.81321">
        <ele>398.8</ele>
        <time>2011-11-11T09:45:49Z</time>
      </trkpt>
      <trkpt lat="45.84464" lon="4.81326">
        <ele>398</ele>
        <time>2011-11-11T09:45:53Z</time>
      </trkpt>
      <trkpt lat="45.84464" lon="4.81328">
        <ele>397.8</ele>
        <time>2011-11-11T09:45:54Z</time>
      </trkpt>
      <trkpt lat="45.84464" lon="4.81332">
        <ele>397.2</ele>
        <time>2011-11-11T09:45:56Z</time>
      </trkpt>
      <trkpt lat="45.84464" lon="4.81339">
        <ele>396.6</ele>
        <time>2011-11-11T09:45:59Z</time>
      </trkpt>
      <trkpt lat="45.84466" lon="4.81343">
        <ele>396.2</ele>
        <time>2011-11-11T09:46:01Z</time>
      </trkpt>
      <trkpt lat="45.84465" lon="4.81349">
        <ele>395.6</ele>
        <time>2011-11-11T09:46:04Z</time>
      </trkpt>
      <trkpt lat="45.84465" lon="4.81351">
        <ele>395</ele>
        <time>2011-11-11T09:46:06Z</time>
      </trkpt>
      <trkpt lat="45.84467" lon="4.81353">
        <ele>394.8</ele>
        <time>2011-11-11T09:46:08Z</time>
      </trkpt>
      <trkpt lat="45.84469" lon="4.81355">
        <ele>394.4</ele>
        <time>2011-11-11T09:46:10Z</time>
      </trkpt>
      <trkpt lat="45.8447" lon="4.81363">
        <ele>393.4</ele>
        <time>2011-11-11T09:46:15Z</time>
      </trkpt>
      <trkpt lat="45.84468" lon="4.81363">
        <ele>393.2</ele>
        <time>2011-11-11T09:46:16Z</time>
      </trkpt>
      <trkpt lat="45.84468" lon="4.81367">
        <ele>392.6</ele>
        <time>2011-11-11T09:46:18Z</time>
      </trkpt>
      <trkpt lat="45.84472" lon="4.81371">
        <ele>392</ele>
        <time>2011-11-11T09:46:21Z</time>
      </trkpt>
      <trkpt lat="45.8447" lon="4.81374">
        <ele>391.6</ele>
        <time>2011-11-11T09:46:23Z</time>
      </trkpt>
      <trkpt lat="45.84469" lon="4.81375">
        <ele>391.2</ele>
        <time>2011-11-11T09:46:25Z</time>
      </trkpt>
      <trkpt lat="45.8447" lon="4.81372">
        <ele>390.6</ele>
        <time>2011-11-11T09:46:28Z</time>
      </trkpt>
      <trkpt lat="45.84471" lon="4.81371">
        <ele>390.4</ele>
        <time>2011-11-11T09:46:29Z</time>
      </trkpt>
      <trkpt lat="45.84474" lon="4.81364">
        <ele>389.8</ele>
        <time>2011-11-11T09:46:33Z</time>
      </trkpt>
      <trkpt lat="45.84476" lon="4.81398">
        <ele>388</ele>
        <time>2011-11-11T09:46:41Z</time>
      </trkpt>
      <trkpt lat="45.84475" lon="4.81403">
        <ele>387.8</ele>
        <time>2011-11-11T09:46:42Z</time>
      </trkpt>
      <trkpt lat="45.84468" lon="4.81412">
        <ele>386.4</ele>
        <time>2011-11-11T09:46:47Z</time>
      </trkpt>
      <trkpt lat="45.84467" lon="4.8141">
        <ele>386.2</ele>
        <time>2011-11-11T09:46:48Z</time>
      </trkpt>
      <trkpt lat="45.84464" lon="4.81409">
        <ele>384.8</ele>
        <time>2011-11-11T09:46:52Z</time>
      </trkpt>
      <trkpt lat="45.84465" lon="4.81416">
        <ele>383.6</ele>
        <time>2011-11-11T09:46:56Z</time>
      </trkpt>
      <trkpt lat="45.84469" lon="4.81418">
        <ele>382.2</ele>
        <time>2011-11-11T09:47:00Z</time>
      </trkpt>
      <trkpt lat="45.8447" lon="4.81419">
        <ele>381.8</ele>
        <time>2011-11-11T09:47:01Z</time>
      </trkpt>
      <trkpt lat="45.84475" lon="4.8142">
        <ele>380.8</ele>
        <time>2011-11-11T09:47:04Z</time>
      </trkpt>
      <trkpt lat="45.84476" lon="4.81423">
        <ele>380.2</ele>
        <time>2011-11-11T09:47:06Z</time>
      </trkpt>
      <trkpt lat="45.84476" lon="4.81425">
        <ele>379.8</ele>
        <time>2011-11-11T09:47:07Z</time>
      </trkpt>
      <trkpt lat="45.84477" lon="4.81431">
        <ele>378.6</ele>
        <time>2011-11-11T09:47:11Z</time>
      </trkpt>
      <trkpt lat="45.8448" lon="4.81444">
        <ele>376.8</ele>
        <time>2011-11-11T09:47:17Z</time>
      </trkpt>
      <trkpt lat="45.8448" lon="4.81446">
        <ele>376.6</ele>
        <time>2011-11-11T09:47:18Z</time>
      </trkpt>
      <trkpt lat="45.84478" lon="4.81457">
        <ele>375.4</ele>
        <time>2011-11-11T09:47:22Z</time>
      </trkpt>
      <trkpt lat="45.84479" lon="4.81461">
        <ele>374.8</ele>
        <time>2011-11-11T09:47:24Z</time>
      </trkpt>
      <trkpt lat="45.84484" lon="4.81469">
        <ele>374</ele>
        <time>2011-11-11T09:47:27Z</time>
      </trkpt>
      <trkpt lat="45.84485" lon="4.81472">
        <ele>373.8</ele>
        <time>2011-11-11T09:47:28Z</time>
      </trkpt>
      <trkpt lat="45.84488" lon="4.81478">
        <ele>372.4</ele>
        <time>2011-11-11T09:47:33Z</time>
      </trkpt>
      <trkpt lat="45.84485" lon="4.8148">
        <ele>370.8</ele>
        <time>2011-11-11T09:47:37Z</time>
      </trkpt>
      <trkpt lat="45.84484" lon="4.81482">
        <ele>370.4</ele>
        <time>2011-11-11T09:47:38Z</time>
      </trkpt>
      <trkpt lat="45.84481" lon="4.81486">
        <ele>368.8</ele>
        <time>2011-11-11T09:47:42Z</time>
      </trkpt>
      <trkpt lat="45.84481" lon="4.81486">
        <ele>368.6</ele>
        <time>2011-11-11T09:47:43Z</time>
      </trkpt>
      <trkpt lat="45.8448" lon="4.81488">
        <ele>366.8</ele>
        <time>2011-11-11T09:47:47Z</time>
      </trkpt>
      <trkpt lat="45.84479" lon="4.81488">
        <ele>366.4</ele>
        <time>2011-11-11T09:47:48Z</time>
      </trkpt>
      <trkpt lat="45.84478" lon="4.81488">
        <ele>365.2</ele>
        <time>2011-11-11T09:47:51Z</time>
      </trkpt>
      <trkpt lat="45.84481" lon="4.81488">
        <ele>363.4</ele>
        <time>2011-11-11T09:47:56Z</time>
      </trkpt>
      <trkpt lat="45.8449" lon="4.81488">
        <ele>360.2</ele>
        <time>2011-11-11T09:48:08Z</time>
      </trkpt>
      <trkpt lat="45.84491" lon="4.81488">
        <ele>359.8</ele>
        <time>2011-11-11T09:48:11Z</time>
      </trkpt>
      <trkpt lat="45.84495" lon="4.8149">
        <ele>358.8</ele>
        <time>2011-11-11T09:48:18Z</time>
      </trkpt>
      <trkpt lat="45.84498" lon="4.81489">
        <ele>358.6</ele>
        <time>2011-11-11T09:48:21Z</time>
      </trkpt>
      <trkpt lat="45.845" lon="4.8149">
        <ele>358.2</ele>
        <time>2011-11-11T09:48:25Z</time>
      </trkpt>
      <trkpt lat="45.84497" lon="4.81492">
        <ele>357.8</ele>
        <time>2011-11-11T09:48:27Z</time>
      </trkpt>
      <trkpt lat="45.84499" lon="4.81492">
        <ele>357.4</ele>
        <time>2011-11-11T09:48:31Z</time>
      </trkpt>
      <trkpt lat="45.845" lon="4.81493">
        <ele>357</ele>
        <time>2011-11-11T09:48:33Z</time>
      </trkpt>
      <trkpt lat="45.84498" lon="4.81496">
        <ele>356</ele>
        <time>2011-11-11T09:48:37Z</time>
      </trkpt>
      <trkpt lat="45.84499" lon="4.81496">
        <ele>353.6</ele>
        <time>2011-11-11T09:48:45Z</time>
      </trkpt>
      <trkpt lat="45.845" lon="4.81498">
        <ele>352.8</ele>
        <time>2011-11-11T09:48:48Z</time>
      </trkpt>
      <trkpt lat="45.845" lon="4.815">
        <ele>352.4</ele>
        <time>2011-11-11T09:48:49Z</time>
      </trkpt>
      <trkpt lat="45.845" lon="4.81504">
        <ele>351.2</ele>
        <time>2011-11-11T09:48:52Z</time>
      </trkpt>
      <trkpt lat="45.84502" lon="4.81505">
        <ele>351</ele>
        <time>2011-11-11T09:48:53Z</time>
      </trkpt>
      <trkpt lat="45.84509" lon="4.81512">
        <ele>349.6</ele>
        <time>2011-11-11T09:48:57Z</time>
      </trkpt>
      <trkpt lat="45.84511" lon="4.81516">
        <ele>348.8</ele>
        <time>2011-11-11T09:48:59Z</time>
      </trkpt>
      <trkpt lat="45.84512" lon="4.81518">
        <ele>348.6</ele>
        <time>2011-11-11T09:49:00Z</time>
      </trkpt>
      <trkpt lat="45.84517" lon="4.81515">
        <ele>347.6</ele>
        <time>2011-11-11T09:49:03Z</time>
      </trkpt>
      <trkpt lat="45.84524" lon="4.81512">
        <ele>346.4</ele>
        <time>2011-11-11T09:49:07Z</time>
      </trkpt>
      <trkpt lat="45.84531" lon="4.81504">
        <ele>344.8</ele>
        <time>2011-11-11T09:49:12Z</time>
      </trkpt>
      <trkpt lat="45.84533" lon="4.81503">
        <ele>344.2</ele>
        <time>2011-11-11T09:49:14Z</time>
      </trkpt>
      <trkpt lat="45.84531" lon="4.81499">
        <ele>343</ele>
        <time>2011-11-11T09:49:18Z</time>
      </trkpt>
      <trkpt lat="45.84531" lon="4.81495">
        <ele>342.2</ele>
        <time>2011-11-11T09:49:20Z</time>
      </trkpt>
      <trkpt lat="45.84534" lon="4.81493">
        <ele>341.4</ele>
        <time>2011-11-11T09:49:22Z</time>
      </trkpt>
      <trkpt lat="45.84537" lon="4.81492">
        <ele>340.6</ele>
        <time>2011-11-11T09:49:24Z</time>
      </trkpt>
      <trkpt lat="45.84538" lon="4.8149">
        <ele>339.8</ele>
        <time>2011-11-11T09:49:26Z</time>
      </trkpt>
      <trkpt lat="45.84542" lon="4.81489">
        <ele>339</ele>
        <time>2011-11-11T09:49:29Z</time>
      </trkpt>
      <trkpt lat="45.84545" lon="4.81487">
        <ele>338.4</ele>
        <time>2011-11-11T09:49:31Z</time>
      </trkpt>
      <trkpt lat="45.84549" lon="4.81484">
        <ele>337</ele>
        <time>2011-11-11T09:49:37Z</time>
      </trkpt>
      <trkpt lat="45.84549" lon="4.81483">
        <ele>337</ele>
        <time>2011-11-11T09:49:38Z</time>
      </trkpt>
      <trkpt lat="45.84551" lon="4.81483">
        <ele>336.8</ele>
        <time>2011-11-11T09:49:39Z</time>
      </trkpt>
      <trkpt lat="45.84555" lon="4.81484">
        <ele>336.2</ele>
        <time>2011-11-11T09:49:43Z</time>
      </trkpt>
      <trkpt lat="45.84559" lon="4.8148">
        <ele>335.6</ele>
        <time>2011-11-11T09:49:48Z</time>
      </trkpt>
      <trkpt lat="45.84561" lon="4.8148">
        <ele>335.4</ele>
        <time>2011-11-11T09:49:49Z</time>
      </trkpt>
      <trkpt lat="45.84563" lon="4.8148">
        <ele>335.2</ele>
        <time>2011-11-11T09:49:52Z</time>
      </trkpt>
      <trkpt lat="45.84564" lon="4.81479">
        <ele>335</ele>
        <time>2011-11-11T09:49:54Z</time>
      </trkpt>
      <trkpt lat="45.84566" lon="4.81479">
        <ele>335</ele>
        <time>2011-11-11T09:49:55Z</time>
      </trkpt>
      <trkpt lat="45.84568" lon="4.81475">
        <ele>334.4</ele>
        <time>2011-11-11T09:49:59Z</time>
      </trkpt>
      <trkpt lat="45.84572" lon="4.81473">
        <ele>334.2</ele>
        <time>2011-11-11T09:50:02Z</time>
      </trkpt>
      <trkpt lat="45.84573" lon="4.81472">
        <ele>333.8</ele>
        <time>2011-11-11T09:50:05Z</time>
      </trkpt>
      <trkpt lat="45.84574" lon="4.81472">
        <ele>333.8</ele>
        <time>2011-11-11T09:50:06Z</time>
      </trkpt>
      <trkpt lat="45.84577" lon="4.81472">
        <ele>333.4</ele>
        <time>2011-11-11T09:50:13Z</time>
      </trkpt>
      <trkpt lat="45.84572" lon="4.81473">
        <ele>333</ele>
        <time>2011-11-11T09:50:18Z</time>
      </trkpt>
      <trkpt lat="45.84572" lon="4.81472">
        <ele>333.2</ele>
        <time>2011-11-11T09:50:21Z</time>
      </trkpt>
      <trkpt lat="45.84574" lon="4.8147">
        <ele>333</ele>
        <time>2011-11-11T09:50:22Z</time>
      </trkpt>
      <trkpt lat="45.84572" lon="4.81473">
        <ele>333.2</ele>
        <time>2011-11-11T09:50:25Z</time>
      </trkpt>
      <trkpt lat="45.84572" lon="4.81474">
        <ele>333.4</ele>
        <time>2011-11-11T09:50:26Z</time>
      </trkpt>
      <trkpt lat="45.8458" lon="4.81469">
        <ele>333.2</ele>
        <time>2011-11-11T09:50:30Z</time>
      </trkpt>
      <trkpt lat="45.84587" lon="4.81467">
        <ele>332.8</ele>
        <time>2011-11-11T09:50:33Z</time>
      </trkpt>
      <trkpt lat="45.84588" lon="4.81465">
        <ele>332.8</ele>
        <time>2011-11-11T09:50:34Z</time>
      </trkpt>
      <trkpt lat="45.84593" lon="4.81461">
        <ele>332.6</ele>
        <time>2011-11-11T09:50:38Z</time>
      </trkpt>
      <trkpt lat="45.84595" lon="4.8146">
        <ele>332.6</ele>
        <time>2011-11-11T09:50:40Z</time>
      </trkpt>
      <trkpt lat="45.84596" lon="4.81459">
        <ele>332.6</ele>
        <time>2011-11-11T09:50:41Z</time>
      </trkpt>
      <trkpt lat="45.84598" lon="4.81457">
        <ele>332.4</ele>
        <time>2011-11-11T09:50:45Z</time>
      </trkpt>
      <trkpt lat="45.84601" lon="4.81451">
        <ele>332.4</ele>
        <time>2011-11-11T09:50:51Z</time>
      </trkpt>
      <trkpt lat="45.84601" lon="4.8145">
        <ele>332.4</ele>
        <time>2011-11-11T09:50:52Z</time>
      </trkpt>
      <trkpt lat="45.84605" lon="4.81447">
        <ele>332.4</ele>
        <time>2011-11-11T09:50:58Z</time>
      </trkpt>
      <trkpt lat="45.84608" lon="4.81447">
        <ele>333</ele>
        <time>2011-11-11T09:51:03Z</time>
      </trkpt>
      <trkpt lat="45.84609" lon="4.81446">
        <ele>333</ele>
        <time>2011-11-11T09:51:04Z</time>
      </trkpt>
      <trkpt lat="45.84612" lon="4.81447">
        <ele>333.8</ele>
        <time>2011-11-11T09:51:07Z</time>
      </trkpt>
      <trkpt lat="45.84618" lon="4.81445">
        <ele>334.6</ele>
        <time>2011-11-11T09:51:11Z</time>
      </trkpt>
      <trkpt lat="45.84619" lon="4.81445">
        <ele>335</ele>
        <time>2011-11-11T09:51:12Z</time>
      </trkpt>
      <trkpt lat="45.84624" lon="4.81438">
        <ele>338</ele>
        <time>2011-11-11T09:51:21Z</time>
      </trkpt>
      <trkpt lat="45.84625" lon="4.81437">
        <ele>338.2</ele>
        <time>2011-11-11T09:51:22Z</time>
      </trkpt>
      <trkpt lat="45.84627" lon="4.81436">
        <ele>339.2</ele>
        <time>2011-11-11T09:51:25Z</time>
      </trkpt>
      <trkpt lat="45.84628" lon="4.81437">
        <ele>339.6</ele>
        <time>2011-11-11T09:51:26Z</time>
      </trkpt>
      <trkpt lat="45.84629" lon="4.81438">
        <ele>340.4</ele>
        <time>2011-11-11T09:51:29Z</time>
      </trkpt>
      <trkpt lat="45.84629" lon="4.81436">
        <ele>340.4</ele>
        <time>2011-11-11T09:51:30Z</time>
      </trkpt>
      <trkpt lat="45.84632" lon="4.8143">
        <ele>340.8</ele>
        <time>2011-11-11T09:51:34Z</time>
      </trkpt>
      <trkpt lat="45.84632" lon="4.8143">
        <ele>341.4</ele>
        <time>2011-11-11T09:51:36Z</time>
      </trkpt>
      <trkpt lat="45.84635" lon="4.81429">
        <ele>342</ele>
        <time>2011-11-11T09:51:40Z</time>
      </trkpt>
      <trkpt lat="45.84636" lon="4.81429">
        <ele>342</ele>
        <time>2011-11-11T09:51:41Z</time>
      </trkpt>
      <trkpt lat="45.84637" lon="4.81429">
        <ele>342.2</ele>
        <time>2011-11-11T09:51:42Z</time>
      </trkpt>
      <trkpt lat="45.84639" lon="4.81427">
        <ele>342.8</ele>
        <time>2011-11-11T09:51:45Z</time>
      </trkpt>
      <trkpt lat="45.8464" lon="4.81426">
        <ele>343.6</ele>
        <time>2011-11-11T09:51:50Z</time>
      </trkpt>
      <trkpt lat="45.84641" lon="4.81427">
        <ele>343.6</ele>
        <time>2011-11-11T09:51:52Z</time>
      </trkpt>
      <trkpt lat="45.84645" lon="4.81424">
        <ele>344.2</ele>
        <time>2011-11-11T09:51:57Z</time>
      </trkpt>
      <trkpt lat="45.84656" lon="4.8141">
        <ele>345.8</ele>
        <time>2011-11-11T09:52:13Z</time>
      </trkpt>
      <trkpt lat="45.84654" lon="4.8141">
        <ele>345.8</ele>
        <time>2011-11-11T09:52:17Z</time>
      </trkpt>
      <trkpt lat="45.84658" lon="4.81414">
        <ele>345.8</ele>
        <time>2011-11-11T09:52:20Z</time>
      </trkpt>
      <trkpt lat="45.84669" lon="4.81432">
        <ele>346</ele>
        <time>2011-11-11T09:52:36Z</time>
      </trkpt>
      <trkpt lat="45.84658" lon="4.8142">
        <ele>346.4</ele>
        <time>2011-11-11T09:52:38Z</time>
      </trkpt>
      <trkpt lat="45.8465" lon="4.81409">
        <ele>346.2</ele>
        <time>2011-11-11T09:52:40Z</time>
      </trkpt>
      <trkpt lat="45.84651" lon="4.81408">
        <ele>346.2</ele>
        <time>2011-11-11T09:52:41Z</time>
      </trkpt>
      <trkpt lat="45.84655" lon="4.8141">
        <ele>346.4</ele>
        <time>2011-11-11T09:52:42Z</time>
      </trkpt>
      <trkpt lat="45.84659" lon="4.81411">
        <ele>346.6</ele>
        <time>2011-11-11T09:52:43Z</time>
      </trkpt>
      <trkpt lat="45.84661" lon="4.8141">
        <ele>346.8</ele>
        <time>2011-11-11T09:52:44Z</time>
      </trkpt>
      <trkpt lat="45.84668" lon="4.81417">
        <ele>349.6</ele>
        <time>2011-11-11T09:52:48Z</time>
      </trkpt>
      <trkpt lat="45.8467" lon="4.81417">
        <ele>349.8</ele>
        <time>2011-11-11T09:52:49Z</time>
      </trkpt>
      <trkpt lat="45.84668" lon="4.81417">
        <ele>351.8</ele>
        <time>2011-11-11T09:52:53Z</time>
      </trkpt>
      <trkpt lat="45.84672" lon="4.8142">
        <ele>354</ele>
        <time>2011-11-11T09:52:56Z</time>
      </trkpt>
      <trkpt lat="45.8467" lon="4.81418">
        <ele>355.4</ele>
        <time>2011-11-11T09:52:59Z</time>
      </trkpt>
      <trkpt lat="45.84668" lon="4.81419">
        <ele>355.8</ele>
        <time>2011-11-11T09:53:00Z</time>
      </trkpt>
      <trkpt lat="45.84667" lon="4.81419">
        <ele>358.6</ele>
        <time>2011-11-11T09:53:07Z</time>
      </trkpt>
      <trkpt lat="45.84666" lon="4.81415">
        <ele>359.6</ele>
        <time>2011-11-11T09:53:11Z</time>
      </trkpt>
      <trkpt lat="45.84665" lon="4.81412">
        <ele>360</ele>
        <time>2011-11-11T09:53:16Z</time>
      </trkpt>
      <trkpt lat="45.84665" lon="4.81411">
        <ele>360</ele>
        <time>2011-11-11T09:53:17Z</time>
      </trkpt>
      <trkpt lat="45.84663" lon="4.8141">
        <ele>360.4</ele>
        <time>2011-11-11T09:53:22Z</time>
      </trkpt>
      <trkpt lat="45.84673" lon="4.81375">
        <ele>360.4</ele>
        <time>2011-11-11T09:53:34Z</time>
      </trkpt>
      <trkpt lat="45.84675" lon="4.81374">
        <ele>361</ele>
        <time>2011-11-11T09:53:35Z</time>
      </trkpt>
      <trkpt lat="45.84675" lon="4.81382">
        <ele>360.4</ele>
        <time>2011-11-11T09:53:38Z</time>
      </trkpt>
      <trkpt lat="45.84677" lon="4.81384">
        <ele>360.4</ele>
        <time>2011-11-11T09:53:40Z</time>
      </trkpt>
      <trkpt lat="45.84678" lon="4.81384">
        <ele>360.4</ele>
        <time>2011-11-11T09:53:41Z</time>
      </trkpt>
      <trkpt lat="45.84678" lon="4.8138">
        <ele>360.8</ele>
        <time>2011-11-11T09:53:47Z</time>
      </trkpt>
      <trkpt lat="45.84679" lon="4.8138">
        <ele>360.8</ele>
        <time>2011-11-11T09:53:48Z</time>
      </trkpt>
      <trkpt lat="45.8468" lon="4.81377">
        <ele>360.6</ele>
        <time>2011-11-11T09:53:52Z</time>
      </trkpt>
      <trkpt lat="45.84682" lon="4.81374">
        <ele>360.4</ele>
        <time>2011-11-11T09:53:56Z</time>
      </trkpt>
      <trkpt lat="45.84685" lon="4.81372">
        <ele>360.4</ele>
        <time>2011-11-11T09:53:58Z</time>
      </trkpt>
      <trkpt lat="45.84686" lon="4.81368">
        <ele>360.2</ele>
        <time>2011-11-11T09:54:03Z</time>
      </trkpt>
      <trkpt lat="45.84686" lon="4.81368">
        <ele>360.2</ele>
        <time>2011-11-11T09:54:04Z</time>
      </trkpt>
      <trkpt lat="45.84685" lon="4.81367">
        <ele>360.2</ele>
        <time>2011-11-11T09:54:05Z</time>
      </trkpt>
      <trkpt lat="45.84681" lon="4.81363">
        <ele>360</ele>
        <time>2011-11-11T09:54:09Z</time>
      </trkpt>
      <trkpt lat="45.84678" lon="4.81362">
        <ele>360</ele>
        <time>2011-11-11T09:54:11Z</time>
      </trkpt>
      <trkpt lat="45.84676" lon="4.81363">
        <ele>360</ele>
        <time>2011-11-11T09:54:13Z</time>
      </trkpt>
      <trkpt lat="45.84675" lon="4.81363">
        <ele>360</ele>
        <time>2011-11-11T09:54:14Z</time>
      </trkpt>
      <trkpt lat="45.84672" lon="4.81367">
        <ele>360.2</ele>
        <time>2011-11-11T09:54:20Z</time>
      </trkpt>
      <trkpt lat="45.84671" lon="4.81367">
        <ele>360</ele>
        <time>2011-11-11T09:54:22Z</time>
      </trkpt>
      <trkpt lat="45.84671" lon="4.81366">
        <ele>360.2</ele>
        <time>2011-11-11T09:54:25Z</time>
      </trkpt>
      <trkpt lat="45.84668" lon="4.81362">
        <ele>362.6</ele>
        <time>2011-11-11T09:54:38Z</time>
      </trkpt>
      <trkpt lat="45.84667" lon="4.81363">
        <ele>363.2</ele>
        <time>2011-11-11T09:54:40Z</time>
      </trkpt>
      <trkpt lat="45.84666" lon="4.81365">
        <ele>363.8</ele>
        <time>2011-11-11T09:54:42Z</time>
      </trkpt>
      <trkpt lat="45.84664" lon="4.8136">
        <ele>364.8</ele>
        <time>2011-11-11T09:54:47Z</time>
      </trkpt>
      <trkpt lat="45.84664" lon="4.81359">
        <ele>364.8</ele>
        <time>2011-11-11T09:54:48Z</time>
      </trkpt>
      <trkpt lat="45.84665" lon="4.81355">
        <ele>365.4</ele>
        <time>2011-11-11T09:54:50Z</time>
      </trkpt>
      <trkpt lat="45.84663" lon="4.81352">
        <ele>366.4</ele>
        <time>2011-11-11T09:54:54Z</time>
      </trkpt>
      <trkpt lat="45.84661" lon="4.81354">
        <ele>366.8</ele>
        <time>2011-11-11T09:54:56Z</time>
      </trkpt>
      <trkpt lat="45.8466" lon="4.81353">
        <ele>367.4</ele>
        <time>2011-11-11T09:54:59Z</time>
      </trkpt>
      <trkpt lat="45.84658" lon="4.81352">
        <ele>367.6</ele>
        <time>2011-11-11T09:55:00Z</time>
      </trkpt>
      <trkpt lat="45.84654" lon="4.8135">
        <ele>368.2</ele>
        <time>2011-11-11T09:55:04Z</time>
      </trkpt>
      <trkpt lat="45.84651" lon="4.81348">
        <ele>368.8</ele>
        <time>2011-11-11T09:55:07Z</time>
      </trkpt>
      <trkpt lat="45.8465" lon="4.81345">
        <ele>369</ele>
        <time>2011-11-11T09:55:09Z</time>
      </trkpt>
      <trkpt lat="45.84647" lon="4.81343">
        <ele>369.4</ele>
        <time>2011-11-11T09:55:13Z</time>
      </trkpt>
      <trkpt lat="45.84647" lon="4.81342">
        <ele>369.2</ele>
        <time>2011-11-11T09:55:14Z</time>
      </trkpt>
      <trkpt lat="45.84645" lon="4.81344">
        <ele>369.2</ele>
        <time>2011-11-11T09:55:27Z</time>
      </trkpt>
      <trkpt lat="45.84645" lon="4.81345">
        <ele>369.2</ele>
        <time>2011-11-11T09:55:29Z</time>
      </trkpt>
      <trkpt lat="45.84644" lon="4.81349">
        <ele>369.6</ele>
        <time>2011-11-11T09:55:33Z</time>
      </trkpt>
      <trkpt lat="45.84641" lon="4.8135">
        <ele>369.8</ele>
        <time>2011-11-11T09:55:37Z</time>
      </trkpt>
      <trkpt lat="45.84641" lon="4.8135">
        <ele>370.6</ele>
        <time>2011-11-11T09:55:44Z</time>
      </trkpt>
      <trkpt lat="45.84644" lon="4.81354">
        <ele>373</ele>
        <time>2011-11-11T09:55:53Z</time>
      </trkpt>
      <trkpt lat="45.84645" lon="4.81355">
        <ele>373.4</ele>
        <time>2011-11-11T09:55:54Z</time>
      </trkpt>
      <trkpt lat="45.84648" lon="4.81353">
        <ele>374.4</ele>
        <time>2011-11-11T09:55:58Z</time>
      </trkpt>
      <trkpt lat="45.84647" lon="4.81356">
        <ele>375.4</ele>
        <time>2011-11-11T09:56:03Z</time>
      </trkpt>
      <trkpt lat="45.84646" lon="4.81357">
        <ele>376.4</ele>
        <time>2011-11-11T09:56:08Z</time>
      </trkpt>
      <trkpt lat="45.84645" lon="4.81363">
        <ele>379.2</ele>
        <time>2011-11-11T09:56:18Z</time>
      </trkpt>
      <trkpt lat="45.84643" lon="4.81366">
        <ele>379.6</ele>
        <time>2011-11-11T09:56:19Z</time>
      </trkpt>
      <trkpt lat="45.8464" lon="4.81372">
        <ele>380.2</ele>
        <time>2011-11-11T09:56:23Z</time>
      </trkpt>
      <trkpt lat="45.84641" lon="4.81374">
        <ele>381.2</ele>
        <time>2011-11-11T09:56:31Z</time>
      </trkpt>
      <trkpt lat="45.84642" lon="4.81375">
        <ele>381.4</ele>
        <time>2011-11-11T09:56:35Z</time>
      </trkpt>
      <trkpt lat="45.84641" lon="4.81374">
        <ele>381.4</ele>
        <time>2011-11-11T09:56:36Z</time>
      </trkpt>
      <trkpt lat="45.84642" lon="4.81378">
        <ele>381.2</ele>
        <time>2011-11-11T09:56:43Z</time>
      </trkpt>
      <trkpt lat="45.84648" lon="4.81379">
        <ele>380.2</ele>
        <time>2011-11-11T09:56:52Z</time>
      </trkpt>
      <trkpt lat="45.84649" lon="4.81379">
        <ele>379.6</ele>
        <time>2011-11-11T09:56:57Z</time>
      </trkpt>
      <trkpt lat="45.8465" lon="4.81379">
        <ele>379.6</ele>
        <time>2011-11-11T09:56:58Z</time>
      </trkpt>
      <trkpt lat="45.8465" lon="4.81383">
        <ele>379</ele>
        <time>2011-11-11T09:57:01Z</time>
      </trkpt>
      <trkpt lat="45.8465" lon="4.81385">
        <ele>379</ele>
        <time>2011-11-11T09:57:02Z</time>
      </trkpt>
      <trkpt lat="45.84651" lon="4.81392">
        <ele>378.6</ele>
        <time>2011-11-11T09:57:05Z</time>
      </trkpt>
      <trkpt lat="45.84651" lon="4.81397">
        <ele>378</ele>
        <time>2011-11-11T09:57:08Z</time>
      </trkpt>
      <trkpt lat="45.84652" lon="4.81399">
        <ele>378</ele>
        <time>2011-11-11T09:57:09Z</time>
      </trkpt>
      <trkpt lat="45.84655" lon="4.81404">
        <ele>377.6</ele>
        <time>2011-11-11T09:57:11Z</time>
      </trkpt>
      <trkpt lat="45.84657" lon="4.81407">
        <ele>377.4</ele>
        <time>2011-11-11T09:57:13Z</time>
      </trkpt>
      <trkpt lat="45.84657" lon="4.81409">
        <ele>377.2</ele>
        <time>2011-11-11T09:57:14Z</time>
      </trkpt>
      <trkpt lat="45.84659" lon="4.81415">
        <ele>376.6</ele>
        <time>2011-11-11T09:57:18Z</time>
      </trkpt>
      <trkpt lat="45.84657" lon="4.8142">
        <ele>375.6</ele>
        <time>2011-11-11T09:57:23Z</time>
      </trkpt>
      <trkpt lat="45.84659" lon="4.81422">
        <ele>375.2</ele>
        <time>2011-11-11T09:57:25Z</time>
      </trkpt>
      <trkpt lat="45.8466" lon="4.81424">
        <ele>374.8</ele>
        <time>2011-11-11T09:57:27Z</time>
      </trkpt>
      <trkpt lat="45.8466" lon="4.81422">
        <ele>373.2</ele>
        <time>2011-11-11T09:57:35Z</time>
      </trkpt>
      <trkpt lat="45.84663" lon="4.81421">
        <ele>372</ele>
        <time>2011-11-11T09:57:43Z</time>
      </trkpt>
      <trkpt lat="45.84662" lon="4.81425">
        <ele>370.8</ele>
        <time>2011-11-11T09:57:50Z</time>
      </trkpt>
      <trkpt lat="45.84662" lon="4.81428">
        <ele>362.8</ele>
        <time>2011-11-11T09:59:46Z</time>
      </trkpt>
      <trkpt lat="45.84661" lon="4.81428">
        <ele>362.8</ele>
        <time>2011-11-11T09:59:52Z</time>
      </trkpt>
      <trkpt lat="45.84663" lon="4.81431">
        <ele>362.6</ele>
        <time>2011-11-11T09:59:57Z</time>
      </trkpt>
      <trkpt lat="45.84665" lon="4.81432">
        <ele>362.4</ele>
        <time>2011-11-11T10:00:00Z</time>
      </trkpt>
      <trkpt lat="45.84661" lon="4.81423">
        <ele>361.8</ele>
        <time>2011-11-11T10:00:07Z</time>
      </trkpt>
      <trkpt lat="45.84659" lon="4.81421">
        <ele>361.6</ele>
        <time>2011-11-11T10:00:10Z</time>
      </trkpt>
      <trkpt lat="45.84657" lon="4.8142">
        <ele>361.4</ele>
        <time>2011-11-11T10:00:12Z</time>
      </trkpt>
      <trkpt lat="45.84656" lon="4.81413">
        <ele>361.2</ele>
        <time>2011-11-11T10:00:15Z</time>
      </trkpt>
      <trkpt lat="45.84657" lon="4.81409">
        <ele>361.2</ele>
        <time>2011-11-11T10:00:17Z</time>
      </trkpt>
      <trkpt lat="45.84658" lon="4.81407">
        <ele>361.2</ele>
        <time>2011-11-11T10:00:18Z</time>
      </trkpt>
      <trkpt lat="45.84659" lon="4.81405">
        <ele>361.2</ele>
        <time>2011-11-11T10:00:20Z</time>
      </trkpt>
      <trkpt lat="45.84662" lon="4.81406">
        <ele>361</ele>
        <time>2011-11-11T10:00:23Z</time>
      </trkpt>
      <trkpt lat="45.84673" lon="4.81394">
        <ele>360.8</ele>
        <time>2011-11-11T10:00:36Z</time>
      </trkpt>
      <trkpt lat="45.84669" lon="4.81389">
        <ele>360.6</ele>
        <time>2011-11-11T10:00:37Z</time>
      </trkpt>
      <trkpt lat="45.84674" lon="4.81387">
        <ele>360.8</ele>
        <time>2011-11-11T10:00:39Z</time>
      </trkpt>
      <trkpt lat="45.84675" lon="4.81386">
        <ele>360.8</ele>
        <time>2011-11-11T10:00:41Z</time>
      </trkpt>
      <trkpt lat="45.84676" lon="4.81383">
        <ele>360.8</ele>
        <time>2011-11-11T10:00:44Z</time>
      </trkpt>
      <trkpt lat="45.84678" lon="4.81381">
        <ele>360.8</ele>
        <time>2011-11-11T10:00:47Z</time>
      </trkpt>
      <trkpt lat="45.84681" lon="4.81377">
        <ele>361</ele>
        <time>2011-11-11T10:00:53Z</time>
      </trkpt>
      <trkpt lat="45.84683" lon="4.8138">
        <ele>360.8</ele>
        <time>2011-11-11T10:00:58Z</time>
      </trkpt>
      <trkpt lat="45.84684" lon="4.81382">
        <ele>360.8</ele>
        <time>2011-11-11T10:01:00Z</time>
      </trkpt>
      <trkpt lat="45.84686" lon="4.81383">
        <ele>360.8</ele>
        <time>2011-11-11T10:01:03Z</time>
      </trkpt>
      <trkpt lat="45.84681" lon="4.81383">
        <ele>360.6</ele>
        <time>2011-11-11T10:01:06Z</time>
      </trkpt>
      <trkpt lat="45.84679" lon="4.81383">
        <ele>360.6</ele>
        <time>2011-11-11T10:01:10Z</time>
      </trkpt>
      <trkpt lat="45.84684" lon="4.81382">
        <ele>360.4</ele>
        <time>2011-11-11T10:01:16Z</time>
      </trkpt>
      <trkpt lat="45.84688" lon="4.81382">
        <ele>360.4</ele>
        <time>2011-11-11T10:01:20Z</time>
      </trkpt>
      <trkpt lat="45.84689" lon="4.81385">
        <ele>360.2</ele>
        <time>2011-11-11T10:01:22Z</time>
      </trkpt>
      <trkpt lat="45.84687" lon="4.81387">
        <ele>360.2</ele>
        <time>2011-11-11T10:01:23Z</time>
      </trkpt>
      <trkpt lat="45.84686" lon="4.81392">
        <ele>360.2</ele>
        <time>2011-11-11T10:01:25Z</time>
      </trkpt>
      <trkpt lat="45.84687" lon="4.81394">
        <ele>360.2</ele>
        <time>2011-11-11T10:01:26Z</time>
      </trkpt>
      <trkpt lat="45.8469" lon="4.81393">
        <ele>360.2</ele>
        <time>2011-11-11T10:01:28Z</time>
      </trkpt>
      <trkpt lat="45.84692" lon="4.81393">
        <ele>360.2</ele>
        <time>2011-11-11T10:01:30Z</time>
      </trkpt>
      <trkpt lat="45.84696" lon="4.8139">
        <ele>360.4</ele>
        <time>2011-11-11T10:01:34Z</time>
      </trkpt>
      <trkpt lat="45.84697" lon="4.8139">
        <ele>360.6</ele>
        <time>2011-11-11T10:01:35Z</time>
      </trkpt>
      <trkpt lat="45.84699" lon="4.81383">
        <ele>361.4</ele>
        <time>2011-11-11T10:01:40Z</time>
      </trkpt>
      <trkpt lat="45.84703" lon="4.81385">
        <ele>362</ele>
        <time>2011-11-11T10:01:42Z</time>
      </trkpt>
      <trkpt lat="45.84704" lon="4.81385">
        <ele>362.2</ele>
        <time>2011-11-11T10:01:44Z</time>
      </trkpt>
      <trkpt lat="45.84708" lon="4.81385">
        <ele>363.8</ele>
        <time>2011-11-11T10:01:52Z</time>
      </trkpt>
      <trkpt lat="45.84706" lon="4.8138">
        <ele>364.8</ele>
        <time>2011-11-11T10:01:58Z</time>
      </trkpt>
      <trkpt lat="45.84706" lon="4.81377">
        <ele>366.6</ele>
        <time>2011-11-11T10:02:03Z</time>
      </trkpt>
      <trkpt lat="45.84716" lon="4.81381">
        <ele>368</ele>
        <time>2011-11-11T10:02:09Z</time>
      </trkpt>
      <trkpt lat="45.8472" lon="4.81383">
        <ele>368.8</ele>
        <time>2011-11-11T10:02:11Z</time>
      </trkpt>
      <trkpt lat="45.84719" lon="4.81381">
        <ele>369.8</ele>
        <time>2011-11-11T10:02:14Z</time>
      </trkpt>
      <trkpt lat="45.84719" lon="4.81377">
        <ele>371</ele>
        <time>2011-11-11T10:02:17Z</time>
      </trkpt>
      <trkpt lat="45.84719" lon="4.8137">
        <ele>372.2</ele>
        <time>2011-11-11T10:02:19Z</time>
      </trkpt>
      <trkpt lat="45.8472" lon="4.81357">
        <ele>374.8</ele>
        <time>2011-11-11T10:02:24Z</time>
      </trkpt>
      <trkpt lat="45.84724" lon="4.81356">
        <ele>376.6</ele>
        <time>2011-11-11T10:02:27Z</time>
      </trkpt>
      <trkpt lat="45.84727" lon="4.8136">
        <ele>377</ele>
        <time>2011-11-11T10:02:29Z</time>
      </trkpt>
      <trkpt lat="45.84733" lon="4.81365">
        <ele>379.4</ele>
        <time>2011-11-11T10:02:34Z</time>
      </trkpt>
      <trkpt lat="45.84736" lon="4.81365">
        <ele>380.4</ele>
        <time>2011-11-11T10:02:37Z</time>
      </trkpt>
      <trkpt lat="45.84739" lon="4.81362">
        <ele>381.4</ele>
        <time>2011-11-11T10:02:41Z</time>
      </trkpt>
      <trkpt lat="45.84741" lon="4.81361">
        <ele>381.6</ele>
        <time>2011-11-11T10:02:42Z</time>
      </trkpt>
      <trkpt lat="45.84746" lon="4.81362">
        <ele>382.2</ele>
        <time>2011-11-11T10:02:44Z</time>
      </trkpt>
      <trkpt lat="45.84748" lon="4.81362">
        <ele>382.8</ele>
        <time>2011-11-11T10:02:46Z</time>
      </trkpt>
      <trkpt lat="45.84751" lon="4.81356">
        <ele>383.2</ele>
        <time>2011-11-11T10:02:51Z</time>
      </trkpt>
      <trkpt lat="45.84752" lon="4.81355">
        <ele>383</ele>
        <time>2011-11-11T10:02:53Z</time>
      </trkpt>
      <trkpt lat="45.8475" lon="4.81353">
        <ele>383.2</ele>
        <time>2011-11-11T10:02:57Z</time>
      </trkpt>
      <trkpt lat="45.84754" lon="4.81355">
        <ele>383.4</ele>
        <time>2011-11-11T10:03:05Z</time>
      </trkpt>
      <trkpt lat="45.84753" lon="4.81357">
        <ele>383.2</ele>
        <time>2011-11-11T10:03:07Z</time>
      </trkpt>
      <trkpt lat="45.84755" lon="4.81358">
        <ele>383.4</ele>
        <time>2011-11-11T10:03:09Z</time>
      </trkpt>
      <trkpt lat="45.84759" lon="4.81362">
        <ele>384.2</ele>
        <time>2011-11-11T10:03:13Z</time>
      </trkpt>
      <trkpt lat="45.84762" lon="4.81364">
        <ele>384.2</ele>
        <time>2011-11-11T10:03:14Z</time>
      </trkpt>
      <trkpt lat="45.84759" lon="4.81373">
        <ele>385.4</ele>
        <time>2011-11-11T10:03:18Z</time>
      </trkpt>
      <trkpt lat="45.84757" lon="4.81375">
        <ele>385.6</ele>
        <time>2011-11-11T10:03:19Z</time>
      </trkpt>
      <trkpt lat="45.84755" lon="4.81378">
        <ele>386.2</ele>
        <time>2011-11-11T10:03:21Z</time>
      </trkpt>
      <trkpt lat="45.84754" lon="4.8138">
        <ele>386.6</ele>
        <time>2011-11-11T10:03:23Z</time>
      </trkpt>
      <trkpt lat="45.84755" lon="4.81384">
        <ele>387</ele>
        <time>2011-11-11T10:03:25Z</time>
      </trkpt>
      <trkpt lat="45.84752" lon="4.81389">
        <ele>387.2</ele>
        <time>2011-11-11T10:03:29Z</time>
      </trkpt>
      <trkpt lat="45.84752" lon="4.81393">
        <ele>387.8</ele>
        <time>2011-11-11T10:03:33Z</time>
      </trkpt>
      <trkpt lat="45.84753" lon="4.81397">
        <ele>387.8</ele>
        <time>2011-11-11T10:03:36Z</time>
      </trkpt>
      <trkpt lat="45.84752" lon="4.814">
        <ele>387.6</ele>
        <time>2011-11-11T10:03:40Z</time>
      </trkpt>
      <trkpt lat="45.84751" lon="4.81401">
        <ele>387.6</ele>
        <time>2011-11-11T10:03:42Z</time>
      </trkpt>
      <trkpt lat="45.8475" lon="4.81403">
        <ele>387.6</ele>
        <time>2011-11-11T10:03:43Z</time>
      </trkpt>
      <trkpt lat="45.84748" lon="4.81408">
        <ele>387.4</ele>
        <time>2011-11-11T10:03:46Z</time>
      </trkpt>
      <trkpt lat="45.84747" lon="4.81414">
        <ele>387.4</ele>
        <time>2011-11-11T10:03:50Z</time>
      </trkpt>
      <trkpt lat="45.84747" lon="4.81415">
        <ele>387.4</ele>
        <time>2011-11-11T10:03:51Z</time>
      </trkpt>
      <trkpt lat="45.84747" lon="4.81416">
        <ele>387.4</ele>
        <time>2011-11-11T10:03:52Z</time>
      </trkpt>
      <trkpt lat="45.84745" lon="4.8142">
        <ele>387.6</ele>
        <time>2011-11-11T10:03:56Z</time>
      </trkpt>
      <trkpt lat="45.84745" lon="4.81421">
        <ele>387.6</ele>
        <time>2011-11-11T10:03:57Z</time>
      </trkpt>
      <trkpt lat="45.84743" lon="4.81427">
        <ele>387.4</ele>
        <time>2011-11-11T10:04:01Z</time>
      </trkpt>
      <trkpt lat="45.84742" lon="4.81433">
        <ele>387.8</ele>
        <time>2011-11-11T10:04:04Z</time>
      </trkpt>
      <trkpt lat="45.84745" lon="4.81446">
        <ele>389.4</ele>
        <time>2011-11-11T10:04:11Z</time>
      </trkpt>
      <trkpt lat="45.84745" lon="4.81447">
        <ele>389.6</ele>
        <time>2011-11-11T10:04:12Z</time>
      </trkpt>
      <trkpt lat="45.84746" lon="4.81451">
        <ele>391</ele>
        <time>2011-11-11T10:04:17Z</time>
      </trkpt>
      <trkpt lat="45.84743" lon="4.81449">
        <ele>392</ele>
        <time>2011-11-11T10:04:25Z</time>
      </trkpt>
      <trkpt lat="45.84741" lon="4.81457">
        <ele>392.4</ele>
        <time>2011-11-11T10:04:46Z</time>
      </trkpt>
      <trkpt lat="45.84742" lon="4.81466">
        <ele>392.4</ele>
        <time>2011-11-11T10:04:49Z</time>
      </trkpt>
      <trkpt lat="45.84743" lon="4.8147">
        <ele>392.4</ele>
        <time>2011-11-11T10:04:50Z</time>
      </trkpt>
      <trkpt lat="45.84743" lon="4.81485">
        <ele>392.6</ele>
        <time>2011-11-11T10:04:56Z</time>
      </trkpt>
      <trkpt lat="45.84743" lon="4.81493">
        <ele>392.6</ele>
        <time>2011-11-11T10:05:03Z</time>
      </trkpt>
      <trkpt lat="45.84744" lon="4.815">
        <ele>392.8</ele>
        <time>2011-11-11T10:05:08Z</time>
      </trkpt>
      <trkpt lat="45.84743" lon="4.81499">
        <ele>392.6</ele>
        <time>2011-11-11T10:05:09Z</time>
      </trkpt>
      <trkpt lat="45.84746" lon="4.81503">
        <ele>392.6</ele>
        <time>2011-11-11T10:05:19Z</time>
      </trkpt>
      <trkpt lat="45.84748" lon="4.81506">
        <ele>393.4</ele>
        <time>2011-11-11T10:05:24Z</time>
      </trkpt>
      <trkpt lat="45.84754" lon="4.8151">
        <ele>394.8</ele>
        <time>2011-11-11T10:05:32Z</time>
      </trkpt>
      <trkpt lat="45.84757" lon="4.8151">
        <ele>395.6</ele>
        <time>2011-11-11T10:05:37Z</time>
      </trkpt>
      <trkpt lat="45.84758" lon="4.81504">
        <ele>395.8</ele>
        <time>2011-11-11T10:05:41Z</time>
      </trkpt>
      <trkpt lat="45.8476" lon="4.81502">
        <ele>396</ele>
        <time>2011-11-11T10:05:44Z</time>
      </trkpt>
      <trkpt lat="45.84761" lon="4.81501">
        <ele>396.2</ele>
        <time>2011-11-11T10:05:47Z</time>
      </trkpt>
      <trkpt lat="45.84762" lon="4.81501">
        <ele>396.4</ele>
        <time>2011-11-11T10:05:48Z</time>
      </trkpt>
      <trkpt lat="45.84763" lon="4.81499">
        <ele>396.6</ele>
        <time>2011-11-11T10:05:50Z</time>
      </trkpt>
      <trkpt lat="45.84764" lon="4.81493">
        <ele>397.8</ele>
        <time>2011-11-11T10:05:54Z</time>
      </trkpt>
      <trkpt lat="45.84766" lon="4.81493">
        <ele>397.8</ele>
        <time>2011-11-11T10:05:55Z</time>
      </trkpt>
      <trkpt lat="45.84767" lon="4.81492">
        <ele>397.8</ele>
        <time>2011-11-11T10:05:56Z</time>
      </trkpt>
      <trkpt lat="45.84769" lon="4.81493">
        <ele>399</ele>
        <time>2011-11-11T10:06:00Z</time>
      </trkpt>
      <trkpt lat="45.8477" lon="4.81492">
        <ele>399.2</ele>
        <time>2011-11-11T10:06:01Z</time>
      </trkpt>
      <trkpt lat="45.84773" lon="4.81486">
        <ele>399.4</ele>
        <time>2011-11-11T10:06:06Z</time>
      </trkpt>
      <trkpt lat="45.84773" lon="4.81486">
        <ele>399.4</ele>
        <time>2011-11-11T10:06:07Z</time>
      </trkpt>
      <trkpt lat="45.84774" lon="4.81484">
        <ele>399.8</ele>
        <time>2011-11-11T10:06:12Z</time>
      </trkpt>
      <trkpt lat="45.84778" lon="4.81482">
        <ele>399.8</ele>
        <time>2011-11-11T10:06:17Z</time>
      </trkpt>
      <trkpt lat="45.8478" lon="4.81479">
        <ele>399.8</ele>
        <time>2011-11-11T10:06:19Z</time>
      </trkpt>
      <trkpt lat="45.84782" lon="4.8148">
        <ele>400</ele>
        <time>2011-11-11T10:06:22Z</time>
      </trkpt>
      <trkpt lat="45.84786" lon="4.81477">
        <ele>401</ele>
        <time>2011-11-11T10:06:30Z</time>
      </trkpt>
      <trkpt lat="45.84787" lon="4.81476">
        <ele>401</ele>
        <time>2011-11-11T10:06:31Z</time>
      </trkpt>
      <trkpt lat="45.84792" lon="4.81475">
        <ele>402.4</ele>
        <time>2011-11-11T10:06:37Z</time>
      </trkpt>
      <trkpt lat="45.84793" lon="4.81475">
        <ele>402.4</ele>
        <time>2011-11-11T10:06:38Z</time>
      </trkpt>
      <trkpt lat="45.84797" lon="4.81475">
        <ele>403</ele>
        <time>2011-11-11T10:06:41Z</time>
      </trkpt>
      <trkpt lat="45.84801" lon="4.81473">
        <ele>404.4</ele>
        <time>2011-11-11T10:06:45Z</time>
      </trkpt>
      <trkpt lat="45.84808" lon="4.8147">
        <ele>406.4</ele>
        <time>2011-11-11T10:06:52Z</time>
      </trkpt>
      <trkpt lat="45.8481" lon="4.8147">
        <ele>406.6</ele>
        <time>2011-11-11T10:06:53Z</time>
      </trkpt>
      <trkpt lat="45.84813" lon="4.81474">
        <ele>407.6</ele>
        <time>2011-11-11T10:06:56Z</time>
      </trkpt>
      <trkpt lat="45.84814" lon="4.81475">
        <ele>407.8</ele>
        <time>2011-11-11T10:06:57Z</time>
      </trkpt>
      <trkpt lat="45.84815" lon="4.81476">
        <ele>408</ele>
        <time>2011-11-11T10:06:58Z</time>
      </trkpt>
      <trkpt lat="45.84818" lon="4.81482">
        <ele>409.2</ele>
        <time>2011-11-11T10:07:04Z</time>
      </trkpt>
      <trkpt lat="45.84827" lon="4.81486">
        <ele>411</ele>
        <time>2011-11-11T10:07:11Z</time>
      </trkpt>
      <trkpt lat="45.84829" lon="4.81486">
        <ele>411.4</ele>
        <time>2011-11-11T10:07:12Z</time>
      </trkpt>
      <trkpt lat="45.84834" lon="4.81481">
        <ele>411.8</ele>
        <time>2011-11-11T10:07:17Z</time>
      </trkpt>
      <trkpt lat="45.84838" lon="4.81475">
        <ele>412</ele>
        <time>2011-11-11T10:07:22Z</time>
      </trkpt>
      <trkpt lat="45.8484" lon="4.81475">
        <ele>412.2</ele>
        <time>2011-11-11T10:07:23Z</time>
      </trkpt>
      <trkpt lat="45.84844" lon="4.81475">
        <ele>412.6</ele>
        <time>2011-11-11T10:07:26Z</time>
      </trkpt>
      <trkpt lat="45.84849" lon="4.81472">
        <ele>412.8</ele>
        <time>2011-11-11T10:07:30Z</time>
      </trkpt>
      <trkpt lat="45.8486" lon="4.81466">
        <ele>413.6</ele>
        <time>2011-11-11T10:07:38Z</time>
      </trkpt>
      <trkpt lat="45.84861" lon="4.81466">
        <ele>413.8</ele>
        <time>2011-11-11T10:07:39Z</time>
      </trkpt>
      <trkpt lat="45.8487" lon="4.81464">
        <ele>414.4</ele>
        <time>2011-11-11T10:07:45Z</time>
      </trkpt>
      <trkpt lat="45.84876" lon="4.8146">
        <ele>415.2</ele>
        <time>2011-11-11T10:07:51Z</time>
      </trkpt>
      <trkpt lat="45.84877" lon="4.8146">
        <ele>415.4</ele>
        <time>2011-11-11T10:07:52Z</time>
      </trkpt>
      <trkpt lat="45.84876" lon="4.81464">
        <ele>416.6</ele>
        <time>2011-11-11T10:08:01Z</time>
      </trkpt>
      <trkpt lat="45.84876" lon="4.81465">
        <ele>417.2</ele>
        <time>2011-11-11T10:08:05Z</time>
      </trkpt>
      <trkpt lat="45.84875" lon="4.81463">
        <ele>418.4</ele>
        <time>2011-11-11T10:08:14Z</time>
      </trkpt>
      <trkpt lat="45.84877" lon="4.81462">
        <ele>419.2</ele>
        <time>2011-11-11T10:08:27Z</time>
      </trkpt>
      <trkpt lat="45.84881" lon="4.81465">
        <ele>424.2</ele>
        <time>2011-11-11T10:09:43Z</time>
      </trkpt>
      <trkpt lat="45.84875" lon="4.81464">
        <ele>424.8</ele>
        <time>2011-11-11T10:10:06Z</time>
      </trkpt>
      <trkpt lat="45.84875" lon="4.81463">
        <ele>425.8</ele>
        <time>2011-11-11T10:10:10Z</time>
      </trkpt>
      <trkpt lat="45.84874" lon="4.81463">
        <ele>432</ele>
        <time>2011-11-11T10:10:36Z</time>
      </trkpt>
      <trkpt lat="45.84882" lon="4.81459">
        <ele>431.6</ele>
        <time>2011-11-11T10:10:40Z</time>
      </trkpt>
      <trkpt lat="45.849" lon="4.81447">
        <ele>431</ele>
        <time>2011-11-11T10:10:48Z</time>
      </trkpt>
      <trkpt lat="45.84909" lon="4.81439">
        <ele>430.8</ele>
        <time>2011-11-11T10:10:53Z</time>
      </trkpt>
      <trkpt lat="45.84917" lon="4.81434">
        <ele>430.4</ele>
        <time>2011-11-11T10:10:57Z</time>
      </trkpt>
      <trkpt lat="45.8492" lon="4.81431">
        <ele>430.4</ele>
        <time>2011-11-11T10:10:59Z</time>
      </trkpt>
      <trkpt lat="45.84929" lon="4.8142">
        <ele>430.2</ele>
        <time>2011-11-11T10:11:05Z</time>
      </trkpt>
      <trkpt lat="45.84931" lon="4.81419">
        <ele>430</ele>
        <time>2011-11-11T10:11:06Z</time>
      </trkpt>
      <trkpt lat="45.84933" lon="4.81416">
        <ele>430</ele>
        <time>2011-11-11T10:11:07Z</time>
      </trkpt>
      <trkpt lat="45.84935" lon="4.81408">
        <ele>430</ele>
        <time>2011-11-11T10:11:10Z</time>
      </trkpt>
      <trkpt lat="45.84938" lon="4.81405">
        <ele>430</ele>
        <time>2011-11-11T10:11:12Z</time>
      </trkpt>
      <trkpt lat="45.84944" lon="4.81401">
        <ele>430</ele>
        <time>2011-11-11T10:11:16Z</time>
      </trkpt>
      <trkpt lat="45.8495" lon="4.81398">
        <ele>430.2</ele>
        <time>2011-11-11T10:11:20Z</time>
      </trkpt>
      <trkpt lat="45.84952" lon="4.81397">
        <ele>430.2</ele>
        <time>2011-11-11T10:11:21Z</time>
      </trkpt>
      <trkpt lat="45.84961" lon="4.81399">
        <ele>430.4</ele>
        <time>2011-11-11T10:11:26Z</time>
      </trkpt>
      <trkpt lat="45.84963" lon="4.814">
        <ele>430.4</ele>
        <time>2011-11-11T10:11:28Z</time>
      </trkpt>
      <trkpt lat="45.84971" lon="4.81401">
        <ele>431</ele>
        <time>2011-11-11T10:11:31Z</time>
      </trkpt>
      <trkpt lat="45.84978" lon="4.81397">
        <ele>430.8</ele>
        <time>2011-11-11T10:11:35Z</time>
      </trkpt>
      <trkpt lat="45.8498" lon="4.81394">
        <ele>430.6</ele>
        <time>2011-11-11T10:11:37Z</time>
      </trkpt>
      <trkpt lat="45.84984" lon="4.81391">
        <ele>430.6</ele>
        <time>2011-11-11T10:11:40Z</time>
      </trkpt>
      <trkpt lat="45.84989" lon="4.8139">
        <ele>430.6</ele>
        <time>2011-11-11T10:11:43Z</time>
      </trkpt>
      <trkpt lat="45.84992" lon="4.81391">
        <ele>430.4</ele>
        <time>2011-11-11T10:11:45Z</time>
      </trkpt>
      <trkpt lat="45.84997" lon="4.81393">
        <ele>430.2</ele>
        <time>2011-11-11T10:11:49Z</time>
      </trkpt>
      <trkpt lat="45.84998" lon="4.81394">
        <ele>430.2</ele>
        <time>2011-11-11T10:11:50Z</time>
      </trkpt>
      <trkpt lat="45.85" lon="4.81397">
        <ele>430</ele>
        <time>2011-11-11T10:11:53Z</time>
      </trkpt>
      <trkpt lat="45.85003" lon="4.81399">
        <ele>429.8</ele>
        <time>2011-11-11T10:11:56Z</time>
      </trkpt>
      <trkpt lat="45.85004" lon="4.814">
        <ele>429.8</ele>
        <time>2011-11-11T10:11:57Z</time>
      </trkpt>
      <trkpt lat="45.8501" lon="4.814">
        <ele>429.6</ele>
        <time>2011-11-11T10:12:02Z</time>
      </trkpt>
      <trkpt lat="45.85012" lon="4.814">
        <ele>429.6</ele>
        <time>2011-11-11T10:12:03Z</time>
      </trkpt>
      <trkpt lat="45.85018" lon="4.81392">
        <ele>429.4</ele>
        <time>2011-11-11T10:12:08Z</time>
      </trkpt>
      <trkpt lat="45.85028" lon="4.8139">
        <ele>429.4</ele>
        <time>2011-11-11T10:12:11Z</time>
      </trkpt>
      <trkpt lat="45.85036" lon="4.8139">
        <ele>429.2</ele>
        <time>2011-11-11T10:12:17Z</time>
      </trkpt>
      <trkpt lat="45.85038" lon="4.8139">
        <ele>429.2</ele>
        <time>2011-11-11T10:12:19Z</time>
      </trkpt>
      <trkpt lat="45.85045" lon="4.8139">
        <ele>428.4</ele>
        <time>2011-11-11T10:12:36Z</time>
      </trkpt>
      <trkpt lat="45.85045" lon="4.81391">
        <ele>428.2</ele>
        <time>2011-11-11T10:12:39Z</time>
      </trkpt>
      <trkpt lat="45.85046" lon="4.81394">
        <ele>428</ele>
        <time>2011-11-11T10:12:42Z</time>
      </trkpt>
      <trkpt lat="45.85048" lon="4.81396">
        <ele>427.6</ele>
        <time>2011-11-11T10:12:48Z</time>
      </trkpt>
      <trkpt lat="45.85046" lon="4.814">
        <ele>427</ele>
        <time>2011-11-11T10:12:51Z</time>
      </trkpt>
      <trkpt lat="45.85045" lon="4.81401">
        <ele>426.8</ele>
        <time>2011-11-11T10:12:53Z</time>
      </trkpt>
      <trkpt lat="45.85043" lon="4.81403">
        <ele>426.6</ele>
        <time>2011-11-11T10:12:55Z</time>
      </trkpt>
      <trkpt lat="45.85042" lon="4.81403">
        <ele>426.2</ele>
        <time>2011-11-11T10:12:57Z</time>
      </trkpt>
      <trkpt lat="45.8504" lon="4.81407">
        <ele>425.8</ele>
        <time>2011-11-11T10:12:59Z</time>
      </trkpt>
      <trkpt lat="45.85038" lon="4.81416">
        <ele>424.8</ele>
        <time>2011-11-11T10:13:05Z</time>
      </trkpt>
      <trkpt lat="45.85037" lon="4.8142">
        <ele>424.2</ele>
        <time>2011-11-11T10:13:07Z</time>
      </trkpt>
      <trkpt lat="45.85036" lon="4.81422">
        <ele>424</ele>
        <time>2011-11-11T10:13:08Z</time>
      </trkpt>
      <trkpt lat="45.85035" lon="4.81428">
        <ele>423.6</ele>
        <time>2011-11-11T10:13:10Z</time>
      </trkpt>
      <trkpt lat="45.85031" lon="4.81436">
        <ele>422.8</ele>
        <time>2011-11-11T10:13:14Z</time>
      </trkpt>
      <trkpt lat="45.8503" lon="4.81438">
        <ele>422.6</ele>
        <time>2011-11-11T10:13:15Z</time>
      </trkpt>
      <trkpt lat="45.85028" lon="4.81444">
        <ele>421.8</ele>
        <time>2011-11-11T10:13:19Z</time>
      </trkpt>
      <trkpt lat="45.85025" lon="4.8145">
        <ele>421</ele>
        <time>2011-11-11T10:13:22Z</time>
      </trkpt>
      <trkpt lat="45.85024" lon="4.81452">
        <ele>420.8</ele>
        <time>2011-11-11T10:13:23Z</time>
      </trkpt>
      <trkpt lat="45.85019" lon="4.81461">
        <ele>419.4</ele>
        <time>2011-11-11T10:13:28Z</time>
      </trkpt>
      <trkpt lat="45.85018" lon="4.81466">
        <ele>418.8</ele>
        <time>2011-11-11T10:13:30Z</time>
      </trkpt>
      <trkpt lat="45.85017" lon="4.81477">
        <ele>418.2</ele>
        <time>2011-11-11T10:13:33Z</time>
      </trkpt>
      <trkpt lat="45.85016" lon="4.81479">
        <ele>418</ele>
        <time>2011-11-11T10:13:35Z</time>
      </trkpt>
      <trkpt lat="45.85013" lon="4.81483">
        <ele>417.2</ele>
        <time>2011-11-11T10:13:38Z</time>
      </trkpt>
      <trkpt lat="45.85012" lon="4.81485">
        <ele>417</ele>
        <time>2011-11-11T10:13:39Z</time>
      </trkpt>
      <trkpt lat="45.85007" lon="4.81492">
        <ele>416.4</ele>
        <time>2011-11-11T10:13:42Z</time>
      </trkpt>
      <trkpt lat="45.85003" lon="4.81498">
        <ele>415.6</ele>
        <time>2011-11-11T10:13:45Z</time>
      </trkpt>
      <trkpt lat="45.85001" lon="4.815">
        <ele>415.4</ele>
        <time>2011-11-11T10:13:46Z</time>
      </trkpt>
      <trkpt lat="45.84993" lon="4.8151">
        <ele>414.6</ele>
        <time>2011-11-11T10:13:50Z</time>
      </trkpt>
      <trkpt lat="45.84992" lon="4.81513">
        <ele>414.4</ele>
        <time>2011-11-11T10:13:51Z</time>
      </trkpt>
      <trkpt lat="45.84984" lon="4.81523">
        <ele>413.2</ele>
        <time>2011-11-11T10:13:56Z</time>
      </trkpt>
      <trkpt lat="45.8498" lon="4.8153">
        <ele>412.4</ele>
        <time>2011-11-11T10:13:59Z</time>
      </trkpt>
      <trkpt lat="45.84979" lon="4.81532">
        <ele>412</ele>
        <time>2011-11-11T10:14:00Z</time>
      </trkpt>
      <trkpt lat="45.84978" lon="4.81534">
        <ele>411.6</ele>
        <time>2011-11-11T10:14:02Z</time>
      </trkpt>
      <trkpt lat="45.84977" lon="4.81539">
        <ele>410.6</ele>
        <time>2011-11-11T10:14:05Z</time>
      </trkpt>
      <trkpt lat="45.84976" lon="4.81553">
        <ele>409</ele>
        <time>2011-11-11T10:14:11Z</time>
      </trkpt>
      <trkpt lat="45.84974" lon="4.81558">
        <ele>408.2</ele>
        <time>2011-11-11T10:14:14Z</time>
      </trkpt>
      <trkpt lat="45.84973" lon="4.8156">
        <ele>407.8</ele>
        <time>2011-11-11T10:14:15Z</time>
      </trkpt>
      <trkpt lat="45.84974" lon="4.81565">
        <ele>407.2</ele>
        <time>2011-11-11T10:14:17Z</time>
      </trkpt>
      <trkpt lat="45.84976" lon="4.81571">
        <ele>406</ele>
        <time>2011-11-11T10:14:23Z</time>
      </trkpt>
      <trkpt lat="45.84976" lon="4.81571">
        <ele>405.8</ele>
        <time>2011-11-11T10:14:24Z</time>
      </trkpt>
      <trkpt lat="45.84978" lon="4.81569">
        <ele>405.4</ele>
        <time>2011-11-11T10:14:27Z</time>
      </trkpt>
      <trkpt lat="45.84979" lon="4.81568">
        <ele>405</ele>
        <time>2011-11-11T10:14:29Z</time>
      </trkpt>
      <trkpt lat="45.84989" lon="4.81571">
        <ele>403.8</ele>
        <time>2011-11-11T10:14:36Z</time>
      </trkpt>
      <trkpt lat="45.8499" lon="4.81571">
        <ele>403.6</ele>
        <time>2011-11-11T10:14:38Z</time>
      </trkpt>
      <trkpt lat="45.84992" lon="4.81574">
        <ele>403</ele>
        <time>2011-11-11T10:14:41Z</time>
      </trkpt>
      <trkpt lat="45.84994" lon="4.81576">
        <ele>402.2</ele>
        <time>2011-11-11T10:14:47Z</time>
      </trkpt>
      <trkpt lat="45.85003" lon="4.81578">
        <ele>401.2</ele>
        <time>2011-11-11T10:14:58Z</time>
      </trkpt>
      <trkpt lat="45.85006" lon="4.81579">
        <ele>400.8</ele>
        <time>2011-11-11T10:15:05Z</time>
      </trkpt>
      <trkpt lat="45.85007" lon="4.8158">
        <ele>400.6</ele>
        <time>2011-11-11T10:15:07Z</time>
      </trkpt>
      <trkpt lat="45.85009" lon="4.81581">
        <ele>400.4</ele>
        <time>2011-11-11T10:15:11Z</time>
      </trkpt>
      <trkpt lat="45.85012" lon="4.81582">
        <ele>400.4</ele>
        <time>2011-11-11T10:15:17Z</time>
      </trkpt>
      <trkpt lat="45.85016" lon="4.81584">
        <ele>400.4</ele>
        <time>2011-11-11T10:15:23Z</time>
      </trkpt>
      <trkpt lat="45.85017" lon="4.81589">
        <ele>401.4</ele>
        <time>2011-11-11T10:15:28Z</time>
      </trkpt>
      <trkpt lat="45.85018" lon="4.8159">
        <ele>401.6</ele>
        <time>2011-11-11T10:15:29Z</time>
      </trkpt>
      <trkpt lat="45.85019" lon="4.81593">
        <ele>402</ele>
        <time>2011-11-11T10:15:32Z</time>
      </trkpt>
      <trkpt lat="45.85018" lon="4.81596">
        <ele>402</ele>
        <time>2011-11-11T10:15:34Z</time>
      </trkpt>
      <trkpt lat="45.85019" lon="4.81598">
        <ele>402</ele>
        <time>2011-11-11T10:15:36Z</time>
      </trkpt>
      <trkpt lat="45.85019" lon="4.816">
        <ele>402</ele>
        <time>2011-11-11T10:15:37Z</time>
      </trkpt>
      <trkpt lat="45.8502" lon="4.81603">
        <ele>401.8</ele>
        <time>2011-11-11T10:15:40Z</time>
      </trkpt>
      <trkpt lat="45.85021" lon="4.81607">
        <ele>401.8</ele>
        <time>2011-11-11T10:15:43Z</time>
      </trkpt>
      <trkpt lat="45.85019" lon="4.81615">
        <ele>401.4</ele>
        <time>2011-11-11T10:15:48Z</time>
      </trkpt>
      <trkpt lat="45.8502" lon="4.81622">
        <ele>401.4</ele>
        <time>2011-11-11T10:15:51Z</time>
      </trkpt>
      <trkpt lat="45.85019" lon="4.81626">
        <ele>401.2</ele>
        <time>2011-11-11T10:15:53Z</time>
      </trkpt>
      <trkpt lat="45.85017" lon="4.81634">
        <ele>401.2</ele>
        <time>2011-11-11T10:15:56Z</time>
      </trkpt>
      <trkpt lat="45.85016" lon="4.81639">
        <ele>401</ele>
        <time>2011-11-11T10:15:58Z</time>
      </trkpt>
      <trkpt lat="45.85015" lon="4.81645">
        <ele>401</ele>
        <time>2011-11-11T10:16:01Z</time>
      </trkpt>
      <trkpt lat="45.85014" lon="4.81648">
        <ele>400.8</ele>
        <time>2011-11-11T10:16:02Z</time>
      </trkpt>
      <trkpt lat="45.85011" lon="4.81656">
        <ele>400.6</ele>
        <time>2011-11-11T10:16:07Z</time>
      </trkpt>
      <trkpt lat="45.85007" lon="4.81663">
        <ele>400.4</ele>
        <time>2011-11-11T10:16:11Z</time>
      </trkpt>
      <trkpt lat="45.85006" lon="4.8167">
        <ele>400.2</ele>
        <time>2011-11-11T10:16:15Z</time>
      </trkpt>
      <trkpt lat="45.85007" lon="4.81674">
        <ele>400</ele>
        <time>2011-11-11T10:16:17Z</time>
      </trkpt>
      <trkpt lat="45.85007" lon="4.81683">
        <ele>399.4</ele>
        <time>2011-11-11T10:16:22Z</time>
      </trkpt>
      <trkpt lat="45.85008" lon="4.81689">
        <ele>399</ele>
        <time>2011-11-11T10:16:27Z</time>
      </trkpt>
      <trkpt lat="45.85008" lon="4.81691">
        <ele>398.6</ele>
        <time>2011-11-11T10:16:30Z</time>
      </trkpt>
      <trkpt lat="45.85007" lon="4.81694">
        <ele>398.4</ele>
        <time>2011-11-11T10:16:32Z</time>
      </trkpt>
      <trkpt lat="45.85007" lon="4.81697">
        <ele>398.4</ele>
        <time>2011-11-11T10:16:33Z</time>
      </trkpt>
      <trkpt lat="45.85004" lon="4.81706">
        <ele>398.2</ele>
        <time>2011-11-11T10:16:38Z</time>
      </trkpt>
      <trkpt lat="45.85005" lon="4.81714">
        <ele>398.2</ele>
        <time>2011-11-11T10:16:41Z</time>
      </trkpt>
      <trkpt lat="45.85006" lon="4.81717">
        <ele>398.2</ele>
        <time>2011-11-11T10:16:42Z</time>
      </trkpt>
      <trkpt lat="45.85007" lon="4.81719">
        <ele>398.2</ele>
        <time>2011-11-11T10:16:43Z</time>
      </trkpt>
      <trkpt lat="45.85007" lon="4.8173">
        <ele>398</ele>
        <time>2011-11-11T10:16:47Z</time>
      </trkpt>
      <trkpt lat="45.85006" lon="4.81732">
        <ele>398</ele>
        <time>2011-11-11T10:16:48Z</time>
      </trkpt>
      <trkpt lat="45.85004" lon="4.81741">
        <ele>398</ele>
        <time>2011-11-11T10:16:52Z</time>
      </trkpt>
      <trkpt lat="45.85005" lon="4.81743">
        <ele>398</ele>
        <time>2011-11-11T10:16:54Z</time>
      </trkpt>
      <trkpt lat="45.85005" lon="4.81745">
        <ele>398.4</ele>
        <time>2011-11-11T10:16:55Z</time>
      </trkpt>
      <trkpt lat="45.85006" lon="4.81748">
        <ele>398.8</ele>
        <time>2011-11-11T10:16:58Z</time>
      </trkpt>
      <trkpt lat="45.85007" lon="4.8175">
        <ele>399</ele>
        <time>2011-11-11T10:16:59Z</time>
      </trkpt>
      <trkpt lat="45.85009" lon="4.81754">
        <ele>399.4</ele>
        <time>2011-11-11T10:17:03Z</time>
      </trkpt>
      <trkpt lat="45.85011" lon="4.81758">
        <ele>400</ele>
        <time>2011-11-11T10:17:09Z</time>
      </trkpt>
      <trkpt lat="45.85012" lon="4.81763">
        <ele>400.4</ele>
        <time>2011-11-11T10:17:15Z</time>
      </trkpt>
      <trkpt lat="45.85011" lon="4.81765">
        <ele>400.8</ele>
        <time>2011-11-11T10:17:22Z</time>
      </trkpt>
      <trkpt lat="45.85012" lon="4.81767">
        <ele>400.8</ele>
        <time>2011-11-11T10:17:24Z</time>
      </trkpt>
      <trkpt lat="45.85014" lon="4.81768">
        <ele>400.8</ele>
        <time>2011-11-11T10:17:27Z</time>
      </trkpt>
      <trkpt lat="45.85015" lon="4.81771">
        <ele>400.8</ele>
        <time>2011-11-11T10:17:33Z</time>
      </trkpt>
      <trkpt lat="45.85016" lon="4.81773">
        <ele>401.6</ele>
        <time>2011-11-11T10:17:40Z</time>
      </trkpt>
      <trkpt lat="45.85018" lon="4.81774">
        <ele>401.6</ele>
        <time>2011-11-11T10:17:41Z</time>
      </trkpt>
      <trkpt lat="45.85023" lon="4.81778">
        <ele>402.2</ele>
        <time>2011-11-11T10:17:44Z</time>
      </trkpt>
      <trkpt lat="45.85023" lon="4.81779">
        <ele>402.4</ele>
        <time>2011-11-11T10:17:45Z</time>
      </trkpt>
      <trkpt lat="45.85024" lon="4.8178">
        <ele>402.6</ele>
        <time>2011-11-11T10:17:46Z</time>
      </trkpt>
      <trkpt lat="45.85025" lon="4.81783">
        <ele>403.2</ele>
        <time>2011-11-11T10:17:50Z</time>
      </trkpt>
      <trkpt lat="45.85024" lon="4.81782">
        <ele>404.4</ele>
        <time>2011-11-11T10:17:59Z</time>
      </trkpt>
      <trkpt lat="45.85025" lon="4.81783">
        <ele>405</ele>
        <time>2011-11-11T10:18:02Z</time>
      </trkpt>
      <trkpt lat="45.85023" lon="4.81784">
        <ele>408</ele>
        <time>2011-11-11T10:18:18Z</time>
      </trkpt>
      <trkpt lat="45.85022" lon="4.81788">
        <ele>411.6</ele>
        <time>2011-11-11T10:18:53Z</time>
      </trkpt>
      <trkpt lat="45.85021" lon="4.81793">
        <ele>411.4</ele>
        <time>2011-11-11T10:18:59Z</time>
      </trkpt>
      <trkpt lat="45.85019" lon="4.81798">
        <ele>411.4</ele>
        <time>2011-11-11T10:19:03Z</time>
      </trkpt>
      <trkpt lat="45.85018" lon="4.81799">
        <ele>411.2</ele>
        <time>2011-11-11T10:19:04Z</time>
      </trkpt>
      <trkpt lat="45.85018" lon="4.818">
        <ele>411.2</ele>
        <time>2011-11-11T10:19:05Z</time>
      </trkpt>
      <trkpt lat="45.85014" lon="4.81806">
        <ele>411</ele>
        <time>2011-11-11T10:19:09Z</time>
      </trkpt>
      <trkpt lat="45.85012" lon="4.81808">
        <ele>411</ele>
        <time>2011-11-11T10:19:10Z</time>
      </trkpt>
      <trkpt lat="45.85008" lon="4.81815">
        <ele>410.8</ele>
        <time>2011-11-11T10:19:14Z</time>
      </trkpt>
      <trkpt lat="45.85006" lon="4.81818">
        <ele>410.8</ele>
        <time>2011-11-11T10:19:15Z</time>
      </trkpt>
      <trkpt lat="45.85002" lon="4.81823">
        <ele>410.6</ele>
        <time>2011-11-11T10:19:18Z</time>
      </trkpt>
      <trkpt lat="45.85001" lon="4.81824">
        <ele>410.4</ele>
        <time>2011-11-11T10:19:19Z</time>
      </trkpt>
      <trkpt lat="45.84995" lon="4.81831">
        <ele>410</ele>
        <time>2011-11-11T10:19:24Z</time>
      </trkpt>
      <trkpt lat="45.84995" lon="4.81833">
        <ele>409.4</ele>
        <time>2011-11-11T10:19:30Z</time>
      </trkpt>
      <trkpt lat="45.84993" lon="4.81838">
        <ele>408.4</ele>
        <time>2011-11-11T10:19:38Z</time>
      </trkpt>
      <trkpt lat="45.84991" lon="4.8184">
        <ele>408.2</ele>
        <time>2011-11-11T10:19:40Z</time>
      </trkpt>
      <trkpt lat="45.84989" lon="4.81841">
        <ele>408</ele>
        <time>2011-11-11T10:19:41Z</time>
      </trkpt>
      <trkpt lat="45.84986" lon="4.81844">
        <ele>407.8</ele>
        <time>2011-11-11T10:19:43Z</time>
      </trkpt>
      <trkpt lat="45.84985" lon="4.81847">
        <ele>407.4</ele>
        <time>2011-11-11T10:19:45Z</time>
      </trkpt>
      <trkpt lat="45.84981" lon="4.81855">
        <ele>407</ele>
        <time>2011-11-11T10:19:48Z</time>
      </trkpt>
      <trkpt lat="45.84977" lon="4.8186">
        <ele>406.6</ele>
        <time>2011-11-11T10:19:51Z</time>
      </trkpt>
      <trkpt lat="45.84976" lon="4.81863">
        <ele>406.4</ele>
        <time>2011-11-11T10:19:52Z</time>
      </trkpt>
      <trkpt lat="45.84971" lon="4.8187">
        <ele>405.8</ele>
        <time>2011-11-11T10:19:56Z</time>
      </trkpt>
      <trkpt lat="45.84968" lon="4.81876">
        <ele>405.4</ele>
        <time>2011-11-11T10:19:59Z</time>
      </trkpt>
      <trkpt lat="45.84965" lon="4.81882">
        <ele>405</ele>
        <time>2011-11-11T10:20:02Z</time>
      </trkpt>
      <trkpt lat="45.84956" lon="4.81895">
        <ele>404</ele>
        <time>2011-11-11T10:20:08Z</time>
      </trkpt>
      <trkpt lat="45.8495" lon="4.81906">
        <ele>402.8</ele>
        <time>2011-11-11T10:20:14Z</time>
      </trkpt>
      <trkpt lat="45.84949" lon="4.81908">
        <ele>402.6</ele>
        <time>2011-11-11T10:20:15Z</time>
      </trkpt>
      <trkpt lat="45.84945" lon="4.81916">
        <ele>402</ele>
        <time>2011-11-11T10:20:19Z</time>
      </trkpt>
      <trkpt lat="45.84942" lon="4.81924">
        <ele>401.2</ele>
        <time>2011-11-11T10:20:24Z</time>
      </trkpt>
      <trkpt lat="45.84938" lon="4.81934">
        <ele>400.4</ele>
        <time>2011-11-11T10:20:28Z</time>
      </trkpt>
      <trkpt lat="45.84938" lon="4.81939">
        <ele>400</ele>
        <time>2011-11-11T10:20:30Z</time>
      </trkpt>
      <trkpt lat="45.84938" lon="4.81942">
        <ele>399.6</ele>
        <time>2011-11-11T10:20:32Z</time>
      </trkpt>
      <trkpt lat="45.84932" lon="4.8195">
        <ele>398.6</ele>
        <time>2011-11-11T10:20:36Z</time>
      </trkpt>
      <trkpt lat="45.84925" lon="4.81956">
        <ele>397.8</ele>
        <time>2011-11-11T10:20:40Z</time>
      </trkpt>
      <trkpt lat="45.84924" lon="4.81957">
        <ele>397.6</ele>
        <time>2011-11-11T10:20:41Z</time>
      </trkpt>
      <trkpt lat="45.84922" lon="4.81959">
        <ele>397</ele>
        <time>2011-11-11T10:20:44Z</time>
      </trkpt>
      <trkpt lat="45.84922" lon="4.81961">
        <ele>396.8</ele>
        <time>2011-11-11T10:20:45Z</time>
      </trkpt>
      <trkpt lat="45.84917" lon="4.8197">
        <ele>395.8</ele>
        <time>2011-11-11T10:20:50Z</time>
      </trkpt>
      <trkpt lat="45.84914" lon="4.81978">
        <ele>395.2</ele>
        <time>2011-11-11T10:20:53Z</time>
      </trkpt>
      <trkpt lat="45.84911" lon="4.81981">
        <ele>394.8</ele>
        <time>2011-11-11T10:20:55Z</time>
      </trkpt>
      <trkpt lat="45.84907" lon="4.81988">
        <ele>393.8</ele>
        <time>2011-11-11T10:20:59Z</time>
      </trkpt>
      <trkpt lat="45.84903" lon="4.81993">
        <ele>393.4</ele>
        <time>2011-11-11T10:21:01Z</time>
      </trkpt>
      <trkpt lat="45.849" lon="4.81997">
        <ele>393</ele>
        <time>2011-11-11T10:21:03Z</time>
      </trkpt>
      <trkpt lat="45.84892" lon="4.82009">
        <ele>391.8</ele>
        <time>2011-11-11T10:21:08Z</time>
      </trkpt>
      <trkpt lat="45.84888" lon="4.82017">
        <ele>391</ele>
        <time>2011-11-11T10:21:11Z</time>
      </trkpt>
      <trkpt lat="45.84886" lon="4.82019">
        <ele>390.8</ele>
        <time>2011-11-11T10:21:12Z</time>
      </trkpt>
      <trkpt lat="45.84879" lon="4.8203">
        <ele>389.6</ele>
        <time>2011-11-11T10:21:17Z</time>
      </trkpt>
      <trkpt lat="45.84874" lon="4.82036">
        <ele>389</ele>
        <time>2011-11-11T10:21:20Z</time>
      </trkpt>
      <trkpt lat="45.84871" lon="4.82042">
        <ele>388.2</ele>
        <time>2011-11-11T10:21:23Z</time>
      </trkpt>
      <trkpt lat="45.84864" lon="4.82051">
        <ele>387.2</ele>
        <time>2011-11-11T10:21:27Z</time>
      </trkpt>
      <trkpt lat="45.84861" lon="4.82055">
        <ele>386.8</ele>
        <time>2011-11-11T10:21:29Z</time>
      </trkpt>
      <trkpt lat="45.84859" lon="4.82058">
        <ele>386.4</ele>
        <time>2011-11-11T10:21:30Z</time>
      </trkpt>
      <trkpt lat="45.84857" lon="4.82063">
        <ele>386</ele>
        <time>2011-11-11T10:21:32Z</time>
      </trkpt>
      <trkpt lat="45.84851" lon="4.82075">
        <ele>384.6</ele>
        <time>2011-11-11T10:21:37Z</time>
      </trkpt>
      <trkpt lat="45.84851" lon="4.82078">
        <ele>384.2</ele>
        <time>2011-11-11T10:21:38Z</time>
      </trkpt>
      <trkpt lat="45.8485" lon="4.82091">
        <ele>383.2</ele>
        <time>2011-11-11T10:21:42Z</time>
      </trkpt>
      <trkpt lat="45.8485" lon="4.82094">
        <ele>383</ele>
        <time>2011-11-11T10:21:43Z</time>
      </trkpt>
      <trkpt lat="45.84847" lon="4.82102">
        <ele>382.2</ele>
        <time>2011-11-11T10:21:46Z</time>
      </trkpt>
      <trkpt lat="45.84847" lon="4.82104">
        <ele>381.8</ele>
        <time>2011-11-11T10:21:47Z</time>
      </trkpt>
      <trkpt lat="45.84843" lon="4.82113">
        <ele>380.4</ele>
        <time>2011-11-11T10:21:52Z</time>
      </trkpt>
      <trkpt lat="45.84839" lon="4.82127">
        <ele>378.4</ele>
        <time>2011-11-11T10:21:59Z</time>
      </trkpt>
      <trkpt lat="45.8484" lon="4.8213">
        <ele>378.2</ele>
        <time>2011-11-11T10:22:00Z</time>
      </trkpt>
      <trkpt lat="45.84838" lon="4.8214">
        <ele>377.2</ele>
        <time>2011-11-11T10:22:04Z</time>
      </trkpt>
      <trkpt lat="45.8484" lon="4.82157">
        <ele>375.4</ele>
        <time>2011-11-11T10:22:10Z</time>
      </trkpt>
      <trkpt lat="45.84842" lon="4.82171">
        <ele>373.8</ele>
        <time>2011-11-11T10:22:15Z</time>
      </trkpt>
      <trkpt lat="45.84846" lon="4.82184">
        <ele>372.2</ele>
        <time>2011-11-11T10:22:20Z</time>
      </trkpt>
      <trkpt lat="45.84852" lon="4.82195">
        <ele>370.4</ele>
        <time>2011-11-11T10:22:26Z</time>
      </trkpt>
      <trkpt lat="45.84859" lon="4.82201">
        <ele>369.2</ele>
        <time>2011-11-11T10:22:30Z</time>
      </trkpt>
      <trkpt lat="45.84862" lon="4.82203">
        <ele>368.6</ele>
        <time>2011-11-11T10:22:32Z</time>
      </trkpt>
      <trkpt lat="45.84866" lon="4.82205">
        <ele>367.4</ele>
        <time>2011-11-11T10:22:36Z</time>
      </trkpt>
      <trkpt lat="45.84869" lon="4.82206">
        <ele>366.8</ele>
        <time>2011-11-11T10:22:38Z</time>
      </trkpt>
      <trkpt lat="45.84876" lon="4.8221">
        <ele>365.8</ele>
        <time>2011-11-11T10:22:41Z</time>
      </trkpt>
      <trkpt lat="45.84884" lon="4.82217">
        <ele>365</ele>
        <time>2011-11-11T10:22:44Z</time>
      </trkpt>
      <trkpt lat="45.84892" lon="4.82228">
        <ele>363.8</ele>
        <time>2011-11-11T10:22:48Z</time>
      </trkpt>
      <trkpt lat="45.84894" lon="4.8223">
        <ele>363.4</ele>
        <time>2011-11-11T10:22:49Z</time>
      </trkpt>
      <trkpt lat="45.84895" lon="4.82233">
        <ele>363.2</ele>
        <time>2011-11-11T10:22:50Z</time>
      </trkpt>
      <trkpt lat="45.84897" lon="4.82242">
        <ele>361.8</ele>
        <time>2011-11-11T10:22:54Z</time>
      </trkpt>
      <trkpt lat="45.84901" lon="4.8225">
        <ele>360.6</ele>
        <time>2011-11-11T10:22:58Z</time>
      </trkpt>
      <trkpt lat="45.84901" lon="4.82252">
        <ele>360.4</ele>
        <time>2011-11-11T10:22:59Z</time>
      </trkpt>
      <trkpt lat="45.84901" lon="4.82258">
        <ele>359.2</ele>
        <time>2011-11-11T10:23:02Z</time>
      </trkpt>
      <trkpt lat="45.84903" lon="4.82265">
        <ele>358.2</ele>
        <time>2011-11-11T10:23:05Z</time>
      </trkpt>
      <trkpt lat="45.84905" lon="4.82274">
        <ele>356.6</ele>
        <time>2011-11-11T10:23:10Z</time>
      </trkpt>
      <trkpt lat="45.84905" lon="4.82278">
        <ele>355.4</ele>
        <time>2011-11-11T10:23:13Z</time>
      </trkpt>
      <trkpt lat="45.84908" lon="4.82282">
        <ele>354.2</ele>
        <time>2011-11-11T10:23:17Z</time>
      </trkpt>
      <trkpt lat="45.8491" lon="4.82282">
        <ele>353.4</ele>
        <time>2011-11-11T10:23:20Z</time>
      </trkpt>
      <trkpt lat="45.84912" lon="4.82281">
        <ele>352.6</ele>
        <time>2011-11-11T10:23:23Z</time>
      </trkpt>
      <trkpt lat="45.84915" lon="4.8228">
        <ele>351.2</ele>
        <time>2011-11-11T10:23:28Z</time>
      </trkpt>
      <trkpt lat="45.84919" lon="4.82278">
        <ele>350</ele>
        <time>2011-11-11T10:23:34Z</time>
      </trkpt>
      <trkpt lat="45.84922" lon="4.82277">
        <ele>349.2</ele>
        <time>2011-11-11T10:23:38Z</time>
      </trkpt>
      <trkpt lat="45.84925" lon="4.82276">
        <ele>348.4</ele>
        <time>2011-11-11T10:23:42Z</time>
      </trkpt>
      <trkpt lat="45.8493" lon="4.82272">
        <ele>347.6</ele>
        <time>2011-11-11T10:23:49Z</time>
      </trkpt>
      <trkpt lat="45.84935" lon="4.82267">
        <ele>346.8</ele>
        <time>2011-11-11T10:23:56Z</time>
      </trkpt>
      <trkpt lat="45.84936" lon="4.82267">
        <ele>346.6</ele>
        <time>2011-11-11T10:23:57Z</time>
      </trkpt>
      <trkpt lat="45.84938" lon="4.82264">
        <ele>346.4</ele>
        <time>2011-11-11T10:23:59Z</time>
      </trkpt>
      <trkpt lat="45.8494" lon="4.82264">
        <ele>346.2</ele>
        <time>2011-11-11T10:24:01Z</time>
      </trkpt>
      <trkpt lat="45.84946" lon="4.82262">
        <ele>345.6</ele>
        <time>2011-11-11T10:24:07Z</time>
      </trkpt>
      <trkpt lat="45.84948" lon="4.82262">
        <ele>345.4</ele>
        <time>2011-11-11T10:24:10Z</time>
      </trkpt>
      <trkpt lat="45.84948" lon="4.82262">
        <ele>345.4</ele>
        <time>2011-11-11T10:24:11Z</time>
      </trkpt>
      <trkpt lat="45.84951" lon="4.82262">
        <ele>345.2</ele>
        <time>2011-11-11T10:24:15Z</time>
      </trkpt>
      <trkpt lat="45.84954" lon="4.82261">
        <ele>345</ele>
        <time>2011-11-11T10:24:18Z</time>
      </trkpt>
      <trkpt lat="45.84956" lon="4.8226">
        <ele>345</ele>
        <time>2011-11-11T10:24:20Z</time>
      </trkpt>
      <trkpt lat="45.8496" lon="4.82259">
        <ele>344.6</ele>
        <time>2011-11-11T10:24:27Z</time>
      </trkpt>
      <trkpt lat="45.84963" lon="4.82259">
        <ele>344.6</ele>
        <time>2011-11-11T10:24:30Z</time>
      </trkpt>
      <trkpt lat="45.84966" lon="4.8226">
        <ele>344.6</ele>
        <time>2011-11-11T10:24:32Z</time>
      </trkpt>
      <trkpt lat="45.84971" lon="4.82262">
        <ele>344.4</ele>
        <time>2011-11-11T10:24:38Z</time>
      </trkpt>
      <trkpt lat="45.84974" lon="4.82262">
        <ele>344.4</ele>
        <time>2011-11-11T10:24:41Z</time>
      </trkpt>
      <trkpt lat="45.84976" lon="4.82264">
        <ele>344.4</ele>
        <time>2011-11-11T10:24:44Z</time>
      </trkpt>
      <trkpt lat="45.84978" lon="4.82266">
        <ele>344.6</ele>
        <time>2011-11-11T10:24:46Z</time>
      </trkpt>
      <trkpt lat="45.84982" lon="4.82266">
        <ele>344.4</ele>
        <time>2011-11-11T10:24:52Z</time>
      </trkpt>
      <trkpt lat="45.84987" lon="4.82268">
        <ele>345</ele>
        <time>2011-11-11T10:24:58Z</time>
      </trkpt>
      <trkpt lat="45.8499" lon="4.82268">
        <ele>344.8</ele>
        <time>2011-11-11T10:25:00Z</time>
      </trkpt>
      <trkpt lat="45.84991" lon="4.82267">
        <ele>344.8</ele>
        <time>2011-11-11T10:25:01Z</time>
      </trkpt>
      <trkpt lat="45.84995" lon="4.82268">
        <ele>345</ele>
        <time>2011-11-11T10:25:04Z</time>
      </trkpt>
      <trkpt lat="45.84997" lon="4.82267">
        <ele>345</ele>
        <time>2011-11-11T10:25:06Z</time>
      </trkpt>
      <trkpt lat="45.85003" lon="4.82271">
        <ele>346</ele>
        <time>2011-11-11T10:25:15Z</time>
      </trkpt>
      <trkpt lat="45.85008" lon="4.82271">
        <ele>347.4</ele>
        <time>2011-11-11T10:25:21Z</time>
      </trkpt>
      <trkpt lat="45.85008" lon="4.82273">
        <ele>348</ele>
        <time>2011-11-11T10:25:24Z</time>
      </trkpt>
      <trkpt lat="45.8501" lon="4.82272">
        <ele>348.2</ele>
        <time>2011-11-11T10:25:29Z</time>
      </trkpt>
      <trkpt lat="45.85013" lon="4.82273">
        <ele>349</ele>
        <time>2011-11-11T10:25:33Z</time>
      </trkpt>
      <trkpt lat="45.85014" lon="4.82272">
        <ele>349.4</ele>
        <time>2011-11-11T10:25:36Z</time>
      </trkpt>
      <trkpt lat="45.85017" lon="4.82274">
        <ele>350.2</ele>
        <time>2011-11-11T10:25:41Z</time>
      </trkpt>
      <trkpt lat="45.8502" lon="4.82271">
        <ele>350.6</ele>
        <time>2011-11-11T10:25:44Z</time>
      </trkpt>
      <trkpt lat="45.85025" lon="4.82267">
        <ele>351.2</ele>
        <time>2011-11-11T10:25:51Z</time>
      </trkpt>
      <trkpt lat="45.85026" lon="4.82267">
        <ele>351.2</ele>
        <time>2011-11-11T10:25:52Z</time>
      </trkpt>
      <trkpt lat="45.8503" lon="4.82263">
        <ele>352.4</ele>
        <time>2011-11-11T10:26:00Z</time>
      </trkpt>
      <trkpt lat="45.85031" lon="4.82262">
        <ele>352.6</ele>
        <time>2011-11-11T10:26:01Z</time>
      </trkpt>
      <trkpt lat="45.85035" lon="4.82259">
        <ele>352.6</ele>
        <time>2011-11-11T10:26:05Z</time>
      </trkpt>
      <trkpt lat="45.85036" lon="4.82259">
        <ele>353</ele>
        <time>2011-11-11T10:26:07Z</time>
      </trkpt>
      <trkpt lat="45.85037" lon="4.82259">
        <ele>353</ele>
        <time>2011-11-11T10:26:08Z</time>
      </trkpt>
      <trkpt lat="45.85038" lon="4.82259">
        <ele>353.2</ele>
        <time>2011-11-11T10:26:10Z</time>
      </trkpt>
      <trkpt lat="45.85042" lon="4.82259">
        <ele>354.2</ele>
        <time>2011-11-11T10:26:14Z</time>
      </trkpt>
      <trkpt lat="45.85045" lon="4.82254">
        <ele>355.4</ele>
        <time>2011-11-11T10:26:18Z</time>
      </trkpt>
      <trkpt lat="45.85046" lon="4.82253">
        <ele>355.6</ele>
        <time>2011-11-11T10:26:19Z</time>
      </trkpt>
      <trkpt lat="45.85048" lon="4.82252">
        <ele>356</ele>
        <time>2011-11-11T10:26:21Z</time>
      </trkpt>
      <trkpt lat="45.85051" lon="4.82251">
        <ele>357.2</ele>
        <time>2011-11-11T10:26:24Z</time>
      </trkpt>
      <trkpt lat="45.85052" lon="4.8225">
        <ele>358</ele>
        <time>2011-11-11T10:26:26Z</time>
      </trkpt>
      <trkpt lat="45.85053" lon="4.8225">
        <ele>358.4</ele>
        <time>2011-11-11T10:26:27Z</time>
      </trkpt>
      <trkpt lat="45.85056" lon="4.82249">
        <ele>359.4</ele>
        <time>2011-11-11T10:26:30Z</time>
      </trkpt>
      <trkpt lat="45.85057" lon="4.82248">
        <ele>359.4</ele>
        <time>2011-11-11T10:26:31Z</time>
      </trkpt>
      <trkpt lat="45.85058" lon="4.82245">
        <ele>360.6</ele>
        <time>2011-11-11T10:26:35Z</time>
      </trkpt>
      <trkpt lat="45.85059" lon="4.82244">
        <ele>360.8</ele>
        <time>2011-11-11T10:26:36Z</time>
      </trkpt>
      <trkpt lat="45.85059" lon="4.8224">
        <ele>361.6</ele>
        <time>2011-11-11T10:26:39Z</time>
      </trkpt>
      <trkpt lat="45.85059" lon="4.82238">
        <ele>362.4</ele>
        <time>2011-11-11T10:26:41Z</time>
      </trkpt>
      <trkpt lat="45.85059" lon="4.82237">
        <ele>362.8</ele>
        <time>2011-11-11T10:26:42Z</time>
      </trkpt>
      <trkpt lat="45.85062" lon="4.82234">
        <ele>363.8</ele>
        <time>2011-11-11T10:26:46Z</time>
      </trkpt>
      <trkpt lat="45.85064" lon="4.82232">
        <ele>364.2</ele>
        <time>2011-11-11T10:26:49Z</time>
      </trkpt>
      <trkpt lat="45.85066" lon="4.8223">
        <ele>365</ele>
        <time>2011-11-11T10:26:52Z</time>
      </trkpt>
      <trkpt lat="45.85067" lon="4.82227">
        <ele>365.8</ele>
        <time>2011-11-11T10:26:57Z</time>
      </trkpt>
      <trkpt lat="45.85067" lon="4.82226">
        <ele>366.2</ele>
        <time>2011-11-11T10:26:58Z</time>
      </trkpt>
      <trkpt lat="45.85071" lon="4.82225">
        <ele>367.8</ele>
        <time>2011-11-11T10:27:06Z</time>
      </trkpt>
      <trkpt lat="45.85071" lon="4.82224">
        <ele>367.8</ele>
        <time>2011-11-11T10:27:07Z</time>
      </trkpt>
      <trkpt lat="45.85071" lon="4.82218">
        <ele>368.8</ele>
        <time>2011-11-11T10:27:11Z</time>
      </trkpt>
      <trkpt lat="45.85071" lon="4.82211">
        <ele>370</ele>
        <time>2011-11-11T10:27:17Z</time>
      </trkpt>
      <trkpt lat="45.85067" lon="4.82201">
        <ele>371</ele>
        <time>2011-11-11T10:27:23Z</time>
      </trkpt>
      <trkpt lat="45.85067" lon="4.82198">
        <ele>371.6</ele>
        <time>2011-11-11T10:27:25Z</time>
      </trkpt>
      <trkpt lat="45.85067" lon="4.82197">
        <ele>371.6</ele>
        <time>2011-11-11T10:27:26Z</time>
      </trkpt>
      <trkpt lat="45.85065" lon="4.82194">
        <ele>371.8</ele>
        <time>2011-11-11T10:27:30Z</time>
      </trkpt>
      <trkpt lat="45.85066" lon="4.82194">
        <ele>372</ele>
        <time>2011-11-11T10:27:32Z</time>
      </trkpt>
      <trkpt lat="45.85067" lon="4.82189">
        <ele>372.6</ele>
        <time>2011-11-11T10:27:36Z</time>
      </trkpt>
      <trkpt lat="45.85067" lon="4.82186">
        <ele>372.8</ele>
        <time>2011-11-11T10:27:39Z</time>
      </trkpt>
      <trkpt lat="45.85069" lon="4.82186">
        <ele>373.2</ele>
        <time>2011-11-11T10:27:41Z</time>
      </trkpt>
      <trkpt lat="45.8507" lon="4.82186">
        <ele>373.4</ele>
        <time>2011-11-11T10:27:43Z</time>
      </trkpt>
      <trkpt lat="45.85071" lon="4.82185">
        <ele>374.6</ele>
        <time>2011-11-11T10:27:46Z</time>
      </trkpt>
      <trkpt lat="45.85073" lon="4.82173">
        <ele>374.6</ele>
        <time>2011-11-11T10:27:54Z</time>
      </trkpt>
      <trkpt lat="45.85074" lon="4.82168">
        <ele>376.2</ele>
        <time>2011-11-11T10:28:00Z</time>
      </trkpt>
      <trkpt lat="45.85077" lon="4.82162">
        <ele>379.2</ele>
        <time>2011-11-11T10:28:06Z</time>
      </trkpt>
      <trkpt lat="45.85076" lon="4.82158">
        <ele>380.8</ele>
        <time>2011-11-11T10:28:09Z</time>
      </trkpt>
      <trkpt lat="45.85076" lon="4.82154">
        <ele>380.8</ele>
        <time>2011-11-11T10:28:11Z</time>
      </trkpt>
      <trkpt lat="45.85076" lon="4.82149">
        <ele>382.2</ele>
        <time>2011-11-11T10:28:14Z</time>
      </trkpt>
      <trkpt lat="45.85075" lon="4.82145">
        <ele>382.6</ele>
        <time>2011-11-11T10:28:16Z</time>
      </trkpt>
      <trkpt lat="45.85074" lon="4.82143">
        <ele>383.2</ele>
        <time>2011-11-11T10:28:17Z</time>
      </trkpt>
      <trkpt lat="45.85075" lon="4.8214">
        <ele>384.4</ele>
        <time>2011-11-11T10:28:20Z</time>
      </trkpt>
      <trkpt lat="45.85075" lon="4.82138">
        <ele>384.6</ele>
        <time>2011-11-11T10:28:21Z</time>
      </trkpt>
      <trkpt lat="45.85076" lon="4.82135">
        <ele>386.2</ele>
        <time>2011-11-11T10:28:25Z</time>
      </trkpt>
      <trkpt lat="45.85077" lon="4.82133">
        <ele>386.6</ele>
        <time>2011-11-11T10:28:26Z</time>
      </trkpt>
      <trkpt lat="45.85078" lon="4.82128">
        <ele>387</ele>
        <time>2011-11-11T10:28:30Z</time>
      </trkpt>
      <trkpt lat="45.85078" lon="4.82124">
        <ele>387.2</ele>
        <time>2011-11-11T10:28:33Z</time>
      </trkpt>
      <trkpt lat="45.85078" lon="4.82123">
        <ele>387.2</ele>
        <time>2011-11-11T10:28:34Z</time>
      </trkpt>
      <trkpt lat="45.85076" lon="4.82119">
        <ele>387.4</ele>
        <time>2011-11-11T10:28:38Z</time>
      </trkpt>
      <trkpt lat="45.85069" lon="4.82115">
        <ele>389.4</ele>
        <time>2011-11-11T10:28:45Z</time>
      </trkpt>
      <trkpt lat="45.85067" lon="4.82113">
        <ele>390.8</ele>
        <time>2011-11-11T10:28:48Z</time>
      </trkpt>
      <trkpt lat="45.85071" lon="4.82114">
        <ele>393.8</ele>
        <time>2011-11-11T10:28:54Z</time>
      </trkpt>
      <trkpt lat="45.85073" lon="4.82113">
        <ele>396.2</ele>
        <time>2011-11-11T10:28:58Z</time>
      </trkpt>
      <trkpt lat="45.85078" lon="4.82116">
        <ele>398.4</ele>
        <time>2011-11-11T10:29:14Z</time>
      </trkpt>
      <trkpt lat="45.85083" lon="4.82118">
        <ele>398.8</ele>
        <time>2011-11-11T10:29:19Z</time>
      </trkpt>
      <trkpt lat="45.85085" lon="4.82119">
        <ele>399</ele>
        <time>2011-11-11T10:29:21Z</time>
      </trkpt>
      <trkpt lat="45.85089" lon="4.82121">
        <ele>399</ele>
        <time>2011-11-11T10:29:28Z</time>
      </trkpt>
      <trkpt lat="45.85092" lon="4.82124">
        <ele>398.6</ele>
        <time>2011-11-11T10:29:33Z</time>
      </trkpt>
      <trkpt lat="45.85091" lon="4.82125">
        <ele>397</ele>
        <time>2011-11-11T10:29:44Z</time>
      </trkpt>
      <trkpt lat="45.8509" lon="4.82126">
        <ele>396.4</ele>
        <time>2011-11-11T10:29:48Z</time>
      </trkpt>
      <trkpt lat="45.85088" lon="4.82122">
        <ele>396</ele>
        <time>2011-11-11T10:29:55Z</time>
      </trkpt>
      <trkpt lat="45.8509" lon="4.82123">
        <ele>395.8</ele>
        <time>2011-11-11T10:29:58Z</time>
      </trkpt>
      <trkpt lat="45.85095" lon="4.82124">
        <ele>395.8</ele>
        <time>2011-11-11T10:30:02Z</time>
      </trkpt>
      <trkpt lat="45.85103" lon="4.82125">
        <ele>395.8</ele>
        <time>2011-11-11T10:30:09Z</time>
      </trkpt>
      <trkpt lat="45.85106" lon="4.82126">
        <ele>396</ele>
        <time>2011-11-11T10:30:12Z</time>
      </trkpt>
      <trkpt lat="45.85109" lon="4.82128">
        <ele>395.8</ele>
        <time>2011-11-11T10:30:15Z</time>
      </trkpt>
      <trkpt lat="45.85108" lon="4.82129">
        <ele>395.8</ele>
        <time>2011-11-11T10:30:16Z</time>
      </trkpt>
      <trkpt lat="45.85105" lon="4.82133">
        <ele>395.6</ele>
        <time>2011-11-11T10:30:19Z</time>
      </trkpt>
      <trkpt lat="45.85101" lon="4.8214">
        <ele>395.4</ele>
        <time>2011-11-11T10:30:23Z</time>
      </trkpt>
      <trkpt lat="45.85098" lon="4.82145">
        <ele>395</ele>
        <time>2011-11-11T10:30:26Z</time>
      </trkpt>
      <trkpt lat="45.85092" lon="4.82158">
        <ele>394.6</ele>
        <time>2011-11-11T10:30:31Z</time>
      </trkpt>
      <trkpt lat="45.85089" lon="4.82165">
        <ele>394.2</ele>
        <time>2011-11-11T10:30:34Z</time>
      </trkpt>
      <trkpt lat="45.85088" lon="4.82167">
        <ele>394</ele>
        <time>2011-11-11T10:30:36Z</time>
      </trkpt>
      <trkpt lat="45.85084" lon="4.82178">
        <ele>393.2</ele>
        <time>2011-11-11T10:30:41Z</time>
      </trkpt>
      <trkpt lat="45.85083" lon="4.8218">
        <ele>393</ele>
        <time>2011-11-11T10:30:42Z</time>
      </trkpt>
      <trkpt lat="45.85081" lon="4.82191">
        <ele>392.4</ele>
        <time>2011-11-11T10:30:47Z</time>
      </trkpt>
      <trkpt lat="45.85081" lon="4.82192">
        <ele>392.2</ele>
        <time>2011-11-11T10:30:48Z</time>
      </trkpt>
      <trkpt lat="45.85079" lon="4.82196">
        <ele>391.8</ele>
        <time>2011-11-11T10:30:51Z</time>
      </trkpt>
      <trkpt lat="45.85079" lon="4.822">
        <ele>391.4</ele>
        <time>2011-11-11T10:30:53Z</time>
      </trkpt>
      <trkpt lat="45.85081" lon="4.82209">
        <ele>391</ele>
        <time>2011-11-11T10:30:57Z</time>
      </trkpt>
      <trkpt lat="45.85082" lon="4.82213">
        <ele>390.8</ele>
        <time>2011-11-11T10:30:59Z</time>
      </trkpt>
      <trkpt lat="45.85083" lon="4.82215">
        <ele>390.6</ele>
        <time>2011-11-11T10:31:00Z</time>
      </trkpt>
      <trkpt lat="45.85085" lon="4.82228">
        <ele>389.8</ele>
        <time>2011-11-11T10:31:06Z</time>
      </trkpt>
      <trkpt lat="45.85083" lon="4.82241">
        <ele>389</ele>
        <time>2011-11-11T10:31:11Z</time>
      </trkpt>
      <trkpt lat="45.85082" lon="4.82245">
        <ele>388.6</ele>
        <time>2011-11-11T10:31:13Z</time>
      </trkpt>
      <trkpt lat="45.85084" lon="4.82257">
        <ele>387.6</ele>
        <time>2011-11-11T10:31:19Z</time>
      </trkpt>
      <trkpt lat="45.85086" lon="4.82266">
        <ele>386.6</ele>
        <time>2011-11-11T10:31:23Z</time>
      </trkpt>
      <trkpt lat="45.85087" lon="4.82273">
        <ele>386</ele>
        <time>2011-11-11T10:31:26Z</time>
      </trkpt>
      <trkpt lat="45.85088" lon="4.82276">
        <ele>385.2</ele>
        <time>2011-11-11T10:31:30Z</time>
      </trkpt>
      <trkpt lat="45.85092" lon="4.82284">
        <ele>383.6</ele>
        <time>2011-11-11T10:31:37Z</time>
      </trkpt>
      <trkpt lat="45.85095" lon="4.8229">
        <ele>382.8</ele>
        <time>2011-11-11T10:31:40Z</time>
      </trkpt>
      <trkpt lat="45.85097" lon="4.82297">
        <ele>381.6</ele>
        <time>2011-11-11T10:31:44Z</time>
      </trkpt>
      <trkpt lat="45.85101" lon="4.82304">
        <ele>380.2</ele>
        <time>2011-11-11T10:31:49Z</time>
      </trkpt>
      <trkpt lat="45.85102" lon="4.82304">
        <ele>379.8</ele>
        <time>2011-11-11T10:31:50Z</time>
      </trkpt>
      <trkpt lat="45.85107" lon="4.82304">
        <ele>378.4</ele>
        <time>2011-11-11T10:31:55Z</time>
      </trkpt>
      <trkpt lat="45.85107" lon="4.82304">
        <ele>378</ele>
        <time>2011-11-11T10:31:56Z</time>
      </trkpt>
      <trkpt lat="45.85108" lon="4.82304">
        <ele>377.8</ele>
        <time>2011-11-11T10:31:57Z</time>
      </trkpt>
      <trkpt lat="45.8511" lon="4.82306">
        <ele>376.6</ele>
        <time>2011-11-11T10:32:01Z</time>
      </trkpt>
      <trkpt lat="45.85113" lon="4.82308">
        <ele>376</ele>
        <time>2011-11-11T10:32:03Z</time>
      </trkpt>
      <trkpt lat="45.85114" lon="4.82308">
        <ele>375.4</ele>
        <time>2011-11-11T10:32:05Z</time>
      </trkpt>
      <trkpt lat="45.85114" lon="4.82307">
        <ele>375</ele>
        <time>2011-11-11T10:32:06Z</time>
      </trkpt>
      <trkpt lat="45.85117" lon="4.82304">
        <ele>374</ele>
        <time>2011-11-11T10:32:10Z</time>
      </trkpt>
      <trkpt lat="45.85118" lon="4.82302">
        <ele>373.8</ele>
        <time>2011-11-11T10:32:11Z</time>
      </trkpt>
      <trkpt lat="45.8512" lon="4.82297">
        <ele>372.6</ele>
        <time>2011-11-11T10:32:15Z</time>
      </trkpt>
      <trkpt lat="45.85121" lon="4.82296">
        <ele>372.4</ele>
        <time>2011-11-11T10:32:16Z</time>
      </trkpt>
      <trkpt lat="45.85125" lon="4.82291">
        <ele>371</ele>
        <time>2011-11-11T10:32:21Z</time>
      </trkpt>
      <trkpt lat="45.85132" lon="4.82285">
        <ele>369.2</ele>
        <time>2011-11-11T10:32:28Z</time>
      </trkpt>
      <trkpt lat="45.85134" lon="4.82282">
        <ele>368.8</ele>
        <time>2011-11-11T10:32:30Z</time>
      </trkpt>
      <trkpt lat="45.85132" lon="4.82278">
        <ele>368</ele>
        <time>2011-11-11T10:32:32Z</time>
      </trkpt>
      <trkpt lat="45.85133" lon="4.82276">
        <ele>367.8</ele>
        <time>2011-11-11T10:32:33Z</time>
      </trkpt>
      <trkpt lat="45.85136" lon="4.82273">
        <ele>367.4</ele>
        <time>2011-11-11T10:32:35Z</time>
      </trkpt>
      <trkpt lat="45.85139" lon="4.82268">
        <ele>366.8</ele>
        <time>2011-11-11T10:32:38Z</time>
      </trkpt>
      <trkpt lat="45.85146" lon="4.82262">
        <ele>366</ele>
        <time>2011-11-11T10:32:42Z</time>
      </trkpt>
      <trkpt lat="45.85151" lon="4.82254">
        <ele>365.2</ele>
        <time>2011-11-11T10:32:46Z</time>
      </trkpt>
      <trkpt lat="45.85152" lon="4.82245">
        <ele>364.4</ele>
        <time>2011-11-11T10:32:49Z</time>
      </trkpt>
      <trkpt lat="45.85153" lon="4.8224">
        <ele>364.2</ele>
        <time>2011-11-11T10:32:51Z</time>
      </trkpt>
      <trkpt lat="45.85155" lon="4.82239">
        <ele>363.8</ele>
        <time>2011-11-11T10:32:52Z</time>
      </trkpt>
      <trkpt lat="45.85161" lon="4.82228">
        <ele>363</ele>
        <time>2011-11-11T10:32:57Z</time>
      </trkpt>
      <trkpt lat="45.85166" lon="4.82215">
        <ele>362.4</ele>
        <time>2011-11-11T10:33:02Z</time>
      </trkpt>
      <trkpt lat="45.85166" lon="4.82213">
        <ele>362.2</ele>
        <time>2011-11-11T10:33:03Z</time>
      </trkpt>
      <trkpt lat="45.85166" lon="4.82201">
        <ele>361.6</ele>
        <time>2011-11-11T10:33:07Z</time>
      </trkpt>
      <trkpt lat="45.85168" lon="4.82194">
        <ele>361.2</ele>
        <time>2011-11-11T10:33:10Z</time>
      </trkpt>
      <trkpt lat="45.8517" lon="4.82189">
        <ele>361.2</ele>
        <time>2011-11-11T10:33:12Z</time>
      </trkpt>
      <trkpt lat="45.85173" lon="4.82181">
        <ele>360.6</ele>
        <time>2011-11-11T10:33:15Z</time>
      </trkpt>
      <trkpt lat="45.85175" lon="4.82174">
        <ele>360.2</ele>
        <time>2011-11-11T10:33:18Z</time>
      </trkpt>
      <trkpt lat="45.8518" lon="4.82162">
        <ele>360</ele>
        <time>2011-11-11T10:33:23Z</time>
      </trkpt>
      <trkpt lat="45.85181" lon="4.82159">
        <ele>359.8</ele>
        <time>2011-11-11T10:33:24Z</time>
      </trkpt>
      <trkpt lat="45.85182" lon="4.82147">
        <ele>359.4</ele>
        <time>2011-11-11T10:33:28Z</time>
      </trkpt>
      <trkpt lat="45.85183" lon="4.82146">
        <ele>359.4</ele>
        <time>2011-11-11T10:33:29Z</time>
      </trkpt>
      <trkpt lat="45.85184" lon="4.8214">
        <ele>359.4</ele>
        <time>2011-11-11T10:33:32Z</time>
      </trkpt>
      <trkpt lat="45.85184" lon="4.82138">
        <ele>359.4</ele>
        <time>2011-11-11T10:33:33Z</time>
      </trkpt>
      <trkpt lat="45.85182" lon="4.82134">
        <ele>360</ele>
        <time>2011-11-11T10:33:34Z</time>
      </trkpt>
      <trkpt lat="45.85183" lon="4.82123">
        <ele>361.2</ele>
        <time>2011-11-11T10:33:37Z</time>
      </trkpt>
      <trkpt lat="45.85184" lon="4.82121">
        <ele>361.8</ele>
        <time>2011-11-11T10:33:38Z</time>
      </trkpt>
      <trkpt lat="45.85187" lon="4.82114">
        <ele>363.2</ele>
        <time>2011-11-11T10:33:42Z</time>
      </trkpt>
      <trkpt lat="45.85188" lon="4.82113">
        <ele>363.6</ele>
        <time>2011-11-11T10:33:43Z</time>
      </trkpt>
      <trkpt lat="45.85191" lon="4.82106">
        <ele>364.4</ele>
        <time>2011-11-11T10:33:47Z</time>
      </trkpt>
      <trkpt lat="45.85196" lon="4.82101">
        <ele>365</ele>
        <time>2011-11-11T10:33:51Z</time>
      </trkpt>
      <trkpt lat="45.852" lon="4.821">
        <ele>365.6</ele>
        <time>2011-11-11T10:33:53Z</time>
      </trkpt>
      <trkpt lat="45.85204" lon="4.82094">
        <ele>365.2</ele>
        <time>2011-11-11T10:33:57Z</time>
      </trkpt>
      <trkpt lat="45.85207" lon="4.82092">
        <ele>365.2</ele>
        <time>2011-11-11T10:34:00Z</time>
      </trkpt>
      <trkpt lat="45.85208" lon="4.82092">
        <ele>365.2</ele>
        <time>2011-11-11T10:34:03Z</time>
      </trkpt>
      <trkpt lat="45.85211" lon="4.82087">
        <ele>365</ele>
        <time>2011-11-11T10:34:07Z</time>
      </trkpt>
      <trkpt lat="45.85212" lon="4.82086">
        <ele>364.8</ele>
        <time>2011-11-11T10:34:08Z</time>
      </trkpt>
      <trkpt lat="45.85219" lon="4.82081">
        <ele>364.8</ele>
        <time>2011-11-11T10:34:13Z</time>
      </trkpt>
      <trkpt lat="45.85222" lon="4.82081">
        <ele>364.8</ele>
        <time>2011-11-11T10:34:14Z</time>
      </trkpt>
      <trkpt lat="45.85224" lon="4.8208">
        <ele>364.8</ele>
        <time>2011-11-11T10:34:15Z</time>
      </trkpt>
      <trkpt lat="45.85233" lon="4.82073">
        <ele>364.8</ele>
        <time>2011-11-11T10:34:20Z</time>
      </trkpt>
      <trkpt lat="45.85235" lon="4.82069">
        <ele>364.8</ele>
        <time>2011-11-11T10:34:22Z</time>
      </trkpt>
      <trkpt lat="45.85238" lon="4.82065">
        <ele>365</ele>
        <time>2011-11-11T10:34:24Z</time>
      </trkpt>
      <trkpt lat="45.85239" lon="4.82063">
        <ele>365.2</ele>
        <time>2011-11-11T10:34:25Z</time>
      </trkpt>
      <trkpt lat="45.85247" lon="4.82053">
        <ele>365.6</ele>
        <time>2011-11-11T10:34:31Z</time>
      </trkpt>
      <trkpt lat="45.85253" lon="4.82048">
        <ele>366.2</ele>
        <time>2011-11-11T10:34:35Z</time>
      </trkpt>
      <trkpt lat="45.85255" lon="4.82046">
        <ele>366.2</ele>
        <time>2011-11-11T10:34:36Z</time>
      </trkpt>
      <trkpt lat="45.85259" lon="4.82034">
        <ele>366.8</ele>
        <time>2011-11-11T10:34:41Z</time>
      </trkpt>
      <trkpt lat="45.8526" lon="4.82032">
        <ele>367</ele>
        <time>2011-11-11T10:34:42Z</time>
      </trkpt>
      <trkpt lat="45.85263" lon="4.82024">
        <ele>367.8</ele>
        <time>2011-11-11T10:34:46Z</time>
      </trkpt>
      <trkpt lat="45.85265" lon="4.82022">
        <ele>368</ele>
        <time>2011-11-11T10:34:47Z</time>
      </trkpt>
      <trkpt lat="45.85267" lon="4.82014">
        <ele>368.8</ele>
        <time>2011-11-11T10:34:50Z</time>
      </trkpt>
      <trkpt lat="45.85267" lon="4.82009">
        <ele>369</ele>
        <time>2011-11-11T10:34:52Z</time>
      </trkpt>
      <trkpt lat="45.85269" lon="4.82001">
        <ele>369.4</ele>
        <time>2011-11-11T10:34:55Z</time>
      </trkpt>
      <trkpt lat="45.85269" lon="4.81995">
        <ele>369.6</ele>
        <time>2011-11-11T10:34:57Z</time>
      </trkpt>
      <trkpt lat="45.85269" lon="4.81992">
        <ele>370.2</ele>
        <time>2011-11-11T10:34:58Z</time>
      </trkpt>
      <trkpt lat="45.8527" lon="4.8199">
        <ele>370.2</ele>
        <time>2011-11-11T10:34:59Z</time>
      </trkpt>
      <trkpt lat="45.85272" lon="4.81978">
        <ele>370.8</ele>
        <time>2011-11-11T10:35:04Z</time>
      </trkpt>
      <trkpt lat="45.85271" lon="4.81965">
        <ele>371.6</ele>
        <time>2011-11-11T10:35:09Z</time>
      </trkpt>
      <trkpt lat="45.85271" lon="4.81961">
        <ele>371.6</ele>
        <time>2011-11-11T10:35:10Z</time>
      </trkpt>
      <trkpt lat="45.85268" lon="4.81945">
        <ele>372.2</ele>
        <time>2011-11-11T10:35:15Z</time>
      </trkpt>
      <trkpt lat="45.85266" lon="4.81937">
        <ele>372.2</ele>
        <time>2011-11-11T10:35:17Z</time>
      </trkpt>
      <trkpt lat="45.85263" lon="4.81926">
        <ele>372.4</ele>
        <time>2011-11-11T10:35:20Z</time>
      </trkpt>
      <trkpt lat="45.85264" lon="4.81924">
        <ele>372.6</ele>
        <time>2011-11-11T10:35:21Z</time>
      </trkpt>
      <trkpt lat="45.85263" lon="4.81914">
        <ele>373.2</ele>
        <time>2011-11-11T10:35:24Z</time>
      </trkpt>
      <trkpt lat="45.85266" lon="4.81913">
        <ele>373.6</ele>
        <time>2011-11-11T10:35:25Z</time>
      </trkpt>
      <trkpt lat="45.85267" lon="4.81911">
        <ele>374</ele>
        <time>2011-11-11T10:35:26Z</time>
      </trkpt>
      <trkpt lat="45.85269" lon="4.81906">
        <ele>374.8</ele>
        <time>2011-11-11T10:35:30Z</time>
      </trkpt>
      <trkpt lat="45.85273" lon="4.81907">
        <ele>376</ele>
        <time>2011-11-11T10:35:36Z</time>
      </trkpt>
      <trkpt lat="45.8528" lon="4.81911">
        <ele>376</ele>
        <time>2011-11-11T10:35:48Z</time>
      </trkpt>
      <trkpt lat="45.85279" lon="4.81912">
        <ele>378</ele>
        <time>2011-11-11T10:36:07Z</time>
      </trkpt>
      <trkpt lat="45.85272" lon="4.81912">
        <ele>377.8</ele>
        <time>2011-11-11T10:36:14Z</time>
      </trkpt>
      <trkpt lat="45.85272" lon="4.81912">
        <ele>378</ele>
        <time>2011-11-11T10:36:17Z</time>
      </trkpt>
      <trkpt lat="45.85286" lon="4.81916">
        <ele>380</ele>
        <time>2011-11-11T10:36:58Z</time>
      </trkpt>
      <trkpt lat="45.8527" lon="4.8191">
        <ele>381</ele>
        <time>2011-11-11T10:37:14Z</time>
      </trkpt>
      <trkpt lat="45.85272" lon="4.81905">
        <ele>381.6</ele>
        <time>2011-11-11T10:37:57Z</time>
      </trkpt>
      <trkpt lat="45.85268" lon="4.81903">
        <ele>381</ele>
        <time>2011-11-11T10:38:08Z</time>
      </trkpt>
      <trkpt lat="45.8527" lon="4.81906">
        <ele>380.8</ele>
        <time>2011-11-11T10:38:15Z</time>
      </trkpt>
      <trkpt lat="45.85271" lon="4.81907">
        <ele>381.4</ele>
        <time>2011-11-11T10:38:20Z</time>
      </trkpt>
      <trkpt lat="45.85273" lon="4.8191">
        <ele>382.6</ele>
        <time>2011-11-11T10:38:27Z</time>
      </trkpt>
      <trkpt lat="45.85276" lon="4.8191">
        <ele>385.2</ele>
        <time>2011-11-11T10:38:39Z</time>
      </trkpt>
      <trkpt lat="45.85279" lon="4.8191">
        <ele>386</ele>
        <time>2011-11-11T10:38:43Z</time>
      </trkpt>
      <trkpt lat="45.85278" lon="4.81904">
        <ele>386.2</ele>
        <time>2011-11-11T10:38:46Z</time>
      </trkpt>
      <trkpt lat="45.85272" lon="4.81886">
        <ele>385.8</ele>
        <time>2011-11-11T10:38:52Z</time>
      </trkpt>
      <trkpt lat="45.85271" lon="4.81878">
        <ele>385.6</ele>
        <time>2011-11-11T10:38:55Z</time>
      </trkpt>
      <trkpt lat="45.85269" lon="4.81868">
        <ele>385.4</ele>
        <time>2011-11-11T10:38:58Z</time>
      </trkpt>
      <trkpt lat="45.85267" lon="4.81852">
        <ele>385</ele>
        <time>2011-11-11T10:39:03Z</time>
      </trkpt>
      <trkpt lat="45.85267" lon="4.8185">
        <ele>385</ele>
        <time>2011-11-11T10:39:04Z</time>
      </trkpt>
      <trkpt lat="45.85266" lon="4.81842">
        <ele>384.8</ele>
        <time>2011-11-11T10:39:07Z</time>
      </trkpt>
      <trkpt lat="45.85266" lon="4.8184">
        <ele>384.8</ele>
        <time>2011-11-11T10:39:09Z</time>
      </trkpt>
      <trkpt lat="45.85267" lon="4.81838">
        <ele>384.8</ele>
        <time>2011-11-11T10:39:10Z</time>
      </trkpt>
      <trkpt lat="45.85268" lon="4.81834">
        <ele>384.8</ele>
        <time>2011-11-11T10:39:13Z</time>
      </trkpt>
      <trkpt lat="45.85269" lon="4.81826">
        <ele>384.6</ele>
        <time>2011-11-11T10:39:17Z</time>
      </trkpt>
      <trkpt lat="45.8527" lon="4.81824">
        <ele>384.6</ele>
        <time>2011-11-11T10:39:18Z</time>
      </trkpt>
      <trkpt lat="45.85274" lon="4.81807">
        <ele>384.4</ele>
        <time>2011-11-11T10:39:24Z</time>
      </trkpt>
      <trkpt lat="45.85277" lon="4.81801">
        <ele>384.4</ele>
        <time>2011-11-11T10:39:26Z</time>
      </trkpt>
      <trkpt lat="45.85279" lon="4.81792">
        <ele>384.2</ele>
        <time>2011-11-11T10:39:29Z</time>
      </trkpt>
      <trkpt lat="45.85288" lon="4.81779">
        <ele>384.2</ele>
        <time>2011-11-11T10:39:35Z</time>
      </trkpt>
      <trkpt lat="45.8529" lon="4.81778">
        <ele>384</ele>
        <time>2011-11-11T10:39:36Z</time>
      </trkpt>
      <trkpt lat="45.85301" lon="4.81772">
        <ele>385</ele>
        <time>2011-11-11T10:39:41Z</time>
      </trkpt>
      <trkpt lat="45.85308" lon="4.8177">
        <ele>385.8</ele>
        <time>2011-11-11T10:39:45Z</time>
      </trkpt>
      <trkpt lat="45.85311" lon="4.8177">
        <ele>386.4</ele>
        <time>2011-11-11T10:39:47Z</time>
      </trkpt>
      <trkpt lat="45.85317" lon="4.81772">
        <ele>386.6</ele>
        <time>2011-11-11T10:39:52Z</time>
      </trkpt>
      <trkpt lat="45.85326" lon="4.81775">
        <ele>387.2</ele>
        <time>2011-11-11T10:39:57Z</time>
      </trkpt>
      <trkpt lat="45.85328" lon="4.81774">
        <ele>387.4</ele>
        <time>2011-11-11T10:39:58Z</time>
      </trkpt>
      <trkpt lat="45.85329" lon="4.81774">
        <ele>387.6</ele>
        <time>2011-11-11T10:39:59Z</time>
      </trkpt>
      <trkpt lat="45.85338" lon="4.81779">
        <ele>388.8</ele>
        <time>2011-11-11T10:40:04Z</time>
      </trkpt>
      <trkpt lat="45.85344" lon="4.81784">
        <ele>389.8</ele>
        <time>2011-11-11T10:40:07Z</time>
      </trkpt>
      <trkpt lat="45.85349" lon="4.81787">
        <ele>390.8</ele>
        <time>2011-11-11T10:40:10Z</time>
      </trkpt>
      <trkpt lat="45.85356" lon="4.81791">
        <ele>392</ele>
        <time>2011-11-11T10:40:14Z</time>
      </trkpt>
      <trkpt lat="45.85361" lon="4.81794">
        <ele>393.2</ele>
        <time>2011-11-11T10:40:17Z</time>
      </trkpt>
      <trkpt lat="45.85367" lon="4.81797">
        <ele>394</ele>
        <time>2011-11-11T10:40:20Z</time>
      </trkpt>
      <trkpt lat="45.85378" lon="4.81799">
        <ele>395.8</ele>
        <time>2011-11-11T10:40:26Z</time>
      </trkpt>
      <trkpt lat="45.8538" lon="4.818">
        <ele>396</ele>
        <time>2011-11-11T10:40:27Z</time>
      </trkpt>
      <trkpt lat="45.85385" lon="4.81799">
        <ele>397.2</ele>
        <time>2011-11-11T10:40:31Z</time>
      </trkpt>
      <trkpt lat="45.85394" lon="4.81798">
        <ele>398.2</ele>
        <time>2011-11-11T10:40:36Z</time>
      </trkpt>
      <trkpt lat="45.85397" lon="4.81798">
        <ele>398.6</ele>
        <time>2011-11-11T10:40:38Z</time>
      </trkpt>
      <trkpt lat="45.85407" lon="4.81797">
        <ele>399.8</ele>
        <time>2011-11-11T10:40:42Z</time>
      </trkpt>
      <trkpt lat="45.85411" lon="4.81796">
        <ele>400.4</ele>
        <time>2011-11-11T10:40:44Z</time>
      </trkpt>
      <trkpt lat="45.85416" lon="4.81794">
        <ele>401.2</ele>
        <time>2011-11-11T10:40:47Z</time>
      </trkpt>
      <trkpt lat="45.85422" lon="4.81792">
        <ele>401.4</ele>
        <time>2011-11-11T10:40:50Z</time>
      </trkpt>
      <trkpt lat="45.85426" lon="4.81791">
        <ele>402</ele>
        <time>2011-11-11T10:40:52Z</time>
      </trkpt>
      <trkpt lat="45.85434" lon="4.81787">
        <ele>402.8</ele>
        <time>2011-11-11T10:40:56Z</time>
      </trkpt>
      <trkpt lat="45.85437" lon="4.81786">
        <ele>403.6</ele>
        <time>2011-11-11T10:40:58Z</time>
      </trkpt>
      <trkpt lat="45.85449" lon="4.81783">
        <ele>405.6</ele>
        <time>2011-11-11T10:41:04Z</time>
      </trkpt>
      <trkpt lat="45.85449" lon="4.81782">
        <ele>405.8</ele>
        <time>2011-11-11T10:41:05Z</time>
      </trkpt>
      <trkpt lat="45.85453" lon="4.81781">
        <ele>406.4</ele>
        <time>2011-11-11T10:41:07Z</time>
      </trkpt>
      <trkpt lat="45.85458" lon="4.81779">
        <ele>406.6</ele>
        <time>2011-11-11T10:41:09Z</time>
      </trkpt>
      <trkpt lat="45.85468" lon="4.81776">
        <ele>407.6</ele>
        <time>2011-11-11T10:41:13Z</time>
      </trkpt>
      <trkpt lat="45.8547" lon="4.81773">
        <ele>408</ele>
        <time>2011-11-11T10:41:15Z</time>
      </trkpt>
      <trkpt lat="45.85473" lon="4.81773">
        <ele>408.2</ele>
        <time>2011-11-11T10:41:16Z</time>
      </trkpt>
      <trkpt lat="45.8548" lon="4.81773">
        <ele>408.2</ele>
        <time>2011-11-11T10:41:20Z</time>
      </trkpt>
      <trkpt lat="45.85487" lon="4.81776">
        <ele>408.4</ele>
        <time>2011-11-11T10:41:24Z</time>
      </trkpt>
      <trkpt lat="45.85492" lon="4.81776">
        <ele>408.6</ele>
        <time>2011-11-11T10:41:26Z</time>
      </trkpt>
      <trkpt lat="45.85497" lon="4.81773">
        <ele>409</ele>
        <time>2011-11-11T10:41:29Z</time>
      </trkpt>
      <trkpt lat="45.85508" lon="4.81772">
        <ele>409.6</ele>
        <time>2011-11-11T10:41:35Z</time>
      </trkpt>
      <trkpt lat="45.85511" lon="4.81771">
        <ele>409.8</ele>
        <time>2011-11-11T10:41:36Z</time>
      </trkpt>
      <trkpt lat="45.85521" lon="4.81769">
        <ele>410</ele>
        <time>2011-11-11T10:41:41Z</time>
      </trkpt>
      <trkpt lat="45.8553" lon="4.81769">
        <ele>410.4</ele>
        <time>2011-11-11T10:41:45Z</time>
      </trkpt>
      <trkpt lat="45.85532" lon="4.81767">
        <ele>410.4</ele>
        <time>2011-11-11T10:41:46Z</time>
      </trkpt>
      <trkpt lat="45.85544" lon="4.81752">
        <ele>410.6</ele>
        <time>2011-11-11T10:41:54Z</time>
      </trkpt>
      <trkpt lat="45.8555" lon="4.81733">
        <ele>410.6</ele>
        <time>2011-11-11T10:42:01Z</time>
      </trkpt>
      <trkpt lat="45.8555" lon="4.81727">
        <ele>410.8</ele>
        <time>2011-11-11T10:42:03Z</time>
      </trkpt>
      <trkpt lat="45.85548" lon="4.81718">
        <ele>410.8</ele>
        <time>2011-11-11T10:42:06Z</time>
      </trkpt>
      <trkpt lat="45.85543" lon="4.81702">
        <ele>411.2</ele>
        <time>2011-11-11T10:42:12Z</time>
      </trkpt>
      <trkpt lat="45.85542" lon="4.81699">
        <ele>411.2</ele>
        <time>2011-11-11T10:42:13Z</time>
      </trkpt>
      <trkpt lat="45.85536" lon="4.81679">
        <ele>411.8</ele>
        <time>2011-11-11T10:42:21Z</time>
      </trkpt>
      <trkpt lat="45.85535" lon="4.81676">
        <ele>412</ele>
        <time>2011-11-11T10:42:22Z</time>
      </trkpt>
      <trkpt lat="45.85533" lon="4.81663">
        <ele>412.4</ele>
        <time>2011-11-11T10:42:27Z</time>
      </trkpt>
      <trkpt lat="45.85531" lon="4.81649">
        <ele>413.2</ele>
        <time>2011-11-11T10:42:32Z</time>
      </trkpt>
      <trkpt lat="45.8553" lon="4.81644">
        <ele>413.4</ele>
        <time>2011-11-11T10:42:34Z</time>
      </trkpt>
      <trkpt lat="45.85526" lon="4.8163">
        <ele>415</ele>
        <time>2011-11-11T10:42:40Z</time>
      </trkpt>
      <trkpt lat="45.85524" lon="4.81622">
        <ele>415.6</ele>
        <time>2011-11-11T10:42:43Z</time>
      </trkpt>
      <trkpt lat="45.85523" lon="4.81618">
        <ele>415.8</ele>
        <time>2011-11-11T10:42:44Z</time>
      </trkpt>
      <trkpt lat="45.85517" lon="4.816">
        <ele>417.2</ele>
        <time>2011-11-11T10:42:50Z</time>
      </trkpt>
      <trkpt lat="45.85516" lon="4.81597">
        <ele>417.6</ele>
        <time>2011-11-11T10:42:51Z</time>
      </trkpt>
      <trkpt lat="45.85512" lon="4.81584">
        <ele>418.8</ele>
        <time>2011-11-11T10:42:56Z</time>
      </trkpt>
      <trkpt lat="45.85508" lon="4.81572">
        <ele>419.6</ele>
        <time>2011-11-11T10:43:00Z</time>
      </trkpt>
      <trkpt lat="45.85506" lon="4.81566">
        <ele>420</ele>
        <time>2011-11-11T10:43:02Z</time>
      </trkpt>
      <trkpt lat="45.85501" lon="4.81548">
        <ele>420.8</ele>
        <time>2011-11-11T10:43:08Z</time>
      </trkpt>
      <trkpt lat="45.85497" lon="4.8153">
        <ele>421.8</ele>
        <time>2011-11-11T10:43:16Z</time>
      </trkpt>
      <trkpt lat="45.85495" lon="4.81523">
        <ele>422.4</ele>
        <time>2011-11-11T10:43:19Z</time>
      </trkpt>
      <trkpt lat="45.85494" lon="4.81518">
        <ele>422.6</ele>
        <time>2011-11-11T10:43:21Z</time>
      </trkpt>
      <trkpt lat="45.85492" lon="4.8151">
        <ele>423.2</ele>
        <time>2011-11-11T10:43:24Z</time>
      </trkpt>
      <trkpt lat="45.8549" lon="4.81503">
        <ele>423.8</ele>
        <time>2011-11-11T10:43:27Z</time>
      </trkpt>
      <trkpt lat="45.85488" lon="4.81498">
        <ele>424</ele>
        <time>2011-11-11T10:43:29Z</time>
      </trkpt>
      <trkpt lat="45.85488" lon="4.81494">
        <ele>424.4</ele>
        <time>2011-11-11T10:43:31Z</time>
      </trkpt>
      <trkpt lat="45.85487" lon="4.81491">
        <ele>424.8</ele>
        <time>2011-11-11T10:43:32Z</time>
      </trkpt>
      <trkpt lat="45.85483" lon="4.81473">
        <ele>426</ele>
        <time>2011-11-11T10:43:39Z</time>
      </trkpt>
      <trkpt lat="45.85478" lon="4.81454">
        <ele>427</ele>
        <time>2011-11-11T10:43:46Z</time>
      </trkpt>
      <trkpt lat="45.85477" lon="4.81449">
        <ele>427.2</ele>
        <time>2011-11-11T10:43:48Z</time>
      </trkpt>
      <trkpt lat="45.85476" lon="4.81441">
        <ele>427.8</ele>
        <time>2011-11-11T10:43:51Z</time>
      </trkpt>
      <trkpt lat="45.85474" lon="4.81422">
        <ele>429</ele>
        <time>2011-11-11T10:43:57Z</time>
      </trkpt>
      <trkpt lat="45.85472" lon="4.81405">
        <ele>430.2</ele>
        <time>2011-11-11T10:44:03Z</time>
      </trkpt>
      <trkpt lat="45.85471" lon="4.81393">
        <ele>430.8</ele>
        <time>2011-11-11T10:44:07Z</time>
      </trkpt>
      <trkpt lat="45.85471" lon="4.81391">
        <ele>430.6</ele>
        <time>2011-11-11T10:44:08Z</time>
      </trkpt>
      <trkpt lat="45.85471" lon="4.81372">
        <ele>431</ele>
        <time>2011-11-11T10:44:14Z</time>
      </trkpt>
      <trkpt lat="45.85473" lon="4.81366">
        <ele>431</ele>
        <time>2011-11-11T10:44:16Z</time>
      </trkpt>
      <trkpt lat="45.85471" lon="4.81355">
        <ele>431.2</ele>
        <time>2011-11-11T10:44:19Z</time>
      </trkpt>
      <trkpt lat="45.85475" lon="4.8134">
        <ele>432</ele>
        <time>2011-11-11T10:44:24Z</time>
      </trkpt>
      <trkpt lat="45.85483" lon="4.81325">
        <ele>432.4</ele>
        <time>2011-11-11T10:44:30Z</time>
      </trkpt>
      <trkpt lat="45.85487" lon="4.81321">
        <ele>432.4</ele>
        <time>2011-11-11T10:44:32Z</time>
      </trkpt>
      <trkpt lat="45.85493" lon="4.81312">
        <ele>432.8</ele>
        <time>2011-11-11T10:44:36Z</time>
      </trkpt>
      <trkpt lat="45.85502" lon="4.81305">
        <ele>432.6</ele>
        <time>2011-11-11T10:44:40Z</time>
      </trkpt>
      <trkpt lat="45.85504" lon="4.81301">
        <ele>432.6</ele>
        <time>2011-11-11T10:44:42Z</time>
      </trkpt>
      <trkpt lat="45.85506" lon="4.81299">
        <ele>432.8</ele>
        <time>2011-11-11T10:44:44Z</time>
      </trkpt>
      <trkpt lat="45.85511" lon="4.81295">
        <ele>432.8</ele>
        <time>2011-11-11T10:44:48Z</time>
      </trkpt>
      <trkpt lat="45.8551" lon="4.81287">
        <ele>432.8</ele>
        <time>2011-11-11T10:44:54Z</time>
      </trkpt>
      <trkpt lat="45.85511" lon="4.81282">
        <ele>432.8</ele>
        <time>2011-11-11T10:44:57Z</time>
      </trkpt>
      <trkpt lat="45.85511" lon="4.8128">
        <ele>432.8</ele>
        <time>2011-11-11T10:44:58Z</time>
      </trkpt>
      <trkpt lat="45.85511" lon="4.81281">
        <ele>432.8</ele>
        <time>2011-11-11T10:44:59Z</time>
      </trkpt>
      <trkpt lat="45.85509" lon="4.81279">
        <ele>430.8</ele>
        <time>2011-11-11T10:46:00Z</time>
      </trkpt>
      <trkpt lat="45.85508" lon="4.81274">
        <ele>430.8</ele>
        <time>2011-11-11T10:46:07Z</time>
      </trkpt>
      <trkpt lat="45.85508" lon="4.81276">
        <ele>431.2</ele>
        <time>2011-11-11T10:46:15Z</time>
      </trkpt>
      <trkpt lat="45.85509" lon="4.81277">
        <ele>431.8</ele>
        <time>2011-11-11T10:46:24Z</time>
      </trkpt>
      <trkpt lat="45.85507" lon="4.81274">
        <ele>432.8</ele>
        <time>2011-11-11T10:46:46Z</time>
      </trkpt>
      <trkpt lat="45.85507" lon="4.81272">
        <ele>432.8</ele>
        <time>2011-11-11T10:46:48Z</time>
      </trkpt>
      <trkpt lat="45.85507" lon="4.81271">
        <ele>432.8</ele>
        <time>2011-11-11T10:46:51Z</time>
      </trkpt>
      <trkpt lat="45.85502" lon="4.81268">
        <ele>432.8</ele>
        <time>2011-11-11T10:46:58Z</time>
      </trkpt>
      <trkpt lat="45.85495" lon="4.8126">
        <ele>433.2</ele>
        <time>2011-11-11T10:47:04Z</time>
      </trkpt>
      <trkpt lat="45.85494" lon="4.81258">
        <ele>433.2</ele>
        <time>2011-11-11T10:47:05Z</time>
      </trkpt>
      <trkpt lat="45.85493" lon="4.81256">
        <ele>433.2</ele>
        <time>2011-11-11T10:47:06Z</time>
      </trkpt>
      <trkpt lat="45.85489" lon="4.81251">
        <ele>433.4</ele>
        <time>2011-11-11T10:47:09Z</time>
      </trkpt>
      <trkpt lat="45.85485" lon="4.81244">
        <ele>433.2</ele>
        <time>2011-11-11T10:47:13Z</time>
      </trkpt>
      <trkpt lat="45.85479" lon="4.81236">
        <ele>433</ele>
        <time>2011-11-11T10:47:17Z</time>
      </trkpt>
      <trkpt lat="45.8547" lon="4.81225">
        <ele>432.6</ele>
        <time>2011-11-11T10:47:23Z</time>
      </trkpt>
      <trkpt lat="45.85466" lon="4.81219">
        <ele>432.4</ele>
        <time>2011-11-11T10:47:25Z</time>
      </trkpt>
      <trkpt lat="45.85461" lon="4.81211">
        <ele>432.2</ele>
        <time>2011-11-11T10:47:27Z</time>
      </trkpt>
      <trkpt lat="45.85452" lon="4.81197">
        <ele>432</ele>
        <time>2011-11-11T10:47:31Z</time>
      </trkpt>
      <trkpt lat="45.85443" lon="4.81181">
        <ele>431.8</ele>
        <time>2011-11-11T10:47:36Z</time>
      </trkpt>
      <trkpt lat="45.85439" lon="4.81176">
        <ele>431.8</ele>
        <time>2011-11-11T10:47:38Z</time>
      </trkpt>
      <trkpt lat="45.85437" lon="4.81171">
        <ele>431.8</ele>
        <time>2011-11-11T10:47:40Z</time>
      </trkpt>
      <trkpt lat="45.8543" lon="4.81154">
        <ele>431.8</ele>
        <time>2011-11-11T10:47:45Z</time>
      </trkpt>
      <trkpt lat="45.85428" lon="4.81151">
        <ele>431.6</ele>
        <time>2011-11-11T10:47:46Z</time>
      </trkpt>
      <trkpt lat="45.85419" lon="4.81136">
        <ele>431.4</ele>
        <time>2011-11-11T10:47:51Z</time>
      </trkpt>
      <trkpt lat="45.85418" lon="4.81134">
        <ele>431.4</ele>
        <time>2011-11-11T10:47:52Z</time>
      </trkpt>
      <trkpt lat="45.85413" lon="4.81124">
        <ele>431</ele>
        <time>2011-11-11T10:47:56Z</time>
      </trkpt>
      <trkpt lat="45.85407" lon="4.81113">
        <ele>430.2</ele>
        <time>2011-11-11T10:48:01Z</time>
      </trkpt>
      <trkpt lat="45.85406" lon="4.81111">
        <ele>430</ele>
        <time>2011-11-11T10:48:02Z</time>
      </trkpt>
      <trkpt lat="45.854" lon="4.81102">
        <ele>429.4</ele>
        <time>2011-11-11T10:48:06Z</time>
      </trkpt>
      <trkpt lat="45.85394" lon="4.81092">
        <ele>428.6</ele>
        <time>2011-11-11T10:48:10Z</time>
      </trkpt>
      <trkpt lat="45.85393" lon="4.81088">
        <ele>428.4</ele>
        <time>2011-11-11T10:48:11Z</time>
      </trkpt>
      <trkpt lat="45.85389" lon="4.81072">
        <ele>427</ele>
        <time>2011-11-11T10:48:16Z</time>
      </trkpt>
      <trkpt lat="45.85387" lon="4.81068">
        <ele>426.8</ele>
        <time>2011-11-11T10:48:17Z</time>
      </trkpt>
      <trkpt lat="45.85383" lon="4.81058">
        <ele>426.2</ele>
        <time>2011-11-11T10:48:20Z</time>
      </trkpt>
      <trkpt lat="45.85378" lon="4.81045">
        <ele>425.4</ele>
        <time>2011-11-11T10:48:23Z</time>
      </trkpt>
      <trkpt lat="45.85377" lon="4.81038">
        <ele>424.8</ele>
        <time>2011-11-11T10:48:25Z</time>
      </trkpt>
      <trkpt lat="45.85377" lon="4.81029">
        <ele>423.4</ele>
        <time>2011-11-11T10:48:29Z</time>
      </trkpt>
      <trkpt lat="45.85374" lon="4.81017">
        <ele>422.6</ele>
        <time>2011-11-11T10:48:32Z</time>
      </trkpt>
      <trkpt lat="45.85374" lon="4.81015">
        <ele>422.2</ele>
        <time>2011-11-11T10:48:33Z</time>
      </trkpt>
      <trkpt lat="45.85373" lon="4.80993">
        <ele>420.6</ele>
        <time>2011-11-11T10:48:38Z</time>
      </trkpt>
      <trkpt lat="45.85373" lon="4.8099">
        <ele>420.2</ele>
        <time>2011-11-11T10:48:39Z</time>
      </trkpt>
      <trkpt lat="45.85368" lon="4.80977">
        <ele>418.8</ele>
        <time>2011-11-11T10:48:43Z</time>
      </trkpt>
      <trkpt lat="45.85367" lon="4.80974">
        <ele>418.6</ele>
        <time>2011-11-11T10:48:44Z</time>
      </trkpt>
      <trkpt lat="45.85366" lon="4.80965">
        <ele>417.6</ele>
        <time>2011-11-11T10:48:47Z</time>
      </trkpt>
      <trkpt lat="45.85365" lon="4.80961">
        <ele>417.2</ele>
        <time>2011-11-11T10:48:48Z</time>
      </trkpt>
      <trkpt lat="45.85365" lon="4.80958">
        <ele>416.8</ele>
        <time>2011-11-11T10:48:49Z</time>
      </trkpt>
      <trkpt lat="45.85362" lon="4.80941">
        <ele>414.8</ele>
        <time>2011-11-11T10:48:54Z</time>
      </trkpt>
      <trkpt lat="45.85362" lon="4.80937">
        <ele>414.4</ele>
        <time>2011-11-11T10:48:55Z</time>
      </trkpt>
      <trkpt lat="45.85362" lon="4.80926">
        <ele>412.8</ele>
        <time>2011-11-11T10:48:59Z</time>
      </trkpt>
      <trkpt lat="45.85362" lon="4.80923">
        <ele>412.6</ele>
        <time>2011-11-11T10:49:00Z</time>
      </trkpt>
      <trkpt lat="45.85361" lon="4.80913">
        <ele>411</ele>
        <time>2011-11-11T10:49:04Z</time>
      </trkpt>
      <trkpt lat="45.85361" lon="4.80911">
        <ele>410.6</ele>
        <time>2011-11-11T10:49:05Z</time>
      </trkpt>
      <trkpt lat="45.85359" lon="4.809">
        <ele>409.2</ele>
        <time>2011-11-11T10:49:08Z</time>
      </trkpt>
      <trkpt lat="45.85355" lon="4.80888">
        <ele>408.2</ele>
        <time>2011-11-11T10:49:11Z</time>
      </trkpt>
      <trkpt lat="45.85354" lon="4.80885">
        <ele>407.8</ele>
        <time>2011-11-11T10:49:12Z</time>
      </trkpt>
      <trkpt lat="45.85353" lon="4.80882">
        <ele>407.4</ele>
        <time>2011-11-11T10:49:13Z</time>
      </trkpt>
      <trkpt lat="45.85352" lon="4.80879">
        <ele>407</ele>
        <time>2011-11-11T10:49:14Z</time>
      </trkpt>
      <trkpt lat="45.85352" lon="4.80871">
        <ele>405.8</ele>
        <time>2011-11-11T10:49:17Z</time>
      </trkpt>
      <trkpt lat="45.85351" lon="4.80858">
        <ele>404.2</ele>
        <time>2011-11-11T10:49:21Z</time>
      </trkpt>
      <trkpt lat="45.85353" lon="4.80851">
        <ele>403.4</ele>
        <time>2011-11-11T10:49:23Z</time>
      </trkpt>
      <trkpt lat="45.85358" lon="4.80849">
        <ele>402.4</ele>
        <time>2011-11-11T10:49:25Z</time>
      </trkpt>
      <trkpt lat="45.8536" lon="4.80842">
        <ele>401.8</ele>
        <time>2011-11-11T10:49:27Z</time>
      </trkpt>
      <trkpt lat="45.85361" lon="4.80838">
        <ele>401.4</ele>
        <time>2011-11-11T10:49:28Z</time>
      </trkpt>
      <trkpt lat="45.85361" lon="4.80825">
        <ele>399.8</ele>
        <time>2011-11-11T10:49:32Z</time>
      </trkpt>
      <trkpt lat="45.85362" lon="4.80823">
        <ele>399</ele>
        <time>2011-11-11T10:49:34Z</time>
      </trkpt>
      <trkpt lat="45.85363" lon="4.80821">
        <ele>398.6</ele>
        <time>2011-11-11T10:49:35Z</time>
      </trkpt>
      <trkpt lat="45.85366" lon="4.80812">
        <ele>397.2</ele>
        <time>2011-11-11T10:49:38Z</time>
      </trkpt>
      <trkpt lat="45.8537" lon="4.80805">
        <ele>396</ele>
        <time>2011-11-11T10:49:41Z</time>
      </trkpt>
      <trkpt lat="45.85371" lon="4.80801">
        <ele>395.6</ele>
        <time>2011-11-11T10:49:42Z</time>
      </trkpt>
      <trkpt lat="45.85376" lon="4.80796">
        <ele>394.4</ele>
        <time>2011-11-11T10:49:45Z</time>
      </trkpt>
      <trkpt lat="45.85379" lon="4.80794">
        <ele>394</ele>
        <time>2011-11-11T10:49:46Z</time>
      </trkpt>
      <trkpt lat="45.85382" lon="4.80793">
        <ele>393.6</ele>
        <time>2011-11-11T10:49:47Z</time>
      </trkpt>
      <trkpt lat="45.85389" lon="4.80786">
        <ele>392.6</ele>
        <time>2011-11-11T10:49:50Z</time>
      </trkpt>
      <trkpt lat="45.85395" lon="4.80773">
        <ele>391</ele>
        <time>2011-11-11T10:49:54Z</time>
      </trkpt>
      <trkpt lat="45.85397" lon="4.80771">
        <ele>390.4</ele>
        <time>2011-11-11T10:49:55Z</time>
      </trkpt>
      <trkpt lat="45.85408" lon="4.80761">
        <ele>388.4</ele>
        <time>2011-11-11T10:50:00Z</time>
      </trkpt>
      <trkpt lat="45.85411" lon="4.80761">
        <ele>388</ele>
        <time>2011-11-11T10:50:01Z</time>
      </trkpt>
      <trkpt lat="45.85425" lon="4.80759">
        <ele>386</ele>
        <time>2011-11-11T10:50:05Z</time>
      </trkpt>
      <trkpt lat="45.8543" lon="4.80757">
        <ele>385.2</ele>
        <time>2011-11-11T10:50:07Z</time>
      </trkpt>
      <trkpt lat="45.85434" lon="4.80756">
        <ele>384.2</ele>
        <time>2011-11-11T10:50:09Z</time>
      </trkpt>
      <trkpt lat="45.85447" lon="4.80755">
        <ele>381.4</ele>
        <time>2011-11-11T10:50:15Z</time>
      </trkpt>
      <trkpt lat="45.8545" lon="4.80753">
        <ele>380.2</ele>
        <time>2011-11-11T10:50:17Z</time>
      </trkpt>
      <trkpt lat="45.85456" lon="4.8075">
        <ele>379.2</ele>
        <time>2011-11-11T10:50:19Z</time>
      </trkpt>
      <trkpt lat="45.85464" lon="4.80743">
        <ele>377.6</ele>
        <time>2011-11-11T10:50:22Z</time>
      </trkpt>
      <trkpt lat="45.85465" lon="4.80741">
        <ele>377.2</ele>
        <time>2011-11-11T10:50:23Z</time>
      </trkpt>
      <trkpt lat="45.85467" lon="4.8074">
        <ele>376.6</ele>
        <time>2011-11-11T10:50:24Z</time>
      </trkpt>
      <trkpt lat="45.8547" lon="4.80736">
        <ele>375.6</ele>
        <time>2011-11-11T10:50:26Z</time>
      </trkpt>
      <trkpt lat="45.85472" lon="4.80735">
        <ele>375</ele>
        <time>2011-11-11T10:50:27Z</time>
      </trkpt>
      <trkpt lat="45.85474" lon="4.80734">
        <ele>374.6</ele>
        <time>2011-11-11T10:50:28Z</time>
      </trkpt>
      <trkpt lat="45.85482" lon="4.80732">
        <ele>372.6</ele>
        <time>2011-11-11T10:50:32Z</time>
      </trkpt>
      <trkpt lat="45.85485" lon="4.80731">
        <ele>371.6</ele>
        <time>2011-11-11T10:50:34Z</time>
      </trkpt>
      <trkpt lat="45.85486" lon="4.80731">
        <ele>370.6</ele>
        <time>2011-11-11T10:50:36Z</time>
      </trkpt>
      <trkpt lat="45.85495" lon="4.80739">
        <ele>367.8</ele>
        <time>2011-11-11T10:50:42Z</time>
      </trkpt>
      <trkpt lat="45.855" lon="4.80743">
        <ele>366.6</ele>
        <time>2011-11-11T10:50:44Z</time>
      </trkpt>
      <trkpt lat="45.85503" lon="4.80744">
        <ele>365.8</ele>
        <time>2011-11-11T10:50:46Z</time>
      </trkpt>
      <trkpt lat="45.85505" lon="4.80744">
        <ele>365.2</ele>
        <time>2011-11-11T10:50:47Z</time>
      </trkpt>
      <trkpt lat="45.855" lon="4.8074">
        <ele>364.4</ele>
        <time>2011-11-11T10:50:49Z</time>
      </trkpt>
      <trkpt lat="45.85494" lon="4.80737">
        <ele>364</ele>
        <time>2011-11-11T10:50:50Z</time>
      </trkpt>
      <trkpt lat="45.85492" lon="4.80735">
        <ele>363.4</ele>
        <time>2011-11-11T10:50:51Z</time>
      </trkpt>
      <trkpt lat="45.85482" lon="4.8073">
        <ele>361.6</ele>
        <time>2011-11-11T10:50:55Z</time>
      </trkpt>
      <trkpt lat="45.85479" lon="4.80723">
        <ele>358.8</ele>
        <time>2011-11-11T10:51:00Z</time>
      </trkpt>
      <trkpt lat="45.85478" lon="4.80719">
        <ele>358.4</ele>
        <time>2011-11-11T10:51:01Z</time>
      </trkpt>
      <trkpt lat="45.85481" lon="4.80706">
        <ele>356.2</ele>
        <time>2011-11-11T10:51:05Z</time>
      </trkpt>
      <trkpt lat="45.85486" lon="4.80697">
        <ele>354.2</ele>
        <time>2011-11-11T10:51:09Z</time>
      </trkpt>
      <trkpt lat="45.85487" lon="4.80695">
        <ele>353.8</ele>
        <time>2011-11-11T10:51:10Z</time>
      </trkpt>
      <trkpt lat="45.8549" lon="4.80694">
        <ele>353.4</ele>
        <time>2011-11-11T10:51:11Z</time>
      </trkpt>
      <trkpt lat="45.85497" lon="4.80693">
        <ele>351.8</ele>
        <time>2011-11-11T10:51:14Z</time>
      </trkpt>
      <trkpt lat="45.85503" lon="4.80694">
        <ele>350.4</ele>
        <time>2011-11-11T10:51:17Z</time>
      </trkpt>
      <trkpt lat="45.85504" lon="4.80691">
        <ele>349.8</ele>
        <time>2011-11-11T10:51:18Z</time>
      </trkpt>
      <trkpt lat="45.85502" lon="4.8068">
        <ele>349</ele>
        <time>2011-11-11T10:51:21Z</time>
      </trkpt>
      <trkpt lat="45.85501" lon="4.80675">
        <ele>348.6</ele>
        <time>2011-11-11T10:51:22Z</time>
      </trkpt>
      <trkpt lat="45.85499" lon="4.8067">
        <ele>348.2</ele>
        <time>2011-11-11T10:51:23Z</time>
      </trkpt>
      <trkpt lat="45.85497" lon="4.80657">
        <ele>347</ele>
        <time>2011-11-11T10:51:27Z</time>
      </trkpt>
      <trkpt lat="45.85498" lon="4.80649">
        <ele>346</ele>
        <time>2011-11-11T10:51:30Z</time>
      </trkpt>
      <trkpt lat="45.85499" lon="4.80648">
        <ele>345.8</ele>
        <time>2011-11-11T10:51:31Z</time>
      </trkpt>
      <trkpt lat="45.85502" lon="4.80648">
        <ele>345.4</ele>
        <time>2011-11-11T10:51:32Z</time>
      </trkpt>
      <trkpt lat="45.8551" lon="4.80649">
        <ele>344.4</ele>
        <time>2011-11-11T10:51:35Z</time>
      </trkpt>
      <trkpt lat="45.85516" lon="4.80649">
        <ele>343.6</ele>
        <time>2011-11-11T10:51:37Z</time>
      </trkpt>
      <trkpt lat="45.85522" lon="4.8065">
        <ele>343</ele>
        <time>2011-11-11T10:51:39Z</time>
      </trkpt>
      <trkpt lat="45.85525" lon="4.80651">
        <ele>342.6</ele>
        <time>2011-11-11T10:51:40Z</time>
      </trkpt>
      <trkpt lat="45.85538" lon="4.80648">
        <ele>341</ele>
        <time>2011-11-11T10:51:45Z</time>
      </trkpt>
      <trkpt lat="45.85541" lon="4.80648">
        <ele>340.6</ele>
        <time>2011-11-11T10:51:46Z</time>
      </trkpt>
      <trkpt lat="45.85551" lon="4.80649">
        <ele>339.4</ele>
        <time>2011-11-11T10:51:50Z</time>
      </trkpt>
      <trkpt lat="45.8556" lon="4.80651">
        <ele>338.2</ele>
        <time>2011-11-11T10:51:53Z</time>
      </trkpt>
      <trkpt lat="45.85565" lon="4.80652">
        <ele>337.6</ele>
        <time>2011-11-11T10:51:55Z</time>
      </trkpt>
      <trkpt lat="45.85573" lon="4.80643">
        <ele>336.2</ele>
        <time>2011-11-11T10:51:59Z</time>
      </trkpt>
      <trkpt lat="45.85576" lon="4.80638">
        <ele>335.6</ele>
        <time>2011-11-11T10:52:01Z</time>
      </trkpt>
      <trkpt lat="45.85577" lon="4.80623">
        <ele>334</ele>
        <time>2011-11-11T10:52:05Z</time>
      </trkpt>
      <trkpt lat="45.85579" lon="4.80609">
        <ele>332.8</ele>
        <time>2011-11-11T10:52:09Z</time>
      </trkpt>
      <trkpt lat="45.85581" lon="4.806">
        <ele>331.6</ele>
        <time>2011-11-11T10:52:12Z</time>
      </trkpt>
      <trkpt lat="45.85585" lon="4.80584">
        <ele>330.4</ele>
        <time>2011-11-11T10:52:17Z</time>
      </trkpt>
      <trkpt lat="45.85589" lon="4.80573">
        <ele>329.2</ele>
        <time>2011-11-11T10:52:21Z</time>
      </trkpt>
      <trkpt lat="45.85591" lon="4.80571">
        <ele>328.8</ele>
        <time>2011-11-11T10:52:22Z</time>
      </trkpt>
      <trkpt lat="45.85597" lon="4.80568">
        <ele>328</ele>
        <time>2011-11-11T10:52:25Z</time>
      </trkpt>
      <trkpt lat="45.856" lon="4.80567">
        <ele>327.8</ele>
        <time>2011-11-11T10:52:26Z</time>
      </trkpt>
      <trkpt lat="45.85612" lon="4.80561">
        <ele>326.2</ele>
        <time>2011-11-11T10:52:33Z</time>
      </trkpt>
      <trkpt lat="45.85612" lon="4.8056">
        <ele>326</ele>
        <time>2011-11-11T10:52:34Z</time>
      </trkpt>
      <trkpt lat="45.85615" lon="4.80558">
        <ele>325.4</ele>
        <time>2011-11-11T10:52:37Z</time>
      </trkpt>
      <trkpt lat="45.85617" lon="4.80558">
        <ele>325.2</ele>
        <time>2011-11-11T10:52:38Z</time>
      </trkpt>
      <trkpt lat="45.85618" lon="4.80556">
        <ele>324.8</ele>
        <time>2011-11-11T10:52:41Z</time>
      </trkpt>
      <trkpt lat="45.85624" lon="4.80556">
        <ele>324.2</ele>
        <time>2011-11-11T10:52:44Z</time>
      </trkpt>
      <trkpt lat="45.85625" lon="4.80556">
        <ele>324</ele>
        <time>2011-11-11T10:52:45Z</time>
      </trkpt>
      <trkpt lat="45.85627" lon="4.80558">
        <ele>323.4</ele>
        <time>2011-11-11T10:52:50Z</time>
      </trkpt>
      <trkpt lat="45.85629" lon="4.8056">
        <ele>322.8</ele>
        <time>2011-11-11T10:52:54Z</time>
      </trkpt>
      <trkpt lat="45.85633" lon="4.80561">
        <ele>322.2</ele>
        <time>2011-11-11T10:52:59Z</time>
      </trkpt>
      <trkpt lat="45.85638" lon="4.80559">
        <ele>321.4</ele>
        <time>2011-11-11T10:53:04Z</time>
      </trkpt>
      <trkpt lat="45.8564" lon="4.80559">
        <ele>321.4</ele>
        <time>2011-11-11T10:53:05Z</time>
      </trkpt>
      <trkpt lat="45.85641" lon="4.80558">
        <ele>321.2</ele>
        <time>2011-11-11T10:53:07Z</time>
      </trkpt>
      <trkpt lat="45.85642" lon="4.80555">
        <ele>321.2</ele>
        <time>2011-11-11T10:53:11Z</time>
      </trkpt>
      <trkpt lat="45.85644" lon="4.80552">
        <ele>321</ele>
        <time>2011-11-11T10:53:15Z</time>
      </trkpt>
      <trkpt lat="45.85645" lon="4.8055">
        <ele>321</ele>
        <time>2011-11-11T10:53:16Z</time>
      </trkpt>
      <trkpt lat="45.85646" lon="4.80545">
        <ele>321</ele>
        <time>2011-11-11T10:53:19Z</time>
      </trkpt>
      <trkpt lat="45.85648" lon="4.80541">
        <ele>321</ele>
        <time>2011-11-11T10:53:23Z</time>
      </trkpt>
      <trkpt lat="45.85647" lon="4.80534">
        <ele>321.6</ele>
        <time>2011-11-11T10:53:29Z</time>
      </trkpt>
      <trkpt lat="45.85647" lon="4.80533">
        <ele>321.8</ele>
        <time>2011-11-11T10:53:30Z</time>
      </trkpt>
      <trkpt lat="45.85646" lon="4.80529">
        <ele>322.2</ele>
        <time>2011-11-11T10:53:34Z</time>
      </trkpt>
      <trkpt lat="45.85647" lon="4.80526">
        <ele>322.4</ele>
        <time>2011-11-11T10:53:36Z</time>
      </trkpt>
      <trkpt lat="45.85647" lon="4.80525">
        <ele>322.8</ele>
        <time>2011-11-11T10:53:37Z</time>
      </trkpt>
      <trkpt lat="45.85643" lon="4.80517">
        <ele>323.2</ele>
        <time>2011-11-11T10:53:43Z</time>
      </trkpt>
      <trkpt lat="45.85641" lon="4.80508">
        <ele>323</ele>
        <time>2011-11-11T10:53:48Z</time>
      </trkpt>
      <trkpt lat="45.8564" lon="4.80503">
        <ele>322.6</ele>
        <time>2011-11-11T10:53:52Z</time>
      </trkpt>
      <trkpt lat="45.85639" lon="4.80502">
        <ele>322.6</ele>
        <time>2011-11-11T10:53:53Z</time>
      </trkpt>
      <trkpt lat="45.85638" lon="4.80492">
        <ele>322.2</ele>
        <time>2011-11-11T10:54:00Z</time>
      </trkpt>
      <trkpt lat="45.85639" lon="4.80484">
        <ele>322</ele>
        <time>2011-11-11T10:54:05Z</time>
      </trkpt>
      <trkpt lat="45.85641" lon="4.80482">
        <ele>322.2</ele>
        <time>2011-11-11T10:54:08Z</time>
      </trkpt>
      <trkpt lat="45.85644" lon="4.80481">
        <ele>322.2</ele>
        <time>2011-11-11T10:54:11Z</time>
      </trkpt>
      <trkpt lat="45.85643" lon="4.80485">
        <ele>323.2</ele>
        <time>2011-11-11T10:54:26Z</time>
      </trkpt>
      <trkpt lat="45.85642" lon="4.80481">
        <ele>323</ele>
        <time>2011-11-11T10:54:28Z</time>
      </trkpt>
      <trkpt lat="45.85645" lon="4.80476">
        <ele>322.8</ele>
        <time>2011-11-11T10:54:33Z</time>
      </trkpt>
      <trkpt lat="45.85645" lon="4.80469">
        <ele>322.6</ele>
        <time>2011-11-11T10:54:38Z</time>
      </trkpt>
      <trkpt lat="45.85646" lon="4.80463">
        <ele>322.4</ele>
        <time>2011-11-11T10:54:45Z</time>
      </trkpt>
      <trkpt lat="45.85647" lon="4.80462">
        <ele>322.4</ele>
        <time>2011-11-11T10:54:46Z</time>
      </trkpt>
      <trkpt lat="45.85646" lon="4.80454">
        <ele>322.4</ele>
        <time>2011-11-11T10:54:52Z</time>
      </trkpt>
      <trkpt lat="45.85648" lon="4.80453">
        <ele>322.6</ele>
        <time>2011-11-11T10:54:56Z</time>
      </trkpt>
      <trkpt lat="45.85654" lon="4.80453">
        <ele>323</ele>
        <time>2011-11-11T10:55:03Z</time>
      </trkpt>
      <trkpt lat="45.85656" lon="4.80454">
        <ele>323.2</ele>
        <time>2011-11-11T10:55:05Z</time>
      </trkpt>
      <trkpt lat="45.85654" lon="4.80434">
        <ele>323.4</ele>
        <time>2011-11-11T10:55:20Z</time>
      </trkpt>
      <trkpt lat="45.85654" lon="4.80432">
        <ele>323.6</ele>
        <time>2011-11-11T10:55:22Z</time>
      </trkpt>
      <trkpt lat="45.85656" lon="4.80431">
        <ele>323.8</ele>
        <time>2011-11-11T10:55:24Z</time>
      </trkpt>
      <trkpt lat="45.85656" lon="4.80431">
        <ele>324</ele>
        <time>2011-11-11T10:55:25Z</time>
      </trkpt>
      <trkpt lat="45.85658" lon="4.80428">
        <ele>326</ele>
        <time>2011-11-11T10:55:30Z</time>
      </trkpt>
      <trkpt lat="45.85656" lon="4.80422">
        <ele>327.4</ele>
        <time>2011-11-11T10:55:35Z</time>
      </trkpt>
      <trkpt lat="45.85657" lon="4.80418">
        <ele>328.4</ele>
        <time>2011-11-11T10:55:38Z</time>
      </trkpt>
      <trkpt lat="45.85658" lon="4.80408">
        <ele>331.2</ele>
        <time>2011-11-11T10:55:45Z</time>
      </trkpt>
      <trkpt lat="45.85657" lon="4.80404">
        <ele>331.2</ele>
        <time>2011-11-11T10:55:47Z</time>
      </trkpt>
      <trkpt lat="45.85656" lon="4.80396">
        <ele>332.2</ele>
        <time>2011-11-11T10:55:52Z</time>
      </trkpt>
      <trkpt lat="45.85654" lon="4.80391">
        <ele>332.8</ele>
        <time>2011-11-11T10:55:55Z</time>
      </trkpt>
      <trkpt lat="45.85654" lon="4.8039">
        <ele>333</ele>
        <time>2011-11-11T10:55:56Z</time>
      </trkpt>
      <trkpt lat="45.85654" lon="4.80379">
        <ele>333.8</ele>
        <time>2011-11-11T10:56:02Z</time>
      </trkpt>
      <trkpt lat="45.85653" lon="4.80377">
        <ele>333.8</ele>
        <time>2011-11-11T10:56:03Z</time>
      </trkpt>
      <trkpt lat="45.85652" lon="4.8037">
        <ele>333.8</ele>
        <time>2011-11-11T10:56:07Z</time>
      </trkpt>
      <trkpt lat="45.85654" lon="4.80359">
        <ele>334.4</ele>
        <time>2011-11-11T10:56:14Z</time>
      </trkpt>
      <trkpt lat="45.85655" lon="4.80358">
        <ele>334.4</ele>
        <time>2011-11-11T10:56:15Z</time>
      </trkpt>
      <trkpt lat="45.85654" lon="4.80356">
        <ele>334.4</ele>
        <time>2011-11-11T10:56:16Z</time>
      </trkpt>
      <trkpt lat="45.85653" lon="4.80353">
        <ele>334.4</ele>
        <time>2011-11-11T10:56:17Z</time>
      </trkpt>
      <trkpt lat="45.85652" lon="4.80348">
        <ele>334.4</ele>
        <time>2011-11-11T10:56:19Z</time>
      </trkpt>
      <trkpt lat="45.85652" lon="4.80345">
        <ele>334.6</ele>
        <time>2011-11-11T10:56:21Z</time>
      </trkpt>
      <trkpt lat="45.85655" lon="4.80342">
        <ele>334.6</ele>
        <time>2011-11-11T10:56:24Z</time>
      </trkpt>
      <trkpt lat="45.85656" lon="4.80342">
        <ele>334.8</ele>
        <time>2011-11-11T10:56:25Z</time>
      </trkpt>
      <trkpt lat="45.85659" lon="4.8034">
        <ele>335</ele>
        <time>2011-11-11T10:56:29Z</time>
      </trkpt>
      <trkpt lat="45.85662" lon="4.80338">
        <ele>335.4</ele>
        <time>2011-11-11T10:56:33Z</time>
      </trkpt>
      <trkpt lat="45.85664" lon="4.80337">
        <ele>335.8</ele>
        <time>2011-11-11T10:56:36Z</time>
      </trkpt>
      <trkpt lat="45.85664" lon="4.80336">
        <ele>335.8</ele>
        <time>2011-11-11T10:56:37Z</time>
      </trkpt>
      <trkpt lat="45.85667" lon="4.80333">
        <ele>337.2</ele>
        <time>2011-11-11T10:56:42Z</time>
      </trkpt>
      <trkpt lat="45.8567" lon="4.80331">
        <ele>339.6</ele>
        <time>2011-11-11T10:56:49Z</time>
      </trkpt>
      <trkpt lat="45.85671" lon="4.80329">
        <ele>341.6</ele>
        <time>2011-11-11T10:56:55Z</time>
      </trkpt>
      <trkpt lat="45.85673" lon="4.80327">
        <ele>343.6</ele>
        <time>2011-11-11T10:57:01Z</time>
      </trkpt>
      <trkpt lat="45.85674" lon="4.80323">
        <ele>346.2</ele>
        <time>2011-11-11T10:57:09Z</time>
      </trkpt>
      <trkpt lat="45.85675" lon="4.80321">
        <ele>347.4</ele>
        <time>2011-11-11T10:57:13Z</time>
      </trkpt>
      <trkpt lat="45.85677" lon="4.8032">
        <ele>348</ele>
        <time>2011-11-11T10:57:16Z</time>
      </trkpt>
      <trkpt lat="45.8568" lon="4.80316">
        <ele>349.6</ele>
        <time>2011-11-11T10:57:23Z</time>
      </trkpt>
      <trkpt lat="45.85683" lon="4.80313">
        <ele>350.8</ele>
        <time>2011-11-11T10:57:29Z</time>
      </trkpt>
      <trkpt lat="45.85685" lon="4.8031">
        <ele>352.4</ele>
        <time>2011-11-11T10:57:36Z</time>
      </trkpt>
      <trkpt lat="45.85688" lon="4.80308">
        <ele>353.6</ele>
        <time>2011-11-11T10:57:41Z</time>
      </trkpt>
      <trkpt lat="45.85689" lon="4.80306">
        <ele>354.8</ele>
        <time>2011-11-11T10:57:45Z</time>
      </trkpt>
      <trkpt lat="45.85689" lon="4.80306">
        <ele>355</ele>
        <time>2011-11-11T10:57:46Z</time>
      </trkpt>
      <trkpt lat="45.85694" lon="4.803">
        <ele>358</ele>
        <time>2011-11-11T10:57:56Z</time>
      </trkpt>
      <trkpt lat="45.857" lon="4.80296">
        <ele>360.4</ele>
        <time>2011-11-11T10:58:04Z</time>
      </trkpt>
      <trkpt lat="45.85702" lon="4.80291">
        <ele>361.6</ele>
        <time>2011-11-11T10:58:09Z</time>
      </trkpt>
      <trkpt lat="45.85702" lon="4.80288">
        <ele>362</ele>
        <time>2011-11-11T10:58:11Z</time>
      </trkpt>
      <trkpt lat="45.85703" lon="4.80287">
        <ele>362.6</ele>
        <time>2011-11-11T10:58:13Z</time>
      </trkpt>
      <trkpt lat="45.85705" lon="4.80282">
        <ele>363.8</ele>
        <time>2011-11-11T10:58:18Z</time>
      </trkpt>
      <trkpt lat="45.85705" lon="4.80281">
        <ele>364.2</ele>
        <time>2011-11-11T10:58:19Z</time>
      </trkpt>
      <trkpt lat="45.85705" lon="4.80273">
        <ele>366</ele>
        <time>2011-11-11T10:58:24Z</time>
      </trkpt>
      <trkpt lat="45.85708" lon="4.80266">
        <ele>368</ele>
        <time>2011-11-11T10:58:30Z</time>
      </trkpt>
      <trkpt lat="45.85709" lon="4.80265">
        <ele>368.4</ele>
        <time>2011-11-11T10:58:31Z</time>
      </trkpt>
      <trkpt lat="45.85711" lon="4.80263">
        <ele>369</ele>
        <time>2011-11-11T10:58:33Z</time>
      </trkpt>
      <trkpt lat="45.85712" lon="4.80261">
        <ele>369.4</ele>
        <time>2011-11-11T10:58:35Z</time>
      </trkpt>
      <trkpt lat="45.85713" lon="4.80259">
        <ele>370.4</ele>
        <time>2011-11-11T10:58:38Z</time>
      </trkpt>
      <trkpt lat="45.85717" lon="4.80251">
        <ele>372</ele>
        <time>2011-11-11T10:58:44Z</time>
      </trkpt>
      <trkpt lat="45.85717" lon="4.8024">
        <ele>373.6</ele>
        <time>2011-11-11T10:58:50Z</time>
      </trkpt>
      <trkpt lat="45.85718" lon="4.8023">
        <ele>375.2</ele>
        <time>2011-11-11T10:58:57Z</time>
      </trkpt>
      <trkpt lat="45.85719" lon="4.80217">
        <ele>376.4</ele>
        <time>2011-11-11T10:59:05Z</time>
      </trkpt>
      <trkpt lat="45.8572" lon="4.80213">
        <ele>376.8</ele>
        <time>2011-11-11T10:59:07Z</time>
      </trkpt>
      <trkpt lat="45.8572" lon="4.80209">
        <ele>377.2</ele>
        <time>2011-11-11T10:59:09Z</time>
      </trkpt>
      <trkpt lat="45.85722" lon="4.80209">
        <ele>377.2</ele>
        <time>2011-11-11T10:59:11Z</time>
      </trkpt>
      <trkpt lat="45.85723" lon="4.80211">
        <ele>377.4</ele>
        <time>2011-11-11T10:59:12Z</time>
      </trkpt>
      <trkpt lat="45.85724" lon="4.80214">
        <ele>378</ele>
        <time>2011-11-11T10:59:18Z</time>
      </trkpt>
      <trkpt lat="45.85729" lon="4.80216">
        <ele>378.6</ele>
        <time>2011-11-11T10:59:32Z</time>
      </trkpt>
      <trkpt lat="45.85733" lon="4.80215">
        <ele>378.8</ele>
        <time>2011-11-11T10:59:38Z</time>
      </trkpt>
      <trkpt lat="45.85734" lon="4.80215">
        <ele>378.8</ele>
        <time>2011-11-11T10:59:39Z</time>
      </trkpt>
      <trkpt lat="45.85738" lon="4.80212">
        <ele>378.8</ele>
        <time>2011-11-11T10:59:44Z</time>
      </trkpt>
      <trkpt lat="45.85745" lon="4.80206">
        <ele>378.6</ele>
        <time>2011-11-11T10:59:52Z</time>
      </trkpt>
      <trkpt lat="45.85751" lon="4.80202">
        <ele>378.4</ele>
        <time>2011-11-11T10:59:57Z</time>
      </trkpt>
      <trkpt lat="45.85752" lon="4.80201">
        <ele>378.4</ele>
        <time>2011-11-11T10:59:58Z</time>
      </trkpt>
      <trkpt lat="45.85761" lon="4.80192">
        <ele>378.6</ele>
        <time>2011-11-11T11:00:07Z</time>
      </trkpt>
      <trkpt lat="45.85767" lon="4.8019">
        <ele>379</ele>
        <time>2011-11-11T11:00:12Z</time>
      </trkpt>
      <trkpt lat="45.85769" lon="4.80189">
        <ele>379.6</ele>
        <time>2011-11-11T11:00:14Z</time>
      </trkpt>
      <trkpt lat="45.85774" lon="4.80181">
        <ele>380.6</ele>
        <time>2011-11-11T11:00:20Z</time>
      </trkpt>
      <trkpt lat="45.85779" lon="4.80172">
        <ele>382.6</ele>
        <time>2011-11-11T11:00:27Z</time>
      </trkpt>
      <trkpt lat="45.85781" lon="4.8017">
        <ele>383.2</ele>
        <time>2011-11-11T11:00:29Z</time>
      </trkpt>
      <trkpt lat="45.85786" lon="4.80164">
        <ele>385.2</ele>
        <time>2011-11-11T11:00:35Z</time>
      </trkpt>
      <trkpt lat="45.85791" lon="4.80159">
        <ele>387</ele>
        <time>2011-11-11T11:00:40Z</time>
      </trkpt>
      <trkpt lat="45.85797" lon="4.80155">
        <ele>388.6</ele>
        <time>2011-11-11T11:00:45Z</time>
      </trkpt>
      <trkpt lat="45.85798" lon="4.80155">
        <ele>389</ele>
        <time>2011-11-11T11:00:46Z</time>
      </trkpt>
      <trkpt lat="45.85804" lon="4.80148">
        <ele>390.8</ele>
        <time>2011-11-11T11:00:52Z</time>
      </trkpt>
      <trkpt lat="45.85808" lon="4.80143">
        <ele>391.6</ele>
        <time>2011-11-11T11:00:56Z</time>
      </trkpt>
      <trkpt lat="45.85811" lon="4.8014">
        <ele>392.4</ele>
        <time>2011-11-11T11:00:59Z</time>
      </trkpt>
      <trkpt lat="45.85819" lon="4.80133">
        <ele>393.6</ele>
        <time>2011-11-11T11:01:06Z</time>
      </trkpt>
      <trkpt lat="45.85825" lon="4.80126">
        <ele>395</ele>
        <time>2011-11-11T11:01:13Z</time>
      </trkpt>
      <trkpt lat="45.85826" lon="4.80125">
        <ele>395</ele>
        <time>2011-11-11T11:01:14Z</time>
      </trkpt>
      <trkpt lat="45.85833" lon="4.80118">
        <ele>396</ele>
        <time>2011-11-11T11:01:20Z</time>
      </trkpt>
      <trkpt lat="45.8584" lon="4.8011">
        <ele>397.2</ele>
        <time>2011-11-11T11:01:27Z</time>
      </trkpt>
      <trkpt lat="45.8584" lon="4.80109">
        <ele>397.4</ele>
        <time>2011-11-11T11:01:28Z</time>
      </trkpt>
      <trkpt lat="45.85843" lon="4.80101">
        <ele>398.6</ele>
        <time>2011-11-11T11:01:33Z</time>
      </trkpt>
      <trkpt lat="45.8585" lon="4.80092">
        <ele>400.2</ele>
        <time>2011-11-11T11:01:40Z</time>
      </trkpt>
      <trkpt lat="45.85852" lon="4.8009">
        <ele>400.6</ele>
        <time>2011-11-11T11:01:42Z</time>
      </trkpt>
      <trkpt lat="45.85856" lon="4.80083">
        <ele>401.6</ele>
        <time>2011-11-11T11:01:47Z</time>
      </trkpt>
      <trkpt lat="45.85864" lon="4.80074">
        <ele>403</ele>
        <time>2011-11-11T11:01:55Z</time>
      </trkpt>
      <trkpt lat="45.85866" lon="4.80074">
        <ele>403</ele>
        <time>2011-11-11T11:01:56Z</time>
      </trkpt>
      <trkpt lat="45.85871" lon="4.80075">
        <ele>403.8</ele>
        <time>2011-11-11T11:02:01Z</time>
      </trkpt>
      <trkpt lat="45.85876" lon="4.80077">
        <ele>404</ele>
        <time>2011-11-11T11:02:04Z</time>
      </trkpt>
      <trkpt lat="45.8588" lon="4.80078">
        <ele>404.4</ele>
        <time>2011-11-11T11:02:07Z</time>
      </trkpt>
      <trkpt lat="45.85883" lon="4.80079">
        <ele>404.8</ele>
        <time>2011-11-11T11:02:10Z</time>
      </trkpt>
      <trkpt lat="45.85885" lon="4.8008">
        <ele>405</ele>
        <time>2011-11-11T11:02:11Z</time>
      </trkpt>
      <trkpt lat="45.85886" lon="4.8008">
        <ele>405</ele>
        <time>2011-11-11T11:02:12Z</time>
      </trkpt>
      <trkpt lat="45.85892" lon="4.8008">
        <ele>406</ele>
        <time>2011-11-11T11:02:18Z</time>
      </trkpt>
      <trkpt lat="45.85902" lon="4.80077">
        <ele>406.6</ele>
        <time>2011-11-11T11:02:24Z</time>
      </trkpt>
      <trkpt lat="45.85904" lon="4.80077">
        <ele>406.8</ele>
        <time>2011-11-11T11:02:25Z</time>
      </trkpt>
      <trkpt lat="45.85908" lon="4.80075">
        <ele>407</ele>
        <time>2011-11-11T11:02:28Z</time>
      </trkpt>
      <trkpt lat="45.85911" lon="4.80073">
        <ele>407.2</ele>
        <time>2011-11-11T11:02:30Z</time>
      </trkpt>
      <trkpt lat="45.85913" lon="4.80073">
        <ele>407.2</ele>
        <time>2011-11-11T11:02:32Z</time>
      </trkpt>
      <trkpt lat="45.85919" lon="4.8007">
        <ele>407.6</ele>
        <time>2011-11-11T11:02:36Z</time>
      </trkpt>
      <trkpt lat="45.85921" lon="4.80069">
        <ele>407.8</ele>
        <time>2011-11-11T11:02:38Z</time>
      </trkpt>
      <trkpt lat="45.85925" lon="4.80067">
        <ele>408</ele>
        <time>2011-11-11T11:02:41Z</time>
      </trkpt>
      <trkpt lat="45.85928" lon="4.80066">
        <ele>408</ele>
        <time>2011-11-11T11:02:43Z</time>
      </trkpt>
      <trkpt lat="45.85934" lon="4.80062">
        <ele>408.4</ele>
        <time>2011-11-11T11:02:48Z</time>
      </trkpt>
      <trkpt lat="45.85938" lon="4.80059">
        <ele>408.6</ele>
        <time>2011-11-11T11:02:51Z</time>
      </trkpt>
      <trkpt lat="45.85943" lon="4.80057">
        <ele>409</ele>
        <time>2011-11-11T11:02:54Z</time>
      </trkpt>
      <trkpt lat="45.85954" lon="4.80056">
        <ele>410</ele>
        <time>2011-11-11T11:03:01Z</time>
      </trkpt>
      <trkpt lat="45.85956" lon="4.80056">
        <ele>410.2</ele>
        <time>2011-11-11T11:03:02Z</time>
      </trkpt>
      <trkpt lat="45.8596" lon="4.80055">
        <ele>410.4</ele>
        <time>2011-11-11T11:03:05Z</time>
      </trkpt>
      <trkpt lat="45.85963" lon="4.80053">
        <ele>410.6</ele>
        <time>2011-11-11T11:03:07Z</time>
      </trkpt>
      <trkpt lat="45.8597" lon="4.8005">
        <ele>411</ele>
        <time>2011-11-11T11:03:10Z</time>
      </trkpt>
      <trkpt lat="45.85974" lon="4.80049">
        <ele>411.2</ele>
        <time>2011-11-11T11:03:12Z</time>
      </trkpt>
      <trkpt lat="45.85983" lon="4.80047">
        <ele>411.8</ele>
        <time>2011-11-11T11:03:16Z</time>
      </trkpt>
      <trkpt lat="45.85995" lon="4.80046">
        <ele>412.6</ele>
        <time>2011-11-11T11:03:21Z</time>
      </trkpt>
      <trkpt lat="45.86" lon="4.80046">
        <ele>412.8</ele>
        <time>2011-11-11T11:03:23Z</time>
      </trkpt>
      <trkpt lat="45.86015" lon="4.80044">
        <ele>413.4</ele>
        <time>2011-11-11T11:03:30Z</time>
      </trkpt>
      <trkpt lat="45.86029" lon="4.80042">
        <ele>414.2</ele>
        <time>2011-11-11T11:03:37Z</time>
      </trkpt>
      <trkpt lat="45.86033" lon="4.80041">
        <ele>414.6</ele>
        <time>2011-11-11T11:03:39Z</time>
      </trkpt>
      <trkpt lat="45.86039" lon="4.80039">
        <ele>415.2</ele>
        <time>2011-11-11T11:03:42Z</time>
      </trkpt>
      <trkpt lat="45.8605" lon="4.80037">
        <ele>415.4</ele>
        <time>2011-11-11T11:03:47Z</time>
      </trkpt>
      <trkpt lat="45.86052" lon="4.80036">
        <ele>415.2</ele>
        <time>2011-11-11T11:03:48Z</time>
      </trkpt>
      <trkpt lat="45.86066" lon="4.80032">
        <ele>415.4</ele>
        <time>2011-11-11T11:03:54Z</time>
      </trkpt>
      <trkpt lat="45.86072" lon="4.8003">
        <ele>415.6</ele>
        <time>2011-11-11T11:03:57Z</time>
      </trkpt>
      <trkpt lat="45.86075" lon="4.80028">
        <ele>415.6</ele>
        <time>2011-11-11T11:03:59Z</time>
      </trkpt>
      <trkpt lat="45.86084" lon="4.80023">
        <ele>416</ele>
        <time>2011-11-11T11:04:05Z</time>
      </trkpt>
      <trkpt lat="45.8609" lon="4.8002">
        <ele>416</ele>
        <time>2011-11-11T11:04:08Z</time>
      </trkpt>
      <trkpt lat="45.86092" lon="4.80019">
        <ele>416</ele>
        <time>2011-11-11T11:04:09Z</time>
      </trkpt>
      <trkpt lat="45.86104" lon="4.80012">
        <ele>416.2</ele>
        <time>2011-11-11T11:04:15Z</time>
      </trkpt>
      <trkpt lat="45.86107" lon="4.80009">
        <ele>416.4</ele>
        <time>2011-11-11T11:04:17Z</time>
      </trkpt>
      <trkpt lat="45.86113" lon="4.80006">
        <ele>416.6</ele>
        <time>2011-11-11T11:04:21Z</time>
      </trkpt>
      <trkpt lat="45.86121" lon="4.8">
        <ele>417.8</ele>
        <time>2011-11-11T11:04:28Z</time>
      </trkpt>
      <trkpt lat="45.86123" lon="4.79995">
        <ele>419.4</ele>
        <time>2011-11-11T11:04:33Z</time>
      </trkpt>
      <trkpt lat="45.86123" lon="4.79995">
        <ele>419.8</ele>
        <time>2011-11-11T11:04:34Z</time>
      </trkpt>
      <trkpt lat="45.86126" lon="4.79992">
        <ele>421</ele>
        <time>2011-11-11T11:04:37Z</time>
      </trkpt>
      <trkpt lat="45.8613" lon="4.79991">
        <ele>421.6</ele>
        <time>2011-11-11T11:04:39Z</time>
      </trkpt>
      <trkpt lat="45.86136" lon="4.7999">
        <ele>423</ele>
        <time>2011-11-11T11:04:44Z</time>
      </trkpt>
      <trkpt lat="45.8614" lon="4.79989">
        <ele>423.6</ele>
        <time>2011-11-11T11:04:47Z</time>
      </trkpt>
      <trkpt lat="45.86145" lon="4.79986">
        <ele>424.2</ele>
        <time>2011-11-11T11:04:50Z</time>
      </trkpt>
      <trkpt lat="45.86159" lon="4.79987">
        <ele>425</ele>
        <time>2011-11-11T11:04:57Z</time>
      </trkpt>
      <trkpt lat="45.86159" lon="4.79986">
        <ele>425.2</ele>
        <time>2011-11-11T11:04:58Z</time>
      </trkpt>
      <trkpt lat="45.86165" lon="4.79985">
        <ele>425.4</ele>
        <time>2011-11-11T11:05:02Z</time>
      </trkpt>
      <trkpt lat="45.8617" lon="4.79984">
        <ele>425.6</ele>
        <time>2011-11-11T11:05:06Z</time>
      </trkpt>
      <trkpt lat="45.86173" lon="4.79983">
        <ele>425.8</ele>
        <time>2011-11-11T11:05:08Z</time>
      </trkpt>
      <trkpt lat="45.86176" lon="4.79983">
        <ele>425.8</ele>
        <time>2011-11-11T11:05:10Z</time>
      </trkpt>
      <trkpt lat="45.86186" lon="4.79983">
        <ele>426</ele>
        <time>2011-11-11T11:05:16Z</time>
      </trkpt>
      <trkpt lat="45.86195" lon="4.79981">
        <ele>426.6</ele>
        <time>2011-11-11T11:05:23Z</time>
      </trkpt>
      <trkpt lat="45.86196" lon="4.79981">
        <ele>426.6</ele>
        <time>2011-11-11T11:05:24Z</time>
      </trkpt>
      <trkpt lat="45.86198" lon="4.7998">
        <ele>426.8</ele>
        <time>2011-11-11T11:05:26Z</time>
      </trkpt>
      <trkpt lat="45.86203" lon="4.79979">
        <ele>427.2</ele>
        <time>2011-11-11T11:05:30Z</time>
      </trkpt>
      <trkpt lat="45.86211" lon="4.79975">
        <ele>427.6</ele>
        <time>2011-11-11T11:05:36Z</time>
      </trkpt>
      <trkpt lat="45.86212" lon="4.79975">
        <ele>427.6</ele>
        <time>2011-11-11T11:05:37Z</time>
      </trkpt>
      <trkpt lat="45.86214" lon="4.79975">
        <ele>427.8</ele>
        <time>2011-11-11T11:05:39Z</time>
      </trkpt>
      <trkpt lat="45.86215" lon="4.79975">
        <ele>428</ele>
        <time>2011-11-11T11:05:57Z</time>
      </trkpt>
      <trkpt lat="45.86216" lon="4.79975">
        <ele>428.6</ele>
        <time>2011-11-11T11:06:08Z</time>
      </trkpt>
      <trkpt lat="45.86217" lon="4.79968">
        <ele>429.8</ele>
        <time>2011-11-11T11:06:38Z</time>
      </trkpt>
      <trkpt lat="45.86218" lon="4.79964">
        <ele>430</ele>
        <time>2011-11-11T11:06:41Z</time>
      </trkpt>
      <trkpt lat="45.86218" lon="4.79961">
        <ele>430</ele>
        <time>2011-11-11T11:06:43Z</time>
      </trkpt>
      <trkpt lat="45.86218" lon="4.79955">
        <ele>430.4</ele>
        <time>2011-11-11T11:06:46Z</time>
      </trkpt>
      <trkpt lat="45.8622" lon="4.79938">
        <ele>431.4</ele>
        <time>2011-11-11T11:06:54Z</time>
      </trkpt>
      <trkpt lat="45.8622" lon="4.79936">
        <ele>431.6</ele>
        <time>2011-11-11T11:06:55Z</time>
      </trkpt>
      <trkpt lat="45.86224" lon="4.79924">
        <ele>432.8</ele>
        <time>2011-11-11T11:07:02Z</time>
      </trkpt>
      <trkpt lat="45.86225" lon="4.79917">
        <ele>433.4</ele>
        <time>2011-11-11T11:07:05Z</time>
      </trkpt>
      <trkpt lat="45.86227" lon="4.79915">
        <ele>433.8</ele>
        <time>2011-11-11T11:07:07Z</time>
      </trkpt>
      <trkpt lat="45.86228" lon="4.79914">
        <ele>434.2</ele>
        <time>2011-11-11T11:07:09Z</time>
      </trkpt>
      <trkpt lat="45.86232" lon="4.79913">
        <ele>435</ele>
        <time>2011-11-11T11:07:13Z</time>
      </trkpt>
      <trkpt lat="45.86241" lon="4.79909">
        <ele>436.2</ele>
        <time>2011-11-11T11:07:19Z</time>
      </trkpt>
      <trkpt lat="45.86246" lon="4.79908">
        <ele>436.6</ele>
        <time>2011-11-11T11:07:22Z</time>
      </trkpt>
      <trkpt lat="45.86251" lon="4.79904">
        <ele>436.8</ele>
        <time>2011-11-11T11:07:26Z</time>
      </trkpt>
      <trkpt lat="45.8626" lon="4.79896">
        <ele>437.4</ele>
        <time>2011-11-11T11:07:33Z</time>
      </trkpt>
      <trkpt lat="45.86262" lon="4.79894">
        <ele>437.6</ele>
        <time>2011-11-11T11:07:35Z</time>
      </trkpt>
      <trkpt lat="45.86268" lon="4.79891">
        <ele>438.2</ele>
        <time>2011-11-11T11:07:40Z</time>
      </trkpt>
      <trkpt lat="45.86277" lon="4.79884">
        <ele>438.8</ele>
        <time>2011-11-11T11:07:47Z</time>
      </trkpt>
      <trkpt lat="45.86279" lon="4.79884">
        <ele>438.6</ele>
        <time>2011-11-11T11:07:48Z</time>
      </trkpt>
      <trkpt lat="45.86287" lon="4.7988">
        <ele>439.2</ele>
        <time>2011-11-11T11:07:53Z</time>
      </trkpt>
      <trkpt lat="45.86288" lon="4.7988">
        <ele>439.2</ele>
        <time>2011-11-11T11:07:55Z</time>
      </trkpt>
      <trkpt lat="45.86289" lon="4.7988">
        <ele>439.4</ele>
        <time>2011-11-11T11:07:58Z</time>
      </trkpt>
      <trkpt lat="45.8629" lon="4.79878">
        <ele>439.6</ele>
        <time>2011-11-11T11:08:01Z</time>
      </trkpt>
      <trkpt lat="45.86292" lon="4.79876">
        <ele>439.8</ele>
        <time>2011-11-11T11:08:03Z</time>
      </trkpt>
      <trkpt lat="45.86295" lon="4.79872">
        <ele>440</ele>
        <time>2011-11-11T11:08:06Z</time>
      </trkpt>
      <trkpt lat="45.86297" lon="4.79871">
        <ele>440.2</ele>
        <time>2011-11-11T11:08:07Z</time>
      </trkpt>
      <trkpt lat="45.86299" lon="4.79869">
        <ele>440.2</ele>
        <time>2011-11-11T11:08:09Z</time>
      </trkpt>
      <trkpt lat="45.8631" lon="4.79864">
        <ele>440.6</ele>
        <time>2011-11-11T11:08:15Z</time>
      </trkpt>
      <trkpt lat="45.86312" lon="4.79863">
        <ele>440.6</ele>
        <time>2011-11-11T11:08:16Z</time>
      </trkpt>
      <trkpt lat="45.86326" lon="4.79859">
        <ele>440.8</ele>
        <time>2011-11-11T11:08:22Z</time>
      </trkpt>
      <trkpt lat="45.86331" lon="4.79858">
        <ele>440.8</ele>
        <time>2011-11-11T11:08:24Z</time>
      </trkpt>
      <trkpt lat="45.86342" lon="4.79857">
        <ele>441</ele>
        <time>2011-11-11T11:08:28Z</time>
      </trkpt>
      <trkpt lat="45.8635" lon="4.79857">
        <ele>441</ele>
        <time>2011-11-11T11:08:31Z</time>
      </trkpt>
      <trkpt lat="45.86358" lon="4.79857">
        <ele>441</ele>
        <time>2011-11-11T11:08:34Z</time>
      </trkpt>
      <trkpt lat="45.86369" lon="4.79857">
        <ele>441.2</ele>
        <time>2011-11-11T11:08:39Z</time>
      </trkpt>
      <trkpt lat="45.86371" lon="4.79858">
        <ele>441.2</ele>
        <time>2011-11-11T11:08:40Z</time>
      </trkpt>
      <trkpt lat="45.86386" lon="4.79859">
        <ele>441.6</ele>
        <time>2011-11-11T11:08:46Z</time>
      </trkpt>
      <trkpt lat="45.86402" lon="4.79864">
        <ele>442.2</ele>
        <time>2011-11-11T11:08:52Z</time>
      </trkpt>
      <trkpt lat="45.86405" lon="4.79865">
        <ele>442.4</ele>
        <time>2011-11-11T11:08:53Z</time>
      </trkpt>
      <trkpt lat="45.86418" lon="4.7987">
        <ele>443</ele>
        <time>2011-11-11T11:08:58Z</time>
      </trkpt>
      <trkpt lat="45.86425" lon="4.79874">
        <ele>443.4</ele>
        <time>2011-11-11T11:09:01Z</time>
      </trkpt>
      <trkpt lat="45.86429" lon="4.79876">
        <ele>443.6</ele>
        <time>2011-11-11T11:09:03Z</time>
      </trkpt>
      <trkpt lat="45.86441" lon="4.79883">
        <ele>444.2</ele>
        <time>2011-11-11T11:09:08Z</time>
      </trkpt>
      <trkpt lat="45.86443" lon="4.79885">
        <ele>444.4</ele>
        <time>2011-11-11T11:09:09Z</time>
      </trkpt>
      <trkpt lat="45.86452" lon="4.79891">
        <ele>444.8</ele>
        <time>2011-11-11T11:09:13Z</time>
      </trkpt>
      <trkpt lat="45.86461" lon="4.79894">
        <ele>445.4</ele>
        <time>2011-11-11T11:09:17Z</time>
      </trkpt>
      <trkpt lat="45.86464" lon="4.79896">
        <ele>445.6</ele>
        <time>2011-11-11T11:09:18Z</time>
      </trkpt>
      <trkpt lat="45.86478" lon="4.79901">
        <ele>446.2</ele>
        <time>2011-11-11T11:09:24Z</time>
      </trkpt>
      <trkpt lat="45.86481" lon="4.79902">
        <ele>446.2</ele>
        <time>2011-11-11T11:09:25Z</time>
      </trkpt>
      <trkpt lat="45.86491" lon="4.79905">
        <ele>446.6</ele>
        <time>2011-11-11T11:09:29Z</time>
      </trkpt>
      <trkpt lat="45.86499" lon="4.79908">
        <ele>447</ele>
        <time>2011-11-11T11:09:32Z</time>
      </trkpt>
      <trkpt lat="45.86504" lon="4.79909">
        <ele>447</ele>
        <time>2011-11-11T11:09:34Z</time>
      </trkpt>
      <trkpt lat="45.86518" lon="4.79911">
        <ele>447.4</ele>
        <time>2011-11-11T11:09:40Z</time>
      </trkpt>
      <trkpt lat="45.8652" lon="4.79911">
        <ele>447.6</ele>
        <time>2011-11-11T11:09:41Z</time>
      </trkpt>
      <trkpt lat="45.86537" lon="4.79912">
        <ele>447.6</ele>
        <time>2011-11-11T11:09:48Z</time>
      </trkpt>
      <trkpt lat="45.86539" lon="4.79912">
        <ele>447.6</ele>
        <time>2011-11-11T11:09:49Z</time>
      </trkpt>
      <trkpt lat="45.8655" lon="4.79911">
        <ele>447.6</ele>
        <time>2011-11-11T11:09:54Z</time>
      </trkpt>
      <trkpt lat="45.86557" lon="4.79911">
        <ele>447.6</ele>
        <time>2011-11-11T11:09:57Z</time>
      </trkpt>
      <trkpt lat="45.86564" lon="4.7991">
        <ele>447.6</ele>
        <time>2011-11-11T11:10:00Z</time>
      </trkpt>
      <trkpt lat="45.86576" lon="4.79905">
        <ele>447.6</ele>
        <time>2011-11-11T11:10:06Z</time>
      </trkpt>
      <trkpt lat="45.86588" lon="4.79899">
        <ele>447.8</ele>
        <time>2011-11-11T11:10:12Z</time>
      </trkpt>
      <trkpt lat="45.86593" lon="4.79896">
        <ele>448</ele>
        <time>2011-11-11T11:10:14Z</time>
      </trkpt>
      <trkpt lat="45.86601" lon="4.79888">
        <ele>448.2</ele>
        <time>2011-11-11T11:10:18Z</time>
      </trkpt>
      <trkpt lat="45.86607" lon="4.79881">
        <ele>448.4</ele>
        <time>2011-11-11T11:10:21Z</time>
      </trkpt>
      <trkpt lat="45.8661" lon="4.79875">
        <ele>448.6</ele>
        <time>2011-11-11T11:10:23Z</time>
      </trkpt>
      <trkpt lat="45.86619" lon="4.79865">
        <ele>449.2</ele>
        <time>2011-11-11T11:10:28Z</time>
      </trkpt>
      <trkpt lat="45.8662" lon="4.79859">
        <ele>449.6</ele>
        <time>2011-11-11T11:10:30Z</time>
      </trkpt>
      <trkpt lat="45.86625" lon="4.79847">
        <ele>450.4</ele>
        <time>2011-11-11T11:10:34Z</time>
      </trkpt>
      <trkpt lat="45.86626" lon="4.79835">
        <ele>450.8</ele>
        <time>2011-11-11T11:10:37Z</time>
      </trkpt>
      <trkpt lat="45.86629" lon="4.79827">
        <ele>451</ele>
        <time>2011-11-11T11:10:39Z</time>
      </trkpt>
      <trkpt lat="45.86639" lon="4.79814">
        <ele>451.8</ele>
        <time>2011-11-11T11:10:44Z</time>
      </trkpt>
      <trkpt lat="45.86647" lon="4.79803">
        <ele>452.4</ele>
        <time>2011-11-11T11:10:49Z</time>
      </trkpt>
      <trkpt lat="45.86652" lon="4.79792">
        <ele>452.6</ele>
        <time>2011-11-11T11:10:52Z</time>
      </trkpt>
      <trkpt lat="45.86653" lon="4.79789">
        <ele>452.8</ele>
        <time>2011-11-11T11:10:53Z</time>
      </trkpt>
      <trkpt lat="45.86654" lon="4.79785">
        <ele>452.8</ele>
        <time>2011-11-11T11:10:54Z</time>
      </trkpt>
      <trkpt lat="45.86661" lon="4.79772">
        <ele>453</ele>
        <time>2011-11-11T11:10:58Z</time>
      </trkpt>
      <trkpt lat="45.86662" lon="4.79768">
        <ele>453.2</ele>
        <time>2011-11-11T11:10:59Z</time>
      </trkpt>
      <trkpt lat="45.86673" lon="4.7975">
        <ele>453</ele>
        <time>2011-11-11T11:11:04Z</time>
      </trkpt>
      <trkpt lat="45.86675" lon="4.79746">
        <ele>452.8</ele>
        <time>2011-11-11T11:11:05Z</time>
      </trkpt>
      <trkpt lat="45.86677" lon="4.79734">
        <ele>452.8</ele>
        <time>2011-11-11T11:11:08Z</time>
      </trkpt>
      <trkpt lat="45.86676" lon="4.7972">
        <ele>452.6</ele>
        <time>2011-11-11T11:11:11Z</time>
      </trkpt>
      <trkpt lat="45.86675" lon="4.79715">
        <ele>452.6</ele>
        <time>2011-11-11T11:11:12Z</time>
      </trkpt>
      <trkpt lat="45.86671" lon="4.79693">
        <ele>452.4</ele>
        <time>2011-11-11T11:11:18Z</time>
      </trkpt>
      <trkpt lat="45.86666" lon="4.79676">
        <ele>452.4</ele>
        <time>2011-11-11T11:11:23Z</time>
      </trkpt>
      <trkpt lat="45.86664" lon="4.79673">
        <ele>452.4</ele>
        <time>2011-11-11T11:11:24Z</time>
      </trkpt>
      <trkpt lat="45.86663" lon="4.7967">
        <ele>452.4</ele>
        <time>2011-11-11T11:11:25Z</time>
      </trkpt>
      <trkpt lat="45.86657" lon="4.79656">
        <ele>452.8</ele>
        <time>2011-11-11T11:11:29Z</time>
      </trkpt>
      <trkpt lat="45.86657" lon="4.7965">
        <ele>452.8</ele>
        <time>2011-11-11T11:11:31Z</time>
      </trkpt>
      <trkpt lat="45.86656" lon="4.79646">
        <ele>453</ele>
        <time>2011-11-11T11:11:32Z</time>
      </trkpt>
      <trkpt lat="45.86658" lon="4.79642">
        <ele>453.2</ele>
        <time>2011-11-11T11:11:34Z</time>
      </trkpt>
      <trkpt lat="45.86653" lon="4.79621">
        <ele>453.6</ele>
        <time>2011-11-11T11:11:40Z</time>
      </trkpt>
      <trkpt lat="45.86649" lon="4.796">
        <ele>454.4</ele>
        <time>2011-11-11T11:11:45Z</time>
      </trkpt>
      <trkpt lat="45.86648" lon="4.79593">
        <ele>454.8</ele>
        <time>2011-11-11T11:11:47Z</time>
      </trkpt>
      <trkpt lat="45.86645" lon="4.79577">
        <ele>456</ele>
        <time>2011-11-11T11:11:52Z</time>
      </trkpt>
      <trkpt lat="45.86645" lon="4.79573">
        <ele>456.2</ele>
        <time>2011-11-11T11:11:53Z</time>
      </trkpt>
      <trkpt lat="45.86644" lon="4.79565">
        <ele>456.2</ele>
        <time>2011-11-11T11:11:55Z</time>
      </trkpt>
      <trkpt lat="45.86645" lon="4.79562">
        <ele>456.2</ele>
        <time>2011-11-11T11:11:56Z</time>
      </trkpt>
      <trkpt lat="45.86645" lon="4.79546">
        <ele>456.8</ele>
        <time>2011-11-11T11:12:00Z</time>
      </trkpt>
      <trkpt lat="45.86643" lon="4.79538">
        <ele>457</ele>
        <time>2011-11-11T11:12:02Z</time>
      </trkpt>
      <trkpt lat="45.86645" lon="4.79521">
        <ele>457</ele>
        <time>2011-11-11T11:12:06Z</time>
      </trkpt>
      <trkpt lat="45.86645" lon="4.79511">
        <ele>456.8</ele>
        <time>2011-11-11T11:12:09Z</time>
      </trkpt>
      <trkpt lat="45.86644" lon="4.79502">
        <ele>456.8</ele>
        <time>2011-11-11T11:12:11Z</time>
      </trkpt>
      <trkpt lat="45.86648" lon="4.79482">
        <ele>456.4</ele>
        <time>2011-11-11T11:12:16Z</time>
      </trkpt>
      <trkpt lat="45.86649" lon="4.79478">
        <ele>456.4</ele>
        <time>2011-11-11T11:12:17Z</time>
      </trkpt>
      <trkpt lat="45.86653" lon="4.79459">
        <ele>455.8</ele>
        <time>2011-11-11T11:12:23Z</time>
      </trkpt>
      <trkpt lat="45.86654" lon="4.79456">
        <ele>455.6</ele>
        <time>2011-11-11T11:12:24Z</time>
      </trkpt>
      <trkpt lat="45.86653" lon="4.79452">
        <ele>455.6</ele>
        <time>2011-11-11T11:12:25Z</time>
      </trkpt>
      <trkpt lat="45.86652" lon="4.79442">
        <ele>455.4</ele>
        <time>2011-11-11T11:12:27Z</time>
      </trkpt>
      <trkpt lat="45.86652" lon="4.7943">
        <ele>455.2</ele>
        <time>2011-11-11T11:12:30Z</time>
      </trkpt>
      <trkpt lat="45.86652" lon="4.79421">
        <ele>454.8</ele>
        <time>2011-11-11T11:12:33Z</time>
      </trkpt>
      <trkpt lat="45.86649" lon="4.79403">
        <ele>454.2</ele>
        <time>2011-11-11T11:12:38Z</time>
      </trkpt>
      <trkpt lat="45.86648" lon="4.79399">
        <ele>454.2</ele>
        <time>2011-11-11T11:12:39Z</time>
      </trkpt>
      <trkpt lat="45.86652" lon="4.79383">
        <ele>453.4</ele>
        <time>2011-11-11T11:12:44Z</time>
      </trkpt>
      <trkpt lat="45.86654" lon="4.79376">
        <ele>453</ele>
        <time>2011-11-11T11:12:46Z</time>
      </trkpt>
      <trkpt lat="45.86656" lon="4.79353">
        <ele>452.2</ele>
        <time>2011-11-11T11:12:52Z</time>
      </trkpt>
      <trkpt lat="45.86656" lon="4.79349">
        <ele>452</ele>
        <time>2011-11-11T11:12:53Z</time>
      </trkpt>
      <trkpt lat="45.86656" lon="4.79329">
        <ele>451.2</ele>
        <time>2011-11-11T11:12:58Z</time>
      </trkpt>
      <trkpt lat="45.86656" lon="4.79321">
        <ele>450.8</ele>
        <time>2011-11-11T11:13:00Z</time>
      </trkpt>
      <trkpt lat="45.86657" lon="4.7931">
        <ele>450.4</ele>
        <time>2011-11-11T11:13:03Z</time>
      </trkpt>
      <trkpt lat="45.86657" lon="4.79296">
        <ele>449.6</ele>
        <time>2011-11-11T11:13:07Z</time>
      </trkpt>
      <trkpt lat="45.86656" lon="4.79286">
        <ele>449.4</ele>
        <time>2011-11-11T11:13:09Z</time>
      </trkpt>
      <trkpt lat="45.86656" lon="4.79269">
        <ele>448.6</ele>
        <time>2011-11-11T11:13:13Z</time>
      </trkpt>
      <trkpt lat="45.86655" lon="4.79265">
        <ele>448.4</ele>
        <time>2011-11-11T11:13:14Z</time>
      </trkpt>
      <trkpt lat="45.86657" lon="4.79245">
        <ele>447.4</ele>
        <time>2011-11-11T11:13:19Z</time>
      </trkpt>
      <trkpt lat="45.86658" lon="4.7924">
        <ele>447.2</ele>
        <time>2011-11-11T11:13:20Z</time>
      </trkpt>
      <trkpt lat="45.86658" lon="4.79215">
        <ele>446.2</ele>
        <time>2011-11-11T11:13:26Z</time>
      </trkpt>
      <trkpt lat="45.86665" lon="4.79198">
        <ele>445.2</ele>
        <time>2011-11-11T11:13:31Z</time>
      </trkpt>
      <trkpt lat="45.86667" lon="4.79191">
        <ele>444.8</ele>
        <time>2011-11-11T11:13:33Z</time>
      </trkpt>
      <trkpt lat="45.86675" lon="4.79173">
        <ele>443.8</ele>
        <time>2011-11-11T11:13:38Z</time>
      </trkpt>
      <trkpt lat="45.86677" lon="4.79166">
        <ele>443.4</ele>
        <time>2011-11-11T11:13:40Z</time>
      </trkpt>
      <trkpt lat="45.86681" lon="4.79156">
        <ele>442.8</ele>
        <time>2011-11-11T11:13:43Z</time>
      </trkpt>
      <trkpt lat="45.86685" lon="4.79141">
        <ele>442</ele>
        <time>2011-11-11T11:13:47Z</time>
      </trkpt>
      <trkpt lat="45.86687" lon="4.79134">
        <ele>441.6</ele>
        <time>2011-11-11T11:13:49Z</time>
      </trkpt>
      <trkpt lat="45.86694" lon="4.79117">
        <ele>440.6</ele>
        <time>2011-11-11T11:13:54Z</time>
      </trkpt>
      <trkpt lat="45.86696" lon="4.79114">
        <ele>440.4</ele>
        <time>2011-11-11T11:13:55Z</time>
      </trkpt>
      <trkpt lat="45.86705" lon="4.79094">
        <ele>439.4</ele>
        <time>2011-11-11T11:14:01Z</time>
      </trkpt>
      <trkpt lat="45.86707" lon="4.7909">
        <ele>439.2</ele>
        <time>2011-11-11T11:14:02Z</time>
      </trkpt>
      <trkpt lat="45.86719" lon="4.79074">
        <ele>438.2</ele>
        <time>2011-11-11T11:14:08Z</time>
      </trkpt>
      <trkpt lat="45.8673" lon="4.79053">
        <ele>437</ele>
        <time>2011-11-11T11:14:15Z</time>
      </trkpt>
      <trkpt lat="45.86733" lon="4.79047">
        <ele>436.6</ele>
        <time>2011-11-11T11:14:17Z</time>
      </trkpt>
      <trkpt lat="45.86736" lon="4.79041">
        <ele>436.4</ele>
        <time>2011-11-11T11:14:19Z</time>
      </trkpt>
      <trkpt lat="45.86737" lon="4.79034">
        <ele>436</ele>
        <time>2011-11-11T11:14:21Z</time>
      </trkpt>
      <trkpt lat="45.8674" lon="4.79029">
        <ele>435.6</ele>
        <time>2011-11-11T11:14:23Z</time>
      </trkpt>
      <trkpt lat="45.8674" lon="4.79025">
        <ele>435.6</ele>
        <time>2011-11-11T11:14:24Z</time>
      </trkpt>
      <trkpt lat="45.8674" lon="4.79021">
        <ele>435.4</ele>
        <time>2011-11-11T11:14:25Z</time>
      </trkpt>
      <trkpt lat="45.86739" lon="4.79011">
        <ele>434.8</ele>
        <time>2011-11-11T11:14:28Z</time>
      </trkpt>
      <trkpt lat="45.86744" lon="4.79003">
        <ele>434.4</ele>
        <time>2011-11-11T11:14:31Z</time>
      </trkpt>
      <trkpt lat="45.86747" lon="4.78994">
        <ele>434</ele>
        <time>2011-11-11T11:14:34Z</time>
      </trkpt>
      <trkpt lat="45.86753" lon="4.78984">
        <ele>433.2</ele>
        <time>2011-11-11T11:14:38Z</time>
      </trkpt>
      <trkpt lat="45.86755" lon="4.78981">
        <ele>433</ele>
        <time>2011-11-11T11:14:39Z</time>
      </trkpt>
      <trkpt lat="45.86762" lon="4.78969">
        <ele>432.2</ele>
        <time>2011-11-11T11:14:43Z</time>
      </trkpt>
      <trkpt lat="45.86765" lon="4.78955">
        <ele>431.6</ele>
        <time>2011-11-11T11:14:46Z</time>
      </trkpt>
      <trkpt lat="45.86767" lon="4.7894">
        <ele>431</ele>
        <time>2011-11-11T11:14:49Z</time>
      </trkpt>
      <trkpt lat="45.86769" lon="4.78925">
        <ele>430.6</ele>
        <time>2011-11-11T11:14:52Z</time>
      </trkpt>
      <trkpt lat="45.8677" lon="4.78921">
        <ele>430.4</ele>
        <time>2011-11-11T11:14:53Z</time>
      </trkpt>
      <trkpt lat="45.86776" lon="4.78904">
        <ele>429</ele>
        <time>2011-11-11T11:14:59Z</time>
      </trkpt>
      <trkpt lat="45.86776" lon="4.78899">
        <ele>428.4</ele>
        <time>2011-11-11T11:15:01Z</time>
      </trkpt>
      <trkpt lat="45.86776" lon="4.78893">
        <ele>427.8</ele>
        <time>2011-11-11T11:15:04Z</time>
      </trkpt>
      <trkpt lat="45.86777" lon="4.7888">
        <ele>426</ele>
        <time>2011-11-11T11:15:10Z</time>
      </trkpt>
      <trkpt lat="45.86775" lon="4.78872">
        <ele>425.6</ele>
        <time>2011-11-11T11:15:12Z</time>
      </trkpt>
      <trkpt lat="45.86772" lon="4.78863">
        <ele>424.8</ele>
        <time>2011-11-11T11:15:15Z</time>
      </trkpt>
      <trkpt lat="45.86766" lon="4.78847">
        <ele>423.6</ele>
        <time>2011-11-11T11:15:20Z</time>
      </trkpt>
      <trkpt lat="45.86765" lon="4.78844">
        <ele>423.4</ele>
        <time>2011-11-11T11:15:21Z</time>
      </trkpt>
      <trkpt lat="45.86771" lon="4.78839">
        <ele>422.2</ele>
        <time>2011-11-11T11:15:25Z</time>
      </trkpt>
      <trkpt lat="45.86778" lon="4.7884">
        <ele>421.4</ele>
        <time>2011-11-11T11:15:28Z</time>
      </trkpt>
      <trkpt lat="45.86779" lon="4.7884">
        <ele>421.2</ele>
        <time>2011-11-11T11:15:29Z</time>
      </trkpt>
      <trkpt lat="45.86782" lon="4.78838">
        <ele>420.8</ele>
        <time>2011-11-11T11:15:31Z</time>
      </trkpt>
      <trkpt lat="45.86788" lon="4.78832">
        <ele>420</ele>
        <time>2011-11-11T11:15:34Z</time>
      </trkpt>
      <trkpt lat="45.8679" lon="4.7883">
        <ele>419.8</ele>
        <time>2011-11-11T11:15:35Z</time>
      </trkpt>
      <trkpt lat="45.86797" lon="4.78826">
        <ele>419</ele>
        <time>2011-11-11T11:15:38Z</time>
      </trkpt>
      <trkpt lat="45.86804" lon="4.78826">
        <ele>418.6</ele>
        <time>2011-11-11T11:15:40Z</time>
      </trkpt>
      <trkpt lat="45.86816" lon="4.78824">
        <ele>417.4</ele>
        <time>2011-11-11T11:15:44Z</time>
      </trkpt>
      <trkpt lat="45.86819" lon="4.78823">
        <ele>417.2</ele>
        <time>2011-11-11T11:15:45Z</time>
      </trkpt>
      <trkpt lat="45.86832" lon="4.78819">
        <ele>416</ele>
        <time>2011-11-11T11:15:49Z</time>
      </trkpt>
      <trkpt lat="45.86835" lon="4.78816">
        <ele>415.8</ele>
        <time>2011-11-11T11:15:50Z</time>
      </trkpt>
      <trkpt lat="45.86855" lon="4.78809">
        <ele>414.2</ele>
        <time>2011-11-11T11:15:55Z</time>
      </trkpt>
      <trkpt lat="45.86871" lon="4.78799">
        <ele>413</ele>
        <time>2011-11-11T11:15:59Z</time>
      </trkpt>
      <trkpt lat="45.86875" lon="4.78796">
        <ele>412.8</ele>
        <time>2011-11-11T11:16:00Z</time>
      </trkpt>
      <trkpt lat="45.86879" lon="4.78794">
        <ele>412.4</ele>
        <time>2011-11-11T11:16:01Z</time>
      </trkpt>
      <trkpt lat="45.86889" lon="4.7879">
        <ele>411.6</ele>
        <time>2011-11-11T11:16:04Z</time>
      </trkpt>
      <trkpt lat="45.86893" lon="4.78788">
        <ele>411.2</ele>
        <time>2011-11-11T11:16:05Z</time>
      </trkpt>
      <trkpt lat="45.86896" lon="4.78785">
        <ele>411</ele>
        <time>2011-11-11T11:16:06Z</time>
      </trkpt>
      <trkpt lat="45.86908" lon="4.78776">
        <ele>409.6</ele>
        <time>2011-11-11T11:16:11Z</time>
      </trkpt>
      <trkpt lat="45.86911" lon="4.78774">
        <ele>409.4</ele>
        <time>2011-11-11T11:16:12Z</time>
      </trkpt>
      <trkpt lat="45.86921" lon="4.78773">
        <ele>408.4</ele>
        <time>2011-11-11T11:16:16Z</time>
      </trkpt>
      <trkpt lat="45.86932" lon="4.78768">
        <ele>407.2</ele>
        <time>2011-11-11T11:16:20Z</time>
      </trkpt>
      <trkpt lat="45.86937" lon="4.78764">
        <ele>406.6</ele>
        <time>2011-11-11T11:16:22Z</time>
      </trkpt>
      <trkpt lat="45.86951" lon="4.7876">
        <ele>405.6</ele>
        <time>2011-11-11T11:16:25Z</time>
      </trkpt>
      <trkpt lat="45.86954" lon="4.78758">
        <ele>405.2</ele>
        <time>2011-11-11T11:16:26Z</time>
      </trkpt>
      <trkpt lat="45.86968" lon="4.78751">
        <ele>403.6</ele>
        <time>2011-11-11T11:16:31Z</time>
      </trkpt>
      <trkpt lat="45.8697" lon="4.78748">
        <ele>403.2</ele>
        <time>2011-11-11T11:16:32Z</time>
      </trkpt>
      <trkpt lat="45.86977" lon="4.78744">
        <ele>402</ele>
        <time>2011-11-11T11:16:36Z</time>
      </trkpt>
      <trkpt lat="45.86977" lon="4.78742">
        <ele>401.6</ele>
        <time>2011-11-11T11:16:37Z</time>
      </trkpt>
      <trkpt lat="45.86977" lon="4.7874">
        <ele>399.4</ele>
        <time>2011-11-11T11:16:45Z</time>
      </trkpt>
      <trkpt lat="45.86972" lon="4.78742">
        <ele>391.8</ele>
        <time>2011-11-11T11:17:14Z</time>
      </trkpt>
      <trkpt lat="45.86968" lon="4.78735">
        <ele>391.2</ele>
        <time>2011-11-11T11:17:18Z</time>
      </trkpt>
      <trkpt lat="45.86967" lon="4.78735">
        <ele>391</ele>
        <time>2011-11-11T11:17:19Z</time>
      </trkpt>
      <trkpt lat="45.8697" lon="4.78729">
        <ele>387.2</ele>
        <time>2011-11-11T11:17:36Z</time>
      </trkpt>
      <trkpt lat="45.86972" lon="4.7873">
        <ele>386.4</ele>
        <time>2011-11-11T11:17:39Z</time>
      </trkpt>
      <trkpt lat="45.86973" lon="4.78731">
        <ele>385.4</ele>
        <time>2011-11-11T11:17:43Z</time>
      </trkpt>
      <trkpt lat="45.86971" lon="4.78729">
        <ele>384.8</ele>
        <time>2011-11-11T11:17:46Z</time>
      </trkpt>
      <trkpt lat="45.8697" lon="4.7873">
        <ele>384.8</ele>
        <time>2011-11-11T11:17:47Z</time>
      </trkpt>
      <trkpt lat="45.86971" lon="4.78736">
        <ele>383.8</ele>
        <time>2011-11-11T11:17:56Z</time>
      </trkpt>
      <trkpt lat="45.86966" lon="4.78736">
        <ele>383.4</ele>
        <time>2011-11-11T11:18:11Z</time>
      </trkpt>
      <trkpt lat="45.86968" lon="4.78741">
        <ele>383.4</ele>
        <time>2011-11-11T11:18:16Z</time>
      </trkpt>
      <trkpt lat="45.86969" lon="4.78743">
        <ele>381.2</ele>
        <time>2011-11-11T11:18:39Z</time>
      </trkpt>
      <trkpt lat="45.86973" lon="4.7874">
        <ele>377.2</ele>
        <time>2011-11-11T11:19:01Z</time>
      </trkpt>
      <trkpt lat="45.86973" lon="4.78741">
        <ele>376.8</ele>
        <time>2011-11-11T11:19:04Z</time>
      </trkpt>
      <trkpt lat="45.8697" lon="4.78737">
        <ele>376</ele>
        <time>2011-11-11T11:19:11Z</time>
      </trkpt>
      <trkpt lat="45.8697" lon="4.78732">
        <ele>375.8</ele>
        <time>2011-11-11T11:19:14Z</time>
      </trkpt>
      <trkpt lat="45.86967" lon="4.7872">
        <ele>375.6</ele>
        <time>2011-11-11T11:19:18Z</time>
      </trkpt>
      <trkpt lat="45.86965" lon="4.78714">
        <ele>375.4</ele>
        <time>2011-11-11T11:19:20Z</time>
      </trkpt>
      <trkpt lat="45.86957" lon="4.78705">
        <ele>375.2</ele>
        <time>2011-11-11T11:19:25Z</time>
      </trkpt>
      <trkpt lat="45.86954" lon="4.78704">
        <ele>375.2</ele>
        <time>2011-11-11T11:19:26Z</time>
      </trkpt>
      <trkpt lat="45.86942" lon="4.787">
        <ele>374.8</ele>
        <time>2011-11-11T11:19:31Z</time>
      </trkpt>
      <trkpt lat="45.86936" lon="4.78698">
        <ele>374.6</ele>
        <time>2011-11-11T11:19:34Z</time>
      </trkpt>
      <trkpt lat="45.86931" lon="4.78695">
        <ele>374.6</ele>
        <time>2011-11-11T11:19:36Z</time>
      </trkpt>
      <trkpt lat="45.86917" lon="4.78693">
        <ele>374.6</ele>
        <time>2011-11-11T11:19:41Z</time>
      </trkpt>
      <trkpt lat="45.86914" lon="4.78692">
        <ele>374.6</ele>
        <time>2011-11-11T11:19:42Z</time>
      </trkpt>
      <trkpt lat="45.869" lon="4.78686">
        <ele>374.8</ele>
        <time>2011-11-11T11:19:49Z</time>
      </trkpt>
      <trkpt lat="45.86898" lon="4.78684">
        <ele>374.8</ele>
        <time>2011-11-11T11:19:50Z</time>
      </trkpt>
      <trkpt lat="45.86887" lon="4.78679">
        <ele>374.6</ele>
        <time>2011-11-11T11:19:54Z</time>
      </trkpt>
      <trkpt lat="45.86879" lon="4.78674">
        <ele>374.6</ele>
        <time>2011-11-11T11:19:57Z</time>
      </trkpt>
      <trkpt lat="45.86865" lon="4.78666">
        <ele>374</ele>
        <time>2011-11-11T11:20:02Z</time>
      </trkpt>
      <trkpt lat="45.86862" lon="4.78665">
        <ele>374</ele>
        <time>2011-11-11T11:20:03Z</time>
      </trkpt>
      <trkpt lat="45.86849" lon="4.78658">
        <ele>373.4</ele>
        <time>2011-11-11T11:20:08Z</time>
      </trkpt>
      <trkpt lat="45.86845" lon="4.78655">
        <ele>373.2</ele>
        <time>2011-11-11T11:20:10Z</time>
      </trkpt>
      <trkpt lat="45.86837" lon="4.78652">
        <ele>372.6</ele>
        <time>2011-11-11T11:20:13Z</time>
      </trkpt>
      <trkpt lat="45.86826" lon="4.78652">
        <ele>371.8</ele>
        <time>2011-11-11T11:20:17Z</time>
      </trkpt>
      <trkpt lat="45.86811" lon="4.78648">
        <ele>370.8</ele>
        <time>2011-11-11T11:20:22Z</time>
      </trkpt>
      <trkpt lat="45.86806" lon="4.78644">
        <ele>370.4</ele>
        <time>2011-11-11T11:20:24Z</time>
      </trkpt>
      <trkpt lat="45.86799" lon="4.7864">
        <ele>369.6</ele>
        <time>2011-11-11T11:20:27Z</time>
      </trkpt>
      <trkpt lat="45.86789" lon="4.78638">
        <ele>368.6</ele>
        <time>2011-11-11T11:20:31Z</time>
      </trkpt>
      <trkpt lat="45.86778" lon="4.78634">
        <ele>367.8</ele>
        <time>2011-11-11T11:20:35Z</time>
      </trkpt>
      <trkpt lat="45.8677" lon="4.78633">
        <ele>366.4</ele>
        <time>2011-11-11T11:20:40Z</time>
      </trkpt>
      <trkpt lat="45.86768" lon="4.78634">
        <ele>366.2</ele>
        <time>2011-11-11T11:20:41Z</time>
      </trkpt>
      <trkpt lat="45.86763" lon="4.78628">
        <ele>364.4</ele>
        <time>2011-11-11T11:20:47Z</time>
      </trkpt>
      <trkpt lat="45.86765" lon="4.7863">
        <ele>360.4</ele>
        <time>2011-11-11T11:20:57Z</time>
      </trkpt>
      <trkpt lat="45.86762" lon="4.78626">
        <ele>356.2</ele>
        <time>2011-11-11T11:21:10Z</time>
      </trkpt>
      <trkpt lat="45.86763" lon="4.78625">
        <ele>356</ele>
        <time>2011-11-11T11:21:11Z</time>
      </trkpt>
      <trkpt lat="45.86764" lon="4.78624">
        <ele>355.6</ele>
        <time>2011-11-11T11:21:12Z</time>
      </trkpt>
      <trkpt lat="45.86766" lon="4.78621">
        <ele>355.2</ele>
        <time>2011-11-11T11:21:14Z</time>
      </trkpt>
      <trkpt lat="45.8677" lon="4.78616">
        <ele>354</ele>
        <time>2011-11-11T11:21:19Z</time>
      </trkpt>
      <trkpt lat="45.86779" lon="4.78616">
        <ele>352.2</ele>
        <time>2011-11-11T11:21:25Z</time>
      </trkpt>
      <trkpt lat="45.8678" lon="4.78617">
        <ele>351.8</ele>
        <time>2011-11-11T11:21:26Z</time>
      </trkpt>
      <trkpt lat="45.86781" lon="4.78614">
        <ele>351.2</ele>
        <time>2011-11-11T11:21:28Z</time>
      </trkpt>
      <trkpt lat="45.86784" lon="4.78612">
        <ele>350.6</ele>
        <time>2011-11-11T11:21:30Z</time>
      </trkpt>
      <trkpt lat="45.86798" lon="4.78609">
        <ele>349.2</ele>
        <time>2011-11-11T11:21:34Z</time>
      </trkpt>
      <trkpt lat="45.86818" lon="4.78604">
        <ele>348</ele>
        <time>2011-11-11T11:21:38Z</time>
      </trkpt>
      <trkpt lat="45.86821" lon="4.78601">
        <ele>347.6</ele>
        <time>2011-11-11T11:21:39Z</time>
      </trkpt>
      <trkpt lat="45.8683" lon="4.78596">
        <ele>347</ele>
        <time>2011-11-11T11:21:41Z</time>
      </trkpt>
      <trkpt lat="45.86834" lon="4.78594">
        <ele>346.8</ele>
        <time>2011-11-11T11:21:42Z</time>
      </trkpt>
      <trkpt lat="45.86841" lon="4.78591">
        <ele>346.2</ele>
        <time>2011-11-11T11:21:44Z</time>
      </trkpt>
      <trkpt lat="45.86845" lon="4.78589">
        <ele>345.8</ele>
        <time>2011-11-11T11:21:45Z</time>
      </trkpt>
      <trkpt lat="45.86852" lon="4.78586">
        <ele>345.2</ele>
        <time>2011-11-11T11:21:47Z</time>
      </trkpt>
      <trkpt lat="45.86858" lon="4.78583">
        <ele>344.6</ele>
        <time>2011-11-11T11:21:49Z</time>
      </trkpt>
      <trkpt lat="45.86861" lon="4.78582">
        <ele>344.2</ele>
        <time>2011-11-11T11:21:50Z</time>
      </trkpt>
      <trkpt lat="45.86868" lon="4.78565">
        <ele>343.2</ele>
        <time>2011-11-11T11:21:54Z</time>
      </trkpt>
      <trkpt lat="45.86874" lon="4.78563">
        <ele>342.6</ele>
        <time>2011-11-11T11:21:56Z</time>
      </trkpt>
      <trkpt lat="45.86885" lon="4.78557">
        <ele>341.4</ele>
        <time>2011-11-11T11:22:00Z</time>
      </trkpt>
      <trkpt lat="45.86891" lon="4.78553">
        <ele>340.8</ele>
        <time>2011-11-11T11:22:02Z</time>
      </trkpt>
      <trkpt lat="45.86905" lon="4.78546">
        <ele>339.8</ele>
        <time>2011-11-11T11:22:06Z</time>
      </trkpt>
      <trkpt lat="45.86907" lon="4.78544">
        <ele>339.4</ele>
        <time>2011-11-11T11:22:07Z</time>
      </trkpt>
      <trkpt lat="45.86923" lon="4.78534">
        <ele>337.6</ele>
        <time>2011-11-11T11:22:13Z</time>
      </trkpt>
      <trkpt lat="45.86936" lon="4.78526">
        <ele>336.2</ele>
        <time>2011-11-11T11:22:18Z</time>
      </trkpt>
      <trkpt lat="45.8694" lon="4.78521">
        <ele>335.6</ele>
        <time>2011-11-11T11:22:20Z</time>
      </trkpt>
      <trkpt lat="45.86947" lon="4.78515">
        <ele>334.6</ele>
        <time>2011-11-11T11:22:23Z</time>
      </trkpt>
      <trkpt lat="45.86956" lon="4.78506">
        <ele>333.4</ele>
        <time>2011-11-11T11:22:27Z</time>
      </trkpt>
      <trkpt lat="45.86959" lon="4.78502">
        <ele>332.8</ele>
        <time>2011-11-11T11:22:29Z</time>
      </trkpt>
      <trkpt lat="45.86974" lon="4.78494">
        <ele>330.8</ele>
        <time>2011-11-11T11:22:35Z</time>
      </trkpt>
      <trkpt lat="45.86989" lon="4.78484">
        <ele>328.8</ele>
        <time>2011-11-11T11:22:41Z</time>
      </trkpt>
      <trkpt lat="45.86993" lon="4.78483">
        <ele>328.4</ele>
        <time>2011-11-11T11:22:42Z</time>
      </trkpt>
      <trkpt lat="45.87006" lon="4.78472">
        <ele>326.4</ele>
        <time>2011-11-11T11:22:48Z</time>
      </trkpt>
      <trkpt lat="45.87008" lon="4.78469">
        <ele>326.2</ele>
        <time>2011-11-11T11:22:49Z</time>
      </trkpt>
      <trkpt lat="45.87019" lon="4.78454">
        <ele>324.2</ele>
        <time>2011-11-11T11:22:55Z</time>
      </trkpt>
      <trkpt lat="45.87021" lon="4.78452">
        <ele>323.8</ele>
        <time>2011-11-11T11:22:56Z</time>
      </trkpt>
      <trkpt lat="45.87032" lon="4.78444">
        <ele>322.6</ele>
        <time>2011-11-11T11:23:00Z</time>
      </trkpt>
      <trkpt lat="45.87038" lon="4.78442">
        <ele>322</ele>
        <time>2011-11-11T11:23:02Z</time>
      </trkpt>
      <trkpt lat="45.87051" lon="4.78436">
        <ele>320.6</ele>
        <time>2011-11-11T11:23:06Z</time>
      </trkpt>
      <trkpt lat="45.87054" lon="4.7843">
        <ele>320</ele>
        <time>2011-11-11T11:23:08Z</time>
      </trkpt>
      <trkpt lat="45.87062" lon="4.78423">
        <ele>319</ele>
        <time>2011-11-11T11:23:11Z</time>
      </trkpt>
      <trkpt lat="45.87072" lon="4.78417">
        <ele>317.6</ele>
        <time>2011-11-11T11:23:15Z</time>
      </trkpt>
      <trkpt lat="45.87077" lon="4.78413">
        <ele>317</ele>
        <time>2011-11-11T11:23:17Z</time>
      </trkpt>
      <trkpt lat="45.87088" lon="4.78406">
        <ele>315.4</ele>
        <time>2011-11-11T11:23:21Z</time>
      </trkpt>
      <trkpt lat="45.87092" lon="4.78403">
        <ele>315.2</ele>
        <time>2011-11-11T11:23:22Z</time>
      </trkpt>
      <trkpt lat="45.87104" lon="4.78396">
        <ele>313</ele>
        <time>2011-11-11T11:23:27Z</time>
      </trkpt>
      <trkpt lat="45.87107" lon="4.78394">
        <ele>312.6</ele>
        <time>2011-11-11T11:23:28Z</time>
      </trkpt>
      <trkpt lat="45.87116" lon="4.78385">
        <ele>311</ele>
        <time>2011-11-11T11:23:32Z</time>
      </trkpt>
      <trkpt lat="45.87124" lon="4.78379">
        <ele>309.8</ele>
        <time>2011-11-11T11:23:35Z</time>
      </trkpt>
      <trkpt lat="45.87124" lon="4.7837">
        <ele>309.2</ele>
        <time>2011-11-11T11:23:37Z</time>
      </trkpt>
      <trkpt lat="45.87132" lon="4.78356">
        <ele>307.4</ele>
        <time>2011-11-11T11:23:42Z</time>
      </trkpt>
      <trkpt lat="45.87136" lon="4.78353">
        <ele>306.8</ele>
        <time>2011-11-11T11:23:44Z</time>
      </trkpt>
      <trkpt lat="45.8715" lon="4.78348">
        <ele>305.2</ele>
        <time>2011-11-11T11:23:49Z</time>
      </trkpt>
      <trkpt lat="45.87153" lon="4.78347">
        <ele>304.6</ele>
        <time>2011-11-11T11:23:51Z</time>
      </trkpt>
      <trkpt lat="45.87155" lon="4.78346">
        <ele>304.4</ele>
        <time>2011-11-11T11:23:52Z</time>
      </trkpt>
      <trkpt lat="45.87159" lon="4.78342">
        <ele>303.8</ele>
        <time>2011-11-11T11:23:54Z</time>
      </trkpt>
      <trkpt lat="45.87162" lon="4.78336">
        <ele>303.2</ele>
        <time>2011-11-11T11:23:56Z</time>
      </trkpt>
      <trkpt lat="45.87163" lon="4.78327">
        <ele>302.4</ele>
        <time>2011-11-11T11:23:59Z</time>
      </trkpt>
      <trkpt lat="45.87163" lon="4.78325">
        <ele>302</ele>
        <time>2011-11-11T11:24:00Z</time>
      </trkpt>
      <trkpt lat="45.87163" lon="4.78306">
        <ele>300.4</ele>
        <time>2011-11-11T11:24:06Z</time>
      </trkpt>
      <trkpt lat="45.87164" lon="4.78303">
        <ele>298.8</ele>
        <time>2011-11-11T11:24:11Z</time>
      </trkpt>
      <trkpt lat="45.87166" lon="4.78304">
        <ele>298.4</ele>
        <time>2011-11-11T11:24:12Z</time>
      </trkpt>
      <trkpt lat="45.87167" lon="4.78305">
        <ele>297.8</ele>
        <time>2011-11-11T11:24:14Z</time>
      </trkpt>
      <trkpt lat="45.87169" lon="4.78304">
        <ele>296.6</ele>
        <time>2011-11-11T11:24:18Z</time>
      </trkpt>
      <trkpt lat="45.87168" lon="4.7829">
        <ele>295</ele>
        <time>2011-11-11T11:24:23Z</time>
      </trkpt>
      <trkpt lat="45.87168" lon="4.78285">
        <ele>294.8</ele>
        <time>2011-11-11T11:24:24Z</time>
      </trkpt>
      <trkpt lat="45.87168" lon="4.7827">
        <ele>293.6</ele>
        <time>2011-11-11T11:24:28Z</time>
      </trkpt>
      <trkpt lat="45.87168" lon="4.78258">
        <ele>292.8</ele>
        <time>2011-11-11T11:24:31Z</time>
      </trkpt>
      <trkpt lat="45.87169" lon="4.78246">
        <ele>292</ele>
        <time>2011-11-11T11:24:34Z</time>
      </trkpt>
      <trkpt lat="45.87172" lon="4.78232">
        <ele>291.4</ele>
        <time>2011-11-11T11:24:37Z</time>
      </trkpt>
      <trkpt lat="45.87175" lon="4.7822">
        <ele>290.6</ele>
        <time>2011-11-11T11:24:40Z</time>
      </trkpt>
      <trkpt lat="45.87175" lon="4.78204">
        <ele>289.6</ele>
        <time>2011-11-11T11:24:44Z</time>
      </trkpt>
      <trkpt lat="45.87173" lon="4.78196">
        <ele>289.2</ele>
        <time>2011-11-11T11:24:46Z</time>
      </trkpt>
      <trkpt lat="45.87171" lon="4.78179">
        <ele>288</ele>
        <time>2011-11-11T11:24:51Z</time>
      </trkpt>
      <trkpt lat="45.87169" lon="4.78175">
        <ele>287.8</ele>
        <time>2011-11-11T11:24:52Z</time>
      </trkpt>
      <trkpt lat="45.8717" lon="4.78172">
        <ele>287.6</ele>
        <time>2011-11-11T11:24:53Z</time>
      </trkpt>
      <trkpt lat="45.8717" lon="4.7816">
        <ele>287</ele>
        <time>2011-11-11T11:24:56Z</time>
      </trkpt>
      <trkpt lat="45.87171" lon="4.78158">
        <ele>286.8</ele>
        <time>2011-11-11T11:24:57Z</time>
      </trkpt>
      <trkpt lat="45.87177" lon="4.78151">
        <ele>286.4</ele>
        <time>2011-11-11T11:25:00Z</time>
      </trkpt>
      <trkpt lat="45.87178" lon="4.78148">
        <ele>286.2</ele>
        <time>2011-11-11T11:25:01Z</time>
      </trkpt>
      <trkpt lat="45.8719" lon="4.78135">
        <ele>285</ele>
        <time>2011-11-11T11:25:07Z</time>
      </trkpt>
      <trkpt lat="45.87192" lon="4.78133">
        <ele>284.8</ele>
        <time>2011-11-11T11:25:08Z</time>
      </trkpt>
      <trkpt lat="45.87195" lon="4.78129">
        <ele>284.4</ele>
        <time>2011-11-11T11:25:10Z</time>
      </trkpt>
      <trkpt lat="45.87201" lon="4.78124">
        <ele>284</ele>
        <time>2011-11-11T11:25:13Z</time>
      </trkpt>
      <trkpt lat="45.87206" lon="4.78117">
        <ele>283.4</ele>
        <time>2011-11-11T11:25:16Z</time>
      </trkpt>
      <trkpt lat="45.87207" lon="4.78114">
        <ele>283.2</ele>
        <time>2011-11-11T11:25:17Z</time>
      </trkpt>
      <trkpt lat="45.87209" lon="4.7811">
        <ele>282.8</ele>
        <time>2011-11-11T11:25:19Z</time>
      </trkpt>
      <trkpt lat="45.87215" lon="4.78105">
        <ele>282.4</ele>
        <time>2011-11-11T11:25:22Z</time>
      </trkpt>
      <trkpt lat="45.87219" lon="4.781">
        <ele>282</ele>
        <time>2011-11-11T11:25:24Z</time>
      </trkpt>
      <trkpt lat="45.87224" lon="4.78098">
        <ele>281.6</ele>
        <time>2011-11-11T11:25:26Z</time>
      </trkpt>
      <trkpt lat="45.87235" lon="4.78092">
        <ele>280.8</ele>
        <time>2011-11-11T11:25:30Z</time>
      </trkpt>
      <trkpt lat="45.87241" lon="4.78087">
        <ele>280.2</ele>
        <time>2011-11-11T11:25:33Z</time>
      </trkpt>
      <trkpt lat="45.87248" lon="4.78084">
        <ele>279.4</ele>
        <time>2011-11-11T11:25:36Z</time>
      </trkpt>
      <trkpt lat="45.87257" lon="4.78074">
        <ele>278</ele>
        <time>2011-11-11T11:25:42Z</time>
      </trkpt>
      <trkpt lat="45.87259" lon="4.78072">
        <ele>277.8</ele>
        <time>2011-11-11T11:25:43Z</time>
      </trkpt>
      <trkpt lat="45.87266" lon="4.78063">
        <ele>276.8</ele>
        <time>2011-11-11T11:25:47Z</time>
      </trkpt>
      <trkpt lat="45.87273" lon="4.78053">
        <ele>276</ele>
        <time>2011-11-11T11:25:51Z</time>
      </trkpt>
      <trkpt lat="45.87278" lon="4.78047">
        <ele>275.4</ele>
        <time>2011-11-11T11:25:54Z</time>
      </trkpt>
      <trkpt lat="45.87282" lon="4.7804">
        <ele>274.8</ele>
        <time>2011-11-11T11:25:57Z</time>
      </trkpt>
      <trkpt lat="45.87284" lon="4.78035">
        <ele>274.8</ele>
        <time>2011-11-11T11:25:58Z</time>
      </trkpt>
      <trkpt lat="45.87285" lon="4.78031">
        <ele>274.6</ele>
        <time>2011-11-11T11:25:59Z</time>
      </trkpt>
      <trkpt lat="45.87288" lon="4.78015">
        <ele>274.2</ele>
        <time>2011-11-11T11:26:03Z</time>
      </trkpt>
      <trkpt lat="45.87292" lon="4.78003">
        <ele>274</ele>
        <time>2011-11-11T11:26:06Z</time>
      </trkpt>
      <trkpt lat="45.87293" lon="4.77991">
        <ele>273.8</ele>
        <time>2011-11-11T11:26:10Z</time>
      </trkpt>
      <trkpt lat="45.87292" lon="4.77975">
        <ele>273.6</ele>
        <time>2011-11-11T11:26:15Z</time>
      </trkpt>
      <trkpt lat="45.87292" lon="4.77969">
        <ele>273.4</ele>
        <time>2011-11-11T11:26:17Z</time>
      </trkpt>
      <trkpt lat="45.87289" lon="4.77952">
        <ele>273.2</ele>
        <time>2011-11-11T11:26:22Z</time>
      </trkpt>
      <trkpt lat="45.87289" lon="4.77949">
        <ele>273.2</ele>
        <time>2011-11-11T11:26:23Z</time>
      </trkpt>
      <trkpt lat="45.87288" lon="4.77936">
        <ele>273</ele>
        <time>2011-11-11T11:26:27Z</time>
      </trkpt>
      <trkpt lat="45.87285" lon="4.77921">
        <ele>272.8</ele>
        <time>2011-11-11T11:26:32Z</time>
      </trkpt>
      <trkpt lat="45.87284" lon="4.77914">
        <ele>272.6</ele>
        <time>2011-11-11T11:26:34Z</time>
      </trkpt>
      <trkpt lat="45.87281" lon="4.77896">
        <ele>272.4</ele>
        <time>2011-11-11T11:26:39Z</time>
      </trkpt>
      <trkpt lat="45.8728" lon="4.77892">
        <ele>272.4</ele>
        <time>2011-11-11T11:26:40Z</time>
      </trkpt>
      <trkpt lat="45.87278" lon="4.77878">
        <ele>272.2</ele>
        <time>2011-11-11T11:26:44Z</time>
      </trkpt>
      <trkpt lat="45.87276" lon="4.7787">
        <ele>272</ele>
        <time>2011-11-11T11:26:46Z</time>
      </trkpt>
      <trkpt lat="45.87272" lon="4.77852">
        <ele>271.6</ele>
        <time>2011-11-11T11:26:51Z</time>
      </trkpt>
      <trkpt lat="45.87271" lon="4.77842">
        <ele>271.4</ele>
        <time>2011-11-11T11:26:54Z</time>
      </trkpt>
      <trkpt lat="45.8727" lon="4.77831">
        <ele>271.2</ele>
        <time>2011-11-11T11:26:57Z</time>
      </trkpt>
      <trkpt lat="45.87271" lon="4.77813">
        <ele>270.8</ele>
        <time>2011-11-11T11:27:01Z</time>
      </trkpt>
      <trkpt lat="45.87272" lon="4.77809">
        <ele>270.8</ele>
        <time>2011-11-11T11:27:02Z</time>
      </trkpt>
      <trkpt lat="45.87275" lon="4.77787">
        <ele>270.4</ele>
        <time>2011-11-11T11:27:07Z</time>
      </trkpt>
      <trkpt lat="45.87276" lon="4.77762">
        <ele>270</ele>
        <time>2011-11-11T11:27:13Z</time>
      </trkpt>
      <trkpt lat="45.87277" lon="4.77758">
        <ele>270</ele>
        <time>2011-11-11T11:27:14Z</time>
      </trkpt>
      <trkpt lat="45.87275" lon="4.77737">
        <ele>269.6</ele>
        <time>2011-11-11T11:27:19Z</time>
      </trkpt>
      <trkpt lat="45.87274" lon="4.77732">
        <ele>269.6</ele>
        <time>2011-11-11T11:27:20Z</time>
      </trkpt>
      <trkpt lat="45.87272" lon="4.77704">
        <ele>269</ele>
        <time>2011-11-11T11:27:27Z</time>
      </trkpt>
      <trkpt lat="45.87271" lon="4.7768">
        <ele>268.4</ele>
        <time>2011-11-11T11:27:33Z</time>
      </trkpt>
      <trkpt lat="45.87271" lon="4.77676">
        <ele>268.4</ele>
        <time>2011-11-11T11:27:34Z</time>
      </trkpt>
      <trkpt lat="45.87268" lon="4.77651">
        <ele>267.8</ele>
        <time>2011-11-11T11:27:40Z</time>
      </trkpt>
      <trkpt lat="45.87268" lon="4.77647">
        <ele>267.6</ele>
        <time>2011-11-11T11:27:41Z</time>
      </trkpt>
      <trkpt lat="45.87264" lon="4.7762">
        <ele>266.8</ele>
        <time>2011-11-11T11:27:48Z</time>
      </trkpt>
      <trkpt lat="45.87261" lon="4.77599">
        <ele>266.2</ele>
        <time>2011-11-11T11:27:53Z</time>
      </trkpt>
      <trkpt lat="45.87261" lon="4.77595">
        <ele>266</ele>
        <time>2011-11-11T11:27:54Z</time>
      </trkpt>
      <trkpt lat="45.87264" lon="4.77574">
        <ele>265.2</ele>
        <time>2011-11-11T11:27:59Z</time>
      </trkpt>
      <trkpt lat="45.87266" lon="4.77571">
        <ele>265.2</ele>
        <time>2011-11-11T11:28:00Z</time>
      </trkpt>
      <trkpt lat="45.87277" lon="4.77561">
        <ele>264.6</ele>
        <time>2011-11-11T11:28:04Z</time>
      </trkpt>
      <trkpt lat="45.87282" lon="4.77555">
        <ele>264.2</ele>
        <time>2011-11-11T11:28:06Z</time>
      </trkpt>
      <trkpt lat="45.87295" lon="4.77537">
        <ele>263.2</ele>
        <time>2011-11-11T11:28:12Z</time>
      </trkpt>
      <trkpt lat="45.87297" lon="4.77534">
        <ele>263</ele>
        <time>2011-11-11T11:28:13Z</time>
      </trkpt>
      <trkpt lat="45.873" lon="4.7752">
        <ele>262.4</ele>
        <time>2011-11-11T11:28:17Z</time>
      </trkpt>
      <trkpt lat="45.873" lon="4.77507">
        <ele>261.8</ele>
        <time>2011-11-11T11:28:20Z</time>
      </trkpt>
      <trkpt lat="45.87299" lon="4.77495">
        <ele>261.2</ele>
        <time>2011-11-11T11:28:23Z</time>
      </trkpt>
      <trkpt lat="45.87297" lon="4.77479">
        <ele>260.4</ele>
        <time>2011-11-11T11:28:27Z</time>
      </trkpt>
      <trkpt lat="45.87296" lon="4.77471">
        <ele>260.2</ele>
        <time>2011-11-11T11:28:29Z</time>
      </trkpt>
      <trkpt lat="45.87295" lon="4.77451">
        <ele>259.2</ele>
        <time>2011-11-11T11:28:34Z</time>
      </trkpt>
      <trkpt lat="45.87295" lon="4.77442">
        <ele>258.8</ele>
        <time>2011-11-11T11:28:36Z</time>
      </trkpt>
      <trkpt lat="45.87295" lon="4.77423">
        <ele>258</ele>
        <time>2011-11-11T11:28:41Z</time>
      </trkpt>
      <trkpt lat="45.87295" lon="4.77415">
        <ele>257.8</ele>
        <time>2011-11-11T11:28:43Z</time>
      </trkpt>
      <trkpt lat="45.87296" lon="4.77398">
        <ele>257.2</ele>
        <time>2011-11-11T11:28:47Z</time>
      </trkpt>
      <trkpt lat="45.87296" lon="4.77393">
        <ele>257</ele>
        <time>2011-11-11T11:28:48Z</time>
      </trkpt>
      <trkpt lat="45.87295" lon="4.77373">
        <ele>256.4</ele>
        <time>2011-11-11T11:28:53Z</time>
      </trkpt>
      <trkpt lat="45.87294" lon="4.7735">
        <ele>255.8</ele>
        <time>2011-11-11T11:28:58Z</time>
      </trkpt>
      <trkpt lat="45.87295" lon="4.77347">
        <ele>255.6</ele>
        <time>2011-11-11T11:28:59Z</time>
      </trkpt>
      <trkpt lat="45.87296" lon="4.77329">
        <ele>255</ele>
        <time>2011-11-11T11:29:04Z</time>
      </trkpt>
      <trkpt lat="45.87295" lon="4.77325">
        <ele>254.8</ele>
        <time>2011-11-11T11:29:05Z</time>
      </trkpt>
      <trkpt lat="45.87295" lon="4.7732">
        <ele>254.8</ele>
        <time>2011-11-11T11:29:06Z</time>
      </trkpt>
      <trkpt lat="45.87296" lon="4.77316">
        <ele>254.6</ele>
        <time>2011-11-11T11:29:07Z</time>
      </trkpt>
      <trkpt lat="45.87303" lon="4.77298">
        <ele>254</ele>
        <time>2011-11-11T11:29:12Z</time>
      </trkpt>
      <trkpt lat="45.87303" lon="4.77294">
        <ele>253.8</ele>
        <time>2011-11-11T11:29:13Z</time>
      </trkpt>
      <trkpt lat="45.87305" lon="4.7728">
        <ele>253.6</ele>
        <time>2011-11-11T11:29:16Z</time>
      </trkpt>
      <trkpt lat="45.87306" lon="4.77277">
        <ele>253.4</ele>
        <time>2011-11-11T11:29:17Z</time>
      </trkpt>
      <trkpt lat="45.87308" lon="4.77266">
        <ele>253.2</ele>
        <time>2011-11-11T11:29:20Z</time>
      </trkpt>
      <trkpt lat="45.87309" lon="4.77251">
        <ele>253</ele>
        <time>2011-11-11T11:29:24Z</time>
      </trkpt>
      <trkpt lat="45.8731" lon="4.7724">
        <ele>252.6</ele>
        <time>2011-11-11T11:29:27Z</time>
      </trkpt>
      <trkpt lat="45.87311" lon="4.77237">
        <ele>252.4</ele>
        <time>2011-11-11T11:29:28Z</time>
      </trkpt>
      <trkpt lat="45.87318" lon="4.77233">
        <ele>252</ele>
        <time>2011-11-11T11:29:32Z</time>
      </trkpt>
      <trkpt lat="45.8732" lon="4.77233">
        <ele>251.8</ele>
        <time>2011-11-11T11:29:33Z</time>
      </trkpt>
      <trkpt lat="45.87322" lon="4.77232">
        <ele>251.6</ele>
        <time>2011-11-11T11:29:34Z</time>
      </trkpt>
      <trkpt lat="45.87327" lon="4.77228">
        <ele>251.4</ele>
        <time>2011-11-11T11:29:36Z</time>
      </trkpt>
      <trkpt lat="45.87338" lon="4.77219">
        <ele>250.8</ele>
        <time>2011-11-11T11:29:40Z</time>
      </trkpt>
      <trkpt lat="45.87345" lon="4.77217">
        <ele>250.6</ele>
        <time>2011-11-11T11:29:43Z</time>
      </trkpt>
      <trkpt lat="45.87347" lon="4.77217">
        <ele>250.4</ele>
        <time>2011-11-11T11:29:44Z</time>
      </trkpt>
      <trkpt lat="45.87359" lon="4.77217">
        <ele>250.4</ele>
        <time>2011-11-11T11:29:49Z</time>
      </trkpt>
      <trkpt lat="45.87363" lon="4.77216">
        <ele>250.2</ele>
        <time>2011-11-11T11:29:51Z</time>
      </trkpt>
      <trkpt lat="45.87369" lon="4.7721">
        <ele>250.2</ele>
        <time>2011-11-11T11:29:54Z</time>
      </trkpt>
      <trkpt lat="45.87374" lon="4.77202">
        <ele>250.8</ele>
        <time>2011-11-11T11:29:58Z</time>
      </trkpt>
      <trkpt lat="45.87372" lon="4.77199">
        <ele>251</ele>
        <time>2011-11-11T11:29:59Z</time>
      </trkpt>
      <trkpt lat="45.8737" lon="4.77197">
        <ele>251.2</ele>
        <time>2011-11-11T11:30:00Z</time>
      </trkpt>
      <trkpt lat="45.87367" lon="4.77192">
        <ele>252</ele>
        <time>2011-11-11T11:30:02Z</time>
      </trkpt>
      <trkpt lat="45.87362" lon="4.77187">
        <ele>252</ele>
        <time>2011-11-11T11:30:04Z</time>
      </trkpt>
      <trkpt lat="45.8736" lon="4.77185">
        <ele>252.4</ele>
        <time>2011-11-11T11:30:05Z</time>
      </trkpt>
      <trkpt lat="45.87358" lon="4.77176">
        <ele>252.2</ele>
        <time>2011-11-11T11:30:07Z</time>
      </trkpt>
      <trkpt lat="45.87359" lon="4.77171">
        <ele>252.2</ele>
        <time>2011-11-11T11:30:08Z</time>
      </trkpt>
      <trkpt lat="45.87357" lon="4.77153">
        <ele>251.8</ele>
        <time>2011-11-11T11:30:13Z</time>
      </trkpt>
      <trkpt lat="45.87355" lon="4.77147">
        <ele>251.8</ele>
        <time>2011-11-11T11:30:15Z</time>
      </trkpt>
      <trkpt lat="45.87354" lon="4.77135">
        <ele>251.4</ele>
        <time>2011-11-11T11:30:18Z</time>
      </trkpt>
      <trkpt lat="45.87353" lon="4.77121">
        <ele>251.2</ele>
        <time>2011-11-11T11:30:21Z</time>
      </trkpt>
      <trkpt lat="45.87349" lon="4.77111">
        <ele>250.8</ele>
        <time>2011-11-11T11:30:23Z</time>
      </trkpt>
      <trkpt lat="45.8735" lon="4.77094">
        <ele>250.4</ele>
        <time>2011-11-11T11:30:27Z</time>
      </trkpt>
      <trkpt lat="45.87349" lon="4.7709">
        <ele>250.2</ele>
        <time>2011-11-11T11:30:28Z</time>
      </trkpt>
    </trkseg>
  </trk>
</gpx>